<?xml version="1.0" encoding="UTF-8" standalone="no" ?>
<gpx xmlns="http://www.topografix.com/GPX/1/1" xmlns:xsi="http://www.w3.org/2001/XMLSchema-instance" xsi:schemaLocation="http://www.topografix.com/GPX/1/1 http://www.topografix.com/GPX/1/1/gpx.xsd" version="1.1" creator="VisuGPX - https://www.visugpx.com">
  <metadata>
    <name>Speciale DG</name>
    <desc><![CDATA[New single sous le Granier]]></desc>
  </metadata>
  <trk>
    <name><![CDATA[Speciale DG_1]]></name>
    <trkseg>
      <trkpt lat="45.46317" lon="5.99116">
        <ele>300.12762451172</ele>
        <time>2015-08-12T17:41:10.000Z</time>
      </trkpt>
      <trkpt lat="45.46318" lon="5.99116">
        <ele>299.72702026367</ele>
        <time>2015-08-12T17:41:16.000Z</time>
      </trkpt>
      <trkpt lat="45.46319" lon="5.99115">
        <ele>297.38674926758</ele>
        <time>2015-08-12T17:41:20.000Z</time>
      </trkpt>
      <trkpt lat="45.46319" lon="5.99113">
        <ele>296.74569702148</ele>
        <time>2015-08-12T17:41:34.000Z</time>
      </trkpt>
      <trkpt lat="45.4632" lon="5.99111">
        <ele>294.14367675781</ele>
        <time>2015-08-12T17:41:46.000Z</time>
      </trkpt>
      <trkpt lat="45.46321" lon="5.99112">
        <ele>292.92541503906</ele>
        <time>2015-08-12T17:41:49.000Z</time>
      </trkpt>
      <trkpt lat="45.46321" lon="5.99112">
        <ele>293.45324707031</ele>
        <time>2015-08-12T17:41:54.000Z</time>
      </trkpt>
      <trkpt lat="45.46321" lon="5.99112">
        <ele>288.37524414062</ele>
        <time>2015-08-12T17:42:14.000Z</time>
      </trkpt>
      <trkpt lat="45.4632" lon="5.99111">
        <ele>296.68539428711</ele>
        <time>2015-08-12T17:42:49.000Z</time>
      </trkpt>
      <trkpt lat="45.46319" lon="5.99108">
        <ele>297.21170043945</ele>
        <time>2015-08-12T17:42:52.000Z</time>
      </trkpt>
      <trkpt lat="45.4632" lon="5.99104">
        <ele>297.19052124023</ele>
        <time>2015-08-12T17:42:55.000Z</time>
      </trkpt>
      <trkpt lat="45.46323" lon="5.99102">
        <ele>297.4375</ele>
        <time>2015-08-12T17:42:58.000Z</time>
      </trkpt>
      <trkpt lat="45.46326" lon="5.991">
        <ele>297.34899902344</ele>
        <time>2015-08-12T17:43:01.000Z</time>
      </trkpt>
      <trkpt lat="45.46329" lon="5.99098">
        <ele>297.27783203125</ele>
        <time>2015-08-12T17:43:03.000Z</time>
      </trkpt>
      <trkpt lat="45.46331" lon="5.99092">
        <ele>296.60083007812</ele>
        <time>2015-08-12T17:43:06.000Z</time>
      </trkpt>
      <trkpt lat="45.46333" lon="5.99084">
        <ele>296.15939331055</ele>
        <time>2015-08-12T17:43:09.000Z</time>
      </trkpt>
      <trkpt lat="45.46334" lon="5.99076">
        <ele>296.90093994141</ele>
        <time>2015-08-12T17:43:12.000Z</time>
      </trkpt>
      <trkpt lat="45.46335" lon="5.99069">
        <ele>296.1559753418</ele>
        <time>2015-08-12T17:43:14.000Z</time>
      </trkpt>
      <trkpt lat="45.46336" lon="5.9906">
        <ele>295.10177612305</ele>
        <time>2015-08-12T17:43:17.000Z</time>
      </trkpt>
      <trkpt lat="45.46337" lon="5.99054">
        <ele>295.04364013672</ele>
        <time>2015-08-12T17:43:19.000Z</time>
      </trkpt>
      <trkpt lat="45.46339" lon="5.99046">
        <ele>296.06408691406</ele>
        <time>2015-08-12T17:43:22.000Z</time>
      </trkpt>
      <trkpt lat="45.46342" lon="5.9904">
        <ele>296.59927368164</ele>
        <time>2015-08-12T17:43:25.000Z</time>
      </trkpt>
      <trkpt lat="45.46347" lon="5.99038">
        <ele>296.54528808594</ele>
        <time>2015-08-12T17:43:27.000Z</time>
      </trkpt>
      <trkpt lat="45.46353" lon="5.99037">
        <ele>296.5260925293</ele>
        <time>2015-08-12T17:43:29.000Z</time>
      </trkpt>
      <trkpt lat="45.46362" lon="5.99036">
        <ele>297.04635620117</ele>
        <time>2015-08-12T17:43:33.000Z</time>
      </trkpt>
      <trkpt lat="45.4637" lon="5.99035">
        <ele>297.02941894531</ele>
        <time>2015-08-12T17:43:36.000Z</time>
      </trkpt>
      <trkpt lat="45.46375" lon="5.99034">
        <ele>298.06329345703</ele>
        <time>2015-08-12T17:43:38.000Z</time>
      </trkpt>
      <trkpt lat="45.46384" lon="5.99032">
        <ele>297.23522949219</ele>
        <time>2015-08-12T17:43:41.000Z</time>
      </trkpt>
      <trkpt lat="45.46391" lon="5.9903">
        <ele>296.28787231445</ele>
        <time>2015-08-12T17:43:43.000Z</time>
      </trkpt>
      <trkpt lat="45.46397" lon="5.99023">
        <ele>295.52969360352</ele>
        <time>2015-08-12T17:43:46.000Z</time>
      </trkpt>
      <trkpt lat="45.46398" lon="5.99009">
        <ele>295.09893798828</ele>
        <time>2015-08-12T17:43:49.000Z</time>
      </trkpt>
      <trkpt lat="45.46398" lon="5.99001">
        <ele>294.60406494141</ele>
        <time>2015-08-12T17:43:51.000Z</time>
      </trkpt>
      <trkpt lat="45.46397" lon="5.98994">
        <ele>294.16195678711</ele>
        <time>2015-08-12T17:43:53.000Z</time>
      </trkpt>
      <trkpt lat="45.46397" lon="5.98988">
        <ele>293.81484985352</ele>
        <time>2015-08-12T17:43:55.000Z</time>
      </trkpt>
      <trkpt lat="45.46396" lon="5.98981">
        <ele>293.90612792969</ele>
        <time>2015-08-12T17:43:57.000Z</time>
      </trkpt>
      <trkpt lat="45.46395" lon="5.98974">
        <ele>293.76678466797</ele>
        <time>2015-08-12T17:43:59.000Z</time>
      </trkpt>
      <trkpt lat="45.46394" lon="5.98964">
        <ele>293.47396850586</ele>
        <time>2015-08-12T17:44:02.000Z</time>
      </trkpt>
      <trkpt lat="45.46393" lon="5.98954">
        <ele>294.03701782227</ele>
        <time>2015-08-12T17:44:05.000Z</time>
      </trkpt>
      <trkpt lat="45.46392" lon="5.98948">
        <ele>294.50765991211</ele>
        <time>2015-08-12T17:44:07.000Z</time>
      </trkpt>
      <trkpt lat="45.46391" lon="5.98938">
        <ele>295.24160766602</ele>
        <time>2015-08-12T17:44:10.000Z</time>
      </trkpt>
      <trkpt lat="45.4639" lon="5.98932">
        <ele>295.78811645508</ele>
        <time>2015-08-12T17:44:12.000Z</time>
      </trkpt>
      <trkpt lat="45.46389" lon="5.98926">
        <ele>295.96487426758</ele>
        <time>2015-08-12T17:44:14.000Z</time>
      </trkpt>
      <trkpt lat="45.46387" lon="5.98916">
        <ele>296.24154663086</ele>
        <time>2015-08-12T17:44:17.000Z</time>
      </trkpt>
      <trkpt lat="45.46387" lon="5.9891">
        <ele>296.59628295898</ele>
        <time>2015-08-12T17:44:19.000Z</time>
      </trkpt>
      <trkpt lat="45.46386" lon="5.98899">
        <ele>297.27648925781</ele>
        <time>2015-08-12T17:44:22.000Z</time>
      </trkpt>
      <trkpt lat="45.46385" lon="5.98893">
        <ele>297.3681640625</ele>
        <time>2015-08-12T17:44:24.000Z</time>
      </trkpt>
      <trkpt lat="45.46384" lon="5.98882">
        <ele>296.80462646484</ele>
        <time>2015-08-12T17:44:27.000Z</time>
      </trkpt>
      <trkpt lat="45.46384" lon="5.98874">
        <ele>296.14321899414</ele>
        <time>2015-08-12T17:44:29.000Z</time>
      </trkpt>
      <trkpt lat="45.46383" lon="5.98865">
        <ele>295.95736694336</ele>
        <time>2015-08-12T17:44:32.000Z</time>
      </trkpt>
      <trkpt lat="45.46382" lon="5.98857">
        <ele>295.59405517578</ele>
        <time>2015-08-12T17:44:34.000Z</time>
      </trkpt>
      <trkpt lat="45.46381" lon="5.98847">
        <ele>295.64605712891</ele>
        <time>2015-08-12T17:44:37.000Z</time>
      </trkpt>
      <trkpt lat="45.46381" lon="5.98841">
        <ele>295.5032043457</ele>
        <time>2015-08-12T17:44:39.000Z</time>
      </trkpt>
      <trkpt lat="45.46381" lon="5.98832">
        <ele>295.5244140625</ele>
        <time>2015-08-12T17:44:42.000Z</time>
      </trkpt>
      <trkpt lat="45.46381" lon="5.98825">
        <ele>295.54406738281</ele>
        <time>2015-08-12T17:44:44.000Z</time>
      </trkpt>
      <trkpt lat="45.46381" lon="5.98815">
        <ele>296.1682434082</ele>
        <time>2015-08-12T17:44:47.000Z</time>
      </trkpt>
      <trkpt lat="45.4638" lon="5.98808">
        <ele>296.5227355957</ele>
        <time>2015-08-12T17:44:49.000Z</time>
      </trkpt>
      <trkpt lat="45.46379" lon="5.98801">
        <ele>296.60974121094</ele>
        <time>2015-08-12T17:44:51.000Z</time>
      </trkpt>
      <trkpt lat="45.46378" lon="5.98794">
        <ele>297.11032104492</ele>
        <time>2015-08-12T17:44:53.000Z</time>
      </trkpt>
      <trkpt lat="45.46377" lon="5.98787">
        <ele>297.80688476562</ele>
        <time>2015-08-12T17:44:55.000Z</time>
      </trkpt>
      <trkpt lat="45.46375" lon="5.98777">
        <ele>298.33865356445</ele>
        <time>2015-08-12T17:44:58.000Z</time>
      </trkpt>
      <trkpt lat="45.46375" lon="5.98771">
        <ele>298.68057250977</ele>
        <time>2015-08-12T17:45:00.000Z</time>
      </trkpt>
      <trkpt lat="45.46372" lon="5.98761">
        <ele>299.24502563477</ele>
        <time>2015-08-12T17:45:03.000Z</time>
      </trkpt>
      <trkpt lat="45.4637" lon="5.98755">
        <ele>299.51116943359</ele>
        <time>2015-08-12T17:45:05.000Z</time>
      </trkpt>
      <trkpt lat="45.46368" lon="5.98749">
        <ele>299.74868774414</ele>
        <time>2015-08-12T17:45:07.000Z</time>
      </trkpt>
      <trkpt lat="45.46366" lon="5.98741">
        <ele>300.00952148438</ele>
        <time>2015-08-12T17:45:10.000Z</time>
      </trkpt>
      <trkpt lat="45.46365" lon="5.98735">
        <ele>300.01388549805</ele>
        <time>2015-08-12T17:45:12.000Z</time>
      </trkpt>
      <trkpt lat="45.46363" lon="5.98727">
        <ele>300.755859375</ele>
        <time>2015-08-12T17:45:15.000Z</time>
      </trkpt>
      <trkpt lat="45.46362" lon="5.98721">
        <ele>301.34246826172</ele>
        <time>2015-08-12T17:45:17.000Z</time>
      </trkpt>
      <trkpt lat="45.4636" lon="5.98716">
        <ele>302.02117919922</ele>
        <time>2015-08-12T17:45:19.000Z</time>
      </trkpt>
      <trkpt lat="45.46359" lon="5.98711">
        <ele>302.69479370117</ele>
        <time>2015-08-12T17:45:21.000Z</time>
      </trkpt>
      <trkpt lat="45.46357" lon="5.98706">
        <ele>303.02276611328</ele>
        <time>2015-08-12T17:45:23.000Z</time>
      </trkpt>
      <trkpt lat="45.46356" lon="5.98698">
        <ele>302.73559570312</ele>
        <time>2015-08-12T17:45:26.000Z</time>
      </trkpt>
      <trkpt lat="45.46355" lon="5.98692">
        <ele>303.0915222168</ele>
        <time>2015-08-12T17:45:28.000Z</time>
      </trkpt>
      <trkpt lat="45.46354" lon="5.98687">
        <ele>303.58148193359</ele>
        <time>2015-08-12T17:45:30.000Z</time>
      </trkpt>
      <trkpt lat="45.46353" lon="5.98682">
        <ele>304.34375</ele>
        <time>2015-08-12T17:45:32.000Z</time>
      </trkpt>
      <trkpt lat="45.46351" lon="5.98675">
        <ele>305.42105102539</ele>
        <time>2015-08-12T17:45:35.000Z</time>
      </trkpt>
      <trkpt lat="45.46349" lon="5.98668">
        <ele>306.23699951172</ele>
        <time>2015-08-12T17:45:38.000Z</time>
      </trkpt>
      <trkpt lat="45.46348" lon="5.98663">
        <ele>306.63543701172</ele>
        <time>2015-08-12T17:45:40.000Z</time>
      </trkpt>
      <trkpt lat="45.46347" lon="5.98655">
        <ele>307.49871826172</ele>
        <time>2015-08-12T17:45:43.000Z</time>
      </trkpt>
      <trkpt lat="45.46346" lon="5.98647">
        <ele>307.57974243164</ele>
        <time>2015-08-12T17:45:46.000Z</time>
      </trkpt>
      <trkpt lat="45.46346" lon="5.98642">
        <ele>307.33276367188</ele>
        <time>2015-08-12T17:45:48.000Z</time>
      </trkpt>
      <trkpt lat="45.46346" lon="5.98634">
        <ele>307.58135986328</ele>
        <time>2015-08-12T17:45:51.000Z</time>
      </trkpt>
      <trkpt lat="45.46345" lon="5.98626">
        <ele>307.76931762695</ele>
        <time>2015-08-12T17:45:54.000Z</time>
      </trkpt>
      <trkpt lat="45.46345" lon="5.98619">
        <ele>308.32333374023</ele>
        <time>2015-08-12T17:45:57.000Z</time>
      </trkpt>
      <trkpt lat="45.46345" lon="5.98614">
        <ele>308.61715698242</ele>
        <time>2015-08-12T17:45:59.000Z</time>
      </trkpt>
      <trkpt lat="45.46345" lon="5.98609">
        <ele>308.93325805664</ele>
        <time>2015-08-12T17:46:01.000Z</time>
      </trkpt>
      <trkpt lat="45.46345" lon="5.98602">
        <ele>309.42330932617</ele>
        <time>2015-08-12T17:46:04.000Z</time>
      </trkpt>
      <trkpt lat="45.46344" lon="5.98595">
        <ele>310.06997680664</ele>
        <time>2015-08-12T17:46:07.000Z</time>
      </trkpt>
      <trkpt lat="45.46345" lon="5.98588">
        <ele>310.92340087891</ele>
        <time>2015-08-12T17:46:10.000Z</time>
      </trkpt>
      <trkpt lat="45.46345" lon="5.98581">
        <ele>311.94378662109</ele>
        <time>2015-08-12T17:46:13.000Z</time>
      </trkpt>
      <trkpt lat="45.46345" lon="5.98577">
        <ele>312.34103393555</ele>
        <time>2015-08-12T17:46:15.000Z</time>
      </trkpt>
      <trkpt lat="45.46345" lon="5.98573">
        <ele>312.79415893555</ele>
        <time>2015-08-12T17:46:17.000Z</time>
      </trkpt>
      <trkpt lat="45.46346" lon="5.98567">
        <ele>313.46249389648</ele>
        <time>2015-08-12T17:46:20.000Z</time>
      </trkpt>
      <trkpt lat="45.46347" lon="5.9856">
        <ele>314.0905456543</ele>
        <time>2015-08-12T17:46:23.000Z</time>
      </trkpt>
      <trkpt lat="45.46347" lon="5.98556">
        <ele>314.7067565918</ele>
        <time>2015-08-12T17:46:25.000Z</time>
      </trkpt>
      <trkpt lat="45.46347" lon="5.9855">
        <ele>315.34466552734</ele>
        <time>2015-08-12T17:46:28.000Z</time>
      </trkpt>
      <trkpt lat="45.46348" lon="5.98545">
        <ele>315.34762573242</ele>
        <time>2015-08-12T17:46:30.000Z</time>
      </trkpt>
      <trkpt lat="45.46348" lon="5.98541">
        <ele>315.47897338867</ele>
        <time>2015-08-12T17:46:32.000Z</time>
      </trkpt>
      <trkpt lat="45.46349" lon="5.98536">
        <ele>316.17303466797</ele>
        <time>2015-08-12T17:46:35.000Z</time>
      </trkpt>
      <trkpt lat="45.4635" lon="5.98531">
        <ele>316.21188354492</ele>
        <time>2015-08-12T17:46:38.000Z</time>
      </trkpt>
      <trkpt lat="45.46351" lon="5.98526">
        <ele>315.75509643555</ele>
        <time>2015-08-12T17:46:41.000Z</time>
      </trkpt>
      <trkpt lat="45.46352" lon="5.98522">
        <ele>316.08599853516</ele>
        <time>2015-08-12T17:46:43.000Z</time>
      </trkpt>
      <trkpt lat="45.46353" lon="5.98519">
        <ele>316.88677978516</ele>
        <time>2015-08-12T17:46:45.000Z</time>
      </trkpt>
      <trkpt lat="45.46354" lon="5.98515">
        <ele>317.94772338867</ele>
        <time>2015-08-12T17:46:47.000Z</time>
      </trkpt>
      <trkpt lat="45.46355" lon="5.98512">
        <ele>319.06005859375</ele>
        <time>2015-08-12T17:46:49.000Z</time>
      </trkpt>
      <trkpt lat="45.46356" lon="5.98507">
        <ele>320.30609130859</ele>
        <time>2015-08-12T17:46:52.000Z</time>
      </trkpt>
      <trkpt lat="45.46356" lon="5.98501">
        <ele>320.17904663086</ele>
        <time>2015-08-12T17:46:55.000Z</time>
      </trkpt>
      <trkpt lat="45.46357" lon="5.98495">
        <ele>320.53283691406</ele>
        <time>2015-08-12T17:46:58.000Z</time>
      </trkpt>
      <trkpt lat="45.46357" lon="5.98491">
        <ele>320.53024291992</ele>
        <time>2015-08-12T17:47:00.000Z</time>
      </trkpt>
      <trkpt lat="45.46357" lon="5.98486">
        <ele>320.66494750977</ele>
        <time>2015-08-12T17:47:02.000Z</time>
      </trkpt>
      <trkpt lat="45.46357" lon="5.98483">
        <ele>321.03524780273</ele>
        <time>2015-08-12T17:47:04.000Z</time>
      </trkpt>
      <trkpt lat="45.46357" lon="5.98479">
        <ele>322.73400878906</ele>
        <time>2015-08-12T17:47:06.000Z</time>
      </trkpt>
      <trkpt lat="45.46357" lon="5.98477">
        <ele>323.6643371582</ele>
        <time>2015-08-12T17:47:08.000Z</time>
      </trkpt>
      <trkpt lat="45.46357" lon="5.98474">
        <ele>324.06274414062</ele>
        <time>2015-08-12T17:47:11.000Z</time>
      </trkpt>
      <trkpt lat="45.46357" lon="5.98472">
        <ele>324.18716430664</ele>
        <time>2015-08-12T17:47:14.000Z</time>
      </trkpt>
      <trkpt lat="45.46357" lon="5.98468">
        <ele>324.49145507812</ele>
        <time>2015-08-12T17:47:16.000Z</time>
      </trkpt>
      <trkpt lat="45.46357" lon="5.98464">
        <ele>325.61807250977</ele>
        <time>2015-08-12T17:47:18.000Z</time>
      </trkpt>
      <trkpt lat="45.46355" lon="5.98457">
        <ele>327.81341552734</ele>
        <time>2015-08-12T17:47:21.000Z</time>
      </trkpt>
      <trkpt lat="45.46354" lon="5.9845">
        <ele>329.81652832031</ele>
        <time>2015-08-12T17:47:24.000Z</time>
      </trkpt>
      <trkpt lat="45.46352" lon="5.98446">
        <ele>331.10705566406</ele>
        <time>2015-08-12T17:47:26.000Z</time>
      </trkpt>
      <trkpt lat="45.46349" lon="5.9844">
        <ele>333.7165222168</ele>
        <time>2015-08-12T17:47:29.000Z</time>
      </trkpt>
      <trkpt lat="45.46347" lon="5.98435">
        <ele>335.10339355469</ele>
        <time>2015-08-12T17:47:31.000Z</time>
      </trkpt>
      <trkpt lat="45.46345" lon="5.98431">
        <ele>336.22756958008</ele>
        <time>2015-08-12T17:47:33.000Z</time>
      </trkpt>
      <trkpt lat="45.46342" lon="5.98424">
        <ele>337.73736572266</ele>
        <time>2015-08-12T17:47:36.000Z</time>
      </trkpt>
      <trkpt lat="45.4634" lon="5.98421">
        <ele>338.88348388672</ele>
        <time>2015-08-12T17:47:38.000Z</time>
      </trkpt>
      <trkpt lat="45.46336" lon="5.98416">
        <ele>340.2258605957</ele>
        <time>2015-08-12T17:47:41.000Z</time>
      </trkpt>
      <trkpt lat="45.46333" lon="5.98412">
        <ele>340.52871704102</ele>
        <time>2015-08-12T17:47:44.000Z</time>
      </trkpt>
      <trkpt lat="45.46329" lon="5.98407">
        <ele>340.74887084961</ele>
        <time>2015-08-12T17:47:47.000Z</time>
      </trkpt>
      <trkpt lat="45.46326" lon="5.98404">
        <ele>341.47268676758</ele>
        <time>2015-08-12T17:47:49.000Z</time>
      </trkpt>
      <trkpt lat="45.46324" lon="5.98401">
        <ele>341.78851318359</ele>
        <time>2015-08-12T17:47:51.000Z</time>
      </trkpt>
      <trkpt lat="45.46323" lon="5.98399">
        <ele>342.88748168945</ele>
        <time>2015-08-12T17:47:54.000Z</time>
      </trkpt>
      <trkpt lat="45.46322" lon="5.98398">
        <ele>343.16864013672</ele>
        <time>2015-08-12T17:47:56.000Z</time>
      </trkpt>
      <trkpt lat="45.4632" lon="5.98394">
        <ele>343.0783996582</ele>
        <time>2015-08-12T17:47:58.000Z</time>
      </trkpt>
      <trkpt lat="45.46318" lon="5.9839">
        <ele>344.29974365234</ele>
        <time>2015-08-12T17:48:01.000Z</time>
      </trkpt>
      <trkpt lat="45.46316" lon="5.98386">
        <ele>344.78387451172</ele>
        <time>2015-08-12T17:48:04.000Z</time>
      </trkpt>
      <trkpt lat="45.46313" lon="5.9838">
        <ele>346.96853637695</ele>
        <time>2015-08-12T17:48:07.000Z</time>
      </trkpt>
      <trkpt lat="45.46312" lon="5.98376">
        <ele>347.70840454102</ele>
        <time>2015-08-12T17:48:09.000Z</time>
      </trkpt>
      <trkpt lat="45.46311" lon="5.98371">
        <ele>348.80447387695</ele>
        <time>2015-08-12T17:48:11.000Z</time>
      </trkpt>
      <trkpt lat="45.4631" lon="5.98366">
        <ele>349.59158325195</ele>
        <time>2015-08-12T17:48:13.000Z</time>
      </trkpt>
      <trkpt lat="45.46309" lon="5.9836">
        <ele>350.32638549805</ele>
        <time>2015-08-12T17:48:16.000Z</time>
      </trkpt>
      <trkpt lat="45.46308" lon="5.98355">
        <ele>351.23355102539</ele>
        <time>2015-08-12T17:48:18.000Z</time>
      </trkpt>
      <trkpt lat="45.46307" lon="5.9835">
        <ele>351.98120117188</ele>
        <time>2015-08-12T17:48:20.000Z</time>
      </trkpt>
      <trkpt lat="45.46306" lon="5.98345">
        <ele>352.56979370117</ele>
        <time>2015-08-12T17:48:22.000Z</time>
      </trkpt>
      <trkpt lat="45.46303" lon="5.98338">
        <ele>355.65579223633</ele>
        <time>2015-08-12T17:48:25.000Z</time>
      </trkpt>
      <trkpt lat="45.46302" lon="5.98331">
        <ele>355.73153686523</ele>
        <time>2015-08-12T17:48:28.000Z</time>
      </trkpt>
      <trkpt lat="45.46301" lon="5.98324">
        <ele>355.42739868164</ele>
        <time>2015-08-12T17:48:31.000Z</time>
      </trkpt>
      <trkpt lat="45.46299" lon="5.9832">
        <ele>354.24716186523</ele>
        <time>2015-08-12T17:48:33.000Z</time>
      </trkpt>
      <trkpt lat="45.46298" lon="5.98315">
        <ele>352.89508056641</ele>
        <time>2015-08-12T17:48:35.000Z</time>
      </trkpt>
      <trkpt lat="45.46296" lon="5.9831">
        <ele>352.44619750977</ele>
        <time>2015-08-12T17:48:37.000Z</time>
      </trkpt>
      <trkpt lat="45.46295" lon="5.98306">
        <ele>352.68572998047</ele>
        <time>2015-08-12T17:48:39.000Z</time>
      </trkpt>
      <trkpt lat="45.46293" lon="5.98299">
        <ele>352.97808837891</ele>
        <time>2015-08-12T17:48:42.000Z</time>
      </trkpt>
      <trkpt lat="45.46292" lon="5.98294">
        <ele>353.42086791992</ele>
        <time>2015-08-12T17:48:44.000Z</time>
      </trkpt>
      <trkpt lat="45.46291" lon="5.98289">
        <ele>353.35559082031</ele>
        <time>2015-08-12T17:48:46.000Z</time>
      </trkpt>
      <trkpt lat="45.46289" lon="5.98281">
        <ele>355.35168457031</ele>
        <time>2015-08-12T17:48:49.000Z</time>
      </trkpt>
      <trkpt lat="45.46287" lon="5.98275">
        <ele>356.23666381836</ele>
        <time>2015-08-12T17:48:52.000Z</time>
      </trkpt>
      <trkpt lat="45.46286" lon="5.98269">
        <ele>356.13415527344</ele>
        <time>2015-08-12T17:48:54.000Z</time>
      </trkpt>
      <trkpt lat="45.46284" lon="5.98261">
        <ele>357.6442565918</ele>
        <time>2015-08-12T17:48:57.000Z</time>
      </trkpt>
      <trkpt lat="45.46284" lon="5.98254">
        <ele>358.98550415039</ele>
        <time>2015-08-12T17:49:00.000Z</time>
      </trkpt>
      <trkpt lat="45.46284" lon="5.9825">
        <ele>359.17895507812</ele>
        <time>2015-08-12T17:49:02.000Z</time>
      </trkpt>
      <trkpt lat="45.46284" lon="5.98241">
        <ele>357.47262573242</ele>
        <time>2015-08-12T17:49:05.000Z</time>
      </trkpt>
      <trkpt lat="45.46282" lon="5.98234">
        <ele>357.28262329102</ele>
        <time>2015-08-12T17:49:08.000Z</time>
      </trkpt>
      <trkpt lat="45.4628" lon="5.98226">
        <ele>357.93878173828</ele>
        <time>2015-08-12T17:49:11.000Z</time>
      </trkpt>
      <trkpt lat="45.4628" lon="5.98222">
        <ele>358.82925415039</ele>
        <time>2015-08-12T17:49:13.000Z</time>
      </trkpt>
      <trkpt lat="45.46279" lon="5.98215">
        <ele>359.90472412109</ele>
        <time>2015-08-12T17:49:16.000Z</time>
      </trkpt>
      <trkpt lat="45.46278" lon="5.98211">
        <ele>360.80322265625</ele>
        <time>2015-08-12T17:49:18.000Z</time>
      </trkpt>
      <trkpt lat="45.46276" lon="5.98206">
        <ele>363.13201904297</ele>
        <time>2015-08-12T17:49:21.000Z</time>
      </trkpt>
      <trkpt lat="45.46273" lon="5.98204">
        <ele>363.65753173828</ele>
        <time>2015-08-12T17:49:23.000Z</time>
      </trkpt>
      <trkpt lat="45.46268" lon="5.98202">
        <ele>363.28973388672</ele>
        <time>2015-08-12T17:49:26.000Z</time>
      </trkpt>
      <trkpt lat="45.46264" lon="5.982">
        <ele>358.41635131836</ele>
        <time>2015-08-12T17:49:29.000Z</time>
      </trkpt>
      <trkpt lat="45.46262" lon="5.982">
        <ele>356.66052246094</ele>
        <time>2015-08-12T17:49:32.000Z</time>
      </trkpt>
      <trkpt lat="45.4626" lon="5.98202">
        <ele>356.79574584961</ele>
        <time>2015-08-12T17:49:34.000Z</time>
      </trkpt>
      <trkpt lat="45.46259" lon="5.98208">
        <ele>358.10638427734</ele>
        <time>2015-08-12T17:49:37.000Z</time>
      </trkpt>
      <trkpt lat="45.46259" lon="5.98213">
        <ele>358.16864013672</ele>
        <time>2015-08-12T17:49:40.000Z</time>
      </trkpt>
      <trkpt lat="45.46258" lon="5.98218">
        <ele>357.52746582031</ele>
        <time>2015-08-12T17:49:43.000Z</time>
      </trkpt>
      <trkpt lat="45.46258" lon="5.98223">
        <ele>358.47796630859</ele>
        <time>2015-08-12T17:49:46.000Z</time>
      </trkpt>
      <trkpt lat="45.46257" lon="5.98227">
        <ele>359.22177124023</ele>
        <time>2015-08-12T17:49:48.000Z</time>
      </trkpt>
      <trkpt lat="45.46256" lon="5.9823">
        <ele>360.07949829102</ele>
        <time>2015-08-12T17:49:50.000Z</time>
      </trkpt>
      <trkpt lat="45.46255" lon="5.98236">
        <ele>360.92202758789</ele>
        <time>2015-08-12T17:49:53.000Z</time>
      </trkpt>
      <trkpt lat="45.46255" lon="5.98241">
        <ele>362.14175415039</ele>
        <time>2015-08-12T17:49:56.000Z</time>
      </trkpt>
      <trkpt lat="45.46254" lon="5.98247">
        <ele>362.69421386719</ele>
        <time>2015-08-12T17:49:59.000Z</time>
      </trkpt>
      <trkpt lat="45.46254" lon="5.98253">
        <ele>362.9606628418</ele>
        <time>2015-08-12T17:50:02.000Z</time>
      </trkpt>
      <trkpt lat="45.46253" lon="5.98256">
        <ele>363.35647583008</ele>
        <time>2015-08-12T17:50:04.000Z</time>
      </trkpt>
      <trkpt lat="45.46252" lon="5.98259">
        <ele>363.94088745117</ele>
        <time>2015-08-12T17:50:06.000Z</time>
      </trkpt>
      <trkpt lat="45.46252" lon="5.98265">
        <ele>363.99932861328</ele>
        <time>2015-08-12T17:50:09.000Z</time>
      </trkpt>
      <trkpt lat="45.46251" lon="5.98269">
        <ele>364.28244018555</ele>
        <time>2015-08-12T17:50:11.000Z</time>
      </trkpt>
      <trkpt lat="45.4625" lon="5.98272">
        <ele>364.81860351562</ele>
        <time>2015-08-12T17:50:13.000Z</time>
      </trkpt>
      <trkpt lat="45.4625" lon="5.98275">
        <ele>365.259765625</ele>
        <time>2015-08-12T17:50:15.000Z</time>
      </trkpt>
      <trkpt lat="45.46249" lon="5.98279">
        <ele>366.34631347656</ele>
        <time>2015-08-12T17:50:18.000Z</time>
      </trkpt>
      <trkpt lat="45.46248" lon="5.98283">
        <ele>367.71792602539</ele>
        <time>2015-08-12T17:50:20.000Z</time>
      </trkpt>
      <trkpt lat="45.46247" lon="5.98287">
        <ele>368.41482543945</ele>
        <time>2015-08-12T17:50:22.000Z</time>
      </trkpt>
      <trkpt lat="45.46247" lon="5.98292">
        <ele>369.51135253906</ele>
        <time>2015-08-12T17:50:25.000Z</time>
      </trkpt>
      <trkpt lat="45.46246" lon="5.98295">
        <ele>370.69723510742</ele>
        <time>2015-08-12T17:50:27.000Z</time>
      </trkpt>
      <trkpt lat="45.46245" lon="5.983">
        <ele>371.84912109375</ele>
        <time>2015-08-12T17:50:30.000Z</time>
      </trkpt>
      <trkpt lat="45.46244" lon="5.98304">
        <ele>371.92990112305</ele>
        <time>2015-08-12T17:50:32.000Z</time>
      </trkpt>
      <trkpt lat="45.46244" lon="5.98308">
        <ele>371.86038208008</ele>
        <time>2015-08-12T17:50:34.000Z</time>
      </trkpt>
      <trkpt lat="45.46244" lon="5.98316">
        <ele>371.39538574219</ele>
        <time>2015-08-12T17:50:37.000Z</time>
      </trkpt>
      <trkpt lat="45.46244" lon="5.98321">
        <ele>372.54782104492</ele>
        <time>2015-08-12T17:50:39.000Z</time>
      </trkpt>
      <trkpt lat="45.46244" lon="5.98327">
        <ele>373.54162597656</ele>
        <time>2015-08-12T17:50:42.000Z</time>
      </trkpt>
      <trkpt lat="45.46244" lon="5.98332">
        <ele>373.96273803711</ele>
        <time>2015-08-12T17:50:44.000Z</time>
      </trkpt>
      <trkpt lat="45.46244" lon="5.98336">
        <ele>373.90667724609</ele>
        <time>2015-08-12T17:50:46.000Z</time>
      </trkpt>
      <trkpt lat="45.46243" lon="5.98344">
        <ele>373.29702758789</ele>
        <time>2015-08-12T17:50:49.000Z</time>
      </trkpt>
      <trkpt lat="45.46242" lon="5.98351">
        <ele>371.03298950195</ele>
        <time>2015-08-12T17:50:52.000Z</time>
      </trkpt>
      <trkpt lat="45.46241" lon="5.98356">
        <ele>370.41717529297</ele>
        <time>2015-08-12T17:50:54.000Z</time>
      </trkpt>
      <trkpt lat="45.4624" lon="5.98362">
        <ele>370.52966308594</ele>
        <time>2015-08-12T17:50:57.000Z</time>
      </trkpt>
      <trkpt lat="45.46239" lon="5.98366">
        <ele>370.83407592773</ele>
        <time>2015-08-12T17:50:59.000Z</time>
      </trkpt>
      <trkpt lat="45.46237" lon="5.9837">
        <ele>371.14376831055</ele>
        <time>2015-08-12T17:51:01.000Z</time>
      </trkpt>
      <trkpt lat="45.46235" lon="5.98373">
        <ele>371.01568603516</ele>
        <time>2015-08-12T17:51:03.000Z</time>
      </trkpt>
      <trkpt lat="45.46232" lon="5.98377">
        <ele>372.83715820312</ele>
        <time>2015-08-12T17:51:06.000Z</time>
      </trkpt>
      <trkpt lat="45.4623" lon="5.9838">
        <ele>373.67388916016</ele>
        <time>2015-08-12T17:51:08.000Z</time>
      </trkpt>
      <trkpt lat="45.46227" lon="5.98382">
        <ele>374.88024902344</ele>
        <time>2015-08-12T17:51:11.000Z</time>
      </trkpt>
      <trkpt lat="45.46223" lon="5.98384">
        <ele>375.80255126953</ele>
        <time>2015-08-12T17:51:14.000Z</time>
      </trkpt>
      <trkpt lat="45.46219" lon="5.98385">
        <ele>376.23388671875</ele>
        <time>2015-08-12T17:51:17.000Z</time>
      </trkpt>
      <trkpt lat="45.46216" lon="5.98386">
        <ele>376.96292114258</ele>
        <time>2015-08-12T17:51:19.000Z</time>
      </trkpt>
      <trkpt lat="45.46212" lon="5.98387">
        <ele>378.55450439453</ele>
        <time>2015-08-12T17:51:22.000Z</time>
      </trkpt>
      <trkpt lat="45.46209" lon="5.98388">
        <ele>380.04016113281</ele>
        <time>2015-08-12T17:51:24.000Z</time>
      </trkpt>
      <trkpt lat="45.46207" lon="5.98389">
        <ele>380.85366821289</ele>
        <time>2015-08-12T17:51:26.000Z</time>
      </trkpt>
      <trkpt lat="45.46203" lon="5.98391">
        <ele>381.47421264648</ele>
        <time>2015-08-12T17:51:29.000Z</time>
      </trkpt>
      <trkpt lat="45.46201" lon="5.98392">
        <ele>382.09222412109</ele>
        <time>2015-08-12T17:51:31.000Z</time>
      </trkpt>
      <trkpt lat="45.46198" lon="5.98396">
        <ele>383.08703613281</ele>
        <time>2015-08-12T17:51:34.000Z</time>
      </trkpt>
      <trkpt lat="45.46196" lon="5.98398">
        <ele>383.63067626953</ele>
        <time>2015-08-12T17:51:36.000Z</time>
      </trkpt>
      <trkpt lat="45.46193" lon="5.984">
        <ele>384.20657348633</ele>
        <time>2015-08-12T17:51:38.000Z</time>
      </trkpt>
      <trkpt lat="45.4619" lon="5.98403">
        <ele>385.11517333984</ele>
        <time>2015-08-12T17:51:41.000Z</time>
      </trkpt>
      <trkpt lat="45.46187" lon="5.98406">
        <ele>386.09594726562</ele>
        <time>2015-08-12T17:51:43.000Z</time>
      </trkpt>
      <trkpt lat="45.46184" lon="5.9841">
        <ele>387.16058349609</ele>
        <time>2015-08-12T17:51:46.000Z</time>
      </trkpt>
      <trkpt lat="45.46182" lon="5.98413">
        <ele>388.65863037109</ele>
        <time>2015-08-12T17:51:48.000Z</time>
      </trkpt>
      <trkpt lat="45.4618" lon="5.98416">
        <ele>389.01257324219</ele>
        <time>2015-08-12T17:51:50.000Z</time>
      </trkpt>
      <trkpt lat="45.46177" lon="5.98419">
        <ele>389.61386108398</ele>
        <time>2015-08-12T17:51:52.000Z</time>
      </trkpt>
      <trkpt lat="45.46175" lon="5.98422">
        <ele>390.36129760742</ele>
        <time>2015-08-12T17:51:54.000Z</time>
      </trkpt>
      <trkpt lat="45.46173" lon="5.98424">
        <ele>390.48873901367</ele>
        <time>2015-08-12T17:51:56.000Z</time>
      </trkpt>
      <trkpt lat="45.46169" lon="5.98428">
        <ele>391.79275512695</ele>
        <time>2015-08-12T17:51:59.000Z</time>
      </trkpt>
      <trkpt lat="45.46165" lon="5.98431">
        <ele>392.04931640625</ele>
        <time>2015-08-12T17:52:05.000Z</time>
      </trkpt>
      <trkpt lat="45.46163" lon="5.98434">
        <ele>392.14385986328</ele>
        <time>2015-08-12T17:52:07.000Z</time>
      </trkpt>
      <trkpt lat="45.46159" lon="5.98438">
        <ele>392.20672607422</ele>
        <time>2015-08-12T17:52:10.000Z</time>
      </trkpt>
      <trkpt lat="45.46156" lon="5.98441">
        <ele>392.40005493164</ele>
        <time>2015-08-12T17:52:13.000Z</time>
      </trkpt>
      <trkpt lat="45.46154" lon="5.98444">
        <ele>392.65661621094</ele>
        <time>2015-08-12T17:52:15.000Z</time>
      </trkpt>
      <trkpt lat="45.46151" lon="5.98447">
        <ele>394.18789672852</ele>
        <time>2015-08-12T17:52:18.000Z</time>
      </trkpt>
      <trkpt lat="45.46147" lon="5.98451">
        <ele>395.95599365234</ele>
        <time>2015-08-12T17:52:21.000Z</time>
      </trkpt>
      <trkpt lat="45.46143" lon="5.98455">
        <ele>396.87280273438</ele>
        <time>2015-08-12T17:52:24.000Z</time>
      </trkpt>
      <trkpt lat="45.46141" lon="5.98458">
        <ele>398.57162475586</ele>
        <time>2015-08-12T17:52:26.000Z</time>
      </trkpt>
      <trkpt lat="45.4614" lon="5.98461">
        <ele>398.89102172852</ele>
        <time>2015-08-12T17:52:28.000Z</time>
      </trkpt>
      <trkpt lat="45.46137" lon="5.98464">
        <ele>399.67626953125</ele>
        <time>2015-08-12T17:52:31.000Z</time>
      </trkpt>
      <trkpt lat="45.46133" lon="5.98467">
        <ele>401.05944824219</ele>
        <time>2015-08-12T17:52:34.000Z</time>
      </trkpt>
      <trkpt lat="45.46129" lon="5.9847">
        <ele>400.92849731445</ele>
        <time>2015-08-12T17:52:37.000Z</time>
      </trkpt>
      <trkpt lat="45.46126" lon="5.98472">
        <ele>400.0852355957</ele>
        <time>2015-08-12T17:52:39.000Z</time>
      </trkpt>
      <trkpt lat="45.46122" lon="5.98475">
        <ele>399.94592285156</ele>
        <time>2015-08-12T17:52:42.000Z</time>
      </trkpt>
      <trkpt lat="45.46119" lon="5.98475">
        <ele>400.04058837891</ele>
        <time>2015-08-12T17:52:44.000Z</time>
      </trkpt>
      <trkpt lat="45.46115" lon="5.98475">
        <ele>401.75448608398</ele>
        <time>2015-08-12T17:52:47.000Z</time>
      </trkpt>
      <trkpt lat="45.46111" lon="5.98476">
        <ele>401.96505737305</ele>
        <time>2015-08-12T17:52:50.000Z</time>
      </trkpt>
      <trkpt lat="45.46108" lon="5.98476">
        <ele>401.98648071289</ele>
        <time>2015-08-12T17:52:52.000Z</time>
      </trkpt>
      <trkpt lat="45.46106" lon="5.98476">
        <ele>402.52410888672</ele>
        <time>2015-08-12T17:52:54.000Z</time>
      </trkpt>
      <trkpt lat="45.46101" lon="5.98478">
        <ele>404.34545898438</ele>
        <time>2015-08-12T17:52:57.000Z</time>
      </trkpt>
      <trkpt lat="45.46098" lon="5.98479">
        <ele>405.38751220703</ele>
        <time>2015-08-12T17:53:00.000Z</time>
      </trkpt>
      <trkpt lat="45.46095" lon="5.98479">
        <ele>406.15054321289</ele>
        <time>2015-08-12T17:53:02.000Z</time>
      </trkpt>
      <trkpt lat="45.46092" lon="5.9848">
        <ele>406.48257446289</ele>
        <time>2015-08-12T17:53:04.000Z</time>
      </trkpt>
      <trkpt lat="45.4609" lon="5.9848">
        <ele>406.4921875</ele>
        <time>2015-08-12T17:53:06.000Z</time>
      </trkpt>
      <trkpt lat="45.46085" lon="5.98481">
        <ele>407.36340332031</ele>
        <time>2015-08-12T17:53:09.000Z</time>
      </trkpt>
      <trkpt lat="45.46083" lon="5.98481">
        <ele>407.2624206543</ele>
        <time>2015-08-12T17:53:11.000Z</time>
      </trkpt>
      <trkpt lat="45.46078" lon="5.98481">
        <ele>407.57562255859</ele>
        <time>2015-08-12T17:53:14.000Z</time>
      </trkpt>
      <trkpt lat="45.46075" lon="5.98482">
        <ele>407.72137451172</ele>
        <time>2015-08-12T17:53:16.000Z</time>
      </trkpt>
      <trkpt lat="45.46072" lon="5.98485">
        <ele>406.99743652344</ele>
        <time>2015-08-12T17:53:19.000Z</time>
      </trkpt>
      <trkpt lat="45.46069" lon="5.98487">
        <ele>407.51577758789</ele>
        <time>2015-08-12T17:53:22.000Z</time>
      </trkpt>
      <trkpt lat="45.46067" lon="5.98488">
        <ele>408.5290222168</ele>
        <time>2015-08-12T17:53:24.000Z</time>
      </trkpt>
      <trkpt lat="45.46062" lon="5.9849">
        <ele>409.31970214844</ele>
        <time>2015-08-12T17:53:27.000Z</time>
      </trkpt>
      <trkpt lat="45.4606" lon="5.98492">
        <ele>409.41702270508</ele>
        <time>2015-08-12T17:53:29.000Z</time>
      </trkpt>
      <trkpt lat="45.46055" lon="5.98493">
        <ele>410.55819702148</ele>
        <time>2015-08-12T17:53:32.000Z</time>
      </trkpt>
      <trkpt lat="45.46051" lon="5.98494">
        <ele>411.66448974609</ele>
        <time>2015-08-12T17:53:35.000Z</time>
      </trkpt>
      <trkpt lat="45.46047" lon="5.98495">
        <ele>413.12619018555</ele>
        <time>2015-08-12T17:53:38.000Z</time>
      </trkpt>
      <trkpt lat="45.46044" lon="5.98495">
        <ele>413.49267578125</ele>
        <time>2015-08-12T17:53:40.000Z</time>
      </trkpt>
      <trkpt lat="45.4604" lon="5.98495">
        <ele>413.01110839844</ele>
        <time>2015-08-12T17:53:43.000Z</time>
      </trkpt>
      <trkpt lat="45.46036" lon="5.98494">
        <ele>412.4714050293</ele>
        <time>2015-08-12T17:53:45.000Z</time>
      </trkpt>
      <trkpt lat="45.4603" lon="5.98491">
        <ele>410.08712768555</ele>
        <time>2015-08-12T17:53:48.000Z</time>
      </trkpt>
      <trkpt lat="45.46026" lon="5.98489">
        <ele>409.72207641602</ele>
        <time>2015-08-12T17:53:50.000Z</time>
      </trkpt>
      <trkpt lat="45.46022" lon="5.98486">
        <ele>410.63119506836</ele>
        <time>2015-08-12T17:53:53.000Z</time>
      </trkpt>
      <trkpt lat="45.46018" lon="5.98481">
        <ele>411.60046386719</ele>
        <time>2015-08-12T17:53:56.000Z</time>
      </trkpt>
      <trkpt lat="45.46015" lon="5.98477">
        <ele>411.10723876953</ele>
        <time>2015-08-12T17:53:59.000Z</time>
      </trkpt>
      <trkpt lat="45.46011" lon="5.98474">
        <ele>412.79983520508</ele>
        <time>2015-08-12T17:54:02.000Z</time>
      </trkpt>
      <trkpt lat="45.46009" lon="5.98471">
        <ele>414.09661865234</ele>
        <time>2015-08-12T17:54:04.000Z</time>
      </trkpt>
      <trkpt lat="45.46006" lon="5.98468">
        <ele>415.39129638672</ele>
        <time>2015-08-12T17:54:07.000Z</time>
      </trkpt>
      <trkpt lat="45.46004" lon="5.98463">
        <ele>415.75750732422</ele>
        <time>2015-08-12T17:54:10.000Z</time>
      </trkpt>
      <trkpt lat="45.46001" lon="5.98459">
        <ele>416.65249633789</ele>
        <time>2015-08-12T17:54:13.000Z</time>
      </trkpt>
      <trkpt lat="45.45999" lon="5.98456">
        <ele>417.49935913086</ele>
        <time>2015-08-12T17:54:16.000Z</time>
      </trkpt>
      <trkpt lat="45.45996" lon="5.98453">
        <ele>417.71450805664</ele>
        <time>2015-08-12T17:54:19.000Z</time>
      </trkpt>
      <trkpt lat="45.45995" lon="5.9845">
        <ele>417.7880859375</ele>
        <time>2015-08-12T17:54:21.000Z</time>
      </trkpt>
      <trkpt lat="45.45993" lon="5.98447">
        <ele>418.01705932617</ele>
        <time>2015-08-12T17:54:24.000Z</time>
      </trkpt>
      <trkpt lat="45.4599" lon="5.98445">
        <ele>420.40844726562</ele>
        <time>2015-08-12T17:54:27.000Z</time>
      </trkpt>
      <trkpt lat="45.45988" lon="5.98442">
        <ele>421.27194213867</ele>
        <time>2015-08-12T17:54:29.000Z</time>
      </trkpt>
      <trkpt lat="45.45985" lon="5.9844">
        <ele>422.20181274414</ele>
        <time>2015-08-12T17:54:31.000Z</time>
      </trkpt>
      <trkpt lat="45.45981" lon="5.98437">
        <ele>423.5263671875</ele>
        <time>2015-08-12T17:54:34.000Z</time>
      </trkpt>
      <trkpt lat="45.45978" lon="5.98435">
        <ele>424.27349853516</ele>
        <time>2015-08-12T17:54:36.000Z</time>
      </trkpt>
      <trkpt lat="45.45974" lon="5.9843">
        <ele>425.57852172852</ele>
        <time>2015-08-12T17:54:39.000Z</time>
      </trkpt>
      <trkpt lat="45.45972" lon="5.98426">
        <ele>427.12344360352</ele>
        <time>2015-08-12T17:54:42.000Z</time>
      </trkpt>
      <trkpt lat="45.45971" lon="5.98422">
        <ele>427.06860351562</ele>
        <time>2015-08-12T17:54:44.000Z</time>
      </trkpt>
      <trkpt lat="45.45969" lon="5.98416">
        <ele>427.31652832031</ele>
        <time>2015-08-12T17:54:47.000Z</time>
      </trkpt>
      <trkpt lat="45.45968" lon="5.98412">
        <ele>426.63998413086</ele>
        <time>2015-08-12T17:54:49.000Z</time>
      </trkpt>
      <trkpt lat="45.45966" lon="5.98408">
        <ele>425.85577392578</ele>
        <time>2015-08-12T17:54:52.000Z</time>
      </trkpt>
      <trkpt lat="45.45966" lon="5.98404">
        <ele>425.18844604492</ele>
        <time>2015-08-12T17:54:54.000Z</time>
      </trkpt>
      <trkpt lat="45.45965" lon="5.984">
        <ele>424.17709350586</ele>
        <time>2015-08-12T17:54:57.000Z</time>
      </trkpt>
      <trkpt lat="45.45965" lon="5.98397">
        <ele>422.93826293945</ele>
        <time>2015-08-12T17:54:59.000Z</time>
      </trkpt>
      <trkpt lat="45.45964" lon="5.98392">
        <ele>421.13571166992</ele>
        <time>2015-08-12T17:55:01.000Z</time>
      </trkpt>
      <trkpt lat="45.45964" lon="5.98387">
        <ele>420.18942260742</ele>
        <time>2015-08-12T17:55:03.000Z</time>
      </trkpt>
      <trkpt lat="45.45965" lon="5.98377">
        <ele>418.34982299805</ele>
        <time>2015-08-12T17:55:06.000Z</time>
      </trkpt>
      <trkpt lat="45.45966" lon="5.98369">
        <ele>417.92709350586</ele>
        <time>2015-08-12T17:55:09.000Z</time>
      </trkpt>
      <trkpt lat="45.45969" lon="5.98362">
        <ele>417.02423095703</ele>
        <time>2015-08-12T17:55:12.000Z</time>
      </trkpt>
      <trkpt lat="45.4597" lon="5.98357">
        <ele>416.94729614258</ele>
        <time>2015-08-12T17:55:14.000Z</time>
      </trkpt>
      <trkpt lat="45.45972" lon="5.98351">
        <ele>418.74011230469</ele>
        <time>2015-08-12T17:55:17.000Z</time>
      </trkpt>
      <trkpt lat="45.45974" lon="5.98347">
        <ele>419.82104492188</ele>
        <time>2015-08-12T17:55:19.000Z</time>
      </trkpt>
      <trkpt lat="45.45976" lon="5.9834">
        <ele>420.66107177734</ele>
        <time>2015-08-12T17:55:22.000Z</time>
      </trkpt>
      <trkpt lat="45.45978" lon="5.98333">
        <ele>421.59564208984</ele>
        <time>2015-08-12T17:55:25.000Z</time>
      </trkpt>
      <trkpt lat="45.45979" lon="5.98329">
        <ele>422.32464599609</ele>
        <time>2015-08-12T17:55:27.000Z</time>
      </trkpt>
      <trkpt lat="45.45982" lon="5.98322">
        <ele>425.24261474609</ele>
        <time>2015-08-12T17:55:30.000Z</time>
      </trkpt>
      <trkpt lat="45.45984" lon="5.98319">
        <ele>426.34503173828</ele>
        <time>2015-08-12T17:55:32.000Z</time>
      </trkpt>
      <trkpt lat="45.45985" lon="5.98316">
        <ele>427.19314575195</ele>
        <time>2015-08-12T17:55:34.000Z</time>
      </trkpt>
      <trkpt lat="45.45986" lon="5.98312">
        <ele>428.35391235352</ele>
        <time>2015-08-12T17:55:36.000Z</time>
      </trkpt>
      <trkpt lat="45.45988" lon="5.98308">
        <ele>428.83480834961</ele>
        <time>2015-08-12T17:55:38.000Z</time>
      </trkpt>
      <trkpt lat="45.45992" lon="5.98301">
        <ele>428.77850341797</ele>
        <time>2015-08-12T17:55:41.000Z</time>
      </trkpt>
      <trkpt lat="45.45993" lon="5.98297">
        <ele>427.61770629883</ele>
        <time>2015-08-12T17:55:43.000Z</time>
      </trkpt>
      <trkpt lat="45.45994" lon="5.98291">
        <ele>427.44982910156</ele>
        <time>2015-08-12T17:55:45.000Z</time>
      </trkpt>
      <trkpt lat="45.45996" lon="5.98287">
        <ele>427.88891601562</ele>
        <time>2015-08-12T17:55:47.000Z</time>
      </trkpt>
      <trkpt lat="45.45998" lon="5.98282">
        <ele>427.97528076172</ele>
        <time>2015-08-12T17:55:49.000Z</time>
      </trkpt>
      <trkpt lat="45.45999" lon="5.98278">
        <ele>427.27517700195</ele>
        <time>2015-08-12T17:55:51.000Z</time>
      </trkpt>
      <trkpt lat="45.46001" lon="5.98272">
        <ele>426.26910400391</ele>
        <time>2015-08-12T17:55:53.000Z</time>
      </trkpt>
      <trkpt lat="45.46003" lon="5.98265">
        <ele>424.76895141602</ele>
        <time>2015-08-12T17:55:56.000Z</time>
      </trkpt>
      <trkpt lat="45.46006" lon="5.98258">
        <ele>425.57760620117</ele>
        <time>2015-08-12T17:55:59.000Z</time>
      </trkpt>
      <trkpt lat="45.46008" lon="5.98251">
        <ele>425.34335327148</ele>
        <time>2015-08-12T17:56:02.000Z</time>
      </trkpt>
      <trkpt lat="45.4601" lon="5.98247">
        <ele>425.46096801758</ele>
        <time>2015-08-12T17:56:04.000Z</time>
      </trkpt>
      <trkpt lat="45.46013" lon="5.98241">
        <ele>425.73873901367</ele>
        <time>2015-08-12T17:56:07.000Z</time>
      </trkpt>
      <trkpt lat="45.46016" lon="5.98234">
        <ele>427.41659545898</ele>
        <time>2015-08-12T17:56:10.000Z</time>
      </trkpt>
      <trkpt lat="45.46017" lon="5.9823">
        <ele>428.03399658203</ele>
        <time>2015-08-12T17:56:12.000Z</time>
      </trkpt>
      <trkpt lat="45.46019" lon="5.98223">
        <ele>428.65316772461</ele>
        <time>2015-08-12T17:56:15.000Z</time>
      </trkpt>
      <trkpt lat="45.46019" lon="5.98217">
        <ele>428.18786621094</ele>
        <time>2015-08-12T17:56:18.000Z</time>
      </trkpt>
      <trkpt lat="45.46017" lon="5.98213">
        <ele>428.6103515625</ele>
        <time>2015-08-12T17:56:20.000Z</time>
      </trkpt>
      <trkpt lat="45.46015" lon="5.9821">
        <ele>429.39492797852</ele>
        <time>2015-08-12T17:56:22.000Z</time>
      </trkpt>
      <trkpt lat="45.46011" lon="5.98208">
        <ele>430.42144775391</ele>
        <time>2015-08-12T17:56:25.000Z</time>
      </trkpt>
      <trkpt lat="45.46006" lon="5.98208">
        <ele>431.37466430664</ele>
        <time>2015-08-12T17:56:28.000Z</time>
      </trkpt>
      <trkpt lat="45.46004" lon="5.98209">
        <ele>431.90188598633</ele>
        <time>2015-08-12T17:56:30.000Z</time>
      </trkpt>
      <trkpt lat="45.46" lon="5.98212">
        <ele>432.31594848633</ele>
        <time>2015-08-12T17:56:33.000Z</time>
      </trkpt>
      <trkpt lat="45.45996" lon="5.98215">
        <ele>433.21752929688</ele>
        <time>2015-08-12T17:56:36.000Z</time>
      </trkpt>
      <trkpt lat="45.45992" lon="5.98218">
        <ele>434.18121337891</ele>
        <time>2015-08-12T17:56:39.000Z</time>
      </trkpt>
      <trkpt lat="45.4599" lon="5.98219">
        <ele>435.48843383789</ele>
        <time>2015-08-12T17:56:41.000Z</time>
      </trkpt>
      <trkpt lat="45.45987" lon="5.98221">
        <ele>436.14224243164</ele>
        <time>2015-08-12T17:56:44.000Z</time>
      </trkpt>
      <trkpt lat="45.45984" lon="5.98223">
        <ele>437.02560424805</ele>
        <time>2015-08-12T17:56:46.000Z</time>
      </trkpt>
      <trkpt lat="45.45982" lon="5.98224">
        <ele>437.60098266602</ele>
        <time>2015-08-12T17:56:48.000Z</time>
      </trkpt>
      <trkpt lat="45.45978" lon="5.98226">
        <ele>439.5104675293</ele>
        <time>2015-08-12T17:56:51.000Z</time>
      </trkpt>
      <trkpt lat="45.45975" lon="5.98228">
        <ele>440.58380126953</ele>
        <time>2015-08-12T17:56:54.000Z</time>
      </trkpt>
      <trkpt lat="45.45972" lon="5.98231">
        <ele>443.23059082031</ele>
        <time>2015-08-12T17:56:57.000Z</time>
      </trkpt>
      <trkpt lat="45.45969" lon="5.98233">
        <ele>444.20065307617</ele>
        <time>2015-08-12T17:56:59.000Z</time>
      </trkpt>
      <trkpt lat="45.45966" lon="5.98235">
        <ele>443.70190429688</ele>
        <time>2015-08-12T17:57:02.000Z</time>
      </trkpt>
      <trkpt lat="45.45961" lon="5.98237">
        <ele>445.17465209961</ele>
        <time>2015-08-12T17:57:05.000Z</time>
      </trkpt>
      <trkpt lat="45.45958" lon="5.98239">
        <ele>444.65612792969</ele>
        <time>2015-08-12T17:57:07.000Z</time>
      </trkpt>
      <trkpt lat="45.45956" lon="5.98239">
        <ele>443.72082519531</ele>
        <time>2015-08-12T17:57:09.000Z</time>
      </trkpt>
      <trkpt lat="45.45955" lon="5.9824">
        <ele>443.72912597656</ele>
        <time>2015-08-12T17:57:11.000Z</time>
      </trkpt>
      <trkpt lat="45.4595" lon="5.98242">
        <ele>444.44778442383</ele>
        <time>2015-08-12T17:57:14.000Z</time>
      </trkpt>
      <trkpt lat="45.45945" lon="5.98244">
        <ele>444.68167114258</ele>
        <time>2015-08-12T17:57:17.000Z</time>
      </trkpt>
      <trkpt lat="45.45942" lon="5.98245">
        <ele>445.88809204102</ele>
        <time>2015-08-12T17:57:19.000Z</time>
      </trkpt>
      <trkpt lat="45.45939" lon="5.98245">
        <ele>446.46905517578</ele>
        <time>2015-08-12T17:57:21.000Z</time>
      </trkpt>
      <trkpt lat="45.45935" lon="5.98245">
        <ele>446.93954467773</ele>
        <time>2015-08-12T17:57:23.000Z</time>
      </trkpt>
      <trkpt lat="45.45932" lon="5.98244">
        <ele>446.77368164062</ele>
        <time>2015-08-12T17:57:26.000Z</time>
      </trkpt>
      <trkpt lat="45.4593" lon="5.98241">
        <ele>445.97537231445</ele>
        <time>2015-08-12T17:57:28.000Z</time>
      </trkpt>
      <trkpt lat="45.45929" lon="5.98237">
        <ele>445.43154907227</ele>
        <time>2015-08-12T17:57:30.000Z</time>
      </trkpt>
      <trkpt lat="45.45928" lon="5.98232">
        <ele>445.03750610352</ele>
        <time>2015-08-12T17:57:33.000Z</time>
      </trkpt>
      <trkpt lat="45.45929" lon="5.98228">
        <ele>445.52554321289</ele>
        <time>2015-08-12T17:57:36.000Z</time>
      </trkpt>
      <trkpt lat="45.45931" lon="5.98225">
        <ele>445.75546264648</ele>
        <time>2015-08-12T17:57:39.000Z</time>
      </trkpt>
      <trkpt lat="45.45933" lon="5.98223">
        <ele>446.00680541992</ele>
        <time>2015-08-12T17:57:41.000Z</time>
      </trkpt>
      <trkpt lat="45.45935" lon="5.98219">
        <ele>446.51068115234</ele>
        <time>2015-08-12T17:57:44.000Z</time>
      </trkpt>
      <trkpt lat="45.45937" lon="5.98213">
        <ele>447.02279663086</ele>
        <time>2015-08-12T17:57:47.000Z</time>
      </trkpt>
      <trkpt lat="45.45938" lon="5.9821">
        <ele>448.27484130859</ele>
        <time>2015-08-12T17:57:49.000Z</time>
      </trkpt>
      <trkpt lat="45.4594" lon="5.98207">
        <ele>449.46292114258</ele>
        <time>2015-08-12T17:57:51.000Z</time>
      </trkpt>
      <trkpt lat="45.4594" lon="5.98201">
        <ele>449.73718261719</ele>
        <time>2015-08-12T17:57:54.000Z</time>
      </trkpt>
      <trkpt lat="45.45942" lon="5.98198">
        <ele>450.12313842773</ele>
        <time>2015-08-12T17:57:56.000Z</time>
      </trkpt>
      <trkpt lat="45.45943" lon="5.98195">
        <ele>450.80230712891</ele>
        <time>2015-08-12T17:57:58.000Z</time>
      </trkpt>
      <trkpt lat="45.45944" lon="5.98191">
        <ele>451.08242797852</ele>
        <time>2015-08-12T17:58:00.000Z</time>
      </trkpt>
      <trkpt lat="45.45946" lon="5.98184">
        <ele>450.35311889648</ele>
        <time>2015-08-12T17:58:03.000Z</time>
      </trkpt>
      <trkpt lat="45.45949" lon="5.98179">
        <ele>449.24600219727</ele>
        <time>2015-08-12T17:58:06.000Z</time>
      </trkpt>
      <trkpt lat="45.45952" lon="5.98173">
        <ele>451.02008056641</ele>
        <time>2015-08-12T17:58:09.000Z</time>
      </trkpt>
      <trkpt lat="45.45954" lon="5.98168">
        <ele>452.26358032227</ele>
        <time>2015-08-12T17:58:12.000Z</time>
      </trkpt>
      <trkpt lat="45.45956" lon="5.98162">
        <ele>452.94659423828</ele>
        <time>2015-08-12T17:58:15.000Z</time>
      </trkpt>
      <trkpt lat="45.45957" lon="5.98159">
        <ele>454.01324462891</ele>
        <time>2015-08-12T17:58:17.000Z</time>
      </trkpt>
      <trkpt lat="45.45958" lon="5.98152">
        <ele>454.86239624023</ele>
        <time>2015-08-12T17:58:20.000Z</time>
      </trkpt>
      <trkpt lat="45.45959" lon="5.98147">
        <ele>455.09149169922</ele>
        <time>2015-08-12T17:58:22.000Z</time>
      </trkpt>
      <trkpt lat="45.45961" lon="5.9814">
        <ele>454.98129272461</ele>
        <time>2015-08-12T17:58:25.000Z</time>
      </trkpt>
      <trkpt lat="45.45963" lon="5.98136">
        <ele>455.72137451172</ele>
        <time>2015-08-12T17:58:27.000Z</time>
      </trkpt>
      <trkpt lat="45.45965" lon="5.9813">
        <ele>456.78826904297</ele>
        <time>2015-08-12T17:58:30.000Z</time>
      </trkpt>
      <trkpt lat="45.45967" lon="5.98124">
        <ele>457.61148071289</ele>
        <time>2015-08-12T17:58:33.000Z</time>
      </trkpt>
      <trkpt lat="45.45968" lon="5.98119">
        <ele>457.40188598633</ele>
        <time>2015-08-12T17:58:35.000Z</time>
      </trkpt>
      <trkpt lat="45.45969" lon="5.98115">
        <ele>456.64468383789</ele>
        <time>2015-08-12T17:58:37.000Z</time>
      </trkpt>
      <trkpt lat="45.4597" lon="5.98109">
        <ele>455.79125976562</ele>
        <time>2015-08-12T17:58:40.000Z</time>
      </trkpt>
      <trkpt lat="45.45972" lon="5.98103">
        <ele>455.79705810547</ele>
        <time>2015-08-12T17:58:43.000Z</time>
      </trkpt>
      <trkpt lat="45.45973" lon="5.98098">
        <ele>455.39395141602</ele>
        <time>2015-08-12T17:58:45.000Z</time>
      </trkpt>
      <trkpt lat="45.45975" lon="5.98094">
        <ele>455.22055053711</ele>
        <time>2015-08-12T17:58:47.000Z</time>
      </trkpt>
      <trkpt lat="45.45976" lon="5.98087">
        <ele>455.26779174805</ele>
        <time>2015-08-12T17:58:50.000Z</time>
      </trkpt>
      <trkpt lat="45.45978" lon="5.98082">
        <ele>454.7607421875</ele>
        <time>2015-08-12T17:58:52.000Z</time>
      </trkpt>
      <trkpt lat="45.4598" lon="5.98074">
        <ele>455.88482666016</ele>
        <time>2015-08-12T17:58:55.000Z</time>
      </trkpt>
      <trkpt lat="45.45981" lon="5.9807">
        <ele>456.2653503418</ele>
        <time>2015-08-12T17:58:57.000Z</time>
      </trkpt>
      <trkpt lat="45.45982" lon="5.98065">
        <ele>457.12716674805</ele>
        <time>2015-08-12T17:58:59.000Z</time>
      </trkpt>
      <trkpt lat="45.45983" lon="5.98058">
        <ele>457.58032226562</ele>
        <time>2015-08-12T17:59:02.000Z</time>
      </trkpt>
      <trkpt lat="45.45984" lon="5.98054">
        <ele>457.85165405273</ele>
        <time>2015-08-12T17:59:04.000Z</time>
      </trkpt>
      <trkpt lat="45.45985" lon="5.98047">
        <ele>458.06802368164</ele>
        <time>2015-08-12T17:59:07.000Z</time>
      </trkpt>
      <trkpt lat="45.45987" lon="5.98039">
        <ele>458.33169555664</ele>
        <time>2015-08-12T17:59:10.000Z</time>
      </trkpt>
      <trkpt lat="45.45988" lon="5.98035">
        <ele>459.6067199707</ele>
        <time>2015-08-12T17:59:12.000Z</time>
      </trkpt>
      <trkpt lat="45.45988" lon="5.98031">
        <ele>460.74057006836</ele>
        <time>2015-08-12T17:59:14.000Z</time>
      </trkpt>
      <trkpt lat="45.45989" lon="5.98022">
        <ele>460.45007324219</ele>
        <time>2015-08-12T17:59:17.000Z</time>
      </trkpt>
      <trkpt lat="45.45989" lon="5.98017">
        <ele>459.86795043945</ele>
        <time>2015-08-12T17:59:19.000Z</time>
      </trkpt>
      <trkpt lat="45.45989" lon="5.98013">
        <ele>459.87893676758</ele>
        <time>2015-08-12T17:59:21.000Z</time>
      </trkpt>
      <trkpt lat="45.45987" lon="5.98007">
        <ele>461.65872192383</ele>
        <time>2015-08-12T17:59:24.000Z</time>
      </trkpt>
      <trkpt lat="45.45985" lon="5.98001">
        <ele>462.91931152344</ele>
        <time>2015-08-12T17:59:27.000Z</time>
      </trkpt>
      <trkpt lat="45.45984" lon="5.97998">
        <ele>462.91586303711</ele>
        <time>2015-08-12T17:59:29.000Z</time>
      </trkpt>
      <trkpt lat="45.45982" lon="5.97992">
        <ele>463.60571289062</ele>
        <time>2015-08-12T17:59:32.000Z</time>
      </trkpt>
      <trkpt lat="45.45979" lon="5.97986">
        <ele>464.24291992188</ele>
        <time>2015-08-12T17:59:35.000Z</time>
      </trkpt>
      <trkpt lat="45.45978" lon="5.9798">
        <ele>464.45327758789</ele>
        <time>2015-08-12T17:59:38.000Z</time>
      </trkpt>
      <trkpt lat="45.45977" lon="5.97973">
        <ele>466.03964233398</ele>
        <time>2015-08-12T17:59:41.000Z</time>
      </trkpt>
      <trkpt lat="45.45976" lon="5.97969">
        <ele>466.99557495117</ele>
        <time>2015-08-12T17:59:43.000Z</time>
      </trkpt>
      <trkpt lat="45.45975" lon="5.97964">
        <ele>467.55557250977</ele>
        <time>2015-08-12T17:59:46.000Z</time>
      </trkpt>
      <trkpt lat="45.45974" lon="5.9796">
        <ele>467.61535644531</ele>
        <time>2015-08-12T17:59:48.000Z</time>
      </trkpt>
      <trkpt lat="45.45972" lon="5.97954">
        <ele>467.40914916992</ele>
        <time>2015-08-12T17:59:51.000Z</time>
      </trkpt>
      <trkpt lat="45.45972" lon="5.9795">
        <ele>467.88061523438</ele>
        <time>2015-08-12T17:59:53.000Z</time>
      </trkpt>
      <trkpt lat="45.45971" lon="5.97944">
        <ele>469.00311279297</ele>
        <time>2015-08-12T17:59:56.000Z</time>
      </trkpt>
      <trkpt lat="45.4597" lon="5.97941">
        <ele>469.17449951172</ele>
        <time>2015-08-12T17:59:58.000Z</time>
      </trkpt>
      <trkpt lat="45.4597" lon="5.97936">
        <ele>470.49829101562</ele>
        <time>2015-08-12T18:00:01.000Z</time>
      </trkpt>
      <trkpt lat="45.4597" lon="5.97931">
        <ele>471.72271728516</ele>
        <time>2015-08-12T18:00:04.000Z</time>
      </trkpt>
      <trkpt lat="45.45969" lon="5.97927">
        <ele>473.03829956055</ele>
        <time>2015-08-12T18:00:06.000Z</time>
      </trkpt>
      <trkpt lat="45.4597" lon="5.97922">
        <ele>474.06423950195</ele>
        <time>2015-08-12T18:00:09.000Z</time>
      </trkpt>
      <trkpt lat="45.4597" lon="5.97916">
        <ele>475.60470581055</ele>
        <time>2015-08-12T18:00:12.000Z</time>
      </trkpt>
      <trkpt lat="45.4597" lon="5.97913">
        <ele>476.20367431641</ele>
        <time>2015-08-12T18:00:14.000Z</time>
      </trkpt>
      <trkpt lat="45.4597" lon="5.97908">
        <ele>475.89373779297</ele>
        <time>2015-08-12T18:00:16.000Z</time>
      </trkpt>
      <trkpt lat="45.45969" lon="5.97903">
        <ele>476.44619750977</ele>
        <time>2015-08-12T18:00:19.000Z</time>
      </trkpt>
      <trkpt lat="45.45969" lon="5.97897">
        <ele>477.03115844727</ele>
        <time>2015-08-12T18:00:22.000Z</time>
      </trkpt>
      <trkpt lat="45.45969" lon="5.97891">
        <ele>477.93316650391</ele>
        <time>2015-08-12T18:00:25.000Z</time>
      </trkpt>
      <trkpt lat="45.45969" lon="5.97888">
        <ele>478.67520141602</ele>
        <time>2015-08-12T18:00:27.000Z</time>
      </trkpt>
      <trkpt lat="45.4597" lon="5.97884">
        <ele>479.51211547852</ele>
        <time>2015-08-12T18:00:29.000Z</time>
      </trkpt>
      <trkpt lat="45.4597" lon="5.97879">
        <ele>479.57220458984</ele>
        <time>2015-08-12T18:00:31.000Z</time>
      </trkpt>
      <trkpt lat="45.4597" lon="5.97873">
        <ele>479.84869384766</ele>
        <time>2015-08-12T18:00:34.000Z</time>
      </trkpt>
      <trkpt lat="45.45971" lon="5.97865">
        <ele>480.65374755859</ele>
        <time>2015-08-12T18:00:37.000Z</time>
      </trkpt>
      <trkpt lat="45.45971" lon="5.97856">
        <ele>480.02041625977</ele>
        <time>2015-08-12T18:00:40.000Z</time>
      </trkpt>
      <trkpt lat="45.45972" lon="5.97846">
        <ele>481.09527587891</ele>
        <time>2015-08-12T18:00:43.000Z</time>
      </trkpt>
      <trkpt lat="45.45973" lon="5.97838">
        <ele>483.8876953125</ele>
        <time>2015-08-12T18:00:46.000Z</time>
      </trkpt>
      <trkpt lat="45.45975" lon="5.97831">
        <ele>484.3307800293</ele>
        <time>2015-08-12T18:00:49.000Z</time>
      </trkpt>
      <trkpt lat="45.45977" lon="5.97825">
        <ele>485.12915039062</ele>
        <time>2015-08-12T18:00:52.000Z</time>
      </trkpt>
      <trkpt lat="45.45979" lon="5.97819">
        <ele>485.04864501953</ele>
        <time>2015-08-12T18:00:55.000Z</time>
      </trkpt>
      <trkpt lat="45.45982" lon="5.97813">
        <ele>486.53421020508</ele>
        <time>2015-08-12T18:00:58.000Z</time>
      </trkpt>
      <trkpt lat="45.45984" lon="5.97807">
        <ele>488.75631713867</ele>
        <time>2015-08-12T18:01:01.000Z</time>
      </trkpt>
      <trkpt lat="45.45986" lon="5.97804">
        <ele>489.32904052734</ele>
        <time>2015-08-12T18:01:04.000Z</time>
      </trkpt>
      <trkpt lat="45.45987" lon="5.97802">
        <ele>489.88650512695</ele>
        <time>2015-08-12T18:01:06.000Z</time>
      </trkpt>
      <trkpt lat="45.4599" lon="5.97797">
        <ele>490.8391418457</ele>
        <time>2015-08-12T18:01:09.000Z</time>
      </trkpt>
      <trkpt lat="45.45991" lon="5.97795">
        <ele>490.3869934082</ele>
        <time>2015-08-12T18:01:11.000Z</time>
      </trkpt>
      <trkpt lat="45.45993" lon="5.9779">
        <ele>488.43176269531</ele>
        <time>2015-08-12T18:01:13.000Z</time>
      </trkpt>
      <trkpt lat="45.45996" lon="5.97784">
        <ele>484.99661254883</ele>
        <time>2015-08-12T18:01:16.000Z</time>
      </trkpt>
      <trkpt lat="45.46" lon="5.97778">
        <ele>486.31646728516</ele>
        <time>2015-08-12T18:01:19.000Z</time>
      </trkpt>
      <trkpt lat="45.46003" lon="5.97773">
        <ele>488.27001953125</ele>
        <time>2015-08-12T18:01:22.000Z</time>
      </trkpt>
      <trkpt lat="45.46005" lon="5.97769">
        <ele>489.14633178711</ele>
        <time>2015-08-12T18:01:24.000Z</time>
      </trkpt>
      <trkpt lat="45.46009" lon="5.97762">
        <ele>488.38284301758</ele>
        <time>2015-08-12T18:01:27.000Z</time>
      </trkpt>
      <trkpt lat="45.46012" lon="5.97756">
        <ele>488.94818115234</ele>
        <time>2015-08-12T18:01:30.000Z</time>
      </trkpt>
      <trkpt lat="45.46016" lon="5.9775">
        <ele>488.80368041992</ele>
        <time>2015-08-12T18:01:33.000Z</time>
      </trkpt>
      <trkpt lat="45.46018" lon="5.97747">
        <ele>488.73287963867</ele>
        <time>2015-08-12T18:01:35.000Z</time>
      </trkpt>
      <trkpt lat="45.46021" lon="5.97742">
        <ele>489.50741577148</ele>
        <time>2015-08-12T18:01:38.000Z</time>
      </trkpt>
      <trkpt lat="45.46023" lon="5.97739">
        <ele>489.61102294922</ele>
        <time>2015-08-12T18:01:40.000Z</time>
      </trkpt>
      <trkpt lat="45.46027" lon="5.97734">
        <ele>491.09790039062</ele>
        <time>2015-08-12T18:01:43.000Z</time>
      </trkpt>
      <trkpt lat="45.46031" lon="5.97729">
        <ele>491.91757202148</ele>
        <time>2015-08-12T18:01:46.000Z</time>
      </trkpt>
      <trkpt lat="45.46033" lon="5.97725">
        <ele>491.81484985352</ele>
        <time>2015-08-12T18:01:48.000Z</time>
      </trkpt>
      <trkpt lat="45.46035" lon="5.97721">
        <ele>492.33322143555</ele>
        <time>2015-08-12T18:01:50.000Z</time>
      </trkpt>
      <trkpt lat="45.46038" lon="5.97715">
        <ele>490.65744018555</ele>
        <time>2015-08-12T18:01:53.000Z</time>
      </trkpt>
      <trkpt lat="45.46043" lon="5.97707">
        <ele>491.20275878906</ele>
        <time>2015-08-12T18:01:56.000Z</time>
      </trkpt>
      <trkpt lat="45.46045" lon="5.97703">
        <ele>492.25115966797</ele>
        <time>2015-08-12T18:01:58.000Z</time>
      </trkpt>
      <trkpt lat="45.46048" lon="5.97698">
        <ele>493.85717773438</ele>
        <time>2015-08-12T18:02:00.000Z</time>
      </trkpt>
      <trkpt lat="45.46052" lon="5.97692">
        <ele>494.37188720703</ele>
        <time>2015-08-12T18:02:03.000Z</time>
      </trkpt>
      <trkpt lat="45.46054" lon="5.97688">
        <ele>495.07778930664</ele>
        <time>2015-08-12T18:02:05.000Z</time>
      </trkpt>
      <trkpt lat="45.46057" lon="5.97684">
        <ele>495.11853027344</ele>
        <time>2015-08-12T18:02:07.000Z</time>
      </trkpt>
      <trkpt lat="45.46061" lon="5.97677">
        <ele>494.37686157227</ele>
        <time>2015-08-12T18:02:10.000Z</time>
      </trkpt>
      <trkpt lat="45.46063" lon="5.97673">
        <ele>494.67269897461</ele>
        <time>2015-08-12T18:02:12.000Z</time>
      </trkpt>
      <trkpt lat="45.46065" lon="5.97669">
        <ele>495.12109375</ele>
        <time>2015-08-12T18:02:14.000Z</time>
      </trkpt>
      <trkpt lat="45.46069" lon="5.97661">
        <ele>495.3401184082</ele>
        <time>2015-08-12T18:02:17.000Z</time>
      </trkpt>
      <trkpt lat="45.46071" lon="5.97656">
        <ele>495.10809326172</ele>
        <time>2015-08-12T18:02:19.000Z</time>
      </trkpt>
      <trkpt lat="45.46075" lon="5.9765">
        <ele>494.72384643555</ele>
        <time>2015-08-12T18:02:22.000Z</time>
      </trkpt>
      <trkpt lat="45.46077" lon="5.97645">
        <ele>494.60162353516</ele>
        <time>2015-08-12T18:02:24.000Z</time>
      </trkpt>
      <trkpt lat="45.46081" lon="5.97637">
        <ele>493.77209472656</ele>
        <time>2015-08-12T18:02:27.000Z</time>
      </trkpt>
      <trkpt lat="45.46083" lon="5.97633">
        <ele>493.33407592773</ele>
        <time>2015-08-12T18:02:29.000Z</time>
      </trkpt>
      <trkpt lat="45.46086" lon="5.97628">
        <ele>492.90396118164</ele>
        <time>2015-08-12T18:02:31.000Z</time>
      </trkpt>
      <trkpt lat="45.46088" lon="5.97623">
        <ele>492.90887451172</ele>
        <time>2015-08-12T18:02:33.000Z</time>
      </trkpt>
      <trkpt lat="45.46091" lon="5.97616">
        <ele>493.0299987793</ele>
        <time>2015-08-12T18:02:36.000Z</time>
      </trkpt>
      <trkpt lat="45.46094" lon="5.97612">
        <ele>493.01986694336</ele>
        <time>2015-08-12T18:02:38.000Z</time>
      </trkpt>
      <trkpt lat="45.46098" lon="5.97606">
        <ele>493.24014282227</ele>
        <time>2015-08-12T18:02:41.000Z</time>
      </trkpt>
      <trkpt lat="45.461" lon="5.97602">
        <ele>493.49624633789</ele>
        <time>2015-08-12T18:02:43.000Z</time>
      </trkpt>
      <trkpt lat="45.46103" lon="5.97596">
        <ele>493.99105834961</ele>
        <time>2015-08-12T18:02:46.000Z</time>
      </trkpt>
      <trkpt lat="45.46106" lon="5.97589">
        <ele>494.00595092773</ele>
        <time>2015-08-12T18:02:49.000Z</time>
      </trkpt>
      <trkpt lat="45.46107" lon="5.97584">
        <ele>494.34594726562</ele>
        <time>2015-08-12T18:02:51.000Z</time>
      </trkpt>
      <trkpt lat="45.4611" lon="5.97578">
        <ele>494.05490112305</ele>
        <time>2015-08-12T18:02:54.000Z</time>
      </trkpt>
      <trkpt lat="45.46113" lon="5.97572">
        <ele>494.67208862305</ele>
        <time>2015-08-12T18:02:57.000Z</time>
      </trkpt>
      <trkpt lat="45.46115" lon="5.97568">
        <ele>494.59115600586</ele>
        <time>2015-08-12T18:02:59.000Z</time>
      </trkpt>
      <trkpt lat="45.46118" lon="5.97562">
        <ele>495.17037963867</ele>
        <time>2015-08-12T18:03:02.000Z</time>
      </trkpt>
      <trkpt lat="45.46119" lon="5.97557">
        <ele>495.09197998047</ele>
        <time>2015-08-12T18:03:04.000Z</time>
      </trkpt>
      <trkpt lat="45.4612" lon="5.97554">
        <ele>495.01870727539</ele>
        <time>2015-08-12T18:03:06.000Z</time>
      </trkpt>
      <trkpt lat="45.46124" lon="5.97548">
        <ele>496.68402099609</ele>
        <time>2015-08-12T18:03:09.000Z</time>
      </trkpt>
      <trkpt lat="45.46125" lon="5.97545">
        <ele>497.88162231445</ele>
        <time>2015-08-12T18:03:11.000Z</time>
      </trkpt>
      <trkpt lat="45.46128" lon="5.9754">
        <ele>498.66021728516</ele>
        <time>2015-08-12T18:03:14.000Z</time>
      </trkpt>
      <trkpt lat="45.4613" lon="5.97535">
        <ele>499.69506835938</ele>
        <time>2015-08-12T18:03:17.000Z</time>
      </trkpt>
      <trkpt lat="45.46132" lon="5.97531">
        <ele>500.02386474609</ele>
        <time>2015-08-12T18:03:19.000Z</time>
      </trkpt>
      <trkpt lat="45.46134" lon="5.97525">
        <ele>500.53768920898</ele>
        <time>2015-08-12T18:03:22.000Z</time>
      </trkpt>
      <trkpt lat="45.46136" lon="5.97522">
        <ele>500.9821472168</ele>
        <time>2015-08-12T18:03:24.000Z</time>
      </trkpt>
      <trkpt lat="45.46138" lon="5.97518">
        <ele>501.40426635742</ele>
        <time>2015-08-12T18:03:26.000Z</time>
      </trkpt>
      <trkpt lat="45.46141" lon="5.97513">
        <ele>502.36920166016</ele>
        <time>2015-08-12T18:03:29.000Z</time>
      </trkpt>
      <trkpt lat="45.46143" lon="5.97509">
        <ele>502.69201660156</ele>
        <time>2015-08-12T18:03:31.000Z</time>
      </trkpt>
      <trkpt lat="45.46146" lon="5.97505">
        <ele>502.70080566406</ele>
        <time>2015-08-12T18:03:34.000Z</time>
      </trkpt>
      <trkpt lat="45.4615" lon="5.975">
        <ele>502.31600952148</ele>
        <time>2015-08-12T18:03:37.000Z</time>
      </trkpt>
      <trkpt lat="45.46154" lon="5.97496">
        <ele>504.06167602539</ele>
        <time>2015-08-12T18:03:40.000Z</time>
      </trkpt>
      <trkpt lat="45.46159" lon="5.97493">
        <ele>506.68447875977</ele>
        <time>2015-08-12T18:03:43.000Z</time>
      </trkpt>
      <trkpt lat="45.46162" lon="5.9749">
        <ele>509.08673095703</ele>
        <time>2015-08-12T18:03:46.000Z</time>
      </trkpt>
      <trkpt lat="45.46164" lon="5.97488">
        <ele>510.66146850586</ele>
        <time>2015-08-12T18:03:48.000Z</time>
      </trkpt>
      <trkpt lat="45.46167" lon="5.97486">
        <ele>510.90289306641</ele>
        <time>2015-08-12T18:03:50.000Z</time>
      </trkpt>
      <trkpt lat="45.46172" lon="5.97484">
        <ele>509.78555297852</ele>
        <time>2015-08-12T18:03:53.000Z</time>
      </trkpt>
      <trkpt lat="45.46175" lon="5.97483">
        <ele>511.31008911133</ele>
        <time>2015-08-12T18:03:55.000Z</time>
      </trkpt>
      <trkpt lat="45.46179" lon="5.9748">
        <ele>513.1162109375</ele>
        <time>2015-08-12T18:03:58.000Z</time>
      </trkpt>
      <trkpt lat="45.46184" lon="5.97478">
        <ele>513.45629882812</ele>
        <time>2015-08-12T18:04:01.000Z</time>
      </trkpt>
      <trkpt lat="45.46187" lon="5.97476">
        <ele>511.72305297852</ele>
        <time>2015-08-12T18:04:03.000Z</time>
      </trkpt>
      <trkpt lat="45.4619" lon="5.97475">
        <ele>511.12170410156</ele>
        <time>2015-08-12T18:04:05.000Z</time>
      </trkpt>
      <trkpt lat="45.46194" lon="5.97473">
        <ele>511.3127746582</ele>
        <time>2015-08-12T18:04:07.000Z</time>
      </trkpt>
      <trkpt lat="45.46196" lon="5.97472">
        <ele>512.13427734375</ele>
        <time>2015-08-12T18:04:09.000Z</time>
      </trkpt>
      <trkpt lat="45.46201" lon="5.97469">
        <ele>513.42401123047</ele>
        <time>2015-08-12T18:04:12.000Z</time>
      </trkpt>
      <trkpt lat="45.46204" lon="5.97466">
        <ele>513.70330810547</ele>
        <time>2015-08-12T18:04:15.000Z</time>
      </trkpt>
      <trkpt lat="45.46207" lon="5.97464">
        <ele>514.04016113281</ele>
        <time>2015-08-12T18:04:18.000Z</time>
      </trkpt>
      <trkpt lat="45.4621" lon="5.97462">
        <ele>515.65441894531</ele>
        <time>2015-08-12T18:04:20.000Z</time>
      </trkpt>
      <trkpt lat="45.46213" lon="5.9746">
        <ele>517.21466064453</ele>
        <time>2015-08-12T18:04:23.000Z</time>
      </trkpt>
      <trkpt lat="45.46215" lon="5.97459">
        <ele>517.89990234375</ele>
        <time>2015-08-12T18:04:25.000Z</time>
      </trkpt>
      <trkpt lat="45.46219" lon="5.97456">
        <ele>519.75402832031</ele>
        <time>2015-08-12T18:04:28.000Z</time>
      </trkpt>
      <trkpt lat="45.46221" lon="5.97455">
        <ele>520.60913085938</ele>
        <time>2015-08-12T18:04:31.000Z</time>
      </trkpt>
      <trkpt lat="45.46223" lon="5.97454">
        <ele>519.01434326172</ele>
        <time>2015-08-12T18:04:33.000Z</time>
      </trkpt>
      <trkpt lat="45.46228" lon="5.97452">
        <ele>519.67095947266</ele>
        <time>2015-08-12T18:04:36.000Z</time>
      </trkpt>
      <trkpt lat="45.46232" lon="5.97451">
        <ele>518.42498779297</ele>
        <time>2015-08-12T18:04:38.000Z</time>
      </trkpt>
      <trkpt lat="45.46236" lon="5.97449">
        <ele>517.96234130859</ele>
        <time>2015-08-12T18:04:40.000Z</time>
      </trkpt>
      <trkpt lat="45.46239" lon="5.97448">
        <ele>518.85363769531</ele>
        <time>2015-08-12T18:04:42.000Z</time>
      </trkpt>
      <trkpt lat="45.46243" lon="5.97447">
        <ele>519.66864013672</ele>
        <time>2015-08-12T18:04:44.000Z</time>
      </trkpt>
      <trkpt lat="45.46246" lon="5.97446">
        <ele>519.84118652344</ele>
        <time>2015-08-12T18:04:46.000Z</time>
      </trkpt>
      <trkpt lat="45.46251" lon="5.97444">
        <ele>516.88171386719</ele>
        <time>2015-08-12T18:04:49.000Z</time>
      </trkpt>
      <trkpt lat="45.46254" lon="5.97443">
        <ele>515.72479248047</ele>
        <time>2015-08-12T18:04:51.000Z</time>
      </trkpt>
      <trkpt lat="45.46257" lon="5.97441">
        <ele>514.99133300781</ele>
        <time>2015-08-12T18:04:53.000Z</time>
      </trkpt>
      <trkpt lat="45.46261" lon="5.9744">
        <ele>514.92694091797</ele>
        <time>2015-08-12T18:04:55.000Z</time>
      </trkpt>
      <trkpt lat="45.46268" lon="5.97435">
        <ele>513.80364990234</ele>
        <time>2015-08-12T18:04:58.000Z</time>
      </trkpt>
      <trkpt lat="45.46273" lon="5.97433">
        <ele>513.7822265625</ele>
        <time>2015-08-12T18:05:00.000Z</time>
      </trkpt>
      <trkpt lat="45.46279" lon="5.97428">
        <ele>515.29931640625</ele>
        <time>2015-08-12T18:05:03.000Z</time>
      </trkpt>
      <trkpt lat="45.46283" lon="5.97424">
        <ele>515.54217529297</ele>
        <time>2015-08-12T18:05:05.000Z</time>
      </trkpt>
      <trkpt lat="45.46289" lon="5.97419">
        <ele>516.46801757812</ele>
        <time>2015-08-12T18:05:08.000Z</time>
      </trkpt>
      <trkpt lat="45.46293" lon="5.97416">
        <ele>516.79309082031</ele>
        <time>2015-08-12T18:05:10.000Z</time>
      </trkpt>
      <trkpt lat="45.46299" lon="5.97412">
        <ele>517.54064941406</ele>
        <time>2015-08-12T18:05:13.000Z</time>
      </trkpt>
      <trkpt lat="45.46304" lon="5.97409">
        <ele>518.03045654297</ele>
        <time>2015-08-12T18:05:16.000Z</time>
      </trkpt>
      <trkpt lat="45.46309" lon="5.97403">
        <ele>518.62677001953</ele>
        <time>2015-08-12T18:05:19.000Z</time>
      </trkpt>
      <trkpt lat="45.46313" lon="5.97398">
        <ele>518.93518066406</ele>
        <time>2015-08-12T18:05:22.000Z</time>
      </trkpt>
      <trkpt lat="45.46317" lon="5.97394">
        <ele>518.27014160156</ele>
        <time>2015-08-12T18:05:25.000Z</time>
      </trkpt>
      <trkpt lat="45.46319" lon="5.97391">
        <ele>518.62298583984</ele>
        <time>2015-08-12T18:05:27.000Z</time>
      </trkpt>
      <trkpt lat="45.46323" lon="5.97388">
        <ele>518.95733642578</ele>
        <time>2015-08-12T18:05:30.000Z</time>
      </trkpt>
      <trkpt lat="45.46326" lon="5.97386">
        <ele>520.17950439453</ele>
        <time>2015-08-12T18:05:33.000Z</time>
      </trkpt>
      <trkpt lat="45.4633" lon="5.97382">
        <ele>520.51678466797</ele>
        <time>2015-08-12T18:05:36.000Z</time>
      </trkpt>
      <trkpt lat="45.46334" lon="5.97378">
        <ele>520.71270751953</ele>
        <time>2015-08-12T18:05:39.000Z</time>
      </trkpt>
      <trkpt lat="45.46337" lon="5.97376">
        <ele>520.96319580078</ele>
        <time>2015-08-12T18:05:41.000Z</time>
      </trkpt>
      <trkpt lat="45.4634" lon="5.97373">
        <ele>521.03350830078</ele>
        <time>2015-08-12T18:05:43.000Z</time>
      </trkpt>
      <trkpt lat="45.46344" lon="5.97368">
        <ele>520.84515380859</ele>
        <time>2015-08-12T18:05:46.000Z</time>
      </trkpt>
      <trkpt lat="45.46347" lon="5.97365">
        <ele>520.55072021484</ele>
        <time>2015-08-12T18:05:48.000Z</time>
      </trkpt>
      <trkpt lat="45.46352" lon="5.9736">
        <ele>520.52777099609</ele>
        <time>2015-08-12T18:05:51.000Z</time>
      </trkpt>
      <trkpt lat="45.46355" lon="5.97355">
        <ele>521.27972412109</ele>
        <time>2015-08-12T18:05:54.000Z</time>
      </trkpt>
      <trkpt lat="45.46358" lon="5.97351">
        <ele>521.88458251953</ele>
        <time>2015-08-12T18:05:56.000Z</time>
      </trkpt>
      <trkpt lat="45.46362" lon="5.97345">
        <ele>523.46008300781</ele>
        <time>2015-08-12T18:05:59.000Z</time>
      </trkpt>
      <trkpt lat="45.46365" lon="5.97341">
        <ele>523.95080566406</ele>
        <time>2015-08-12T18:06:02.000Z</time>
      </trkpt>
      <trkpt lat="45.46368" lon="5.97336">
        <ele>525.04376220703</ele>
        <time>2015-08-12T18:06:05.000Z</time>
      </trkpt>
      <trkpt lat="45.46371" lon="5.9733">
        <ele>526.00335693359</ele>
        <time>2015-08-12T18:06:08.000Z</time>
      </trkpt>
      <trkpt lat="45.46375" lon="5.97325">
        <ele>526.41912841797</ele>
        <time>2015-08-12T18:06:11.000Z</time>
      </trkpt>
      <trkpt lat="45.46376" lon="5.97321">
        <ele>526.94805908203</ele>
        <time>2015-08-12T18:06:13.000Z</time>
      </trkpt>
      <trkpt lat="45.4638" lon="5.97315">
        <ele>528.60949707031</ele>
        <time>2015-08-12T18:06:16.000Z</time>
      </trkpt>
      <trkpt lat="45.46382" lon="5.97311">
        <ele>529.46740722656</ele>
        <time>2015-08-12T18:06:18.000Z</time>
      </trkpt>
      <trkpt lat="45.46384" lon="5.97307">
        <ele>530.08117675781</ele>
        <time>2015-08-12T18:06:20.000Z</time>
      </trkpt>
      <trkpt lat="45.46386" lon="5.973">
        <ele>529.24438476562</ele>
        <time>2015-08-12T18:06:23.000Z</time>
      </trkpt>
      <trkpt lat="45.46388" lon="5.97296">
        <ele>528.22631835938</ele>
        <time>2015-08-12T18:06:25.000Z</time>
      </trkpt>
      <trkpt lat="45.46392" lon="5.97289">
        <ele>528.80944824219</ele>
        <time>2015-08-12T18:06:28.000Z</time>
      </trkpt>
      <trkpt lat="45.46394" lon="5.97285">
        <ele>529.78186035156</ele>
        <time>2015-08-12T18:06:30.000Z</time>
      </trkpt>
      <trkpt lat="45.46396" lon="5.97278">
        <ele>530.58575439453</ele>
        <time>2015-08-12T18:06:33.000Z</time>
      </trkpt>
      <trkpt lat="45.46399" lon="5.9727">
        <ele>531.46405029297</ele>
        <time>2015-08-12T18:06:36.000Z</time>
      </trkpt>
      <trkpt lat="45.46401" lon="5.97266">
        <ele>531.90698242188</ele>
        <time>2015-08-12T18:06:38.000Z</time>
      </trkpt>
      <trkpt lat="45.46404" lon="5.97258">
        <ele>531.41137695312</ele>
        <time>2015-08-12T18:06:41.000Z</time>
      </trkpt>
      <trkpt lat="45.46407" lon="5.97251">
        <ele>531.68127441406</ele>
        <time>2015-08-12T18:06:44.000Z</time>
      </trkpt>
      <trkpt lat="45.46409" lon="5.97245">
        <ele>532.25939941406</ele>
        <time>2015-08-12T18:06:47.000Z</time>
      </trkpt>
      <trkpt lat="45.46412" lon="5.97238">
        <ele>533.61853027344</ele>
        <time>2015-08-12T18:06:50.000Z</time>
      </trkpt>
      <trkpt lat="45.46415" lon="5.97232">
        <ele>534.02056884766</ele>
        <time>2015-08-12T18:06:53.000Z</time>
      </trkpt>
      <trkpt lat="45.46417" lon="5.97228">
        <ele>534.19598388672</ele>
        <time>2015-08-12T18:06:55.000Z</time>
      </trkpt>
      <trkpt lat="45.4642" lon="5.97225">
        <ele>533.16119384766</ele>
        <time>2015-08-12T18:06:57.000Z</time>
      </trkpt>
      <trkpt lat="45.46424" lon="5.97221">
        <ele>532.01959228516</ele>
        <time>2015-08-12T18:07:00.000Z</time>
      </trkpt>
      <trkpt lat="45.46428" lon="5.97221">
        <ele>531.95068359375</ele>
        <time>2015-08-12T18:07:02.000Z</time>
      </trkpt>
      <trkpt lat="45.46434" lon="5.97221">
        <ele>531.55914306641</ele>
        <time>2015-08-12T18:07:05.000Z</time>
      </trkpt>
      <trkpt lat="45.46439" lon="5.97223">
        <ele>532.25122070312</ele>
        <time>2015-08-12T18:07:08.000Z</time>
      </trkpt>
      <trkpt lat="45.46443" lon="5.97226">
        <ele>534.57275390625</ele>
        <time>2015-08-12T18:07:11.000Z</time>
      </trkpt>
      <trkpt lat="45.46448" lon="5.97228">
        <ele>534.95886230469</ele>
        <time>2015-08-12T18:07:14.000Z</time>
      </trkpt>
      <trkpt lat="45.46454" lon="5.9723">
        <ele>534.45977783203</ele>
        <time>2015-08-12T18:07:17.000Z</time>
      </trkpt>
      <trkpt lat="45.4646" lon="5.97232">
        <ele>534.96020507812</ele>
        <time>2015-08-12T18:07:20.000Z</time>
      </trkpt>
      <trkpt lat="45.46464" lon="5.97233">
        <ele>535.40289306641</ele>
        <time>2015-08-12T18:07:22.000Z</time>
      </trkpt>
      <trkpt lat="45.46468" lon="5.97234">
        <ele>535.88482666016</ele>
        <time>2015-08-12T18:07:24.000Z</time>
      </trkpt>
      <trkpt lat="45.46474" lon="5.97236">
        <ele>535.89172363281</ele>
        <time>2015-08-12T18:07:27.000Z</time>
      </trkpt>
      <trkpt lat="45.46478" lon="5.97238">
        <ele>536.22381591797</ele>
        <time>2015-08-12T18:07:29.000Z</time>
      </trkpt>
      <trkpt lat="45.46484" lon="5.9724">
        <ele>537.23352050781</ele>
        <time>2015-08-12T18:07:32.000Z</time>
      </trkpt>
      <trkpt lat="45.4649" lon="5.97243">
        <ele>537.46044921875</ele>
        <time>2015-08-12T18:07:35.000Z</time>
      </trkpt>
      <trkpt lat="45.46494" lon="5.97245">
        <ele>538.14501953125</ele>
        <time>2015-08-12T18:07:37.000Z</time>
      </trkpt>
      <trkpt lat="45.46498" lon="5.97246">
        <ele>538.90222167969</ele>
        <time>2015-08-12T18:07:39.000Z</time>
      </trkpt>
      <trkpt lat="45.46501" lon="5.97247">
        <ele>538.54144287109</ele>
        <time>2015-08-12T18:07:41.000Z</time>
      </trkpt>
      <trkpt lat="45.46505" lon="5.97249">
        <ele>539.31103515625</ele>
        <time>2015-08-12T18:07:43.000Z</time>
      </trkpt>
      <trkpt lat="45.46508" lon="5.97251">
        <ele>539.90295410156</ele>
        <time>2015-08-12T18:07:45.000Z</time>
      </trkpt>
      <trkpt lat="45.46513" lon="5.97253">
        <ele>540.033203125</ele>
        <time>2015-08-12T18:07:48.000Z</time>
      </trkpt>
      <trkpt lat="45.46516" lon="5.97254">
        <ele>540.39483642578</ele>
        <time>2015-08-12T18:07:50.000Z</time>
      </trkpt>
      <trkpt lat="45.46521" lon="5.97255">
        <ele>541.32604980469</ele>
        <time>2015-08-12T18:07:53.000Z</time>
      </trkpt>
      <trkpt lat="45.46524" lon="5.97256">
        <ele>541.24481201172</ele>
        <time>2015-08-12T18:07:55.000Z</time>
      </trkpt>
      <trkpt lat="45.46529" lon="5.97257">
        <ele>541.63336181641</ele>
        <time>2015-08-12T18:07:58.000Z</time>
      </trkpt>
      <trkpt lat="45.46532" lon="5.97258">
        <ele>541.55773925781</ele>
        <time>2015-08-12T18:08:00.000Z</time>
      </trkpt>
      <trkpt lat="45.46537" lon="5.97258">
        <ele>541.43701171875</ele>
        <time>2015-08-12T18:08:03.000Z</time>
      </trkpt>
      <trkpt lat="45.46542" lon="5.97259">
        <ele>541.919921875</ele>
        <time>2015-08-12T18:08:06.000Z</time>
      </trkpt>
      <trkpt lat="45.46546" lon="5.97259">
        <ele>542.24798583984</ele>
        <time>2015-08-12T18:08:08.000Z</time>
      </trkpt>
      <trkpt lat="45.46549" lon="5.9726">
        <ele>542.29138183594</ele>
        <time>2015-08-12T18:08:10.000Z</time>
      </trkpt>
      <trkpt lat="45.46553" lon="5.9726">
        <ele>542.4697265625</ele>
        <time>2015-08-12T18:08:12.000Z</time>
      </trkpt>
      <trkpt lat="45.46558" lon="5.97261">
        <ele>541.97424316406</ele>
        <time>2015-08-12T18:08:15.000Z</time>
      </trkpt>
      <trkpt lat="45.46562" lon="5.97262">
        <ele>541.97045898438</ele>
        <time>2015-08-12T18:08:17.000Z</time>
      </trkpt>
      <trkpt lat="45.46566" lon="5.97263">
        <ele>541.97174072266</ele>
        <time>2015-08-12T18:08:19.000Z</time>
      </trkpt>
      <trkpt lat="45.46571" lon="5.97263">
        <ele>541.98052978516</ele>
        <time>2015-08-12T18:08:22.000Z</time>
      </trkpt>
      <trkpt lat="45.46576" lon="5.97264">
        <ele>542.42742919922</ele>
        <time>2015-08-12T18:08:25.000Z</time>
      </trkpt>
      <trkpt lat="45.46582" lon="5.97264">
        <ele>542.50921630859</ele>
        <time>2015-08-12T18:08:28.000Z</time>
      </trkpt>
      <trkpt lat="45.46585" lon="5.97264">
        <ele>542.50555419922</ele>
        <time>2015-08-12T18:08:30.000Z</time>
      </trkpt>
      <trkpt lat="45.46588" lon="5.97264">
        <ele>542.91394042969</ele>
        <time>2015-08-12T18:08:32.000Z</time>
      </trkpt>
      <trkpt lat="45.46592" lon="5.97264">
        <ele>543.02178955078</ele>
        <time>2015-08-12T18:08:35.000Z</time>
      </trkpt>
      <trkpt lat="45.46596" lon="5.97264">
        <ele>544.45196533203</ele>
        <time>2015-08-12T18:08:37.000Z</time>
      </trkpt>
      <trkpt lat="45.466" lon="5.97264">
        <ele>546.69250488281</ele>
        <time>2015-08-12T18:08:40.000Z</time>
      </trkpt>
      <trkpt lat="45.46605" lon="5.97265">
        <ele>546.53485107422</ele>
        <time>2015-08-12T18:08:43.000Z</time>
      </trkpt>
      <trkpt lat="45.46609" lon="5.97266">
        <ele>545.58270263672</ele>
        <time>2015-08-12T18:08:46.000Z</time>
      </trkpt>
      <trkpt lat="45.46614" lon="5.97266">
        <ele>543.98968505859</ele>
        <time>2015-08-12T18:08:49.000Z</time>
      </trkpt>
      <trkpt lat="45.46617" lon="5.97266">
        <ele>543.29711914062</ele>
        <time>2015-08-12T18:08:51.000Z</time>
      </trkpt>
      <trkpt lat="45.46622" lon="5.97266">
        <ele>542.83471679688</ele>
        <time>2015-08-12T18:08:54.000Z</time>
      </trkpt>
      <trkpt lat="45.46626" lon="5.97266">
        <ele>542.5126953125</ele>
        <time>2015-08-12T18:08:56.000Z</time>
      </trkpt>
      <trkpt lat="45.46629" lon="5.97266">
        <ele>542.29473876953</ele>
        <time>2015-08-12T18:08:58.000Z</time>
      </trkpt>
      <trkpt lat="45.46632" lon="5.97267">
        <ele>541.98876953125</ele>
        <time>2015-08-12T18:09:00.000Z</time>
      </trkpt>
      <trkpt lat="45.46635" lon="5.97268">
        <ele>541.96856689453</ele>
        <time>2015-08-12T18:09:02.000Z</time>
      </trkpt>
      <trkpt lat="45.46637" lon="5.97268">
        <ele>542.38226318359</ele>
        <time>2015-08-12T18:09:05.000Z</time>
      </trkpt>
      <trkpt lat="45.46639" lon="5.97267">
        <ele>542.60357666016</ele>
        <time>2015-08-12T18:09:08.000Z</time>
      </trkpt>
      <trkpt lat="45.46641" lon="5.97266">
        <ele>542.14306640625</ele>
        <time>2015-08-12T18:09:10.000Z</time>
      </trkpt>
      <trkpt lat="45.46644" lon="5.97265">
        <ele>540.96228027344</ele>
        <time>2015-08-12T18:09:13.000Z</time>
      </trkpt>
      <trkpt lat="45.46645" lon="5.97263">
        <ele>540.11688232422</ele>
        <time>2015-08-12T18:09:15.000Z</time>
      </trkpt>
      <trkpt lat="45.46644" lon="5.97259">
        <ele>539.23083496094</ele>
        <time>2015-08-12T18:09:18.000Z</time>
      </trkpt>
      <trkpt lat="45.46643" lon="5.97256">
        <ele>538.53820800781</ele>
        <time>2015-08-12T18:09:21.000Z</time>
      </trkpt>
      <trkpt lat="45.46644" lon="5.97253">
        <ele>538.24816894531</ele>
        <time>2015-08-12T18:09:23.000Z</time>
      </trkpt>
      <trkpt lat="45.46645" lon="5.97249">
        <ele>537.32055664062</ele>
        <time>2015-08-12T18:09:26.000Z</time>
      </trkpt>
      <trkpt lat="45.46645" lon="5.97245">
        <ele>536.65478515625</ele>
        <time>2015-08-12T18:09:29.000Z</time>
      </trkpt>
      <trkpt lat="45.46645" lon="5.97242">
        <ele>536.4228515625</ele>
        <time>2015-08-12T18:09:31.000Z</time>
      </trkpt>
      <trkpt lat="45.46645" lon="5.97239">
        <ele>536.39459228516</ele>
        <time>2015-08-12T18:09:33.000Z</time>
      </trkpt>
      <trkpt lat="45.46645" lon="5.97235">
        <ele>536.51062011719</ele>
        <time>2015-08-12T18:09:36.000Z</time>
      </trkpt>
      <trkpt lat="45.46645" lon="5.97232">
        <ele>536.99255371094</ele>
        <time>2015-08-12T18:09:38.000Z</time>
      </trkpt>
      <trkpt lat="45.46645" lon="5.97228">
        <ele>537.53643798828</ele>
        <time>2015-08-12T18:09:40.000Z</time>
      </trkpt>
      <trkpt lat="45.46645" lon="5.97223">
        <ele>537.85217285156</ele>
        <time>2015-08-12T18:09:43.000Z</time>
      </trkpt>
      <trkpt lat="45.46644" lon="5.97218">
        <ele>538.70709228516</ele>
        <time>2015-08-12T18:09:46.000Z</time>
      </trkpt>
      <trkpt lat="45.46643" lon="5.97213">
        <ele>539.73303222656</ele>
        <time>2015-08-12T18:09:49.000Z</time>
      </trkpt>
      <trkpt lat="45.46643" lon="5.97209">
        <ele>540.62261962891</ele>
        <time>2015-08-12T18:09:51.000Z</time>
      </trkpt>
      <trkpt lat="45.46643" lon="5.97204">
        <ele>541.18450927734</ele>
        <time>2015-08-12T18:09:54.000Z</time>
      </trkpt>
      <trkpt lat="45.46644" lon="5.972">
        <ele>541.54144287109</ele>
        <time>2015-08-12T18:09:56.000Z</time>
      </trkpt>
      <trkpt lat="45.46643" lon="5.97197">
        <ele>542.03991699219</ele>
        <time>2015-08-12T18:09:58.000Z</time>
      </trkpt>
      <trkpt lat="45.46643" lon="5.97194">
        <ele>542.56243896484</ele>
        <time>2015-08-12T18:10:00.000Z</time>
      </trkpt>
      <trkpt lat="45.46642" lon="5.97188">
        <ele>543.08721923828</ele>
        <time>2015-08-12T18:10:03.000Z</time>
      </trkpt>
      <trkpt lat="45.46642" lon="5.97184">
        <ele>543.26531982422</ele>
        <time>2015-08-12T18:10:05.000Z</time>
      </trkpt>
      <trkpt lat="45.46642" lon="5.97179">
        <ele>543.58905029297</ele>
        <time>2015-08-12T18:10:08.000Z</time>
      </trkpt>
      <trkpt lat="45.46642" lon="5.97176">
        <ele>544.12725830078</ele>
        <time>2015-08-12T18:10:10.000Z</time>
      </trkpt>
      <trkpt lat="45.46641" lon="5.97172">
        <ele>544.46929931641</ele>
        <time>2015-08-12T18:10:12.000Z</time>
      </trkpt>
      <trkpt lat="45.46641" lon="5.97167">
        <ele>544.73815917969</ele>
        <time>2015-08-12T18:10:15.000Z</time>
      </trkpt>
      <trkpt lat="45.46641" lon="5.97162">
        <ele>544.99072265625</ele>
        <time>2015-08-12T18:10:18.000Z</time>
      </trkpt>
      <trkpt lat="45.46641" lon="5.97157">
        <ele>545.26245117188</ele>
        <time>2015-08-12T18:10:21.000Z</time>
      </trkpt>
      <trkpt lat="45.4664" lon="5.97152">
        <ele>545.40606689453</ele>
        <time>2015-08-12T18:10:24.000Z</time>
      </trkpt>
      <trkpt lat="45.4664" lon="5.97147">
        <ele>545.84295654297</ele>
        <time>2015-08-12T18:10:27.000Z</time>
      </trkpt>
      <trkpt lat="45.4664" lon="5.97144">
        <ele>546.31127929688</ele>
        <time>2015-08-12T18:10:29.000Z</time>
      </trkpt>
      <trkpt lat="45.46639" lon="5.97139">
        <ele>546.94934082031</ele>
        <time>2015-08-12T18:10:32.000Z</time>
      </trkpt>
      <trkpt lat="45.46639" lon="5.97135">
        <ele>547.22369384766</ele>
        <time>2015-08-12T18:10:34.000Z</time>
      </trkpt>
      <trkpt lat="45.46638" lon="5.9713">
        <ele>548.20977783203</ele>
        <time>2015-08-12T18:10:37.000Z</time>
      </trkpt>
      <trkpt lat="45.46637" lon="5.97125">
        <ele>548.87097167969</ele>
        <time>2015-08-12T18:10:40.000Z</time>
      </trkpt>
      <trkpt lat="45.46637" lon="5.97122">
        <ele>549.22546386719</ele>
        <time>2015-08-12T18:10:42.000Z</time>
      </trkpt>
      <trkpt lat="45.46637" lon="5.97116">
        <ele>549.42108154297</ele>
        <time>2015-08-12T18:10:45.000Z</time>
      </trkpt>
      <trkpt lat="45.46637" lon="5.97112">
        <ele>549.74548339844</ele>
        <time>2015-08-12T18:10:47.000Z</time>
      </trkpt>
      <trkpt lat="45.46635" lon="5.97107">
        <ele>550.29870605469</ele>
        <time>2015-08-12T18:10:50.000Z</time>
      </trkpt>
      <trkpt lat="45.46635" lon="5.97101">
        <ele>550.59710693359</ele>
        <time>2015-08-12T18:10:53.000Z</time>
      </trkpt>
      <trkpt lat="45.46635" lon="5.97097">
        <ele>550.96374511719</ele>
        <time>2015-08-12T18:10:55.000Z</time>
      </trkpt>
      <trkpt lat="45.46635" lon="5.97092">
        <ele>551.27764892578</ele>
        <time>2015-08-12T18:10:58.000Z</time>
      </trkpt>
      <trkpt lat="45.46635" lon="5.97088">
        <ele>551.32196044922</ele>
        <time>2015-08-12T18:11:00.000Z</time>
      </trkpt>
      <trkpt lat="45.46634" lon="5.97085">
        <ele>551.67126464844</ele>
        <time>2015-08-12T18:11:02.000Z</time>
      </trkpt>
      <trkpt lat="45.46633" lon="5.97082">
        <ele>552.21130371094</ele>
        <time>2015-08-12T18:11:04.000Z</time>
      </trkpt>
      <trkpt lat="45.46631" lon="5.97079">
        <ele>552.32489013672</ele>
        <time>2015-08-12T18:11:06.000Z</time>
      </trkpt>
      <trkpt lat="45.46628" lon="5.97076">
        <ele>552.05682373047</ele>
        <time>2015-08-12T18:11:09.000Z</time>
      </trkpt>
      <trkpt lat="45.46624" lon="5.97074">
        <ele>551.7705078125</ele>
        <time>2015-08-12T18:11:12.000Z</time>
      </trkpt>
      <trkpt lat="45.46622" lon="5.97074">
        <ele>552.23815917969</ele>
        <time>2015-08-12T18:11:14.000Z</time>
      </trkpt>
      <trkpt lat="45.46619" lon="5.97073">
        <ele>552.50646972656</ele>
        <time>2015-08-12T18:11:16.000Z</time>
      </trkpt>
      <trkpt lat="45.46617" lon="5.97073">
        <ele>552.51416015625</ele>
        <time>2015-08-12T18:11:18.000Z</time>
      </trkpt>
      <trkpt lat="45.46614" lon="5.97073">
        <ele>552.75274658203</ele>
        <time>2015-08-12T18:11:20.000Z</time>
      </trkpt>
      <trkpt lat="45.46611" lon="5.97072">
        <ele>552.85034179688</ele>
        <time>2015-08-12T18:11:23.000Z</time>
      </trkpt>
      <trkpt lat="45.46607" lon="5.97071">
        <ele>552.75268554688</ele>
        <time>2015-08-12T18:11:26.000Z</time>
      </trkpt>
      <trkpt lat="45.46605" lon="5.97071">
        <ele>552.57330322266</ele>
        <time>2015-08-12T18:11:28.000Z</time>
      </trkpt>
      <trkpt lat="45.46601" lon="5.97071">
        <ele>552.92156982422</ele>
        <time>2015-08-12T18:11:31.000Z</time>
      </trkpt>
      <trkpt lat="45.46598" lon="5.9707">
        <ele>553.03533935547</ele>
        <time>2015-08-12T18:11:33.000Z</time>
      </trkpt>
      <trkpt lat="45.46596" lon="5.97069">
        <ele>553.26251220703</ele>
        <time>2015-08-12T18:11:35.000Z</time>
      </trkpt>
      <trkpt lat="45.46592" lon="5.97068">
        <ele>553.93664550781</ele>
        <time>2015-08-12T18:11:38.000Z</time>
      </trkpt>
      <trkpt lat="45.46589" lon="5.97068">
        <ele>554.26483154297</ele>
        <time>2015-08-12T18:11:40.000Z</time>
      </trkpt>
      <trkpt lat="45.46587" lon="5.97067">
        <ele>554.52062988281</ele>
        <time>2015-08-12T18:11:42.000Z</time>
      </trkpt>
      <trkpt lat="45.46585" lon="5.97066">
        <ele>554.76251220703</ele>
        <time>2015-08-12T18:11:44.000Z</time>
      </trkpt>
      <trkpt lat="45.46581" lon="5.97065">
        <ele>555.43640136719</ele>
        <time>2015-08-12T18:11:47.000Z</time>
      </trkpt>
      <trkpt lat="45.46578" lon="5.97063">
        <ele>555.53674316406</ele>
        <time>2015-08-12T18:11:50.000Z</time>
      </trkpt>
      <trkpt lat="45.46574" lon="5.97063">
        <ele>555.74737548828</ele>
        <time>2015-08-12T18:11:53.000Z</time>
      </trkpt>
      <trkpt lat="45.46572" lon="5.97062">
        <ele>556.16772460938</ele>
        <time>2015-08-12T18:11:55.000Z</time>
      </trkpt>
      <trkpt lat="45.46569" lon="5.9706">
        <ele>556.52014160156</ele>
        <time>2015-08-12T18:11:58.000Z</time>
      </trkpt>
      <trkpt lat="45.46567" lon="5.97059">
        <ele>556.94317626953</ele>
        <time>2015-08-12T18:12:00.000Z</time>
      </trkpt>
      <trkpt lat="45.46564" lon="5.97055">
        <ele>557.91613769531</ele>
        <time>2015-08-12T18:12:03.000Z</time>
      </trkpt>
      <trkpt lat="45.4656" lon="5.97052">
        <ele>558.53820800781</ele>
        <time>2015-08-12T18:12:06.000Z</time>
      </trkpt>
      <trkpt lat="45.46558" lon="5.9705">
        <ele>558.95465087891</ele>
        <time>2015-08-12T18:12:08.000Z</time>
      </trkpt>
      <trkpt lat="45.46555" lon="5.97047">
        <ele>559.76489257812</ele>
        <time>2015-08-12T18:12:11.000Z</time>
      </trkpt>
      <trkpt lat="45.46552" lon="5.97045">
        <ele>560.03216552734</ele>
        <time>2015-08-12T18:12:13.000Z</time>
      </trkpt>
      <trkpt lat="45.46549" lon="5.97041">
        <ele>560.7529296875</ele>
        <time>2015-08-12T18:12:16.000Z</time>
      </trkpt>
      <trkpt lat="45.46547" lon="5.97038">
        <ele>561.22454833984</ele>
        <time>2015-08-12T18:12:18.000Z</time>
      </trkpt>
      <trkpt lat="45.46546" lon="5.97036">
        <ele>561.72454833984</ele>
        <time>2015-08-12T18:12:20.000Z</time>
      </trkpt>
      <trkpt lat="45.46543" lon="5.97032">
        <ele>562.74682617188</ele>
        <time>2015-08-12T18:12:23.000Z</time>
      </trkpt>
      <trkpt lat="45.46541" lon="5.97029">
        <ele>563.2509765625</ele>
        <time>2015-08-12T18:12:25.000Z</time>
      </trkpt>
      <trkpt lat="45.46539" lon="5.97024">
        <ele>563.73321533203</ele>
        <time>2015-08-12T18:12:28.000Z</time>
      </trkpt>
      <trkpt lat="45.46537" lon="5.97019">
        <ele>564.0126953125</ele>
        <time>2015-08-12T18:12:31.000Z</time>
      </trkpt>
      <trkpt lat="45.46535" lon="5.97013">
        <ele>564.1787109375</ele>
        <time>2015-08-12T18:12:34.000Z</time>
      </trkpt>
      <trkpt lat="45.46535" lon="5.97007">
        <ele>564.38745117188</ele>
        <time>2015-08-12T18:12:37.000Z</time>
      </trkpt>
      <trkpt lat="45.46535" lon="5.97001">
        <ele>564.30810546875</ele>
        <time>2015-08-12T18:12:40.000Z</time>
      </trkpt>
      <trkpt lat="45.46537" lon="5.96997">
        <ele>564.46325683594</ele>
        <time>2015-08-12T18:12:42.000Z</time>
      </trkpt>
      <trkpt lat="45.46539" lon="5.96992">
        <ele>564.51690673828</ele>
        <time>2015-08-12T18:12:45.000Z</time>
      </trkpt>
      <trkpt lat="45.46541" lon="5.96989">
        <ele>564.88928222656</ele>
        <time>2015-08-12T18:12:47.000Z</time>
      </trkpt>
      <trkpt lat="45.46544" lon="5.96985">
        <ele>565.03125</ele>
        <time>2015-08-12T18:12:50.000Z</time>
      </trkpt>
      <trkpt lat="45.46547" lon="5.96981">
        <ele>565.23919677734</ele>
        <time>2015-08-12T18:12:53.000Z</time>
      </trkpt>
      <trkpt lat="45.46551" lon="5.96976">
        <ele>565.53131103516</ele>
        <time>2015-08-12T18:12:56.000Z</time>
      </trkpt>
      <trkpt lat="45.46555" lon="5.96973">
        <ele>565.75177001953</ele>
        <time>2015-08-12T18:12:59.000Z</time>
      </trkpt>
      <trkpt lat="45.46557" lon="5.96971">
        <ele>566.00408935547</ele>
        <time>2015-08-12T18:13:01.000Z</time>
      </trkpt>
      <trkpt lat="45.46559" lon="5.96968">
        <ele>566.43402099609</ele>
        <time>2015-08-12T18:13:03.000Z</time>
      </trkpt>
      <trkpt lat="45.46563" lon="5.96965">
        <ele>566.75616455078</ele>
        <time>2015-08-12T18:13:06.000Z</time>
      </trkpt>
      <trkpt lat="45.46565" lon="5.96962">
        <ele>567.00701904297</ele>
        <time>2015-08-12T18:13:08.000Z</time>
      </trkpt>
      <trkpt lat="45.46569" lon="5.96959">
        <ele>567.02685546875</ele>
        <time>2015-08-12T18:13:11.000Z</time>
      </trkpt>
      <trkpt lat="45.46572" lon="5.96955">
        <ele>567.02185058594</ele>
        <time>2015-08-12T18:13:14.000Z</time>
      </trkpt>
      <trkpt lat="45.46575" lon="5.96951">
        <ele>567.49969482422</ele>
        <time>2015-08-12T18:13:17.000Z</time>
      </trkpt>
      <trkpt lat="45.46578" lon="5.96948">
        <ele>567.52624511719</ele>
        <time>2015-08-12T18:13:20.000Z</time>
      </trkpt>
      <trkpt lat="45.46582" lon="5.96945">
        <ele>567.52728271484</ele>
        <time>2015-08-12T18:13:23.000Z</time>
      </trkpt>
      <trkpt lat="45.46585" lon="5.96942">
        <ele>568.41192626953</ele>
        <time>2015-08-12T18:13:26.000Z</time>
      </trkpt>
      <trkpt lat="45.46589" lon="5.96938">
        <ele>569.00561523438</ele>
        <time>2015-08-12T18:13:29.000Z</time>
      </trkpt>
      <trkpt lat="45.46592" lon="5.96934">
        <ele>569.72344970703</ele>
        <time>2015-08-12T18:13:32.000Z</time>
      </trkpt>
      <trkpt lat="45.46595" lon="5.9693">
        <ele>570.71301269531</ele>
        <time>2015-08-12T18:13:35.000Z</time>
      </trkpt>
      <trkpt lat="45.46597" lon="5.96927">
        <ele>570.78253173828</ele>
        <time>2015-08-12T18:13:37.000Z</time>
      </trkpt>
      <trkpt lat="45.466" lon="5.96922">
        <ele>571.19757080078</ele>
        <time>2015-08-12T18:13:40.000Z</time>
      </trkpt>
      <trkpt lat="45.46602" lon="5.96919">
        <ele>571.27874755859</ele>
        <time>2015-08-12T18:13:42.000Z</time>
      </trkpt>
      <trkpt lat="45.46604" lon="5.96916">
        <ele>571.05084228516</ele>
        <time>2015-08-12T18:13:44.000Z</time>
      </trkpt>
      <trkpt lat="45.46605" lon="5.96912">
        <ele>571.00463867188</ele>
        <time>2015-08-12T18:13:46.000Z</time>
      </trkpt>
      <trkpt lat="45.46608" lon="5.96906">
        <ele>571.34704589844</ele>
        <time>2015-08-12T18:13:49.000Z</time>
      </trkpt>
      <trkpt lat="45.46609" lon="5.96901">
        <ele>571.04913330078</ele>
        <time>2015-08-12T18:13:52.000Z</time>
      </trkpt>
      <trkpt lat="45.46609" lon="5.96895">
        <ele>570.81018066406</ele>
        <time>2015-08-12T18:13:55.000Z</time>
      </trkpt>
      <trkpt lat="45.4661" lon="5.96889">
        <ele>571.44122314453</ele>
        <time>2015-08-12T18:13:58.000Z</time>
      </trkpt>
      <trkpt lat="45.4661" lon="5.96883">
        <ele>571.86413574219</ele>
        <time>2015-08-12T18:14:01.000Z</time>
      </trkpt>
      <trkpt lat="45.46611" lon="5.96879">
        <ele>571.59436035156</ele>
        <time>2015-08-12T18:14:03.000Z</time>
      </trkpt>
      <trkpt lat="45.46611" lon="5.96872">
        <ele>571.73059082031</ele>
        <time>2015-08-12T18:14:06.000Z</time>
      </trkpt>
      <trkpt lat="45.46611" lon="5.96869">
        <ele>572.03979492188</ele>
        <time>2015-08-12T18:14:09.000Z</time>
      </trkpt>
      <trkpt lat="45.46611" lon="5.96864">
        <ele>573.86907958984</ele>
        <time>2015-08-12T18:14:12.000Z</time>
      </trkpt>
      <trkpt lat="45.4661" lon="5.96858">
        <ele>574.87573242188</ele>
        <time>2015-08-12T18:14:15.000Z</time>
      </trkpt>
      <trkpt lat="45.46608" lon="5.96852">
        <ele>576.10485839844</ele>
        <time>2015-08-12T18:14:18.000Z</time>
      </trkpt>
      <trkpt lat="45.46608" lon="5.96848">
        <ele>576.27465820312</ele>
        <time>2015-08-12T18:14:20.000Z</time>
      </trkpt>
      <trkpt lat="45.46607" lon="5.96841">
        <ele>575.4931640625</ele>
        <time>2015-08-12T18:14:23.000Z</time>
      </trkpt>
      <trkpt lat="45.46606" lon="5.96837">
        <ele>575.48840332031</ele>
        <time>2015-08-12T18:14:26.000Z</time>
      </trkpt>
      <trkpt lat="45.46606" lon="5.96835">
        <ele>575.64477539062</ele>
        <time>2015-08-12T18:14:28.000Z</time>
      </trkpt>
      <trkpt lat="45.46605" lon="5.96829">
        <ele>575.25335693359</ele>
        <time>2015-08-12T18:14:31.000Z</time>
      </trkpt>
      <trkpt lat="45.46603" lon="5.96822">
        <ele>576.01977539062</ele>
        <time>2015-08-12T18:14:34.000Z</time>
      </trkpt>
      <trkpt lat="45.46602" lon="5.96817">
        <ele>577.27435302734</ele>
        <time>2015-08-12T18:14:36.000Z</time>
      </trkpt>
      <trkpt lat="45.46601" lon="5.9681">
        <ele>578.77679443359</ele>
        <time>2015-08-12T18:14:39.000Z</time>
      </trkpt>
      <trkpt lat="45.46601" lon="5.96803">
        <ele>579.62036132812</ele>
        <time>2015-08-12T18:14:42.000Z</time>
      </trkpt>
      <trkpt lat="45.46601" lon="5.96797">
        <ele>580.65655517578</ele>
        <time>2015-08-12T18:14:45.000Z</time>
      </trkpt>
      <trkpt lat="45.46601" lon="5.96791">
        <ele>581.1875</ele>
        <time>2015-08-12T18:14:48.000Z</time>
      </trkpt>
      <trkpt lat="45.46604" lon="5.96785">
        <ele>581.70391845703</ele>
        <time>2015-08-12T18:14:51.000Z</time>
      </trkpt>
      <trkpt lat="45.46606" lon="5.96782">
        <ele>582.82434082031</ele>
        <time>2015-08-12T18:14:53.000Z</time>
      </trkpt>
      <trkpt lat="45.46608" lon="5.9678">
        <ele>583.33331298828</ele>
        <time>2015-08-12T18:14:55.000Z</time>
      </trkpt>
      <trkpt lat="45.46611" lon="5.96777">
        <ele>582.66284179688</ele>
        <time>2015-08-12T18:14:57.000Z</time>
      </trkpt>
      <trkpt lat="45.46613" lon="5.96775">
        <ele>582.27728271484</ele>
        <time>2015-08-12T18:14:59.000Z</time>
      </trkpt>
      <trkpt lat="45.46618" lon="5.96772">
        <ele>582.52978515625</ele>
        <time>2015-08-12T18:15:02.000Z</time>
      </trkpt>
      <trkpt lat="45.46622" lon="5.96768">
        <ele>582.52795410156</ele>
        <time>2015-08-12T18:15:05.000Z</time>
      </trkpt>
      <trkpt lat="45.46624" lon="5.96766">
        <ele>583.13555908203</ele>
        <time>2015-08-12T18:15:08.000Z</time>
      </trkpt>
      <trkpt lat="45.46626" lon="5.96764">
        <ele>584.13037109375</ele>
        <time>2015-08-12T18:15:10.000Z</time>
      </trkpt>
      <trkpt lat="45.4663" lon="5.9676">
        <ele>585.2958984375</ele>
        <time>2015-08-12T18:15:13.000Z</time>
      </trkpt>
      <trkpt lat="45.46634" lon="5.96758">
        <ele>585.20727539062</ele>
        <time>2015-08-12T18:15:16.000Z</time>
      </trkpt>
      <trkpt lat="45.46638" lon="5.96756">
        <ele>585.41705322266</ele>
        <time>2015-08-12T18:15:19.000Z</time>
      </trkpt>
      <trkpt lat="45.46643" lon="5.96754">
        <ele>585.40869140625</ele>
        <time>2015-08-12T18:15:22.000Z</time>
      </trkpt>
      <trkpt lat="45.46646" lon="5.96753">
        <ele>587.2451171875</ele>
        <time>2015-08-12T18:15:24.000Z</time>
      </trkpt>
      <trkpt lat="45.4665" lon="5.96751">
        <ele>588.94818115234</ele>
        <time>2015-08-12T18:15:27.000Z</time>
      </trkpt>
      <trkpt lat="45.46654" lon="5.96748">
        <ele>589.8798828125</ele>
        <time>2015-08-12T18:15:30.000Z</time>
      </trkpt>
      <trkpt lat="45.46657" lon="5.96746">
        <ele>590.44848632812</ele>
        <time>2015-08-12T18:15:32.000Z</time>
      </trkpt>
      <trkpt lat="45.46659" lon="5.96745">
        <ele>590.76373291016</ele>
        <time>2015-08-12T18:15:34.000Z</time>
      </trkpt>
      <trkpt lat="45.46662" lon="5.96745">
        <ele>591.01538085938</ele>
        <time>2015-08-12T18:15:36.000Z</time>
      </trkpt>
      <trkpt lat="45.46666" lon="5.96744">
        <ele>592.19201660156</ele>
        <time>2015-08-12T18:15:40.000Z</time>
      </trkpt>
      <trkpt lat="45.46669" lon="5.96744">
        <ele>590.63299560547</ele>
        <time>2015-08-12T18:15:42.000Z</time>
      </trkpt>
      <trkpt lat="45.46672" lon="5.96743">
        <ele>588.91839599609</ele>
        <time>2015-08-12T18:15:44.000Z</time>
      </trkpt>
      <trkpt lat="45.46677" lon="5.96742">
        <ele>588.54772949219</ele>
        <time>2015-08-12T18:15:47.000Z</time>
      </trkpt>
      <trkpt lat="45.46682" lon="5.96742">
        <ele>591.16986083984</ele>
        <time>2015-08-12T18:15:50.000Z</time>
      </trkpt>
      <trkpt lat="45.46686" lon="5.96741">
        <ele>594.30633544922</ele>
        <time>2015-08-12T18:15:53.000Z</time>
      </trkpt>
      <trkpt lat="45.4669" lon="5.96741">
        <ele>595.29144287109</ele>
        <time>2015-08-12T18:15:56.000Z</time>
      </trkpt>
      <trkpt lat="45.46694" lon="5.96741">
        <ele>597.46905517578</ele>
        <time>2015-08-12T18:15:59.000Z</time>
      </trkpt>
      <trkpt lat="45.46698" lon="5.9674">
        <ele>599.61315917969</ele>
        <time>2015-08-12T18:16:02.000Z</time>
      </trkpt>
      <trkpt lat="45.46702" lon="5.96741">
        <ele>602.61614990234</ele>
        <time>2015-08-12T18:16:05.000Z</time>
      </trkpt>
      <trkpt lat="45.46705" lon="5.96742">
        <ele>604.64086914062</ele>
        <time>2015-08-12T18:16:07.000Z</time>
      </trkpt>
      <trkpt lat="45.46708" lon="5.96742">
        <ele>605.89373779297</ele>
        <time>2015-08-12T18:16:09.000Z</time>
      </trkpt>
      <trkpt lat="45.46711" lon="5.96743">
        <ele>607.07220458984</ele>
        <time>2015-08-12T18:16:11.000Z</time>
      </trkpt>
      <trkpt lat="45.46716" lon="5.96744">
        <ele>607.73718261719</ele>
        <time>2015-08-12T18:16:14.000Z</time>
      </trkpt>
      <trkpt lat="45.46719" lon="5.96745">
        <ele>608.69256591797</ele>
        <time>2015-08-12T18:16:16.000Z</time>
      </trkpt>
      <trkpt lat="45.46724" lon="5.96746">
        <ele>605.76861572266</ele>
        <time>2015-08-12T18:16:19.000Z</time>
      </trkpt>
      <trkpt lat="45.46728" lon="5.96746">
        <ele>605.85565185547</ele>
        <time>2015-08-12T18:16:21.000Z</time>
      </trkpt>
      <trkpt lat="45.46731" lon="5.96746">
        <ele>606.39709472656</ele>
        <time>2015-08-12T18:16:23.000Z</time>
      </trkpt>
      <trkpt lat="45.46737" lon="5.96746">
        <ele>606.94995117188</ele>
        <time>2015-08-12T18:16:26.000Z</time>
      </trkpt>
      <trkpt lat="45.4674" lon="5.96745">
        <ele>605.69604492188</ele>
        <time>2015-08-12T18:16:28.000Z</time>
      </trkpt>
      <trkpt lat="45.46746" lon="5.96743">
        <ele>604.47418212891</ele>
        <time>2015-08-12T18:16:31.000Z</time>
      </trkpt>
      <trkpt lat="45.46751" lon="5.96742">
        <ele>605.86871337891</ele>
        <time>2015-08-12T18:16:34.000Z</time>
      </trkpt>
      <trkpt lat="45.46756" lon="5.96739">
        <ele>607.40368652344</ele>
        <time>2015-08-12T18:16:37.000Z</time>
      </trkpt>
      <trkpt lat="45.46758" lon="5.96736">
        <ele>608.23205566406</ele>
        <time>2015-08-12T18:16:39.000Z</time>
      </trkpt>
      <trkpt lat="45.46762" lon="5.96732">
        <ele>608.93286132812</ele>
        <time>2015-08-12T18:16:42.000Z</time>
      </trkpt>
      <trkpt lat="45.46765" lon="5.96728">
        <ele>607.52569580078</ele>
        <time>2015-08-12T18:16:45.000Z</time>
      </trkpt>
      <trkpt lat="45.46767" lon="5.96725">
        <ele>607.03308105469</ele>
        <time>2015-08-12T18:16:47.000Z</time>
      </trkpt>
      <trkpt lat="45.4677" lon="5.9672">
        <ele>607.01385498047</ele>
        <time>2015-08-12T18:16:50.000Z</time>
      </trkpt>
      <trkpt lat="45.46773" lon="5.96717">
        <ele>607.16186523438</ele>
        <time>2015-08-12T18:16:53.000Z</time>
      </trkpt>
      <trkpt lat="45.46775" lon="5.96714">
        <ele>606.38934326172</ele>
        <time>2015-08-12T18:16:56.000Z</time>
      </trkpt>
      <trkpt lat="45.46776" lon="5.96711">
        <ele>606.56958007812</ele>
        <time>2015-08-12T18:16:58.000Z</time>
      </trkpt>
      <trkpt lat="45.46779" lon="5.96705">
        <ele>607.27355957031</ele>
        <time>2015-08-12T18:17:01.000Z</time>
      </trkpt>
      <trkpt lat="45.46783" lon="5.967">
        <ele>607.91082763672</ele>
        <time>2015-08-12T18:17:04.000Z</time>
      </trkpt>
      <trkpt lat="45.46785" lon="5.96697">
        <ele>608.81341552734</ele>
        <time>2015-08-12T18:17:06.000Z</time>
      </trkpt>
      <trkpt lat="45.46786" lon="5.96693">
        <ele>609.07983398438</ele>
        <time>2015-08-12T18:17:08.000Z</time>
      </trkpt>
      <trkpt lat="45.46788" lon="5.9669">
        <ele>609.72918701172</ele>
        <time>2015-08-12T18:17:10.000Z</time>
      </trkpt>
      <trkpt lat="45.4679" lon="5.96684">
        <ele>610.19177246094</ele>
        <time>2015-08-12T18:17:13.000Z</time>
      </trkpt>
      <trkpt lat="45.46792" lon="5.96677">
        <ele>610.48663330078</ele>
        <time>2015-08-12T18:17:16.000Z</time>
      </trkpt>
      <trkpt lat="45.46795" lon="5.9667">
        <ele>610.49346923828</ele>
        <time>2015-08-12T18:17:19.000Z</time>
      </trkpt>
      <trkpt lat="45.46797" lon="5.96664">
        <ele>610.85974121094</ele>
        <time>2015-08-12T18:17:22.000Z</time>
      </trkpt>
      <trkpt lat="45.46799" lon="5.96656">
        <ele>610.96887207031</ele>
        <time>2015-08-12T18:17:25.000Z</time>
      </trkpt>
      <trkpt lat="45.468" lon="5.96649">
        <ele>610.63024902344</ele>
        <time>2015-08-12T18:17:28.000Z</time>
      </trkpt>
      <trkpt lat="45.468" lon="5.96644">
        <ele>610.75866699219</ele>
        <time>2015-08-12T18:17:30.000Z</time>
      </trkpt>
      <trkpt lat="45.46801" lon="5.96638">
        <ele>610.64538574219</ele>
        <time>2015-08-12T18:17:33.000Z</time>
      </trkpt>
      <trkpt lat="45.46801" lon="5.96634">
        <ele>610.25952148438</ele>
        <time>2015-08-12T18:17:36.000Z</time>
      </trkpt>
      <trkpt lat="45.46802" lon="5.96631">
        <ele>610.27105712891</ele>
        <time>2015-08-12T18:17:38.000Z</time>
      </trkpt>
      <trkpt lat="45.46803" lon="5.96625">
        <ele>609.99017333984</ele>
        <time>2015-08-12T18:17:41.000Z</time>
      </trkpt>
      <trkpt lat="45.46805" lon="5.96621">
        <ele>610.01116943359</ele>
        <time>2015-08-12T18:17:44.000Z</time>
      </trkpt>
      <trkpt lat="45.46807" lon="5.96614">
        <ele>608.42486572266</ele>
        <time>2015-08-12T18:17:47.000Z</time>
      </trkpt>
      <trkpt lat="45.46806" lon="5.96611">
        <ele>607.97686767578</ele>
        <time>2015-08-12T18:17:49.000Z</time>
      </trkpt>
      <trkpt lat="45.46803" lon="5.96612">
        <ele>607.5263671875</ele>
        <time>2015-08-12T18:17:51.000Z</time>
      </trkpt>
      <trkpt lat="45.46802" lon="5.96615">
        <ele>607.49841308594</ele>
        <time>2015-08-12T18:17:54.000Z</time>
      </trkpt>
      <trkpt lat="45.46801" lon="5.96618">
        <ele>607.26501464844</ele>
        <time>2015-08-12T18:17:56.000Z</time>
      </trkpt>
      <trkpt lat="45.46801" lon="5.9662">
        <ele>607.02136230469</ele>
        <time>2015-08-12T18:17:59.000Z</time>
      </trkpt>
      <trkpt lat="45.46799" lon="5.9662">
        <ele>606.96197509766</ele>
        <time>2015-08-12T18:18:02.000Z</time>
      </trkpt>
      <trkpt lat="45.46798" lon="5.96619">
        <ele>607.16455078125</ele>
        <time>2015-08-12T18:18:04.000Z</time>
      </trkpt>
      <trkpt lat="45.46799" lon="5.96616">
        <ele>606.63928222656</ele>
        <time>2015-08-12T18:18:06.000Z</time>
      </trkpt>
      <trkpt lat="45.46804" lon="5.96618">
        <ele>606.69030761719</ele>
        <time>2015-08-12T18:18:09.000Z</time>
      </trkpt>
      <trkpt lat="45.46805" lon="5.96625">
        <ele>606.72155761719</ele>
        <time>2015-08-12T18:18:11.000Z</time>
      </trkpt>
      <trkpt lat="45.46804" lon="5.96628">
        <ele>606.9521484375</ele>
        <time>2015-08-12T18:18:13.000Z</time>
      </trkpt>
      <trkpt lat="45.46803" lon="5.9663">
        <ele>607.36645507812</ele>
        <time>2015-08-12T18:18:15.000Z</time>
      </trkpt>
      <trkpt lat="45.46801" lon="5.96629">
        <ele>607.49566650391</ele>
        <time>2015-08-12T18:18:20.000Z</time>
      </trkpt>
      <trkpt lat="45.46801" lon="5.96629">
        <ele>604.6748046875</ele>
        <time>2015-08-12T18:18:40.000Z</time>
      </trkpt>
      <trkpt lat="45.46802" lon="5.9663">
        <ele>606.39196777344</ele>
        <time>2015-08-12T18:19:23.000Z</time>
      </trkpt>
      <trkpt lat="45.46803" lon="5.96631">
        <ele>605.62457275391</ele>
        <time>2015-08-12T18:19:35.000Z</time>
      </trkpt>
      <trkpt lat="45.46804" lon="5.96631">
        <ele>606.46368408203</ele>
        <time>2015-08-12T18:19:37.000Z</time>
      </trkpt>
      <trkpt lat="45.46805" lon="5.96629">
        <ele>607.09515380859</ele>
        <time>2015-08-12T18:19:39.000Z</time>
      </trkpt>
      <trkpt lat="45.46805" lon="5.96624">
        <ele>607.31799316406</ele>
        <time>2015-08-12T18:19:42.000Z</time>
      </trkpt>
      <trkpt lat="45.46804" lon="5.96622">
        <ele>607.80303955078</ele>
        <time>2015-08-12T18:19:45.000Z</time>
      </trkpt>
      <trkpt lat="45.46804" lon="5.9662">
        <ele>608.23394775391</ele>
        <time>2015-08-12T18:19:47.000Z</time>
      </trkpt>
      <trkpt lat="45.46804" lon="5.96617">
        <ele>608.78100585938</ele>
        <time>2015-08-12T18:19:49.000Z</time>
      </trkpt>
      <trkpt lat="45.46808" lon="5.96613">
        <ele>609.41180419922</ele>
        <time>2015-08-12T18:19:52.000Z</time>
      </trkpt>
      <trkpt lat="45.46815" lon="5.96607">
        <ele>608.77801513672</ele>
        <time>2015-08-12T18:19:55.000Z</time>
      </trkpt>
      <trkpt lat="45.46821" lon="5.96599">
        <ele>608.33410644531</ele>
        <time>2015-08-12T18:19:57.000Z</time>
      </trkpt>
      <trkpt lat="45.46828" lon="5.96586">
        <ele>607.56860351562</ele>
        <time>2015-08-12T18:19:59.000Z</time>
      </trkpt>
      <trkpt lat="45.4684" lon="5.96565">
        <ele>606.49499511719</ele>
        <time>2015-08-12T18:20:02.000Z</time>
      </trkpt>
      <trkpt lat="45.46849" lon="5.9655">
        <ele>605.53198242188</ele>
        <time>2015-08-12T18:20:04.000Z</time>
      </trkpt>
      <trkpt lat="45.46861" lon="5.96526">
        <ele>603.06799316406</ele>
        <time>2015-08-12T18:20:07.000Z</time>
      </trkpt>
      <trkpt lat="45.46873" lon="5.96502">
        <ele>602.34185791016</ele>
        <time>2015-08-12T18:20:10.000Z</time>
      </trkpt>
      <trkpt lat="45.46885" lon="5.96484">
        <ele>603.80438232422</ele>
        <time>2015-08-12T18:20:13.000Z</time>
      </trkpt>
      <trkpt lat="45.46894" lon="5.96471">
        <ele>603.93151855469</ele>
        <time>2015-08-12T18:20:16.000Z</time>
      </trkpt>
      <trkpt lat="45.46898" lon="5.96464">
        <ele>604.24298095703</ele>
        <time>2015-08-12T18:20:18.000Z</time>
      </trkpt>
      <trkpt lat="45.46902" lon="5.96452">
        <ele>605.21380615234</ele>
        <time>2015-08-12T18:20:21.000Z</time>
      </trkpt>
      <trkpt lat="45.46907" lon="5.96445">
        <ele>605.12414550781</ele>
        <time>2015-08-12T18:20:24.000Z</time>
      </trkpt>
      <trkpt lat="45.46909" lon="5.9644">
        <ele>604.84057617188</ele>
        <time>2015-08-12T18:20:26.000Z</time>
      </trkpt>
      <trkpt lat="45.46911" lon="5.96435">
        <ele>605.35003662109</ele>
        <time>2015-08-12T18:20:28.000Z</time>
      </trkpt>
      <trkpt lat="45.46914" lon="5.96427">
        <ele>603.33099365234</ele>
        <time>2015-08-12T18:20:31.000Z</time>
      </trkpt>
      <trkpt lat="45.46917" lon="5.9642">
        <ele>601.97119140625</ele>
        <time>2015-08-12T18:20:34.000Z</time>
      </trkpt>
      <trkpt lat="45.4692" lon="5.96415">
        <ele>601.69775390625</ele>
        <time>2015-08-12T18:20:36.000Z</time>
      </trkpt>
      <trkpt lat="45.46923" lon="5.96409">
        <ele>602.79736328125</ele>
        <time>2015-08-12T18:20:39.000Z</time>
      </trkpt>
      <trkpt lat="45.46925" lon="5.96402">
        <ele>604.64849853516</ele>
        <time>2015-08-12T18:20:42.000Z</time>
      </trkpt>
      <trkpt lat="45.46926" lon="5.96395">
        <ele>606.44921875</ele>
        <time>2015-08-12T18:20:45.000Z</time>
      </trkpt>
      <trkpt lat="45.46928" lon="5.96388">
        <ele>608.30523681641</ele>
        <time>2015-08-12T18:20:48.000Z</time>
      </trkpt>
      <trkpt lat="45.4693" lon="5.96379">
        <ele>610.25634765625</ele>
        <time>2015-08-12T18:20:51.000Z</time>
      </trkpt>
      <trkpt lat="45.46931" lon="5.96372">
        <ele>610.82940673828</ele>
        <time>2015-08-12T18:20:54.000Z</time>
      </trkpt>
      <trkpt lat="45.46931" lon="5.96365">
        <ele>610.95642089844</ele>
        <time>2015-08-12T18:20:57.000Z</time>
      </trkpt>
      <trkpt lat="45.46932" lon="5.96361">
        <ele>610.80603027344</ele>
        <time>2015-08-12T18:20:59.000Z</time>
      </trkpt>
      <trkpt lat="45.46933" lon="5.96354">
        <ele>611.23291015625</ele>
        <time>2015-08-12T18:21:02.000Z</time>
      </trkpt>
      <trkpt lat="45.46933" lon="5.9635">
        <ele>611.52166748047</ele>
        <time>2015-08-12T18:21:04.000Z</time>
      </trkpt>
      <trkpt lat="45.46933" lon="5.96345">
        <ele>611.39782714844</ele>
        <time>2015-08-12T18:21:06.000Z</time>
      </trkpt>
      <trkpt lat="45.46934" lon="5.96338">
        <ele>611.302734375</ele>
        <time>2015-08-12T18:21:09.000Z</time>
      </trkpt>
      <trkpt lat="45.46935" lon="5.96334">
        <ele>611.40240478516</ele>
        <time>2015-08-12T18:21:11.000Z</time>
      </trkpt>
      <trkpt lat="45.46936" lon="5.96328">
        <ele>612.08947753906</ele>
        <time>2015-08-12T18:21:14.000Z</time>
      </trkpt>
      <trkpt lat="45.46938" lon="5.96324">
        <ele>612.64489746094</ele>
        <time>2015-08-12T18:21:16.000Z</time>
      </trkpt>
      <trkpt lat="45.46939" lon="5.9632">
        <ele>613.17639160156</ele>
        <time>2015-08-12T18:21:18.000Z</time>
      </trkpt>
      <trkpt lat="45.46941" lon="5.96317">
        <ele>613.57629394531</ele>
        <time>2015-08-12T18:21:20.000Z</time>
      </trkpt>
      <trkpt lat="45.46943" lon="5.96313">
        <ele>614.11633300781</ele>
        <time>2015-08-12T18:21:22.000Z</time>
      </trkpt>
      <trkpt lat="45.46945" lon="5.96309">
        <ele>614.65179443359</ele>
        <time>2015-08-12T18:21:24.000Z</time>
      </trkpt>
      <trkpt lat="45.4695" lon="5.96304">
        <ele>616.08996582031</ele>
        <time>2015-08-12T18:21:27.000Z</time>
      </trkpt>
      <trkpt lat="45.46952" lon="5.963">
        <ele>616.50573730469</ele>
        <time>2015-08-12T18:21:29.000Z</time>
      </trkpt>
      <trkpt lat="45.46956" lon="5.96294">
        <ele>617.58050537109</ele>
        <time>2015-08-12T18:21:32.000Z</time>
      </trkpt>
      <trkpt lat="45.46959" lon="5.96288">
        <ele>618.02185058594</ele>
        <time>2015-08-12T18:21:34.000Z</time>
      </trkpt>
      <trkpt lat="45.46963" lon="5.96282">
        <ele>618.32708740234</ele>
        <time>2015-08-12T18:21:37.000Z</time>
      </trkpt>
      <trkpt lat="45.46965" lon="5.96278">
        <ele>618.65368652344</ele>
        <time>2015-08-12T18:21:42.000Z</time>
      </trkpt>
      <trkpt lat="45.46966" lon="5.96276">
        <ele>618.01422119141</ele>
        <time>2015-08-12T18:21:44.000Z</time>
      </trkpt>
      <trkpt lat="45.46969" lon="5.96274">
        <ele>618.85845947266</ele>
        <time>2015-08-12T18:21:47.000Z</time>
      </trkpt>
      <trkpt lat="45.46971" lon="5.9627">
        <ele>620.54724121094</ele>
        <time>2015-08-12T18:21:50.000Z</time>
      </trkpt>
      <trkpt lat="45.46971" lon="5.9627">
        <ele>618.63226318359</ele>
        <time>2015-08-12T18:22:10.000Z</time>
      </trkpt>
      <trkpt lat="45.46972" lon="5.9627">
        <ele>621.30059814453</ele>
        <time>2015-08-12T18:22:26.000Z</time>
      </trkpt>
      <trkpt lat="45.46976" lon="5.96271">
        <ele>616.77008056641</ele>
        <time>2015-08-12T18:22:29.000Z</time>
      </trkpt>
      <trkpt lat="45.46981" lon="5.96273">
        <ele>614.94512939453</ele>
        <time>2015-08-12T18:22:31.000Z</time>
      </trkpt>
      <trkpt lat="45.46994" lon="5.96273">
        <ele>614.05291748047</ele>
        <time>2015-08-12T18:22:34.000Z</time>
      </trkpt>
      <trkpt lat="45.47013" lon="5.9626">
        <ele>611.23724365234</ele>
        <time>2015-08-12T18:22:37.000Z</time>
      </trkpt>
      <trkpt lat="45.47036" lon="5.96253">
        <ele>609.00695800781</ele>
        <time>2015-08-12T18:22:40.000Z</time>
      </trkpt>
      <trkpt lat="45.47063" lon="5.9625">
        <ele>605.54278564453</ele>
        <time>2015-08-12T18:22:43.000Z</time>
      </trkpt>
      <trkpt lat="45.4709" lon="5.96241">
        <ele>602.88238525391</ele>
        <time>2015-08-12T18:22:46.000Z</time>
      </trkpt>
      <trkpt lat="45.47116" lon="5.96236">
        <ele>601.53082275391</ele>
        <time>2015-08-12T18:22:49.000Z</time>
      </trkpt>
      <trkpt lat="45.4714" lon="5.96232">
        <ele>600.09606933594</ele>
        <time>2015-08-12T18:22:52.000Z</time>
      </trkpt>
      <trkpt lat="45.47163" lon="5.96225">
        <ele>599.87042236328</ele>
        <time>2015-08-12T18:22:55.000Z</time>
      </trkpt>
      <trkpt lat="45.47183" lon="5.9623">
        <ele>600.08465576172</ele>
        <time>2015-08-12T18:22:58.000Z</time>
      </trkpt>
      <trkpt lat="45.47194" lon="5.96235">
        <ele>599.38793945312</ele>
        <time>2015-08-12T18:23:00.000Z</time>
      </trkpt>
      <trkpt lat="45.47218" lon="5.96241">
        <ele>598.23669433594</ele>
        <time>2015-08-12T18:23:03.000Z</time>
      </trkpt>
      <trkpt lat="45.47246" lon="5.96243">
        <ele>597.08868408203</ele>
        <time>2015-08-12T18:23:06.000Z</time>
      </trkpt>
      <trkpt lat="45.47276" lon="5.96239">
        <ele>594.35144042969</ele>
        <time>2015-08-12T18:23:09.000Z</time>
      </trkpt>
      <trkpt lat="45.47298" lon="5.96234">
        <ele>591.86499023438</ele>
        <time>2015-08-12T18:23:11.000Z</time>
      </trkpt>
      <trkpt lat="45.47328" lon="5.96225">
        <ele>591.74621582031</ele>
        <time>2015-08-12T18:23:14.000Z</time>
      </trkpt>
      <trkpt lat="45.47347" lon="5.96212">
        <ele>592.61102294922</ele>
        <time>2015-08-12T18:23:16.000Z</time>
      </trkpt>
      <trkpt lat="45.47364" lon="5.96197">
        <ele>592.26263427734</ele>
        <time>2015-08-12T18:23:18.000Z</time>
      </trkpt>
      <trkpt lat="45.47385" lon="5.96177">
        <ele>590.04522705078</ele>
        <time>2015-08-12T18:23:21.000Z</time>
      </trkpt>
      <trkpt lat="45.47401" lon="5.96156">
        <ele>588.96350097656</ele>
        <time>2015-08-12T18:23:24.000Z</time>
      </trkpt>
      <trkpt lat="45.47421" lon="5.96141">
        <ele>588.56988525391</ele>
        <time>2015-08-12T18:23:27.000Z</time>
      </trkpt>
      <trkpt lat="45.47446" lon="5.96129">
        <ele>587.04705810547</ele>
        <time>2015-08-12T18:23:30.000Z</time>
      </trkpt>
      <trkpt lat="45.47467" lon="5.96114">
        <ele>586.87145996094</ele>
        <time>2015-08-12T18:23:33.000Z</time>
      </trkpt>
      <trkpt lat="45.4749" lon="5.96094">
        <ele>585.88067626953</ele>
        <time>2015-08-12T18:23:36.000Z</time>
      </trkpt>
      <trkpt lat="45.47502" lon="5.9608">
        <ele>585.55505371094</ele>
        <time>2015-08-12T18:23:38.000Z</time>
      </trkpt>
      <trkpt lat="45.47514" lon="5.96071">
        <ele>582.74365234375</ele>
        <time>2015-08-12T18:23:40.000Z</time>
      </trkpt>
      <trkpt lat="45.47533" lon="5.96051">
        <ele>578.04034423828</ele>
        <time>2015-08-12T18:23:43.000Z</time>
      </trkpt>
      <trkpt lat="45.47549" lon="5.96042">
        <ele>572.00219726562</ele>
        <time>2015-08-12T18:23:46.000Z</time>
      </trkpt>
      <trkpt lat="45.47567" lon="5.96043">
        <ele>569.81402587891</ele>
        <time>2015-08-12T18:23:49.000Z</time>
      </trkpt>
      <trkpt lat="45.4759" lon="5.96041">
        <ele>565.90826416016</ele>
        <time>2015-08-12T18:23:52.000Z</time>
      </trkpt>
      <trkpt lat="45.47599" lon="5.96045">
        <ele>564.22430419922</ele>
        <time>2015-08-12T18:23:54.000Z</time>
      </trkpt>
      <trkpt lat="45.47613" lon="5.96054">
        <ele>564.33123779297</ele>
        <time>2015-08-12T18:23:57.000Z</time>
      </trkpt>
      <trkpt lat="45.47631" lon="5.96062">
        <ele>563.73431396484</ele>
        <time>2015-08-12T18:24:00.000Z</time>
      </trkpt>
      <trkpt lat="45.47647" lon="5.96071">
        <ele>563.09173583984</ele>
        <time>2015-08-12T18:24:03.000Z</time>
      </trkpt>
      <trkpt lat="45.47663" lon="5.96075">
        <ele>563.17633056641</ele>
        <time>2015-08-12T18:24:06.000Z</time>
      </trkpt>
      <trkpt lat="45.47673" lon="5.96074">
        <ele>564.00738525391</ele>
        <time>2015-08-12T18:24:08.000Z</time>
      </trkpt>
      <trkpt lat="45.47689" lon="5.96073">
        <ele>564.33282470703</ele>
        <time>2015-08-12T18:24:11.000Z</time>
      </trkpt>
      <trkpt lat="45.47698" lon="5.96073">
        <ele>564.53723144531</ele>
        <time>2015-08-12T18:24:13.000Z</time>
      </trkpt>
      <trkpt lat="45.47709" lon="5.96071">
        <ele>563.27087402344</ele>
        <time>2015-08-12T18:24:16.000Z</time>
      </trkpt>
      <trkpt lat="45.47716" lon="5.96069">
        <ele>563.01971435547</ele>
        <time>2015-08-12T18:24:18.000Z</time>
      </trkpt>
      <trkpt lat="45.47721" lon="5.96068">
        <ele>563.75738525391</ele>
        <time>2015-08-12T18:24:20.000Z</time>
      </trkpt>
      <trkpt lat="45.47729" lon="5.96067">
        <ele>565.19299316406</ele>
        <time>2015-08-12T18:24:23.000Z</time>
      </trkpt>
      <trkpt lat="45.47737" lon="5.96066">
        <ele>565.27459716797</ele>
        <time>2015-08-12T18:24:26.000Z</time>
      </trkpt>
      <trkpt lat="45.47742" lon="5.96065">
        <ele>565.74420166016</ele>
        <time>2015-08-12T18:24:28.000Z</time>
      </trkpt>
      <trkpt lat="45.47747" lon="5.96065">
        <ele>566.29827880859</ele>
        <time>2015-08-12T18:24:30.000Z</time>
      </trkpt>
      <trkpt lat="45.47754" lon="5.96065">
        <ele>566.75793457031</ele>
        <time>2015-08-12T18:24:33.000Z</time>
      </trkpt>
      <trkpt lat="45.47755" lon="5.96065">
        <ele>566.95776367188</ele>
        <time>2015-08-12T18:24:35.000Z</time>
      </trkpt>
      <trkpt lat="45.47758" lon="5.96066">
        <ele>566.76538085938</ele>
        <time>2015-08-12T18:24:37.000Z</time>
      </trkpt>
      <trkpt lat="45.4776" lon="5.96062">
        <ele>565.85089111328</ele>
        <time>2015-08-12T18:24:40.000Z</time>
      </trkpt>
      <trkpt lat="45.47762" lon="5.96056">
        <ele>565.48950195312</ele>
        <time>2015-08-12T18:24:43.000Z</time>
      </trkpt>
      <trkpt lat="45.47763" lon="5.9605">
        <ele>565.61328125</ele>
        <time>2015-08-12T18:24:46.000Z</time>
      </trkpt>
      <trkpt lat="45.47764" lon="5.96045">
        <ele>565.84478759766</ele>
        <time>2015-08-12T18:24:48.000Z</time>
      </trkpt>
      <trkpt lat="45.47766" lon="5.96039">
        <ele>566.19458007812</ele>
        <time>2015-08-12T18:24:51.000Z</time>
      </trkpt>
      <trkpt lat="45.47767" lon="5.96032">
        <ele>566.40368652344</ele>
        <time>2015-08-12T18:24:54.000Z</time>
      </trkpt>
      <trkpt lat="45.47768" lon="5.96026">
        <ele>567.37591552734</ele>
        <time>2015-08-12T18:24:57.000Z</time>
      </trkpt>
      <trkpt lat="45.47771" lon="5.96021">
        <ele>568.27508544922</ele>
        <time>2015-08-12T18:25:00.000Z</time>
      </trkpt>
      <trkpt lat="45.47774" lon="5.96015">
        <ele>568.87194824219</ele>
        <time>2015-08-12T18:25:03.000Z</time>
      </trkpt>
      <trkpt lat="45.47775" lon="5.96005">
        <ele>568.72198486328</ele>
        <time>2015-08-12T18:25:06.000Z</time>
      </trkpt>
      <trkpt lat="45.47776" lon="5.95999">
        <ele>568.21832275391</ele>
        <time>2015-08-12T18:25:08.000Z</time>
      </trkpt>
      <trkpt lat="45.47777" lon="5.95993">
        <ele>567.28533935547</ele>
        <time>2015-08-12T18:25:10.000Z</time>
      </trkpt>
      <trkpt lat="45.47784" lon="5.95983">
        <ele>565.96246337891</ele>
        <time>2015-08-12T18:25:13.000Z</time>
      </trkpt>
      <trkpt lat="45.47812" lon="5.95978">
        <ele>563.53601074219</ele>
        <time>2015-08-12T18:25:17.000Z</time>
      </trkpt>
      <trkpt lat="45.47826" lon="5.95975">
        <ele>562.73413085938</ele>
        <time>2015-08-12T18:25:19.000Z</time>
      </trkpt>
      <trkpt lat="45.47846" lon="5.9597">
        <ele>561.74353027344</ele>
        <time>2015-08-12T18:25:22.000Z</time>
      </trkpt>
      <trkpt lat="45.47857" lon="5.95966">
        <ele>561.05120849609</ele>
        <time>2015-08-12T18:25:24.000Z</time>
      </trkpt>
      <trkpt lat="45.47867" lon="5.95967">
        <ele>560.68609619141</ele>
        <time>2015-08-12T18:25:26.000Z</time>
      </trkpt>
      <trkpt lat="45.47883" lon="5.95969">
        <ele>560.59320068359</ele>
        <time>2015-08-12T18:25:29.000Z</time>
      </trkpt>
      <trkpt lat="45.47897" lon="5.95974">
        <ele>560.44390869141</ele>
        <time>2015-08-12T18:25:32.000Z</time>
      </trkpt>
      <trkpt lat="45.47906" lon="5.95975">
        <ele>560.45758056641</ele>
        <time>2015-08-12T18:25:34.000Z</time>
      </trkpt>
      <trkpt lat="45.47913" lon="5.95973">
        <ele>561.01806640625</ele>
        <time>2015-08-12T18:25:36.000Z</time>
      </trkpt>
      <trkpt lat="45.47918" lon="5.95968">
        <ele>560.85565185547</ele>
        <time>2015-08-12T18:25:38.000Z</time>
      </trkpt>
      <trkpt lat="45.47921" lon="5.9596">
        <ele>561.20874023438</ele>
        <time>2015-08-12T18:25:41.000Z</time>
      </trkpt>
      <trkpt lat="45.47924" lon="5.95953">
        <ele>562.07690429688</ele>
        <time>2015-08-12T18:25:44.000Z</time>
      </trkpt>
      <trkpt lat="45.47926" lon="5.95949">
        <ele>562.47229003906</ele>
        <time>2015-08-12T18:25:46.000Z</time>
      </trkpt>
      <trkpt lat="45.47928" lon="5.95945">
        <ele>563.19677734375</ele>
        <time>2015-08-12T18:25:49.000Z</time>
      </trkpt>
      <trkpt lat="45.4793" lon="5.95943">
        <ele>563.80584716797</ele>
        <time>2015-08-12T18:25:51.000Z</time>
      </trkpt>
      <trkpt lat="45.47932" lon="5.95939">
        <ele>564.39324951172</ele>
        <time>2015-08-12T18:25:53.000Z</time>
      </trkpt>
      <trkpt lat="45.47934" lon="5.95934">
        <ele>565.11932373047</ele>
        <time>2015-08-12T18:25:56.000Z</time>
      </trkpt>
      <trkpt lat="45.47935" lon="5.95929">
        <ele>565.77514648438</ele>
        <time>2015-08-12T18:25:59.000Z</time>
      </trkpt>
      <trkpt lat="45.47937" lon="5.95923">
        <ele>566.6171875</ele>
        <time>2015-08-12T18:26:02.000Z</time>
      </trkpt>
      <trkpt lat="45.47939" lon="5.95917">
        <ele>567.15356445312</ele>
        <time>2015-08-12T18:26:05.000Z</time>
      </trkpt>
      <trkpt lat="45.47942" lon="5.95911">
        <ele>567.69635009766</ele>
        <time>2015-08-12T18:26:08.000Z</time>
      </trkpt>
      <trkpt lat="45.47943" lon="5.95907">
        <ele>567.96801757812</ele>
        <time>2015-08-12T18:26:10.000Z</time>
      </trkpt>
      <trkpt lat="45.47946" lon="5.95902">
        <ele>568.68658447266</ele>
        <time>2015-08-12T18:26:13.000Z</time>
      </trkpt>
      <trkpt lat="45.47948" lon="5.95899">
        <ele>569.3642578125</ele>
        <time>2015-08-12T18:26:15.000Z</time>
      </trkpt>
      <trkpt lat="45.47949" lon="5.95896">
        <ele>569.14154052734</ele>
        <time>2015-08-12T18:26:17.000Z</time>
      </trkpt>
      <trkpt lat="45.47952" lon="5.95891">
        <ele>569.47778320312</ele>
        <time>2015-08-12T18:26:20.000Z</time>
      </trkpt>
      <trkpt lat="45.47953" lon="5.95889">
        <ele>569.50927734375</ele>
        <time>2015-08-12T18:26:23.000Z</time>
      </trkpt>
      <trkpt lat="45.47954" lon="5.95886">
        <ele>569.81475830078</ele>
        <time>2015-08-12T18:26:25.000Z</time>
      </trkpt>
      <trkpt lat="45.47955" lon="5.95884">
        <ele>569.67468261719</ele>
        <time>2015-08-12T18:26:27.000Z</time>
      </trkpt>
      <trkpt lat="45.47956" lon="5.9588">
        <ele>569.52227783203</ele>
        <time>2015-08-12T18:26:29.000Z</time>
      </trkpt>
      <trkpt lat="45.47958" lon="5.95876">
        <ele>569.50604248047</ele>
        <time>2015-08-12T18:26:32.000Z</time>
      </trkpt>
      <trkpt lat="45.4796" lon="5.95873">
        <ele>569.52252197266</ele>
        <time>2015-08-12T18:26:34.000Z</time>
      </trkpt>
      <trkpt lat="45.47964" lon="5.95868">
        <ele>569.52124023438</ele>
        <time>2015-08-12T18:26:37.000Z</time>
      </trkpt>
      <trkpt lat="45.47966" lon="5.95865">
        <ele>569.72869873047</ele>
        <time>2015-08-12T18:26:39.000Z</time>
      </trkpt>
      <trkpt lat="45.47968" lon="5.9586">
        <ele>569.37249755859</ele>
        <time>2015-08-12T18:26:42.000Z</time>
      </trkpt>
      <trkpt lat="45.47969" lon="5.95856">
        <ele>569.81219482422</ele>
        <time>2015-08-12T18:26:44.000Z</time>
      </trkpt>
      <trkpt lat="45.4797" lon="5.95852">
        <ele>570.60540771484</ele>
        <time>2015-08-12T18:26:46.000Z</time>
      </trkpt>
      <trkpt lat="45.4797" lon="5.95846">
        <ele>570.93762207031</ele>
        <time>2015-08-12T18:26:49.000Z</time>
      </trkpt>
      <trkpt lat="45.47969" lon="5.95838">
        <ele>571.84283447266</ele>
        <time>2015-08-12T18:26:52.000Z</time>
      </trkpt>
      <trkpt lat="45.47967" lon="5.95827">
        <ele>571.39892578125</ele>
        <time>2015-08-12T18:26:54.000Z</time>
      </trkpt>
      <trkpt lat="45.47967" lon="5.95815">
        <ele>570.87213134766</ele>
        <time>2015-08-12T18:26:57.000Z</time>
      </trkpt>
      <trkpt lat="45.47968" lon="5.95809">
        <ele>571.29553222656</ele>
        <time>2015-08-12T18:26:59.000Z</time>
      </trkpt>
      <trkpt lat="45.47971" lon="5.95805">
        <ele>571.54797363281</ele>
        <time>2015-08-12T18:27:01.000Z</time>
      </trkpt>
      <trkpt lat="45.47974" lon="5.95798">
        <ele>572.64178466797</ele>
        <time>2015-08-12T18:27:04.000Z</time>
      </trkpt>
      <trkpt lat="45.47977" lon="5.95794">
        <ele>572.81463623047</ele>
        <time>2015-08-12T18:27:06.000Z</time>
      </trkpt>
      <trkpt lat="45.4798" lon="5.95788">
        <ele>572.609375</ele>
        <time>2015-08-12T18:27:09.000Z</time>
      </trkpt>
      <trkpt lat="45.47982" lon="5.95783">
        <ele>572.89544677734</ele>
        <time>2015-08-12T18:27:11.000Z</time>
      </trkpt>
      <trkpt lat="45.47984" lon="5.95776">
        <ele>572.06762695312</ele>
        <time>2015-08-12T18:27:14.000Z</time>
      </trkpt>
      <trkpt lat="45.47985" lon="5.95768">
        <ele>571.48101806641</ele>
        <time>2015-08-12T18:27:17.000Z</time>
      </trkpt>
      <trkpt lat="45.47984" lon="5.95764">
        <ele>573.50524902344</ele>
        <time>2015-08-12T18:27:19.000Z</time>
      </trkpt>
      <trkpt lat="45.47984" lon="5.95763">
        <ele>573.76348876953</ele>
        <time>2015-08-12T18:27:22.000Z</time>
      </trkpt>
      <trkpt lat="45.47983" lon="5.9576">
        <ele>574.91363525391</ele>
        <time>2015-08-12T18:27:24.000Z</time>
      </trkpt>
      <trkpt lat="45.47982" lon="5.95757">
        <ele>576.51373291016</ele>
        <time>2015-08-12T18:27:26.000Z</time>
      </trkpt>
      <trkpt lat="45.47981" lon="5.95754">
        <ele>577.01037597656</ele>
        <time>2015-08-12T18:27:29.000Z</time>
      </trkpt>
      <trkpt lat="45.47979" lon="5.9575">
        <ele>577.99188232422</ele>
        <time>2015-08-12T18:27:31.000Z</time>
      </trkpt>
      <trkpt lat="45.47976" lon="5.95747">
        <ele>579.63269042969</ele>
        <time>2015-08-12T18:27:34.000Z</time>
      </trkpt>
      <trkpt lat="45.47974" lon="5.95743">
        <ele>579.07312011719</ele>
        <time>2015-08-12T18:27:36.000Z</time>
      </trkpt>
      <trkpt lat="45.47973" lon="5.95738">
        <ele>579.85571289062</ele>
        <time>2015-08-12T18:27:39.000Z</time>
      </trkpt>
      <trkpt lat="45.47971" lon="5.95732">
        <ele>582.31573486328</ele>
        <time>2015-08-12T18:27:42.000Z</time>
      </trkpt>
      <trkpt lat="45.47968" lon="5.95727">
        <ele>584.85803222656</ele>
        <time>2015-08-12T18:27:45.000Z</time>
      </trkpt>
      <trkpt lat="45.47968" lon="5.95725">
        <ele>584.97875976562</ele>
        <time>2015-08-12T18:27:47.000Z</time>
      </trkpt>
      <trkpt lat="45.47967" lon="5.95724">
        <ele>585.01843261719</ele>
        <time>2015-08-12T18:27:50.000Z</time>
      </trkpt>
      <trkpt lat="45.47966" lon="5.95722">
        <ele>585.54644775391</ele>
        <time>2015-08-12T18:27:53.000Z</time>
      </trkpt>
      <trkpt lat="45.47966" lon="5.95719">
        <ele>585.3427734375</ele>
        <time>2015-08-12T18:27:55.000Z</time>
      </trkpt>
      <trkpt lat="45.47966" lon="5.95716">
        <ele>584.56005859375</ele>
        <time>2015-08-12T18:27:57.000Z</time>
      </trkpt>
      <trkpt lat="45.47967" lon="5.95711">
        <ele>584.09460449219</ele>
        <time>2015-08-12T18:28:00.000Z</time>
      </trkpt>
      <trkpt lat="45.47967" lon="5.95709">
        <ele>586.05792236328</ele>
        <time>2015-08-12T18:28:13.000Z</time>
      </trkpt>
      <trkpt lat="45.47967" lon="5.95705">
        <ele>586.64398193359</ele>
        <time>2015-08-12T18:28:16.000Z</time>
      </trkpt>
      <trkpt lat="45.47968" lon="5.95701">
        <ele>589.65747070312</ele>
        <time>2015-08-12T18:28:19.000Z</time>
      </trkpt>
      <trkpt lat="45.47969" lon="5.95697">
        <ele>589.16595458984</ele>
        <time>2015-08-12T18:28:22.000Z</time>
      </trkpt>
      <trkpt lat="45.47971" lon="5.95692">
        <ele>588.33563232422</ele>
        <time>2015-08-12T18:28:25.000Z</time>
      </trkpt>
      <trkpt lat="45.47972" lon="5.95689">
        <ele>589.77471923828</ele>
        <time>2015-08-12T18:28:27.000Z</time>
      </trkpt>
      <trkpt lat="45.47974" lon="5.95682">
        <ele>589.96807861328</ele>
        <time>2015-08-12T18:28:30.000Z</time>
      </trkpt>
      <trkpt lat="45.47975" lon="5.95677">
        <ele>590.73022460938</ele>
        <time>2015-08-12T18:28:32.000Z</time>
      </trkpt>
      <trkpt lat="45.47976" lon="5.95672">
        <ele>592.60034179688</ele>
        <time>2015-08-12T18:28:36.000Z</time>
      </trkpt>
      <trkpt lat="45.47976" lon="5.9567">
        <ele>592.54205322266</ele>
        <time>2015-08-12T18:28:38.000Z</time>
      </trkpt>
      <trkpt lat="45.47977" lon="5.95666">
        <ele>591.28259277344</ele>
        <time>2015-08-12T18:28:41.000Z</time>
      </trkpt>
      <trkpt lat="45.4798" lon="5.9566">
        <ele>592.15185546875</ele>
        <time>2015-08-12T18:28:44.000Z</time>
      </trkpt>
      <trkpt lat="45.47981" lon="5.95656">
        <ele>593.0107421875</ele>
        <time>2015-08-12T18:28:46.000Z</time>
      </trkpt>
      <trkpt lat="45.47983" lon="5.95652">
        <ele>594.439453125</ele>
        <time>2015-08-12T18:28:48.000Z</time>
      </trkpt>
      <trkpt lat="45.47984" lon="5.95647">
        <ele>596.15252685547</ele>
        <time>2015-08-12T18:28:51.000Z</time>
      </trkpt>
      <trkpt lat="45.47985" lon="5.9564">
        <ele>595.03497314453</ele>
        <time>2015-08-12T18:28:54.000Z</time>
      </trkpt>
      <trkpt lat="45.47986" lon="5.95634">
        <ele>594.7958984375</ele>
        <time>2015-08-12T18:28:57.000Z</time>
      </trkpt>
      <trkpt lat="45.47986" lon="5.9563">
        <ele>594.89929199219</ele>
        <time>2015-08-12T18:28:59.000Z</time>
      </trkpt>
      <trkpt lat="45.47988" lon="5.95626">
        <ele>595.8603515625</ele>
        <time>2015-08-12T18:29:02.000Z</time>
      </trkpt>
      <trkpt lat="45.4799" lon="5.95621">
        <ele>596.80413818359</ele>
        <time>2015-08-12T18:29:05.000Z</time>
      </trkpt>
      <trkpt lat="45.47992" lon="5.95617">
        <ele>596.21057128906</ele>
        <time>2015-08-12T18:29:07.000Z</time>
      </trkpt>
      <trkpt lat="45.47994" lon="5.95612">
        <ele>598.08081054688</ele>
        <time>2015-08-12T18:29:10.000Z</time>
      </trkpt>
      <trkpt lat="45.47996" lon="5.95605">
        <ele>596.11517333984</ele>
        <time>2015-08-12T18:29:13.000Z</time>
      </trkpt>
      <trkpt lat="45.47996" lon="5.95601">
        <ele>596.03894042969</ele>
        <time>2015-08-12T18:29:15.000Z</time>
      </trkpt>
      <trkpt lat="45.47996" lon="5.95595">
        <ele>595.04907226562</ele>
        <time>2015-08-12T18:29:17.000Z</time>
      </trkpt>
      <trkpt lat="45.47997" lon="5.95591">
        <ele>594.09252929688</ele>
        <time>2015-08-12T18:29:19.000Z</time>
      </trkpt>
      <trkpt lat="45.47998" lon="5.95586">
        <ele>593.70599365234</ele>
        <time>2015-08-12T18:29:22.000Z</time>
      </trkpt>
      <trkpt lat="45.47998" lon="5.95581">
        <ele>595.75744628906</ele>
        <time>2015-08-12T18:29:25.000Z</time>
      </trkpt>
      <trkpt lat="45.47998" lon="5.95576">
        <ele>597.11157226562</ele>
        <time>2015-08-12T18:29:28.000Z</time>
      </trkpt>
      <trkpt lat="45.48" lon="5.95571">
        <ele>600.12042236328</ele>
        <time>2015-08-12T18:29:31.000Z</time>
      </trkpt>
      <trkpt lat="45.48" lon="5.95567">
        <ele>600.34429931641</ele>
        <time>2015-08-12T18:29:33.000Z</time>
      </trkpt>
      <trkpt lat="45.48001" lon="5.95564">
        <ele>600.49914550781</ele>
        <time>2015-08-12T18:29:35.000Z</time>
      </trkpt>
      <trkpt lat="45.48003" lon="5.95561">
        <ele>602.18542480469</ele>
        <time>2015-08-12T18:29:38.000Z</time>
      </trkpt>
      <trkpt lat="45.48005" lon="5.95558">
        <ele>604.16735839844</ele>
        <time>2015-08-12T18:29:40.000Z</time>
      </trkpt>
      <trkpt lat="45.48008" lon="5.95553">
        <ele>605.76806640625</ele>
        <time>2015-08-12T18:29:43.000Z</time>
      </trkpt>
      <trkpt lat="45.48009" lon="5.95547">
        <ele>605.90368652344</ele>
        <time>2015-08-12T18:29:46.000Z</time>
      </trkpt>
      <trkpt lat="45.48011" lon="5.95542">
        <ele>605.61499023438</ele>
        <time>2015-08-12T18:29:49.000Z</time>
      </trkpt>
      <trkpt lat="45.48011" lon="5.95538">
        <ele>606.8408203125</ele>
        <time>2015-08-12T18:29:51.000Z</time>
      </trkpt>
      <trkpt lat="45.48012" lon="5.95533">
        <ele>608.65075683594</ele>
        <time>2015-08-12T18:29:54.000Z</time>
      </trkpt>
      <trkpt lat="45.48013" lon="5.95531">
        <ele>609.15087890625</ele>
        <time>2015-08-12T18:29:56.000Z</time>
      </trkpt>
      <trkpt lat="45.48016" lon="5.95526">
        <ele>610.09313964844</ele>
        <time>2015-08-12T18:29:59.000Z</time>
      </trkpt>
      <trkpt lat="45.48018" lon="5.95521">
        <ele>610.73492431641</ele>
        <time>2015-08-12T18:30:02.000Z</time>
      </trkpt>
      <trkpt lat="45.48019" lon="5.95515">
        <ele>611.59045410156</ele>
        <time>2015-08-12T18:30:05.000Z</time>
      </trkpt>
      <trkpt lat="45.48019" lon="5.95509">
        <ele>613.79724121094</ele>
        <time>2015-08-12T18:30:08.000Z</time>
      </trkpt>
      <trkpt lat="45.48019" lon="5.95504">
        <ele>615.46954345703</ele>
        <time>2015-08-12T18:30:11.000Z</time>
      </trkpt>
      <trkpt lat="45.48018" lon="5.95501">
        <ele>616.51104736328</ele>
        <time>2015-08-12T18:30:13.000Z</time>
      </trkpt>
      <trkpt lat="45.48017" lon="5.95497">
        <ele>618.18859863281</ele>
        <time>2015-08-12T18:30:15.000Z</time>
      </trkpt>
      <trkpt lat="45.48017" lon="5.95494">
        <ele>618.69006347656</ele>
        <time>2015-08-12T18:30:17.000Z</time>
      </trkpt>
      <trkpt lat="45.48017" lon="5.95488">
        <ele>617.75903320312</ele>
        <time>2015-08-12T18:30:20.000Z</time>
      </trkpt>
      <trkpt lat="45.48017" lon="5.95483">
        <ele>617.31292724609</ele>
        <time>2015-08-12T18:30:22.000Z</time>
      </trkpt>
      <trkpt lat="45.4802" lon="5.9548">
        <ele>613.82318115234</ele>
        <time>2015-08-12T18:30:25.000Z</time>
      </trkpt>
      <trkpt lat="45.48021" lon="5.95477">
        <ele>613.99792480469</ele>
        <time>2015-08-12T18:30:28.000Z</time>
      </trkpt>
      <trkpt lat="45.48022" lon="5.95475">
        <ele>614.39807128906</ele>
        <time>2015-08-12T18:30:30.000Z</time>
      </trkpt>
      <trkpt lat="45.48024" lon="5.95472">
        <ele>613.82055664062</ele>
        <time>2015-08-12T18:30:32.000Z</time>
      </trkpt>
      <trkpt lat="45.48026" lon="5.95465">
        <ele>613.25286865234</ele>
        <time>2015-08-12T18:30:35.000Z</time>
      </trkpt>
      <trkpt lat="45.48029" lon="5.95459">
        <ele>614.28863525391</ele>
        <time>2015-08-12T18:30:38.000Z</time>
      </trkpt>
      <trkpt lat="45.48031" lon="5.95454">
        <ele>615.96588134766</ele>
        <time>2015-08-12T18:30:41.000Z</time>
      </trkpt>
      <trkpt lat="45.48034" lon="5.95449">
        <ele>615.32836914062</ele>
        <time>2015-08-12T18:30:44.000Z</time>
      </trkpt>
      <trkpt lat="45.48035" lon="5.95445">
        <ele>615.04187011719</ele>
        <time>2015-08-12T18:30:46.000Z</time>
      </trkpt>
      <trkpt lat="45.48036" lon="5.9544">
        <ele>614.29022216797</ele>
        <time>2015-08-12T18:30:49.000Z</time>
      </trkpt>
      <trkpt lat="45.48038" lon="5.95436">
        <ele>613.12670898438</ele>
        <time>2015-08-12T18:30:52.000Z</time>
      </trkpt>
      <trkpt lat="45.48039" lon="5.95432">
        <ele>614.35473632812</ele>
        <time>2015-08-12T18:30:54.000Z</time>
      </trkpt>
      <trkpt lat="45.4804" lon="5.95429">
        <ele>615.36853027344</ele>
        <time>2015-08-12T18:30:56.000Z</time>
      </trkpt>
      <trkpt lat="45.48041" lon="5.95424">
        <ele>616.3935546875</ele>
        <time>2015-08-12T18:30:59.000Z</time>
      </trkpt>
      <trkpt lat="45.48042" lon="5.95419">
        <ele>617.27374267578</ele>
        <time>2015-08-12T18:31:02.000Z</time>
      </trkpt>
      <trkpt lat="45.48044" lon="5.95416">
        <ele>618.77807617188</ele>
        <time>2015-08-12T18:31:05.000Z</time>
      </trkpt>
      <trkpt lat="45.48046" lon="5.95414">
        <ele>619.283203125</ele>
        <time>2015-08-12T18:31:08.000Z</time>
      </trkpt>
      <trkpt lat="45.48047" lon="5.95413">
        <ele>619.44128417969</ele>
        <time>2015-08-12T18:31:12.000Z</time>
      </trkpt>
      <trkpt lat="45.48049" lon="5.95412">
        <ele>619.52044677734</ele>
        <time>2015-08-12T18:31:15.000Z</time>
      </trkpt>
      <trkpt lat="45.4805" lon="5.9541">
        <ele>619.80950927734</ele>
        <time>2015-08-12T18:31:18.000Z</time>
      </trkpt>
      <trkpt lat="45.48049" lon="5.95409">
        <ele>621.23742675781</ele>
        <time>2015-08-12T18:31:21.000Z</time>
      </trkpt>
      <trkpt lat="45.48046" lon="5.9541">
        <ele>623.39959716797</ele>
        <time>2015-08-12T18:31:24.000Z</time>
      </trkpt>
      <trkpt lat="45.48045" lon="5.95411">
        <ele>623.31451416016</ele>
        <time>2015-08-12T18:31:26.000Z</time>
      </trkpt>
      <trkpt lat="45.48044" lon="5.95411">
        <ele>622.90905761719</ele>
        <time>2015-08-12T18:31:28.000Z</time>
      </trkpt>
      <trkpt lat="45.48042" lon="5.95413">
        <ele>623.28778076172</ele>
        <time>2015-08-12T18:31:32.000Z</time>
      </trkpt>
      <trkpt lat="45.4804" lon="5.95414">
        <ele>623.64312744141</ele>
        <time>2015-08-12T18:31:34.000Z</time>
      </trkpt>
      <trkpt lat="45.48037" lon="5.95415">
        <ele>623.49542236328</ele>
        <time>2015-08-12T18:31:37.000Z</time>
      </trkpt>
      <trkpt lat="45.48035" lon="5.95415">
        <ele>623.86773681641</ele>
        <time>2015-08-12T18:31:39.000Z</time>
      </trkpt>
      <trkpt lat="45.48035" lon="5.95415">
        <ele>623.75860595703</ele>
        <time>2015-08-12T18:31:41.000Z</time>
      </trkpt>
      <trkpt lat="45.48034" lon="5.95416">
        <ele>623.59088134766</ele>
        <time>2015-08-12T18:31:47.000Z</time>
      </trkpt>
      <trkpt lat="45.48035" lon="5.95415">
        <ele>622.67877197266</ele>
        <time>2015-08-12T18:31:49.000Z</time>
      </trkpt>
      <trkpt lat="45.48037" lon="5.95415">
        <ele>622.19165039062</ele>
        <time>2015-08-12T18:31:52.000Z</time>
      </trkpt>
      <trkpt lat="45.48038" lon="5.95414">
        <ele>622.16387939453</ele>
        <time>2015-08-12T18:31:55.000Z</time>
      </trkpt>
      <trkpt lat="45.48039" lon="5.95414">
        <ele>621.87188720703</ele>
        <time>2015-08-12T18:31:57.000Z</time>
      </trkpt>
      <trkpt lat="45.48042" lon="5.95413">
        <ele>621.09387207031</ele>
        <time>2015-08-12T18:31:59.000Z</time>
      </trkpt>
      <trkpt lat="45.48044" lon="5.95412">
        <ele>620.89868164062</ele>
        <time>2015-08-12T18:32:02.000Z</time>
      </trkpt>
      <trkpt lat="45.48046" lon="5.95411">
        <ele>620.80187988281</ele>
        <time>2015-08-12T18:32:04.000Z</time>
      </trkpt>
      <trkpt lat="45.48048" lon="5.95411">
        <ele>622.38824462891</ele>
        <time>2015-08-12T18:32:07.000Z</time>
      </trkpt>
      <trkpt lat="45.48048" lon="5.95411">
        <ele>623.25256347656</ele>
        <time>2015-08-12T18:32:09.000Z</time>
      </trkpt>
      <trkpt lat="45.48048" lon="5.9541">
        <ele>624.56884765625</ele>
        <time>2015-08-12T18:32:14.000Z</time>
      </trkpt>
      <trkpt lat="45.48045" lon="5.95411">
        <ele>623.42980957031</ele>
        <time>2015-08-12T18:32:17.000Z</time>
      </trkpt>
      <trkpt lat="45.48043" lon="5.95412">
        <ele>622.40441894531</ele>
        <time>2015-08-12T18:32:22.000Z</time>
      </trkpt>
      <trkpt lat="45.48041" lon="5.95411">
        <ele>622.34765625</ele>
        <time>2015-08-12T18:32:25.000Z</time>
      </trkpt>
      <trkpt lat="45.48038" lon="5.95408">
        <ele>622.03979492188</ele>
        <time>2015-08-12T18:32:28.000Z</time>
      </trkpt>
      <trkpt lat="45.48037" lon="5.95404">
        <ele>621.75329589844</ele>
        <time>2015-08-12T18:32:31.000Z</time>
      </trkpt>
      <trkpt lat="45.48036" lon="5.95403">
        <ele>622.20159912109</ele>
        <time>2015-08-12T18:32:33.000Z</time>
      </trkpt>
      <trkpt lat="45.48035" lon="5.95401">
        <ele>624.84350585938</ele>
        <time>2015-08-12T18:32:37.000Z</time>
      </trkpt>
      <trkpt lat="45.48034" lon="5.95401">
        <ele>625.96984863281</ele>
        <time>2015-08-12T18:32:39.000Z</time>
      </trkpt>
      <trkpt lat="45.48032" lon="5.95401">
        <ele>627.69317626953</ele>
        <time>2015-08-12T18:32:45.000Z</time>
      </trkpt>
      <trkpt lat="45.48031" lon="5.95398">
        <ele>629.54681396484</ele>
        <time>2015-08-12T18:32:48.000Z</time>
      </trkpt>
      <trkpt lat="45.4803" lon="5.95394">
        <ele>630.85168457031</ele>
        <time>2015-08-12T18:32:50.000Z</time>
      </trkpt>
      <trkpt lat="45.48028" lon="5.95389">
        <ele>631.60815429688</ele>
        <time>2015-08-12T18:32:53.000Z</time>
      </trkpt>
      <trkpt lat="45.48026" lon="5.95384">
        <ele>632.89831542969</ele>
        <time>2015-08-12T18:32:56.000Z</time>
      </trkpt>
      <trkpt lat="45.48025" lon="5.95383">
        <ele>634.06756591797</ele>
        <time>2015-08-12T18:32:58.000Z</time>
      </trkpt>
      <trkpt lat="45.48025" lon="5.9538">
        <ele>633.31860351562</ele>
        <time>2015-08-12T18:33:00.000Z</time>
      </trkpt>
      <trkpt lat="45.48029" lon="5.95379">
        <ele>629.57366943359</ele>
        <time>2015-08-12T18:33:03.000Z</time>
      </trkpt>
      <trkpt lat="45.48033" lon="5.95379">
        <ele>628.52435302734</ele>
        <time>2015-08-12T18:33:06.000Z</time>
      </trkpt>
      <trkpt lat="45.4804" lon="5.95377">
        <ele>630.20471191406</ele>
        <time>2015-08-12T18:33:09.000Z</time>
      </trkpt>
      <trkpt lat="45.48048" lon="5.95372">
        <ele>631.52758789062</ele>
        <time>2015-08-12T18:33:11.000Z</time>
      </trkpt>
      <trkpt lat="45.48055" lon="5.95369">
        <ele>632.41186523438</ele>
        <time>2015-08-12T18:33:14.000Z</time>
      </trkpt>
      <trkpt lat="45.4806" lon="5.95365">
        <ele>632.54327392578</ele>
        <time>2015-08-12T18:33:17.000Z</time>
      </trkpt>
      <trkpt lat="45.48065" lon="5.95362">
        <ele>633.83020019531</ele>
        <time>2015-08-12T18:33:20.000Z</time>
      </trkpt>
      <trkpt lat="45.48068" lon="5.95359">
        <ele>634.94586181641</ele>
        <time>2015-08-12T18:33:22.000Z</time>
      </trkpt>
      <trkpt lat="45.48072" lon="5.95351">
        <ele>635.90643310547</ele>
        <time>2015-08-12T18:33:24.000Z</time>
      </trkpt>
      <trkpt lat="45.48075" lon="5.95344">
        <ele>635.26940917969</ele>
        <time>2015-08-12T18:33:26.000Z</time>
      </trkpt>
      <trkpt lat="45.48078" lon="5.95337">
        <ele>635.18841552734</ele>
        <time>2015-08-12T18:33:28.000Z</time>
      </trkpt>
      <trkpt lat="45.4808" lon="5.95331">
        <ele>635.76202392578</ele>
        <time>2015-08-12T18:33:31.000Z</time>
      </trkpt>
      <trkpt lat="45.48083" lon="5.95326">
        <ele>636.65704345703</ele>
        <time>2015-08-12T18:33:34.000Z</time>
      </trkpt>
      <trkpt lat="45.48085" lon="5.95321">
        <ele>636.52856445312</ele>
        <time>2015-08-12T18:33:37.000Z</time>
      </trkpt>
      <trkpt lat="45.48088" lon="5.95318">
        <ele>636.74780273438</ele>
        <time>2015-08-12T18:33:39.000Z</time>
      </trkpt>
      <trkpt lat="45.48091" lon="5.95315">
        <ele>637.56335449219</ele>
        <time>2015-08-12T18:33:42.000Z</time>
      </trkpt>
      <trkpt lat="45.48093" lon="5.95313">
        <ele>638.58917236328</ele>
        <time>2015-08-12T18:33:44.000Z</time>
      </trkpt>
      <trkpt lat="45.48096" lon="5.95311">
        <ele>640.29595947266</ele>
        <time>2015-08-12T18:33:47.000Z</time>
      </trkpt>
      <trkpt lat="45.48099" lon="5.95309">
        <ele>637.06402587891</ele>
        <time>2015-08-12T18:33:49.000Z</time>
      </trkpt>
      <trkpt lat="45.48101" lon="5.95307">
        <ele>634.91107177734</ele>
        <time>2015-08-12T18:33:51.000Z</time>
      </trkpt>
      <trkpt lat="45.48104" lon="5.95304">
        <ele>633.20294189453</ele>
        <time>2015-08-12T18:33:54.000Z</time>
      </trkpt>
      <trkpt lat="45.48108" lon="5.95299">
        <ele>633.06683349609</ele>
        <time>2015-08-12T18:33:57.000Z</time>
      </trkpt>
      <trkpt lat="45.4811" lon="5.95296">
        <ele>632.36981201172</ele>
        <time>2015-08-12T18:33:59.000Z</time>
      </trkpt>
      <trkpt lat="45.48114" lon="5.95294">
        <ele>632.59710693359</ele>
        <time>2015-08-12T18:34:02.000Z</time>
      </trkpt>
      <trkpt lat="45.48117" lon="5.95292">
        <ele>633.2490234375</ele>
        <time>2015-08-12T18:34:05.000Z</time>
      </trkpt>
      <trkpt lat="45.4812" lon="5.9529">
        <ele>636.18383789062</ele>
        <time>2015-08-12T18:34:08.000Z</time>
      </trkpt>
      <trkpt lat="45.48124" lon="5.95287">
        <ele>636.67974853516</ele>
        <time>2015-08-12T18:34:11.000Z</time>
      </trkpt>
      <trkpt lat="45.48125" lon="5.95285">
        <ele>636.21643066406</ele>
        <time>2015-08-12T18:34:14.000Z</time>
      </trkpt>
      <trkpt lat="45.48125" lon="5.95283">
        <ele>637.06646728516</ele>
        <time>2015-08-12T18:34:17.000Z</time>
      </trkpt>
      <trkpt lat="45.48125" lon="5.95281">
        <ele>636.68518066406</ele>
        <time>2015-08-12T18:34:21.000Z</time>
      </trkpt>
      <trkpt lat="45.48124" lon="5.95279">
        <ele>636.18798828125</ele>
        <time>2015-08-12T18:34:25.000Z</time>
      </trkpt>
      <trkpt lat="45.48123" lon="5.95278">
        <ele>634.9892578125</ele>
        <time>2015-08-12T18:34:28.000Z</time>
      </trkpt>
      <trkpt lat="45.48122" lon="5.95276">
        <ele>634.86010742188</ele>
        <time>2015-08-12T18:34:30.000Z</time>
      </trkpt>
      <trkpt lat="45.4812" lon="5.95273">
        <ele>636.29052734375</ele>
        <time>2015-08-12T18:34:34.000Z</time>
      </trkpt>
      <trkpt lat="45.4812" lon="5.95272">
        <ele>637.18316650391</ele>
        <time>2015-08-12T18:34:36.000Z</time>
      </trkpt>
      <trkpt lat="45.4812" lon="5.95271">
        <ele>638.16668701172</ele>
        <time>2015-08-12T18:34:38.000Z</time>
      </trkpt>
      <trkpt lat="45.48121" lon="5.95268">
        <ele>639.37915039062</ele>
        <time>2015-08-12T18:34:45.000Z</time>
      </trkpt>
      <trkpt lat="45.48122" lon="5.95264">
        <ele>640.04052734375</ele>
        <time>2015-08-12T18:34:48.000Z</time>
      </trkpt>
      <trkpt lat="45.48122" lon="5.95261">
        <ele>640.74822998047</ele>
        <time>2015-08-12T18:34:50.000Z</time>
      </trkpt>
      <trkpt lat="45.48123" lon="5.95258">
        <ele>641.11688232422</ele>
        <time>2015-08-12T18:34:52.000Z</time>
      </trkpt>
      <trkpt lat="45.48121" lon="5.95252">
        <ele>642.58721923828</ele>
        <time>2015-08-12T18:34:55.000Z</time>
      </trkpt>
      <trkpt lat="45.48119" lon="5.95246">
        <ele>646.14904785156</ele>
        <time>2015-08-12T18:34:58.000Z</time>
      </trkpt>
      <trkpt lat="45.48119" lon="5.9524">
        <ele>644.58251953125</ele>
        <time>2015-08-12T18:35:00.000Z</time>
      </trkpt>
      <trkpt lat="45.4812" lon="5.95232">
        <ele>643.65686035156</ele>
        <time>2015-08-12T18:35:03.000Z</time>
      </trkpt>
      <trkpt lat="45.4812" lon="5.95225">
        <ele>643.72216796875</ele>
        <time>2015-08-12T18:35:05.000Z</time>
      </trkpt>
      <trkpt lat="45.48119" lon="5.95218">
        <ele>646.30834960938</ele>
        <time>2015-08-12T18:35:08.000Z</time>
      </trkpt>
      <trkpt lat="45.48118" lon="5.9521">
        <ele>645.90069580078</ele>
        <time>2015-08-12T18:35:11.000Z</time>
      </trkpt>
      <trkpt lat="45.48116" lon="5.95204">
        <ele>646.55883789062</ele>
        <time>2015-08-12T18:35:14.000Z</time>
      </trkpt>
      <trkpt lat="45.48112" lon="5.95199">
        <ele>647.37426757812</ele>
        <time>2015-08-12T18:35:17.000Z</time>
      </trkpt>
      <trkpt lat="45.48111" lon="5.95191">
        <ele>647.77795410156</ele>
        <time>2015-08-12T18:35:20.000Z</time>
      </trkpt>
      <trkpt lat="45.48112" lon="5.95187">
        <ele>647.63342285156</ele>
        <time>2015-08-12T18:35:22.000Z</time>
      </trkpt>
      <trkpt lat="45.48115" lon="5.95179">
        <ele>647.6240234375</ele>
        <time>2015-08-12T18:35:25.000Z</time>
      </trkpt>
      <trkpt lat="45.48119" lon="5.95173">
        <ele>649.56671142578</ele>
        <time>2015-08-12T18:35:28.000Z</time>
      </trkpt>
      <trkpt lat="45.48122" lon="5.95166">
        <ele>649.41204833984</ele>
        <time>2015-08-12T18:35:31.000Z</time>
      </trkpt>
      <trkpt lat="45.48124" lon="5.95162">
        <ele>648.69415283203</ele>
        <time>2015-08-12T18:35:33.000Z</time>
      </trkpt>
      <trkpt lat="45.48127" lon="5.95157">
        <ele>647.75177001953</ele>
        <time>2015-08-12T18:35:36.000Z</time>
      </trkpt>
      <trkpt lat="45.48129" lon="5.95149">
        <ele>651.0576171875</ele>
        <time>2015-08-12T18:35:39.000Z</time>
      </trkpt>
      <trkpt lat="45.48129" lon="5.95143">
        <ele>652.40600585938</ele>
        <time>2015-08-12T18:35:42.000Z</time>
      </trkpt>
      <trkpt lat="45.4813" lon="5.95139">
        <ele>651.97967529297</ele>
        <time>2015-08-12T18:35:44.000Z</time>
      </trkpt>
      <trkpt lat="45.4813" lon="5.95133">
        <ele>652.65612792969</ele>
        <time>2015-08-12T18:35:47.000Z</time>
      </trkpt>
      <trkpt lat="45.48129" lon="5.95129">
        <ele>653.32135009766</ele>
        <time>2015-08-12T18:35:49.000Z</time>
      </trkpt>
      <trkpt lat="45.48129" lon="5.95125">
        <ele>654.15087890625</ele>
        <time>2015-08-12T18:35:51.000Z</time>
      </trkpt>
      <trkpt lat="45.4813" lon="5.95119">
        <ele>655.12603759766</ele>
        <time>2015-08-12T18:35:54.000Z</time>
      </trkpt>
      <trkpt lat="45.48131" lon="5.95113">
        <ele>654.94757080078</ele>
        <time>2015-08-12T18:35:57.000Z</time>
      </trkpt>
      <trkpt lat="45.48133" lon="5.95109">
        <ele>654.75354003906</ele>
        <time>2015-08-12T18:35:59.000Z</time>
      </trkpt>
      <trkpt lat="45.48135" lon="5.951">
        <ele>656.03948974609</ele>
        <time>2015-08-12T18:36:03.000Z</time>
      </trkpt>
      <trkpt lat="45.48135" lon="5.95092">
        <ele>656.24291992188</ele>
        <time>2015-08-12T18:36:06.000Z</time>
      </trkpt>
      <trkpt lat="45.48135" lon="5.95086">
        <ele>656.66131591797</ele>
        <time>2015-08-12T18:36:09.000Z</time>
      </trkpt>
      <trkpt lat="45.48136" lon="5.95082">
        <ele>657.04699707031</ele>
        <time>2015-08-12T18:36:11.000Z</time>
      </trkpt>
      <trkpt lat="45.48136" lon="5.95076">
        <ele>657.14404296875</ele>
        <time>2015-08-12T18:36:14.000Z</time>
      </trkpt>
      <trkpt lat="45.48134" lon="5.9507">
        <ele>659.40197753906</ele>
        <time>2015-08-12T18:36:17.000Z</time>
      </trkpt>
      <trkpt lat="45.48131" lon="5.95068">
        <ele>662.77160644531</ele>
        <time>2015-08-12T18:36:20.000Z</time>
      </trkpt>
      <trkpt lat="45.48129" lon="5.95066">
        <ele>664.07757568359</ele>
        <time>2015-08-12T18:36:22.000Z</time>
      </trkpt>
      <trkpt lat="45.48127" lon="5.95061">
        <ele>664.69738769531</ele>
        <time>2015-08-12T18:36:25.000Z</time>
      </trkpt>
      <trkpt lat="45.48125" lon="5.95056">
        <ele>664.61529541016</ele>
        <time>2015-08-12T18:36:28.000Z</time>
      </trkpt>
      <trkpt lat="45.48124" lon="5.95052">
        <ele>665.28149414062</ele>
        <time>2015-08-12T18:36:30.000Z</time>
      </trkpt>
      <trkpt lat="45.48122" lon="5.95049">
        <ele>667.86767578125</ele>
        <time>2015-08-12T18:36:33.000Z</time>
      </trkpt>
      <trkpt lat="45.48119" lon="5.95044">
        <ele>667.84942626953</ele>
        <time>2015-08-12T18:36:36.000Z</time>
      </trkpt>
      <trkpt lat="45.48118" lon="5.95037">
        <ele>667.87609863281</ele>
        <time>2015-08-12T18:36:39.000Z</time>
      </trkpt>
      <trkpt lat="45.48115" lon="5.95029">
        <ele>669.47406005859</ele>
        <time>2015-08-12T18:36:42.000Z</time>
      </trkpt>
      <trkpt lat="45.48113" lon="5.95023">
        <ele>670.52728271484</ele>
        <time>2015-08-12T18:36:44.000Z</time>
      </trkpt>
      <trkpt lat="45.4811" lon="5.95014">
        <ele>670.91986083984</ele>
        <time>2015-08-12T18:36:47.000Z</time>
      </trkpt>
      <trkpt lat="45.4811" lon="5.95008">
        <ele>669.98065185547</ele>
        <time>2015-08-12T18:36:49.000Z</time>
      </trkpt>
      <trkpt lat="45.48111" lon="5.94997">
        <ele>667.35003662109</ele>
        <time>2015-08-12T18:36:52.000Z</time>
      </trkpt>
      <trkpt lat="45.4811" lon="5.94988">
        <ele>667.33917236328</ele>
        <time>2015-08-12T18:36:54.000Z</time>
      </trkpt>
      <trkpt lat="45.48106" lon="5.94975">
        <ele>669.18011474609</ele>
        <time>2015-08-12T18:36:57.000Z</time>
      </trkpt>
      <trkpt lat="45.48103" lon="5.94966">
        <ele>669.12994384766</ele>
        <time>2015-08-12T18:36:59.000Z</time>
      </trkpt>
      <trkpt lat="45.481" lon="5.94951">
        <ele>667.64190673828</ele>
        <time>2015-08-12T18:37:01.000Z</time>
      </trkpt>
      <trkpt lat="45.48096" lon="5.94925">
        <ele>665.69604492188</ele>
        <time>2015-08-12T18:37:04.000Z</time>
      </trkpt>
      <trkpt lat="45.48089" lon="5.94914">
        <ele>665.31652832031</ele>
        <time>2015-08-12T18:37:07.000Z</time>
      </trkpt>
      <trkpt lat="45.48084" lon="5.94907">
        <ele>665.37103271484</ele>
        <time>2015-08-12T18:37:09.000Z</time>
      </trkpt>
      <trkpt lat="45.48079" lon="5.94901">
        <ele>668.04180908203</ele>
        <time>2015-08-12T18:37:12.000Z</time>
      </trkpt>
      <trkpt lat="45.48079" lon="5.9489">
        <ele>668.97686767578</ele>
        <time>2015-08-12T18:37:15.000Z</time>
      </trkpt>
      <trkpt lat="45.48077" lon="5.94882">
        <ele>669.92852783203</ele>
        <time>2015-08-12T18:37:17.000Z</time>
      </trkpt>
      <trkpt lat="45.48074" lon="5.94871">
        <ele>669.54400634766</ele>
        <time>2015-08-12T18:37:20.000Z</time>
      </trkpt>
      <trkpt lat="45.4807" lon="5.94862">
        <ele>670.69451904297</ele>
        <time>2015-08-12T18:37:23.000Z</time>
      </trkpt>
      <trkpt lat="45.48065" lon="5.9486">
        <ele>671.04125976562</ele>
        <time>2015-08-12T18:37:25.000Z</time>
      </trkpt>
      <trkpt lat="45.48061" lon="5.94857">
        <ele>670.40057373047</ele>
        <time>2015-08-12T18:37:27.000Z</time>
      </trkpt>
      <trkpt lat="45.4806" lon="5.9485">
        <ele>670.57183837891</ele>
        <time>2015-08-12T18:37:30.000Z</time>
      </trkpt>
      <trkpt lat="45.48058" lon="5.94845">
        <ele>671.83618164062</ele>
        <time>2015-08-12T18:37:32.000Z</time>
      </trkpt>
      <trkpt lat="45.48057" lon="5.9484">
        <ele>673.07952880859</ele>
        <time>2015-08-12T18:37:34.000Z</time>
      </trkpt>
      <trkpt lat="45.48055" lon="5.94836">
        <ele>673.32177734375</ele>
        <time>2015-08-12T18:37:36.000Z</time>
      </trkpt>
      <trkpt lat="45.48054" lon="5.94831">
        <ele>672.95129394531</ele>
        <time>2015-08-12T18:37:39.000Z</time>
      </trkpt>
      <trkpt lat="45.48055" lon="5.94827">
        <ele>672.78491210938</ele>
        <time>2015-08-12T18:37:42.000Z</time>
      </trkpt>
      <trkpt lat="45.48055" lon="5.94825">
        <ele>673.16058349609</ele>
        <time>2015-08-12T18:37:44.000Z</time>
      </trkpt>
      <trkpt lat="45.48055" lon="5.94822">
        <ele>673.42254638672</ele>
        <time>2015-08-12T18:37:47.000Z</time>
      </trkpt>
      <trkpt lat="45.48054" lon="5.94818">
        <ele>672.0361328125</ele>
        <time>2015-08-12T18:37:50.000Z</time>
      </trkpt>
      <trkpt lat="45.48055" lon="5.94814">
        <ele>671.17529296875</ele>
        <time>2015-08-12T18:37:53.000Z</time>
      </trkpt>
      <trkpt lat="45.48055" lon="5.94812">
        <ele>670.6982421875</ele>
        <time>2015-08-12T18:37:55.000Z</time>
      </trkpt>
      <trkpt lat="45.48056" lon="5.94808">
        <ele>670.64300537109</ele>
        <time>2015-08-12T18:37:58.000Z</time>
      </trkpt>
      <trkpt lat="45.48056" lon="5.94805">
        <ele>669.72686767578</ele>
        <time>2015-08-12T18:38:00.000Z</time>
      </trkpt>
      <trkpt lat="45.48055" lon="5.94802">
        <ele>669.06805419922</ele>
        <time>2015-08-12T18:38:03.000Z</time>
      </trkpt>
      <trkpt lat="45.48053" lon="5.94799">
        <ele>669.11602783203</ele>
        <time>2015-08-12T18:38:06.000Z</time>
      </trkpt>
      <trkpt lat="45.48052" lon="5.94796">
        <ele>670.23699951172</ele>
        <time>2015-08-12T18:38:08.000Z</time>
      </trkpt>
      <trkpt lat="45.48052" lon="5.94793">
        <ele>670.15185546875</ele>
        <time>2015-08-12T18:38:10.000Z</time>
      </trkpt>
      <trkpt lat="45.48052" lon="5.9479">
        <ele>670.26959228516</ele>
        <time>2015-08-12T18:38:12.000Z</time>
      </trkpt>
      <trkpt lat="45.48053" lon="5.94787">
        <ele>670.46624755859</ele>
        <time>2015-08-12T18:38:14.000Z</time>
      </trkpt>
      <trkpt lat="45.48054" lon="5.94783">
        <ele>671.01879882812</ele>
        <time>2015-08-12T18:38:17.000Z</time>
      </trkpt>
      <trkpt lat="45.48054" lon="5.94779">
        <ele>670.97204589844</ele>
        <time>2015-08-12T18:38:20.000Z</time>
      </trkpt>
      <trkpt lat="45.48056" lon="5.94778">
        <ele>669.70251464844</ele>
        <time>2015-08-12T18:38:22.000Z</time>
      </trkpt>
      <trkpt lat="45.48059" lon="5.94778">
        <ele>668.80249023438</ele>
        <time>2015-08-12T18:38:25.000Z</time>
      </trkpt>
      <trkpt lat="45.48061" lon="5.94775">
        <ele>669.1806640625</ele>
        <time>2015-08-12T18:38:27.000Z</time>
      </trkpt>
      <trkpt lat="45.48061" lon="5.94771">
        <ele>669.71655273438</ele>
        <time>2015-08-12T18:38:30.000Z</time>
      </trkpt>
      <trkpt lat="45.48061" lon="5.94768">
        <ele>669.74682617188</ele>
        <time>2015-08-12T18:38:32.000Z</time>
      </trkpt>
      <trkpt lat="45.48063" lon="5.94767">
        <ele>667.92907714844</ele>
        <time>2015-08-12T18:38:35.000Z</time>
      </trkpt>
      <trkpt lat="45.48065" lon="5.94768">
        <ele>666.50152587891</ele>
        <time>2015-08-12T18:38:39.000Z</time>
      </trkpt>
      <trkpt lat="45.48062" lon="5.94771">
        <ele>665.28210449219</ele>
        <time>2015-08-12T18:38:42.000Z</time>
      </trkpt>
      <trkpt lat="45.48055" lon="5.94776">
        <ele>664.23529052734</ele>
        <time>2015-08-12T18:38:45.000Z</time>
      </trkpt>
      <trkpt lat="45.4805" lon="5.94781">
        <ele>663.74206542969</ele>
        <time>2015-08-12T18:38:47.000Z</time>
      </trkpt>
      <trkpt lat="45.48045" lon="5.94786">
        <ele>663.66741943359</ele>
        <time>2015-08-12T18:38:49.000Z</time>
      </trkpt>
      <trkpt lat="45.48041" lon="5.94786">
        <ele>663.08679199219</ele>
        <time>2015-08-12T18:38:54.000Z</time>
      </trkpt>
      <trkpt lat="45.48038" lon="5.94786">
        <ele>663.46081542969</ele>
        <time>2015-08-12T18:38:57.000Z</time>
      </trkpt>
      <trkpt lat="45.48036" lon="5.94787">
        <ele>663.03063964844</ele>
        <time>2015-08-12T18:38:59.000Z</time>
      </trkpt>
      <trkpt lat="45.48032" lon="5.94789">
        <ele>662.19549560547</ele>
        <time>2015-08-12T18:39:02.000Z</time>
      </trkpt>
      <trkpt lat="45.48028" lon="5.94791">
        <ele>662.78698730469</ele>
        <time>2015-08-12T18:39:05.000Z</time>
      </trkpt>
      <trkpt lat="45.48026" lon="5.94792">
        <ele>663.54351806641</ele>
        <time>2015-08-12T18:39:07.000Z</time>
      </trkpt>
      <trkpt lat="45.48023" lon="5.94792">
        <ele>664.18054199219</ele>
        <time>2015-08-12T18:39:11.000Z</time>
      </trkpt>
      <trkpt lat="45.48021" lon="5.94794">
        <ele>663.73004150391</ele>
        <time>2015-08-12T18:39:13.000Z</time>
      </trkpt>
      <trkpt lat="45.48018" lon="5.94797">
        <ele>663.69909667969</ele>
        <time>2015-08-12T18:39:16.000Z</time>
      </trkpt>
      <trkpt lat="45.48016" lon="5.94799">
        <ele>663.94146728516</ele>
        <time>2015-08-12T18:39:18.000Z</time>
      </trkpt>
      <trkpt lat="45.48014" lon="5.94802">
        <ele>664.35516357422</ele>
        <time>2015-08-12T18:39:20.000Z</time>
      </trkpt>
      <trkpt lat="45.48013" lon="5.94805">
        <ele>664.65875244141</ele>
        <time>2015-08-12T18:39:22.000Z</time>
      </trkpt>
      <trkpt lat="45.48011" lon="5.9481">
        <ele>665.923828125</ele>
        <time>2015-08-12T18:39:25.000Z</time>
      </trkpt>
      <trkpt lat="45.4801" lon="5.94814">
        <ele>667.56762695312</ele>
        <time>2015-08-12T18:39:27.000Z</time>
      </trkpt>
      <trkpt lat="45.48009" lon="5.94817">
        <ele>668.42199707031</ele>
        <time>2015-08-12T18:39:29.000Z</time>
      </trkpt>
      <trkpt lat="45.48008" lon="5.94822">
        <ele>670.25494384766</ele>
        <time>2015-08-12T18:39:32.000Z</time>
      </trkpt>
      <trkpt lat="45.48006" lon="5.94827">
        <ele>672.11138916016</ele>
        <time>2015-08-12T18:39:35.000Z</time>
      </trkpt>
      <trkpt lat="45.48004" lon="5.94831">
        <ele>671.79125976562</ele>
        <time>2015-08-12T18:39:38.000Z</time>
      </trkpt>
      <trkpt lat="45.48" lon="5.94835">
        <ele>671.45422363281</ele>
        <time>2015-08-12T18:39:41.000Z</time>
      </trkpt>
      <trkpt lat="45.47996" lon="5.94837">
        <ele>672.078125</ele>
        <time>2015-08-12T18:39:44.000Z</time>
      </trkpt>
      <trkpt lat="45.47993" lon="5.94839">
        <ele>673.12890625</ele>
        <time>2015-08-12T18:39:46.000Z</time>
      </trkpt>
      <trkpt lat="45.47991" lon="5.94844">
        <ele>673.98596191406</ele>
        <time>2015-08-12T18:39:49.000Z</time>
      </trkpt>
      <trkpt lat="45.4799" lon="5.94849">
        <ele>675.96923828125</ele>
        <time>2015-08-12T18:39:52.000Z</time>
      </trkpt>
      <trkpt lat="45.4799" lon="5.94852">
        <ele>677.06732177734</ele>
        <time>2015-08-12T18:39:54.000Z</time>
      </trkpt>
      <trkpt lat="45.47989" lon="5.94856">
        <ele>677.41918945312</ele>
        <time>2015-08-12T18:39:57.000Z</time>
      </trkpt>
      <trkpt lat="45.47989" lon="5.94858">
        <ele>677.96453857422</ele>
        <time>2015-08-12T18:39:59.000Z</time>
      </trkpt>
      <trkpt lat="45.47988" lon="5.94862">
        <ele>678.92858886719</ele>
        <time>2015-08-12T18:40:02.000Z</time>
      </trkpt>
      <trkpt lat="45.47987" lon="5.94865">
        <ele>678.37847900391</ele>
        <time>2015-08-12T18:40:06.000Z</time>
      </trkpt>
      <trkpt lat="45.47986" lon="5.94867">
        <ele>678.38995361328</ele>
        <time>2015-08-12T18:40:10.000Z</time>
      </trkpt>
      <trkpt lat="45.47985" lon="5.94868">
        <ele>678.43884277344</ele>
        <time>2015-08-12T18:40:12.000Z</time>
      </trkpt>
      <trkpt lat="45.47985" lon="5.94872">
        <ele>678.87145996094</ele>
        <time>2015-08-12T18:40:15.000Z</time>
      </trkpt>
      <trkpt lat="45.47985" lon="5.94875">
        <ele>678.99798583984</ele>
        <time>2015-08-12T18:40:17.000Z</time>
      </trkpt>
      <trkpt lat="45.47985" lon="5.94878">
        <ele>679.01586914062</ele>
        <time>2015-08-12T18:40:19.000Z</time>
      </trkpt>
      <trkpt lat="45.47984" lon="5.94883">
        <ele>678.92901611328</ele>
        <time>2015-08-12T18:40:22.000Z</time>
      </trkpt>
      <trkpt lat="45.47983" lon="5.94887">
        <ele>680.10913085938</ele>
        <time>2015-08-12T18:40:25.000Z</time>
      </trkpt>
      <trkpt lat="45.47982" lon="5.94891">
        <ele>681.13757324219</ele>
        <time>2015-08-12T18:40:27.000Z</time>
      </trkpt>
      <trkpt lat="45.47982" lon="5.94895">
        <ele>681.90502929688</ele>
        <time>2015-08-12T18:40:30.000Z</time>
      </trkpt>
      <trkpt lat="45.47981" lon="5.94901">
        <ele>682.81762695312</ele>
        <time>2015-08-12T18:40:33.000Z</time>
      </trkpt>
      <trkpt lat="45.47981" lon="5.94905">
        <ele>684.47064208984</ele>
        <time>2015-08-12T18:40:35.000Z</time>
      </trkpt>
      <trkpt lat="45.47981" lon="5.94908">
        <ele>684.86010742188</ele>
        <time>2015-08-12T18:40:37.000Z</time>
      </trkpt>
      <trkpt lat="45.47981" lon="5.94913">
        <ele>684.86450195312</ele>
        <time>2015-08-12T18:40:40.000Z</time>
      </trkpt>
      <trkpt lat="45.4798" lon="5.94916">
        <ele>684.78094482422</ele>
        <time>2015-08-12T18:40:42.000Z</time>
      </trkpt>
      <trkpt lat="45.47979" lon="5.94919">
        <ele>685.22985839844</ele>
        <time>2015-08-12T18:40:44.000Z</time>
      </trkpt>
      <trkpt lat="45.47977" lon="5.94921">
        <ele>685.09509277344</ele>
        <time>2015-08-12T18:40:46.000Z</time>
      </trkpt>
      <trkpt lat="45.47974" lon="5.94925">
        <ele>685.27319335938</ele>
        <time>2015-08-12T18:40:49.000Z</time>
      </trkpt>
      <trkpt lat="45.47973" lon="5.94928">
        <ele>684.08251953125</ele>
        <time>2015-08-12T18:40:51.000Z</time>
      </trkpt>
      <trkpt lat="45.4797" lon="5.94931">
        <ele>681.54791259766</ele>
        <time>2015-08-12T18:40:54.000Z</time>
      </trkpt>
      <trkpt lat="45.47968" lon="5.94932">
        <ele>681.15985107422</ele>
        <time>2015-08-12T18:40:56.000Z</time>
      </trkpt>
      <trkpt lat="45.47963" lon="5.94933">
        <ele>680.48571777344</ele>
        <time>2015-08-12T18:40:59.000Z</time>
      </trkpt>
      <trkpt lat="45.47959" lon="5.94933">
        <ele>680.48522949219</ele>
        <time>2015-08-12T18:41:02.000Z</time>
      </trkpt>
      <trkpt lat="45.47956" lon="5.94934">
        <ele>681.58465576172</ele>
        <time>2015-08-12T18:41:04.000Z</time>
      </trkpt>
      <trkpt lat="45.47955" lon="5.94938">
        <ele>684.42584228516</ele>
        <time>2015-08-12T18:41:07.000Z</time>
      </trkpt>
      <trkpt lat="45.47954" lon="5.94941">
        <ele>684.8466796875</ele>
        <time>2015-08-12T18:41:09.000Z</time>
      </trkpt>
      <trkpt lat="45.47953" lon="5.94946">
        <ele>686.71051025391</ele>
        <time>2015-08-12T18:41:12.000Z</time>
      </trkpt>
      <trkpt lat="45.47952" lon="5.94951">
        <ele>688.99981689453</ele>
        <time>2015-08-12T18:41:15.000Z</time>
      </trkpt>
      <trkpt lat="45.47952" lon="5.94955">
        <ele>691.18286132812</ele>
        <time>2015-08-12T18:41:18.000Z</time>
      </trkpt>
      <trkpt lat="45.47952" lon="5.94958">
        <ele>692.01898193359</ele>
        <time>2015-08-12T18:41:20.000Z</time>
      </trkpt>
      <trkpt lat="45.47952" lon="5.9496">
        <ele>692.97369384766</ele>
        <time>2015-08-12T18:41:22.000Z</time>
      </trkpt>
      <trkpt lat="45.47952" lon="5.94964">
        <ele>695.06481933594</ele>
        <time>2015-08-12T18:41:25.000Z</time>
      </trkpt>
      <trkpt lat="45.47952" lon="5.94967">
        <ele>697.24615478516</ele>
        <time>2015-08-12T18:41:28.000Z</time>
      </trkpt>
      <trkpt lat="45.47952" lon="5.94969">
        <ele>697.96820068359</ele>
        <time>2015-08-12T18:41:38.000Z</time>
      </trkpt>
      <trkpt lat="45.47952" lon="5.94972">
        <ele>698.87652587891</ele>
        <time>2015-08-12T18:41:50.000Z</time>
      </trkpt>
      <trkpt lat="45.47952" lon="5.94977">
        <ele>699.54675292969</ele>
        <time>2015-08-12T18:41:53.000Z</time>
      </trkpt>
      <trkpt lat="45.47951" lon="5.94982">
        <ele>700.38659667969</ele>
        <time>2015-08-12T18:41:56.000Z</time>
      </trkpt>
      <trkpt lat="45.47951" lon="5.94985">
        <ele>701.23461914062</ele>
        <time>2015-08-12T18:41:58.000Z</time>
      </trkpt>
      <trkpt lat="45.4795" lon="5.94991">
        <ele>701.39874267578</ele>
        <time>2015-08-12T18:42:01.000Z</time>
      </trkpt>
      <trkpt lat="45.4795" lon="5.94995">
        <ele>700.54528808594</ele>
        <time>2015-08-12T18:42:03.000Z</time>
      </trkpt>
      <trkpt lat="45.4795" lon="5.95">
        <ele>699.35559082031</ele>
        <time>2015-08-12T18:42:06.000Z</time>
      </trkpt>
      <trkpt lat="45.4795" lon="5.95006">
        <ele>698.92584228516</ele>
        <time>2015-08-12T18:42:09.000Z</time>
      </trkpt>
      <trkpt lat="45.47951" lon="5.95009">
        <ele>699.10418701172</ele>
        <time>2015-08-12T18:42:11.000Z</time>
      </trkpt>
      <trkpt lat="45.4795" lon="5.95015">
        <ele>699.81982421875</ele>
        <time>2015-08-12T18:42:14.000Z</time>
      </trkpt>
      <trkpt lat="45.47948" lon="5.95018">
        <ele>699.64324951172</ele>
        <time>2015-08-12T18:42:17.000Z</time>
      </trkpt>
      <trkpt lat="45.47947" lon="5.95023">
        <ele>700.49487304688</ele>
        <time>2015-08-12T18:42:20.000Z</time>
      </trkpt>
      <trkpt lat="45.47946" lon="5.95025">
        <ele>700.63989257812</ele>
        <time>2015-08-12T18:42:22.000Z</time>
      </trkpt>
      <trkpt lat="45.47943" lon="5.95029">
        <ele>698.25872802734</ele>
        <time>2015-08-12T18:42:25.000Z</time>
      </trkpt>
      <trkpt lat="45.47942" lon="5.9503">
        <ele>696.84313964844</ele>
        <time>2015-08-12T18:42:27.000Z</time>
      </trkpt>
      <trkpt lat="45.4794" lon="5.95031">
        <ele>697.02923583984</ele>
        <time>2015-08-12T18:42:30.000Z</time>
      </trkpt>
      <trkpt lat="45.47939" lon="5.95031">
        <ele>697.52789306641</ele>
        <time>2015-08-12T18:42:33.000Z</time>
      </trkpt>
      <trkpt lat="45.47939" lon="5.95031">
        <ele>686.91021728516</ele>
        <time>2015-08-12T18:42:53.000Z</time>
      </trkpt>
      <trkpt lat="45.47937" lon="5.95032">
        <ele>697.75177001953</ele>
        <time>2015-08-12T18:44:16.000Z</time>
      </trkpt>
      <trkpt lat="45.47932" lon="5.95033">
        <ele>694.28723144531</ele>
        <time>2015-08-12T18:44:19.000Z</time>
      </trkpt>
      <trkpt lat="45.47926" lon="5.95034">
        <ele>692.35809326172</ele>
        <time>2015-08-12T18:44:22.000Z</time>
      </trkpt>
      <trkpt lat="45.47917" lon="5.95034">
        <ele>691.77276611328</ele>
        <time>2015-08-12T18:44:25.000Z</time>
      </trkpt>
      <trkpt lat="45.47914" lon="5.95035">
        <ele>691.02136230469</ele>
        <time>2015-08-12T18:44:30.000Z</time>
      </trkpt>
      <trkpt lat="45.47913" lon="5.95036">
        <ele>689.56481933594</ele>
        <time>2015-08-12T18:44:36.000Z</time>
      </trkpt>
      <trkpt lat="45.47911" lon="5.95037">
        <ele>688.69897460938</ele>
        <time>2015-08-12T18:44:49.000Z</time>
      </trkpt>
      <trkpt lat="45.47909" lon="5.95036">
        <ele>689.98199462891</ele>
        <time>2015-08-12T18:44:52.000Z</time>
      </trkpt>
      <trkpt lat="45.47904" lon="5.95035">
        <ele>691.17163085938</ele>
        <time>2015-08-12T18:44:55.000Z</time>
      </trkpt>
      <trkpt lat="45.47902" lon="5.95034">
        <ele>693.57916259766</ele>
        <time>2015-08-12T18:44:57.000Z</time>
      </trkpt>
      <trkpt lat="45.47899" lon="5.95032">
        <ele>696.32373046875</ele>
        <time>2015-08-12T18:44:59.000Z</time>
      </trkpt>
      <trkpt lat="45.47897" lon="5.9503">
        <ele>700.09924316406</ele>
        <time>2015-08-12T18:45:02.000Z</time>
      </trkpt>
      <trkpt lat="45.47895" lon="5.95028">
        <ele>702.50872802734</ele>
        <time>2015-08-12T18:45:05.000Z</time>
      </trkpt>
      <trkpt lat="45.47893" lon="5.95027">
        <ele>704.55944824219</ele>
        <time>2015-08-12T18:45:07.000Z</time>
      </trkpt>
      <trkpt lat="45.4789" lon="5.95027">
        <ele>705.85174560547</ele>
        <time>2015-08-12T18:45:10.000Z</time>
      </trkpt>
      <trkpt lat="45.47889" lon="5.95026">
        <ele>707.95989990234</ele>
        <time>2015-08-12T18:45:13.000Z</time>
      </trkpt>
      <trkpt lat="45.47888" lon="5.95023">
        <ele>710.7568359375</ele>
        <time>2015-08-12T18:45:16.000Z</time>
      </trkpt>
      <trkpt lat="45.47887" lon="5.95021">
        <ele>712.3466796875</ele>
        <time>2015-08-12T18:45:18.000Z</time>
      </trkpt>
      <trkpt lat="45.47887" lon="5.95017">
        <ele>714.2216796875</ele>
        <time>2015-08-12T18:45:21.000Z</time>
      </trkpt>
      <trkpt lat="45.47887" lon="5.95014">
        <ele>714.96929931641</ele>
        <time>2015-08-12T18:45:23.000Z</time>
      </trkpt>
      <trkpt lat="45.47887" lon="5.95009">
        <ele>716.94812011719</ele>
        <time>2015-08-12T18:45:26.000Z</time>
      </trkpt>
      <trkpt lat="45.47887" lon="5.95005">
        <ele>718.54138183594</ele>
        <time>2015-08-12T18:45:28.000Z</time>
      </trkpt>
      <trkpt lat="45.47888" lon="5.95">
        <ele>719.47027587891</ele>
        <time>2015-08-12T18:45:30.000Z</time>
      </trkpt>
      <trkpt lat="45.47889" lon="5.94993">
        <ele>718.98248291016</ele>
        <time>2015-08-12T18:45:33.000Z</time>
      </trkpt>
      <trkpt lat="45.4789" lon="5.94988">
        <ele>718.34185791016</ele>
        <time>2015-08-12T18:45:35.000Z</time>
      </trkpt>
      <trkpt lat="45.4789" lon="5.9498">
        <ele>718.50323486328</ele>
        <time>2015-08-12T18:45:38.000Z</time>
      </trkpt>
      <trkpt lat="45.47889" lon="5.94976">
        <ele>718.48388671875</ele>
        <time>2015-08-12T18:45:40.000Z</time>
      </trkpt>
      <trkpt lat="45.47889" lon="5.94971">
        <ele>716.47637939453</ele>
        <time>2015-08-12T18:45:43.000Z</time>
      </trkpt>
      <trkpt lat="45.47889" lon="5.94969">
        <ele>716.53167724609</ele>
        <time>2015-08-12T18:45:45.000Z</time>
      </trkpt>
      <trkpt lat="45.47889" lon="5.94963">
        <ele>716.48345947266</ele>
        <time>2015-08-12T18:45:48.000Z</time>
      </trkpt>
      <trkpt lat="45.47888" lon="5.94959">
        <ele>717.64544677734</ele>
        <time>2015-08-12T18:45:50.000Z</time>
      </trkpt>
      <trkpt lat="45.47887" lon="5.94954">
        <ele>718.69659423828</ele>
        <time>2015-08-12T18:45:52.000Z</time>
      </trkpt>
      <trkpt lat="45.47885" lon="5.94948">
        <ele>718.96954345703</ele>
        <time>2015-08-12T18:45:55.000Z</time>
      </trkpt>
      <trkpt lat="45.47884" lon="5.94943">
        <ele>720.15106201172</ele>
        <time>2015-08-12T18:45:58.000Z</time>
      </trkpt>
      <trkpt lat="45.47884" lon="5.94936">
        <ele>720.87530517578</ele>
        <time>2015-08-12T18:46:01.000Z</time>
      </trkpt>
      <trkpt lat="45.47884" lon="5.94931">
        <ele>720.94342041016</ele>
        <time>2015-08-12T18:46:04.000Z</time>
      </trkpt>
      <trkpt lat="45.47882" lon="5.94925">
        <ele>721.10211181641</ele>
        <time>2015-08-12T18:46:07.000Z</time>
      </trkpt>
      <trkpt lat="45.47881" lon="5.94923">
        <ele>720.83752441406</ele>
        <time>2015-08-12T18:46:09.000Z</time>
      </trkpt>
      <trkpt lat="45.47879" lon="5.94917">
        <ele>718.00445556641</ele>
        <time>2015-08-12T18:46:12.000Z</time>
      </trkpt>
      <trkpt lat="45.47878" lon="5.94913">
        <ele>716.90307617188</ele>
        <time>2015-08-12T18:46:14.000Z</time>
      </trkpt>
      <trkpt lat="45.47877" lon="5.94909">
        <ele>716.90716552734</ele>
        <time>2015-08-12T18:46:16.000Z</time>
      </trkpt>
      <trkpt lat="45.47876" lon="5.94906">
        <ele>717.42199707031</ele>
        <time>2015-08-12T18:46:18.000Z</time>
      </trkpt>
      <trkpt lat="45.47874" lon="5.94902">
        <ele>718.08331298828</ele>
        <time>2015-08-12T18:46:20.000Z</time>
      </trkpt>
      <trkpt lat="45.47873" lon="5.94898">
        <ele>719.61676025391</ele>
        <time>2015-08-12T18:46:23.000Z</time>
      </trkpt>
      <trkpt lat="45.47871" lon="5.94894">
        <ele>719.7587890625</ele>
        <time>2015-08-12T18:46:26.000Z</time>
      </trkpt>
      <trkpt lat="45.47868" lon="5.94891">
        <ele>720.60559082031</ele>
        <time>2015-08-12T18:46:29.000Z</time>
      </trkpt>
      <trkpt lat="45.47866" lon="5.94888">
        <ele>721.39587402344</ele>
        <time>2015-08-12T18:46:31.000Z</time>
      </trkpt>
      <trkpt lat="45.47865" lon="5.94886">
        <ele>721.16040039062</ele>
        <time>2015-08-12T18:46:33.000Z</time>
      </trkpt>
      <trkpt lat="45.47861" lon="5.94883">
        <ele>720.14575195312</ele>
        <time>2015-08-12T18:46:36.000Z</time>
      </trkpt>
      <trkpt lat="45.47859" lon="5.9488">
        <ele>719.62243652344</ele>
        <time>2015-08-12T18:46:38.000Z</time>
      </trkpt>
      <trkpt lat="45.47856" lon="5.94877">
        <ele>720.45825195312</ele>
        <time>2015-08-12T18:46:41.000Z</time>
      </trkpt>
      <trkpt lat="45.47852" lon="5.94874">
        <ele>721.34289550781</ele>
        <time>2015-08-12T18:46:44.000Z</time>
      </trkpt>
      <trkpt lat="45.47849" lon="5.9487">
        <ele>722.66430664062</ele>
        <time>2015-08-12T18:46:47.000Z</time>
      </trkpt>
      <trkpt lat="45.47847" lon="5.94868">
        <ele>723.02532958984</ele>
        <time>2015-08-12T18:46:49.000Z</time>
      </trkpt>
      <trkpt lat="45.47845" lon="5.94865">
        <ele>723.32977294922</ele>
        <time>2015-08-12T18:46:51.000Z</time>
      </trkpt>
      <trkpt lat="45.47844" lon="5.94862">
        <ele>723.31146240234</ele>
        <time>2015-08-12T18:46:53.000Z</time>
      </trkpt>
      <trkpt lat="45.47842" lon="5.94859">
        <ele>723.89129638672</ele>
        <time>2015-08-12T18:46:55.000Z</time>
      </trkpt>
      <trkpt lat="45.47839" lon="5.94856">
        <ele>723.39361572266</ele>
        <time>2015-08-12T18:46:58.000Z</time>
      </trkpt>
      <trkpt lat="45.47838" lon="5.94854">
        <ele>723.88012695312</ele>
        <time>2015-08-12T18:47:00.000Z</time>
      </trkpt>
      <trkpt lat="45.47834" lon="5.94851">
        <ele>726.87225341797</ele>
        <time>2015-08-12T18:47:03.000Z</time>
      </trkpt>
      <trkpt lat="45.47833" lon="5.94849">
        <ele>727.53063964844</ele>
        <time>2015-08-12T18:47:05.000Z</time>
      </trkpt>
      <trkpt lat="45.47829" lon="5.94847">
        <ele>730.74383544922</ele>
        <time>2015-08-12T18:47:08.000Z</time>
      </trkpt>
      <trkpt lat="45.47827" lon="5.94846">
        <ele>730.68811035156</ele>
        <time>2015-08-12T18:47:10.000Z</time>
      </trkpt>
      <trkpt lat="45.47823" lon="5.94844">
        <ele>731.27423095703</ele>
        <time>2015-08-12T18:47:13.000Z</time>
      </trkpt>
      <trkpt lat="45.47821" lon="5.94843">
        <ele>731.46124267578</ele>
        <time>2015-08-12T18:47:15.000Z</time>
      </trkpt>
      <trkpt lat="45.47818" lon="5.94842">
        <ele>733.11401367188</ele>
        <time>2015-08-12T18:47:18.000Z</time>
      </trkpt>
      <trkpt lat="45.47815" lon="5.94839">
        <ele>730.9638671875</ele>
        <time>2015-08-12T18:47:21.000Z</time>
      </trkpt>
      <trkpt lat="45.47814" lon="5.94835">
        <ele>730.14544677734</ele>
        <time>2015-08-12T18:47:23.000Z</time>
      </trkpt>
      <trkpt lat="45.47813" lon="5.94832">
        <ele>729.81384277344</ele>
        <time>2015-08-12T18:47:25.000Z</time>
      </trkpt>
      <trkpt lat="45.47814" lon="5.94827">
        <ele>728.95056152344</ele>
        <time>2015-08-12T18:47:28.000Z</time>
      </trkpt>
      <trkpt lat="45.47815" lon="5.94824">
        <ele>728.34204101562</ele>
        <time>2015-08-12T18:47:30.000Z</time>
      </trkpt>
      <trkpt lat="45.47815" lon="5.94819">
        <ele>727.61315917969</ele>
        <time>2015-08-12T18:47:33.000Z</time>
      </trkpt>
      <trkpt lat="45.47815" lon="5.94816">
        <ele>727.25634765625</ele>
        <time>2015-08-12T18:47:35.000Z</time>
      </trkpt>
      <trkpt lat="45.47815" lon="5.94812">
        <ele>726.9599609375</ele>
        <time>2015-08-12T18:47:37.000Z</time>
      </trkpt>
      <trkpt lat="45.47816" lon="5.94809">
        <ele>726.52380371094</ele>
        <time>2015-08-12T18:47:39.000Z</time>
      </trkpt>
      <trkpt lat="45.47817" lon="5.94804">
        <ele>724.79486083984</ele>
        <time>2015-08-12T18:47:42.000Z</time>
      </trkpt>
      <trkpt lat="45.47818" lon="5.94801">
        <ele>725.02722167969</ele>
        <time>2015-08-12T18:47:44.000Z</time>
      </trkpt>
      <trkpt lat="45.47818" lon="5.94796">
        <ele>725.12231445312</ele>
        <time>2015-08-12T18:47:47.000Z</time>
      </trkpt>
      <trkpt lat="45.47819" lon="5.94791">
        <ele>725.24041748047</ele>
        <time>2015-08-12T18:47:50.000Z</time>
      </trkpt>
      <trkpt lat="45.4782" lon="5.94787">
        <ele>725.18872070312</ele>
        <time>2015-08-12T18:47:52.000Z</time>
      </trkpt>
      <trkpt lat="45.47819" lon="5.94782">
        <ele>725.53314208984</ele>
        <time>2015-08-12T18:47:55.000Z</time>
      </trkpt>
      <trkpt lat="45.47819" lon="5.94778">
        <ele>725.86584472656</ele>
        <time>2015-08-12T18:47:57.000Z</time>
      </trkpt>
      <trkpt lat="45.47819" lon="5.94772">
        <ele>726.20349121094</ele>
        <time>2015-08-12T18:48:00.000Z</time>
      </trkpt>
      <trkpt lat="45.4782" lon="5.94768">
        <ele>726.25079345703</ele>
        <time>2015-08-12T18:48:02.000Z</time>
      </trkpt>
      <trkpt lat="45.4782" lon="5.94762">
        <ele>726.22741699219</ele>
        <time>2015-08-12T18:48:05.000Z</time>
      </trkpt>
      <trkpt lat="45.4782" lon="5.94757">
        <ele>726.51531982422</ele>
        <time>2015-08-12T18:48:07.000Z</time>
      </trkpt>
      <trkpt lat="45.47818" lon="5.94752">
        <ele>728.48785400391</ele>
        <time>2015-08-12T18:48:10.000Z</time>
      </trkpt>
      <trkpt lat="45.47818" lon="5.94748">
        <ele>728.80206298828</ele>
        <time>2015-08-12T18:48:12.000Z</time>
      </trkpt>
      <trkpt lat="45.47818" lon="5.94743">
        <ele>729.0224609375</ele>
        <time>2015-08-12T18:48:15.000Z</time>
      </trkpt>
      <trkpt lat="45.47817" lon="5.94741">
        <ele>729.8583984375</ele>
        <time>2015-08-12T18:48:17.000Z</time>
      </trkpt>
      <trkpt lat="45.47816" lon="5.94737">
        <ele>731.28094482422</ele>
        <time>2015-08-12T18:48:20.000Z</time>
      </trkpt>
      <trkpt lat="45.47815" lon="5.94734">
        <ele>732.26318359375</ele>
        <time>2015-08-12T18:48:22.000Z</time>
      </trkpt>
      <trkpt lat="45.47815" lon="5.94731">
        <ele>733.72839355469</ele>
        <time>2015-08-12T18:48:24.000Z</time>
      </trkpt>
      <trkpt lat="45.47814" lon="5.94726">
        <ele>734.67456054688</ele>
        <time>2015-08-12T18:48:27.000Z</time>
      </trkpt>
      <trkpt lat="45.47813" lon="5.94722">
        <ele>735.54748535156</ele>
        <time>2015-08-12T18:48:29.000Z</time>
      </trkpt>
      <trkpt lat="45.47812" lon="5.94717">
        <ele>736.08929443359</ele>
        <time>2015-08-12T18:48:32.000Z</time>
      </trkpt>
      <trkpt lat="45.47811" lon="5.94712">
        <ele>736.19189453125</ele>
        <time>2015-08-12T18:48:35.000Z</time>
      </trkpt>
      <trkpt lat="45.4781" lon="5.94707">
        <ele>737.04943847656</ele>
        <time>2015-08-12T18:48:38.000Z</time>
      </trkpt>
      <trkpt lat="45.47809" lon="5.94704">
        <ele>737.63531494141</ele>
        <time>2015-08-12T18:48:40.000Z</time>
      </trkpt>
      <trkpt lat="45.47808" lon="5.94699">
        <ele>738.22827148438</ele>
        <time>2015-08-12T18:48:43.000Z</time>
      </trkpt>
      <trkpt lat="45.47806" lon="5.94694">
        <ele>739.08081054688</ele>
        <time>2015-08-12T18:48:46.000Z</time>
      </trkpt>
      <trkpt lat="45.47805" lon="5.94691">
        <ele>739.44494628906</ele>
        <time>2015-08-12T18:48:48.000Z</time>
      </trkpt>
      <trkpt lat="45.47803" lon="5.94686">
        <ele>739.53796386719</ele>
        <time>2015-08-12T18:48:51.000Z</time>
      </trkpt>
      <trkpt lat="45.47801" lon="5.94682">
        <ele>739.7802734375</ele>
        <time>2015-08-12T18:48:54.000Z</time>
      </trkpt>
      <trkpt lat="45.47799" lon="5.94678">
        <ele>739.99353027344</ele>
        <time>2015-08-12T18:48:57.000Z</time>
      </trkpt>
      <trkpt lat="45.47798" lon="5.94675">
        <ele>740.22937011719</ele>
        <time>2015-08-12T18:48:59.000Z</time>
      </trkpt>
      <trkpt lat="45.47796" lon="5.9467">
        <ele>740.91528320312</ele>
        <time>2015-08-12T18:49:02.000Z</time>
      </trkpt>
      <trkpt lat="45.47795" lon="5.94665">
        <ele>741.13922119141</ele>
        <time>2015-08-12T18:49:05.000Z</time>
      </trkpt>
      <trkpt lat="45.47793" lon="5.9466">
        <ele>741.48034667969</ele>
        <time>2015-08-12T18:49:08.000Z</time>
      </trkpt>
      <trkpt lat="45.47792" lon="5.94656">
        <ele>741.91442871094</ele>
        <time>2015-08-12T18:49:10.000Z</time>
      </trkpt>
      <trkpt lat="45.4779" lon="5.94651">
        <ele>743.21807861328</ele>
        <time>2015-08-12T18:49:13.000Z</time>
      </trkpt>
      <trkpt lat="45.47787" lon="5.94647">
        <ele>744.19604492188</ele>
        <time>2015-08-12T18:49:16.000Z</time>
      </trkpt>
      <trkpt lat="45.47786" lon="5.94644">
        <ele>744.84655761719</ele>
        <time>2015-08-12T18:49:18.000Z</time>
      </trkpt>
      <trkpt lat="45.47784" lon="5.94639">
        <ele>745.22784423828</ele>
        <time>2015-08-12T18:49:21.000Z</time>
      </trkpt>
      <trkpt lat="45.47784" lon="5.94635">
        <ele>745.65155029297</ele>
        <time>2015-08-12T18:49:23.000Z</time>
      </trkpt>
      <trkpt lat="45.47782" lon="5.9463">
        <ele>747.09222412109</ele>
        <time>2015-08-12T18:49:26.000Z</time>
      </trkpt>
      <trkpt lat="45.4778" lon="5.94625">
        <ele>747.58074951172</ele>
        <time>2015-08-12T18:49:29.000Z</time>
      </trkpt>
      <trkpt lat="45.47779" lon="5.9462">
        <ele>747.65704345703</ele>
        <time>2015-08-12T18:49:32.000Z</time>
      </trkpt>
      <trkpt lat="45.47778" lon="5.94617">
        <ele>747.74017333984</ele>
        <time>2015-08-12T18:49:34.000Z</time>
      </trkpt>
      <trkpt lat="45.47776" lon="5.94612">
        <ele>748.73498535156</ele>
        <time>2015-08-12T18:49:37.000Z</time>
      </trkpt>
      <trkpt lat="45.47774" lon="5.94607">
        <ele>749.67279052734</ele>
        <time>2015-08-12T18:49:40.000Z</time>
      </trkpt>
      <trkpt lat="45.47772" lon="5.94602">
        <ele>749.40063476562</ele>
        <time>2015-08-12T18:49:43.000Z</time>
      </trkpt>
      <trkpt lat="45.47771" lon="5.94598">
        <ele>749.07385253906</ele>
        <time>2015-08-12T18:49:45.000Z</time>
      </trkpt>
      <trkpt lat="45.4777" lon="5.94594">
        <ele>749.46667480469</ele>
        <time>2015-08-12T18:49:48.000Z</time>
      </trkpt>
      <trkpt lat="45.47768" lon="5.94589">
        <ele>749.15881347656</ele>
        <time>2015-08-12T18:49:51.000Z</time>
      </trkpt>
      <trkpt lat="45.47766" lon="5.94584">
        <ele>749.57678222656</ele>
        <time>2015-08-12T18:49:54.000Z</time>
      </trkpt>
      <trkpt lat="45.47764" lon="5.94579">
        <ele>750.88995361328</ele>
        <time>2015-08-12T18:49:57.000Z</time>
      </trkpt>
      <trkpt lat="45.47763" lon="5.94575">
        <ele>751.36505126953</ele>
        <time>2015-08-12T18:49:59.000Z</time>
      </trkpt>
      <trkpt lat="45.47762" lon="5.9457">
        <ele>752.00421142578</ele>
        <time>2015-08-12T18:50:02.000Z</time>
      </trkpt>
      <trkpt lat="45.47762" lon="5.94567">
        <ele>752.17590332031</ele>
        <time>2015-08-12T18:50:04.000Z</time>
      </trkpt>
      <trkpt lat="45.47761" lon="5.94562">
        <ele>754.38140869141</ele>
        <time>2015-08-12T18:50:07.000Z</time>
      </trkpt>
      <trkpt lat="45.4776" lon="5.94557">
        <ele>755.35192871094</ele>
        <time>2015-08-12T18:50:10.000Z</time>
      </trkpt>
      <trkpt lat="45.47759" lon="5.94552">
        <ele>756.64208984375</ele>
        <time>2015-08-12T18:50:13.000Z</time>
      </trkpt>
      <trkpt lat="45.47758" lon="5.94547">
        <ele>757.89068603516</ele>
        <time>2015-08-12T18:50:16.000Z</time>
      </trkpt>
      <trkpt lat="45.47756" lon="5.94543">
        <ele>759.37225341797</ele>
        <time>2015-08-12T18:50:19.000Z</time>
      </trkpt>
      <trkpt lat="45.47755" lon="5.94538">
        <ele>760.54876708984</ele>
        <time>2015-08-12T18:50:22.000Z</time>
      </trkpt>
      <trkpt lat="45.47755" lon="5.94534">
        <ele>761.17779541016</ele>
        <time>2015-08-12T18:50:24.000Z</time>
      </trkpt>
      <trkpt lat="45.47755" lon="5.9453">
        <ele>762.26959228516</ele>
        <time>2015-08-12T18:50:27.000Z</time>
      </trkpt>
      <trkpt lat="45.47755" lon="5.94525">
        <ele>763.43939208984</ele>
        <time>2015-08-12T18:50:30.000Z</time>
      </trkpt>
      <trkpt lat="45.47756" lon="5.94522">
        <ele>764.35815429688</ele>
        <time>2015-08-12T18:50:32.000Z</time>
      </trkpt>
      <trkpt lat="45.47756" lon="5.94519">
        <ele>764.40197753906</ele>
        <time>2015-08-12T18:50:34.000Z</time>
      </trkpt>
      <trkpt lat="45.47757" lon="5.94513">
        <ele>762.97821044922</ele>
        <time>2015-08-12T18:50:37.000Z</time>
      </trkpt>
      <trkpt lat="45.47759" lon="5.94507">
        <ele>762.79180908203</ele>
        <time>2015-08-12T18:50:40.000Z</time>
      </trkpt>
      <trkpt lat="45.4776" lon="5.94503">
        <ele>763.15979003906</ele>
        <time>2015-08-12T18:50:42.000Z</time>
      </trkpt>
      <trkpt lat="45.47762" lon="5.94499">
        <ele>763.60333251953</ele>
        <time>2015-08-12T18:50:44.000Z</time>
      </trkpt>
      <trkpt lat="45.47764" lon="5.94493">
        <ele>762.78863525391</ele>
        <time>2015-08-12T18:50:47.000Z</time>
      </trkpt>
      <trkpt lat="45.47767" lon="5.94487">
        <ele>762.49505615234</ele>
        <time>2015-08-12T18:50:50.000Z</time>
      </trkpt>
      <trkpt lat="45.47769" lon="5.94483">
        <ele>762.07727050781</ele>
        <time>2015-08-12T18:50:52.000Z</time>
      </trkpt>
      <trkpt lat="45.47771" lon="5.9448">
        <ele>761.51281738281</ele>
        <time>2015-08-12T18:50:54.000Z</time>
      </trkpt>
      <trkpt lat="45.47775" lon="5.94475">
        <ele>762.13977050781</ele>
        <time>2015-08-12T18:50:57.000Z</time>
      </trkpt>
      <trkpt lat="45.47779" lon="5.94471">
        <ele>759.25030517578</ele>
        <time>2015-08-12T18:51:00.000Z</time>
      </trkpt>
      <trkpt lat="45.47782" lon="5.94468">
        <ele>758.98181152344</ele>
        <time>2015-08-12T18:51:02.000Z</time>
      </trkpt>
      <trkpt lat="45.47786" lon="5.94465">
        <ele>758.77239990234</ele>
        <time>2015-08-12T18:51:05.000Z</time>
      </trkpt>
      <trkpt lat="45.4779" lon="5.94461">
        <ele>760.14471435547</ele>
        <time>2015-08-12T18:51:08.000Z</time>
      </trkpt>
      <trkpt lat="45.47794" lon="5.94457">
        <ele>759.09729003906</ele>
        <time>2015-08-12T18:51:11.000Z</time>
      </trkpt>
      <trkpt lat="45.47797" lon="5.94452">
        <ele>759.87829589844</ele>
        <time>2015-08-12T18:51:14.000Z</time>
      </trkpt>
      <trkpt lat="45.47799" lon="5.94447">
        <ele>758.92022705078</ele>
        <time>2015-08-12T18:51:17.000Z</time>
      </trkpt>
      <trkpt lat="45.47801" lon="5.94441">
        <ele>759.05993652344</ele>
        <time>2015-08-12T18:51:20.000Z</time>
      </trkpt>
      <trkpt lat="45.47803" lon="5.94435">
        <ele>758.80395507812</ele>
        <time>2015-08-12T18:51:23.000Z</time>
      </trkpt>
      <trkpt lat="45.47804" lon="5.94429">
        <ele>759.30389404297</ele>
        <time>2015-08-12T18:51:26.000Z</time>
      </trkpt>
      <trkpt lat="45.47805" lon="5.94423">
        <ele>760.01531982422</ele>
        <time>2015-08-12T18:51:29.000Z</time>
      </trkpt>
      <trkpt lat="45.47806" lon="5.94417">
        <ele>760.0888671875</ele>
        <time>2015-08-12T18:51:32.000Z</time>
      </trkpt>
      <trkpt lat="45.47807" lon="5.94411">
        <ele>760.17828369141</ele>
        <time>2015-08-12T18:51:35.000Z</time>
      </trkpt>
      <trkpt lat="45.47807" lon="5.94407">
        <ele>760.24346923828</ele>
        <time>2015-08-12T18:51:37.000Z</time>
      </trkpt>
      <trkpt lat="45.47808" lon="5.94403">
        <ele>760.69909667969</ele>
        <time>2015-08-12T18:51:39.000Z</time>
      </trkpt>
      <trkpt lat="45.47808" lon="5.94398">
        <ele>761.76629638672</ele>
        <time>2015-08-12T18:51:42.000Z</time>
      </trkpt>
      <trkpt lat="45.47809" lon="5.94394">
        <ele>761.71173095703</ele>
        <time>2015-08-12T18:51:44.000Z</time>
      </trkpt>
      <trkpt lat="45.47809" lon="5.94391">
        <ele>761.67932128906</ele>
        <time>2015-08-12T18:51:46.000Z</time>
      </trkpt>
      <trkpt lat="45.4781" lon="5.94385">
        <ele>761.90026855469</ele>
        <time>2015-08-12T18:51:49.000Z</time>
      </trkpt>
      <trkpt lat="45.47811" lon="5.9438">
        <ele>762.47253417969</ele>
        <time>2015-08-12T18:51:52.000Z</time>
      </trkpt>
      <trkpt lat="45.47813" lon="5.94375">
        <ele>763.07879638672</ele>
        <time>2015-08-12T18:51:55.000Z</time>
      </trkpt>
      <trkpt lat="45.47813" lon="5.94371">
        <ele>763.37878417969</ele>
        <time>2015-08-12T18:51:57.000Z</time>
      </trkpt>
      <trkpt lat="45.47815" lon="5.94365">
        <ele>763.62023925781</ele>
        <time>2015-08-12T18:52:00.000Z</time>
      </trkpt>
      <trkpt lat="45.47815" lon="5.94362">
        <ele>763.74340820312</ele>
        <time>2015-08-12T18:52:02.000Z</time>
      </trkpt>
      <trkpt lat="45.47818" lon="5.94357">
        <ele>764.4140625</ele>
        <time>2015-08-12T18:52:05.000Z</time>
      </trkpt>
      <trkpt lat="45.47821" lon="5.94353">
        <ele>764.43859863281</ele>
        <time>2015-08-12T18:52:08.000Z</time>
      </trkpt>
      <trkpt lat="45.47823" lon="5.9435">
        <ele>764.88348388672</ele>
        <time>2015-08-12T18:52:10.000Z</time>
      </trkpt>
      <trkpt lat="45.47824" lon="5.94346">
        <ele>765.18530273438</ele>
        <time>2015-08-12T18:52:12.000Z</time>
      </trkpt>
      <trkpt lat="45.47827" lon="5.94341">
        <ele>765.49176025391</ele>
        <time>2015-08-12T18:52:15.000Z</time>
      </trkpt>
      <trkpt lat="45.4783" lon="5.94336">
        <ele>765.72760009766</ele>
        <time>2015-08-12T18:52:18.000Z</time>
      </trkpt>
      <trkpt lat="45.47833" lon="5.94332">
        <ele>766.71209716797</ele>
        <time>2015-08-12T18:52:21.000Z</time>
      </trkpt>
      <trkpt lat="45.47836" lon="5.94327">
        <ele>767.39117431641</ele>
        <time>2015-08-12T18:52:24.000Z</time>
      </trkpt>
      <trkpt lat="45.47838" lon="5.94323">
        <ele>767.52209472656</ele>
        <time>2015-08-12T18:52:27.000Z</time>
      </trkpt>
      <trkpt lat="45.47841" lon="5.94318">
        <ele>767.98950195312</ele>
        <time>2015-08-12T18:52:30.000Z</time>
      </trkpt>
      <trkpt lat="45.47843" lon="5.94315">
        <ele>768.24444580078</ele>
        <time>2015-08-12T18:52:32.000Z</time>
      </trkpt>
      <trkpt lat="45.47845" lon="5.94309">
        <ele>768.95202636719</ele>
        <time>2015-08-12T18:52:35.000Z</time>
      </trkpt>
      <trkpt lat="45.47847" lon="5.94304">
        <ele>768.99914550781</ele>
        <time>2015-08-12T18:52:38.000Z</time>
      </trkpt>
      <trkpt lat="45.47849" lon="5.94298">
        <ele>769.87774658203</ele>
        <time>2015-08-12T18:52:41.000Z</time>
      </trkpt>
      <trkpt lat="45.4785" lon="5.94294">
        <ele>770.40295410156</ele>
        <time>2015-08-12T18:52:43.000Z</time>
      </trkpt>
      <trkpt lat="45.4785" lon="5.94289">
        <ele>771.09515380859</ele>
        <time>2015-08-12T18:52:46.000Z</time>
      </trkpt>
      <trkpt lat="45.4785" lon="5.94284">
        <ele>771.89562988281</ele>
        <time>2015-08-12T18:52:49.000Z</time>
      </trkpt>
      <trkpt lat="45.47849" lon="5.94281">
        <ele>773.32940673828</ele>
        <time>2015-08-12T18:52:51.000Z</time>
      </trkpt>
      <trkpt lat="45.47848" lon="5.94278">
        <ele>774.78588867188</ele>
        <time>2015-08-12T18:52:53.000Z</time>
      </trkpt>
      <trkpt lat="45.47846" lon="5.94274">
        <ele>775.6455078125</ele>
        <time>2015-08-12T18:52:56.000Z</time>
      </trkpt>
      <trkpt lat="45.47843" lon="5.94271">
        <ele>775.05035400391</ele>
        <time>2015-08-12T18:52:59.000Z</time>
      </trkpt>
      <trkpt lat="45.47841" lon="5.94269">
        <ele>775.41613769531</ele>
        <time>2015-08-12T18:53:01.000Z</time>
      </trkpt>
      <trkpt lat="45.47837" lon="5.94267">
        <ele>776.03283691406</ele>
        <time>2015-08-12T18:53:04.000Z</time>
      </trkpt>
      <trkpt lat="45.47835" lon="5.94265">
        <ele>776.45037841797</ele>
        <time>2015-08-12T18:53:06.000Z</time>
      </trkpt>
      <trkpt lat="45.47831" lon="5.94263">
        <ele>777.23712158203</ele>
        <time>2015-08-12T18:53:09.000Z</time>
      </trkpt>
      <trkpt lat="45.47829" lon="5.9426">
        <ele>778.63604736328</ele>
        <time>2015-08-12T18:53:12.000Z</time>
      </trkpt>
      <trkpt lat="45.47826" lon="5.94258">
        <ele>779.61114501953</ele>
        <time>2015-08-12T18:53:15.000Z</time>
      </trkpt>
      <trkpt lat="45.47823" lon="5.94257">
        <ele>779.82885742188</ele>
        <time>2015-08-12T18:53:17.000Z</time>
      </trkpt>
      <trkpt lat="45.47821" lon="5.94255">
        <ele>780.01239013672</ele>
        <time>2015-08-12T18:53:19.000Z</time>
      </trkpt>
      <trkpt lat="45.47819" lon="5.94253">
        <ele>780.22808837891</ele>
        <time>2015-08-12T18:53:21.000Z</time>
      </trkpt>
      <trkpt lat="45.47815" lon="5.9425">
        <ele>780.70599365234</ele>
        <time>2015-08-12T18:53:24.000Z</time>
      </trkpt>
      <trkpt lat="45.47812" lon="5.94246">
        <ele>781.18029785156</ele>
        <time>2015-08-12T18:53:27.000Z</time>
      </trkpt>
      <trkpt lat="45.47809" lon="5.94245">
        <ele>782.15881347656</ele>
        <time>2015-08-12T18:53:29.000Z</time>
      </trkpt>
      <trkpt lat="45.47805" lon="5.94243">
        <ele>782.95416259766</ele>
        <time>2015-08-12T18:53:32.000Z</time>
      </trkpt>
      <trkpt lat="45.47802" lon="5.94243">
        <ele>783.50128173828</ele>
        <time>2015-08-12T18:53:35.000Z</time>
      </trkpt>
      <trkpt lat="45.47797" lon="5.94242">
        <ele>784.01422119141</ele>
        <time>2015-08-12T18:53:38.000Z</time>
      </trkpt>
      <trkpt lat="45.47793" lon="5.94242">
        <ele>783.77801513672</ele>
        <time>2015-08-12T18:53:41.000Z</time>
      </trkpt>
      <trkpt lat="45.47789" lon="5.94242">
        <ele>783.95861816406</ele>
        <time>2015-08-12T18:53:44.000Z</time>
      </trkpt>
      <trkpt lat="45.47785" lon="5.94243">
        <ele>784.98217773438</ele>
        <time>2015-08-12T18:53:47.000Z</time>
      </trkpt>
      <trkpt lat="45.47782" lon="5.94244">
        <ele>785.24133300781</ele>
        <time>2015-08-12T18:53:49.000Z</time>
      </trkpt>
      <trkpt lat="45.47778" lon="5.94245">
        <ele>785.39086914062</ele>
        <time>2015-08-12T18:53:52.000Z</time>
      </trkpt>
      <trkpt lat="45.47775" lon="5.94245">
        <ele>785.48901367188</ele>
        <time>2015-08-12T18:53:54.000Z</time>
      </trkpt>
      <trkpt lat="45.47771" lon="5.94246">
        <ele>785.89855957031</ele>
        <time>2015-08-12T18:53:57.000Z</time>
      </trkpt>
      <trkpt lat="45.47769" lon="5.94246">
        <ele>785.99597167969</ele>
        <time>2015-08-12T18:53:59.000Z</time>
      </trkpt>
      <trkpt lat="45.47765" lon="5.94247">
        <ele>785.72052001953</ele>
        <time>2015-08-12T18:54:02.000Z</time>
      </trkpt>
      <trkpt lat="45.47761" lon="5.94247">
        <ele>785.57397460938</ele>
        <time>2015-08-12T18:54:05.000Z</time>
      </trkpt>
      <trkpt lat="45.47758" lon="5.94248">
        <ele>785.4775390625</ele>
        <time>2015-08-12T18:54:07.000Z</time>
      </trkpt>
      <trkpt lat="45.47755" lon="5.94249">
        <ele>785.55407714844</ele>
        <time>2015-08-12T18:54:10.000Z</time>
      </trkpt>
      <trkpt lat="45.47751" lon="5.9425">
        <ele>785.86968994141</ele>
        <time>2015-08-12T18:54:13.000Z</time>
      </trkpt>
      <trkpt lat="45.47747" lon="5.9425">
        <ele>785.99926757812</ele>
        <time>2015-08-12T18:54:15.000Z</time>
      </trkpt>
      <trkpt lat="45.47743" lon="5.94251">
        <ele>785.48999023438</ele>
        <time>2015-08-12T18:54:18.000Z</time>
      </trkpt>
      <trkpt lat="45.47741" lon="5.94251">
        <ele>786.12713623047</ele>
        <time>2015-08-12T18:54:20.000Z</time>
      </trkpt>
      <trkpt lat="45.47738" lon="5.94251">
        <ele>786.4873046875</ele>
        <time>2015-08-12T18:54:22.000Z</time>
      </trkpt>
      <trkpt lat="45.47735" lon="5.94251">
        <ele>786.35211181641</ele>
        <time>2015-08-12T18:54:24.000Z</time>
      </trkpt>
      <trkpt lat="45.47731" lon="5.9425">
        <ele>786.93273925781</ele>
        <time>2015-08-12T18:54:27.000Z</time>
      </trkpt>
      <trkpt lat="45.47728" lon="5.9425">
        <ele>787.00921630859</ele>
        <time>2015-08-12T18:54:29.000Z</time>
      </trkpt>
      <trkpt lat="45.47724" lon="5.9425">
        <ele>787.48083496094</ele>
        <time>2015-08-12T18:54:32.000Z</time>
      </trkpt>
      <trkpt lat="45.47721" lon="5.94249">
        <ele>787.93127441406</ele>
        <time>2015-08-12T18:54:34.000Z</time>
      </trkpt>
      <trkpt lat="45.47718" lon="5.94249">
        <ele>788.45391845703</ele>
        <time>2015-08-12T18:54:36.000Z</time>
      </trkpt>
      <trkpt lat="45.47716" lon="5.94247">
        <ele>788.96374511719</ele>
        <time>2015-08-12T18:54:38.000Z</time>
      </trkpt>
      <trkpt lat="45.47713" lon="5.94245">
        <ele>789.46789550781</ele>
        <time>2015-08-12T18:54:40.000Z</time>
      </trkpt>
      <trkpt lat="45.47709" lon="5.94242">
        <ele>789.54815673828</ele>
        <time>2015-08-12T18:54:43.000Z</time>
      </trkpt>
      <trkpt lat="45.47706" lon="5.9424">
        <ele>789.96069335938</ele>
        <time>2015-08-12T18:54:45.000Z</time>
      </trkpt>
      <trkpt lat="45.47704" lon="5.94238">
        <ele>790.28302001953</ele>
        <time>2015-08-12T18:54:47.000Z</time>
      </trkpt>
      <trkpt lat="45.477" lon="5.94233">
        <ele>791.42913818359</ele>
        <time>2015-08-12T18:54:50.000Z</time>
      </trkpt>
      <trkpt lat="45.47698" lon="5.9423">
        <ele>791.55023193359</ele>
        <time>2015-08-12T18:54:52.000Z</time>
      </trkpt>
      <trkpt lat="45.47695" lon="5.94225">
        <ele>792.64807128906</ele>
        <time>2015-08-12T18:54:55.000Z</time>
      </trkpt>
      <trkpt lat="45.47691" lon="5.94222">
        <ele>793.46002197266</ele>
        <time>2015-08-12T18:54:58.000Z</time>
      </trkpt>
      <trkpt lat="45.47689" lon="5.94219">
        <ele>793.96124267578</ele>
        <time>2015-08-12T18:55:00.000Z</time>
      </trkpt>
      <trkpt lat="45.47685" lon="5.94218">
        <ele>794.52697753906</ele>
        <time>2015-08-12T18:55:03.000Z</time>
      </trkpt>
      <trkpt lat="45.47682" lon="5.94217">
        <ele>794.76251220703</ele>
        <time>2015-08-12T18:55:05.000Z</time>
      </trkpt>
      <trkpt lat="45.4768" lon="5.94216">
        <ele>795.23370361328</ele>
        <time>2015-08-12T18:55:07.000Z</time>
      </trkpt>
      <trkpt lat="45.47678" lon="5.94216">
        <ele>795.51007080078</ele>
        <time>2015-08-12T18:55:09.000Z</time>
      </trkpt>
      <trkpt lat="45.47674" lon="5.94214">
        <ele>796.02160644531</ele>
        <time>2015-08-12T18:55:12.000Z</time>
      </trkpt>
      <trkpt lat="45.47672" lon="5.94213">
        <ele>796.27093505859</ele>
        <time>2015-08-12T18:55:14.000Z</time>
      </trkpt>
      <trkpt lat="45.4767" lon="5.94212">
        <ele>796.50823974609</ele>
        <time>2015-08-12T18:55:16.000Z</time>
      </trkpt>
      <trkpt lat="45.47666" lon="5.94212">
        <ele>796.89611816406</ele>
        <time>2015-08-12T18:55:19.000Z</time>
      </trkpt>
      <trkpt lat="45.47662" lon="5.94212">
        <ele>796.65618896484</ele>
        <time>2015-08-12T18:55:22.000Z</time>
      </trkpt>
      <trkpt lat="45.47658" lon="5.94212">
        <ele>796.77630615234</ele>
        <time>2015-08-12T18:55:25.000Z</time>
      </trkpt>
      <trkpt lat="45.47653" lon="5.94213">
        <ele>795.31262207031</ele>
        <time>2015-08-12T18:55:28.000Z</time>
      </trkpt>
      <trkpt lat="45.4765" lon="5.94214">
        <ele>794.96765136719</ele>
        <time>2015-08-12T18:55:30.000Z</time>
      </trkpt>
      <trkpt lat="45.47646" lon="5.94215">
        <ele>794.05554199219</ele>
        <time>2015-08-12T18:55:32.000Z</time>
      </trkpt>
      <trkpt lat="45.47643" lon="5.94215">
        <ele>794.15344238281</ele>
        <time>2015-08-12T18:55:34.000Z</time>
      </trkpt>
      <trkpt lat="45.47638" lon="5.94215">
        <ele>794.23742675781</ele>
        <time>2015-08-12T18:55:37.000Z</time>
      </trkpt>
      <trkpt lat="45.47635" lon="5.94216">
        <ele>794.46954345703</ele>
        <time>2015-08-12T18:55:39.000Z</time>
      </trkpt>
      <trkpt lat="45.47631" lon="5.94216">
        <ele>794.734375</ele>
        <time>2015-08-12T18:55:42.000Z</time>
      </trkpt>
      <trkpt lat="45.47628" lon="5.94216">
        <ele>795.23986816406</ele>
        <time>2015-08-12T18:55:44.000Z</time>
      </trkpt>
      <trkpt lat="45.47624" lon="5.94215">
        <ele>797.40203857422</ele>
        <time>2015-08-12T18:55:47.000Z</time>
      </trkpt>
      <trkpt lat="45.47622" lon="5.94212">
        <ele>798.42706298828</ele>
        <time>2015-08-12T18:55:49.000Z</time>
      </trkpt>
      <trkpt lat="45.47619" lon="5.94208">
        <ele>799.61779785156</ele>
        <time>2015-08-12T18:55:52.000Z</time>
      </trkpt>
      <trkpt lat="45.47618" lon="5.94203">
        <ele>800.13073730469</ele>
        <time>2015-08-12T18:55:54.000Z</time>
      </trkpt>
      <trkpt lat="45.47618" lon="5.94197">
        <ele>801.76440429688</ele>
        <time>2015-08-12T18:55:57.000Z</time>
      </trkpt>
      <trkpt lat="45.47619" lon="5.94191">
        <ele>803.04595947266</ele>
        <time>2015-08-12T18:56:00.000Z</time>
      </trkpt>
      <trkpt lat="45.4762" lon="5.94187">
        <ele>803.96826171875</ele>
        <time>2015-08-12T18:56:02.000Z</time>
      </trkpt>
      <trkpt lat="45.47623" lon="5.94182">
        <ele>805.2646484375</ele>
        <time>2015-08-12T18:56:05.000Z</time>
      </trkpt>
      <trkpt lat="45.47625" lon="5.94178">
        <ele>807.04321289062</ele>
        <time>2015-08-12T18:56:07.000Z</time>
      </trkpt>
      <trkpt lat="45.47626" lon="5.94176">
        <ele>808.24359130859</ele>
        <time>2015-08-12T18:56:09.000Z</time>
      </trkpt>
      <trkpt lat="45.47628" lon="5.94172">
        <ele>808.95416259766</ele>
        <time>2015-08-12T18:56:11.000Z</time>
      </trkpt>
      <trkpt lat="45.47631" lon="5.94167">
        <ele>809.70483398438</ele>
        <time>2015-08-12T18:56:14.000Z</time>
      </trkpt>
      <trkpt lat="45.47634" lon="5.94162">
        <ele>810.40808105469</ele>
        <time>2015-08-12T18:56:17.000Z</time>
      </trkpt>
      <trkpt lat="45.47636" lon="5.9416">
        <ele>810.70159912109</ele>
        <time>2015-08-12T18:56:19.000Z</time>
      </trkpt>
      <trkpt lat="45.47638" lon="5.94155">
        <ele>811.50604248047</ele>
        <time>2015-08-12T18:56:22.000Z</time>
      </trkpt>
      <trkpt lat="45.47641" lon="5.94152">
        <ele>813.08465576172</ele>
        <time>2015-08-12T18:56:25.000Z</time>
      </trkpt>
      <trkpt lat="45.47642" lon="5.9415">
        <ele>813.46850585938</ele>
        <time>2015-08-12T18:56:27.000Z</time>
      </trkpt>
      <trkpt lat="45.47643" lon="5.94148">
        <ele>813.54302978516</ele>
        <time>2015-08-12T18:56:29.000Z</time>
      </trkpt>
      <trkpt lat="45.47646" lon="5.94146">
        <ele>814.62805175781</ele>
        <time>2015-08-12T18:56:32.000Z</time>
      </trkpt>
      <trkpt lat="45.47648" lon="5.94144">
        <ele>816.29437255859</ele>
        <time>2015-08-12T18:56:34.000Z</time>
      </trkpt>
      <trkpt lat="45.47651" lon="5.94141">
        <ele>817.06494140625</ele>
        <time>2015-08-12T18:56:37.000Z</time>
      </trkpt>
      <trkpt lat="45.47655" lon="5.94138">
        <ele>817.25897216797</ele>
        <time>2015-08-12T18:56:40.000Z</time>
      </trkpt>
      <trkpt lat="45.47657" lon="5.94136">
        <ele>817.28295898438</ele>
        <time>2015-08-12T18:56:42.000Z</time>
      </trkpt>
      <trkpt lat="45.47661" lon="5.94133">
        <ele>818.34680175781</ele>
        <time>2015-08-12T18:56:45.000Z</time>
      </trkpt>
      <trkpt lat="45.47664" lon="5.94129">
        <ele>819.89831542969</ele>
        <time>2015-08-12T18:56:48.000Z</time>
      </trkpt>
      <trkpt lat="45.47668" lon="5.94126">
        <ele>821.07409667969</ele>
        <time>2015-08-12T18:56:51.000Z</time>
      </trkpt>
      <trkpt lat="45.47671" lon="5.94123">
        <ele>822.13586425781</ele>
        <time>2015-08-12T18:56:54.000Z</time>
      </trkpt>
      <trkpt lat="45.47673" lon="5.94121">
        <ele>822.51770019531</ele>
        <time>2015-08-12T18:56:56.000Z</time>
      </trkpt>
      <trkpt lat="45.47677" lon="5.94118">
        <ele>823.16918945312</ele>
        <time>2015-08-12T18:56:59.000Z</time>
      </trkpt>
      <trkpt lat="45.47681" lon="5.94115">
        <ele>823.30786132812</ele>
        <time>2015-08-12T18:57:02.000Z</time>
      </trkpt>
      <trkpt lat="45.47686" lon="5.94114">
        <ele>823.92858886719</ele>
        <time>2015-08-12T18:57:05.000Z</time>
      </trkpt>
      <trkpt lat="45.47689" lon="5.94112">
        <ele>824.03491210938</ele>
        <time>2015-08-12T18:57:07.000Z</time>
      </trkpt>
      <trkpt lat="45.47693" lon="5.94111">
        <ele>823.52648925781</ele>
        <time>2015-08-12T18:57:10.000Z</time>
      </trkpt>
      <trkpt lat="45.47697" lon="5.94111">
        <ele>823.92431640625</ele>
        <time>2015-08-12T18:57:12.000Z</time>
      </trkpt>
      <trkpt lat="45.477" lon="5.94112">
        <ele>824.00103759766</ele>
        <time>2015-08-12T18:57:14.000Z</time>
      </trkpt>
      <trkpt lat="45.47705" lon="5.94113">
        <ele>824.20916748047</ele>
        <time>2015-08-12T18:57:17.000Z</time>
      </trkpt>
      <trkpt lat="45.47709" lon="5.94115">
        <ele>824.89465332031</ele>
        <time>2015-08-12T18:57:19.000Z</time>
      </trkpt>
      <trkpt lat="45.47715" lon="5.94116">
        <ele>826.14593505859</ele>
        <time>2015-08-12T18:57:22.000Z</time>
      </trkpt>
      <trkpt lat="45.47718" lon="5.94117">
        <ele>827.14312744141</ele>
        <time>2015-08-12T18:57:24.000Z</time>
      </trkpt>
      <trkpt lat="45.47722" lon="5.94118">
        <ele>827.56762695312</ele>
        <time>2015-08-12T18:57:27.000Z</time>
      </trkpt>
      <trkpt lat="45.47725" lon="5.94118">
        <ele>827.26409912109</ele>
        <time>2015-08-12T18:57:29.000Z</time>
      </trkpt>
      <trkpt lat="45.4773" lon="5.94117">
        <ele>826.52600097656</ele>
        <time>2015-08-12T18:57:32.000Z</time>
      </trkpt>
      <trkpt lat="45.47734" lon="5.94115">
        <ele>827.01678466797</ele>
        <time>2015-08-12T18:57:35.000Z</time>
      </trkpt>
      <trkpt lat="45.47737" lon="5.94112">
        <ele>827.44152832031</ele>
        <time>2015-08-12T18:57:37.000Z</time>
      </trkpt>
      <trkpt lat="45.47741" lon="5.94108">
        <ele>827.521484375</ele>
        <time>2015-08-12T18:57:40.000Z</time>
      </trkpt>
      <trkpt lat="45.47743" lon="5.94102">
        <ele>827.50946044922</ele>
        <time>2015-08-12T18:57:43.000Z</time>
      </trkpt>
      <trkpt lat="45.47745" lon="5.94098">
        <ele>827.13067626953</ele>
        <time>2015-08-12T18:57:45.000Z</time>
      </trkpt>
      <trkpt lat="45.47746" lon="5.94094">
        <ele>826.44348144531</ele>
        <time>2015-08-12T18:57:47.000Z</time>
      </trkpt>
      <trkpt lat="45.47748" lon="5.94088">
        <ele>826.42364501953</ele>
        <time>2015-08-12T18:57:50.000Z</time>
      </trkpt>
      <trkpt lat="45.47749" lon="5.94082">
        <ele>826.22430419922</ele>
        <time>2015-08-12T18:57:53.000Z</time>
      </trkpt>
      <trkpt lat="45.47751" lon="5.94076">
        <ele>827.13244628906</ele>
        <time>2015-08-12T18:57:56.000Z</time>
      </trkpt>
      <trkpt lat="45.47753" lon="5.9407">
        <ele>828.75921630859</ele>
        <time>2015-08-12T18:57:59.000Z</time>
      </trkpt>
      <trkpt lat="45.47754" lon="5.94064">
        <ele>830.11932373047</ele>
        <time>2015-08-12T18:58:02.000Z</time>
      </trkpt>
      <trkpt lat="45.47754" lon="5.94057">
        <ele>830.67303466797</ele>
        <time>2015-08-12T18:58:05.000Z</time>
      </trkpt>
      <trkpt lat="45.47754" lon="5.94053">
        <ele>830.77264404297</ele>
        <time>2015-08-12T18:58:07.000Z</time>
      </trkpt>
      <trkpt lat="45.47754" lon="5.94048">
        <ele>830.58917236328</ele>
        <time>2015-08-12T18:58:09.000Z</time>
      </trkpt>
      <trkpt lat="45.47754" lon="5.94042">
        <ele>830.90380859375</ele>
        <time>2015-08-12T18:58:12.000Z</time>
      </trkpt>
      <trkpt lat="45.47753" lon="5.94035">
        <ele>831.41278076172</ele>
        <time>2015-08-12T18:58:15.000Z</time>
      </trkpt>
      <trkpt lat="45.47752" lon="5.94029">
        <ele>831.69537353516</ele>
        <time>2015-08-12T18:58:18.000Z</time>
      </trkpt>
      <trkpt lat="45.47752" lon="5.94024">
        <ele>831.66168212891</ele>
        <time>2015-08-12T18:58:20.000Z</time>
      </trkpt>
      <trkpt lat="45.47752" lon="5.9402">
        <ele>831.98425292969</ele>
        <time>2015-08-12T18:58:22.000Z</time>
      </trkpt>
      <trkpt lat="45.47752" lon="5.94013">
        <ele>832.61877441406</ele>
        <time>2015-08-12T18:58:25.000Z</time>
      </trkpt>
      <trkpt lat="45.47752" lon="5.94009">
        <ele>832.87933349609</ele>
        <time>2015-08-12T18:58:27.000Z</time>
      </trkpt>
      <trkpt lat="45.47752" lon="5.94002">
        <ele>832.97222900391</ele>
        <time>2015-08-12T18:58:30.000Z</time>
      </trkpt>
      <trkpt lat="45.47752" lon="5.93996">
        <ele>833.74188232422</ele>
        <time>2015-08-12T18:58:33.000Z</time>
      </trkpt>
      <trkpt lat="45.47752" lon="5.9399">
        <ele>834.21771240234</ele>
        <time>2015-08-12T18:58:36.000Z</time>
      </trkpt>
      <trkpt lat="45.47751" lon="5.93984">
        <ele>834.97595214844</ele>
        <time>2015-08-12T18:58:39.000Z</time>
      </trkpt>
      <trkpt lat="45.4775" lon="5.93978">
        <ele>836.02947998047</ele>
        <time>2015-08-12T18:58:42.000Z</time>
      </trkpt>
      <trkpt lat="45.4775" lon="5.93974">
        <ele>836.32153320312</ele>
        <time>2015-08-12T18:58:44.000Z</time>
      </trkpt>
      <trkpt lat="45.4775" lon="5.9397">
        <ele>836.77429199219</ele>
        <time>2015-08-12T18:58:46.000Z</time>
      </trkpt>
      <trkpt lat="45.47749" lon="5.93963">
        <ele>837.93542480469</ele>
        <time>2015-08-12T18:58:49.000Z</time>
      </trkpt>
      <trkpt lat="45.47749" lon="5.93957">
        <ele>838.88610839844</ele>
        <time>2015-08-12T18:58:52.000Z</time>
      </trkpt>
      <trkpt lat="45.47748" lon="5.93952">
        <ele>839.20904541016</ele>
        <time>2015-08-12T18:58:54.000Z</time>
      </trkpt>
      <trkpt lat="45.47748" lon="5.93945">
        <ele>839.82415771484</ele>
        <time>2015-08-12T18:58:57.000Z</time>
      </trkpt>
      <trkpt lat="45.47747" lon="5.93938">
        <ele>840.24432373047</ele>
        <time>2015-08-12T18:59:00.000Z</time>
      </trkpt>
      <trkpt lat="45.47748" lon="5.93931">
        <ele>840.10290527344</ele>
        <time>2015-08-12T18:59:03.000Z</time>
      </trkpt>
      <trkpt lat="45.47748" lon="5.93927">
        <ele>839.92620849609</ele>
        <time>2015-08-12T18:59:05.000Z</time>
      </trkpt>
      <trkpt lat="45.47749" lon="5.9392">
        <ele>839.97705078125</ele>
        <time>2015-08-12T18:59:08.000Z</time>
      </trkpt>
      <trkpt lat="45.47751" lon="5.93916">
        <ele>839.99749755859</ele>
        <time>2015-08-12T18:59:10.000Z</time>
      </trkpt>
      <trkpt lat="45.47752" lon="5.93912">
        <ele>841.19140625</ele>
        <time>2015-08-12T18:59:12.000Z</time>
      </trkpt>
      <trkpt lat="45.47753" lon="5.93907">
        <ele>842.00299072266</ele>
        <time>2015-08-12T18:59:14.000Z</time>
      </trkpt>
      <trkpt lat="45.47755" lon="5.93901">
        <ele>842.93487548828</ele>
        <time>2015-08-12T18:59:17.000Z</time>
      </trkpt>
      <trkpt lat="45.47756" lon="5.93896">
        <ele>843.38330078125</ele>
        <time>2015-08-12T18:59:19.000Z</time>
      </trkpt>
      <trkpt lat="45.47757" lon="5.93892">
        <ele>843.67138671875</ele>
        <time>2015-08-12T18:59:21.000Z</time>
      </trkpt>
      <trkpt lat="45.47758" lon="5.93884">
        <ele>844.04876708984</ele>
        <time>2015-08-12T18:59:24.000Z</time>
      </trkpt>
      <trkpt lat="45.47759" lon="5.93877">
        <ele>844.52893066406</ele>
        <time>2015-08-12T18:59:27.000Z</time>
      </trkpt>
      <trkpt lat="45.47761" lon="5.93871">
        <ele>845.28283691406</ele>
        <time>2015-08-12T18:59:30.000Z</time>
      </trkpt>
      <trkpt lat="45.47763" lon="5.93864">
        <ele>846.29290771484</ele>
        <time>2015-08-12T18:59:33.000Z</time>
      </trkpt>
      <trkpt lat="45.47764" lon="5.93858">
        <ele>847.32177734375</ele>
        <time>2015-08-12T18:59:36.000Z</time>
      </trkpt>
      <trkpt lat="45.47765" lon="5.93853">
        <ele>847.97998046875</ele>
        <time>2015-08-12T18:59:38.000Z</time>
      </trkpt>
      <trkpt lat="45.47765" lon="5.93849">
        <ele>848.52722167969</ele>
        <time>2015-08-12T18:59:40.000Z</time>
      </trkpt>
      <trkpt lat="45.47766" lon="5.93845">
        <ele>849.34167480469</ele>
        <time>2015-08-12T18:59:42.000Z</time>
      </trkpt>
      <trkpt lat="45.47767" lon="5.93839">
        <ele>849.95166015625</ele>
        <time>2015-08-12T18:59:45.000Z</time>
      </trkpt>
      <trkpt lat="45.47767" lon="5.93835">
        <ele>850.17401123047</ele>
        <time>2015-08-12T18:59:47.000Z</time>
      </trkpt>
      <trkpt lat="45.47766" lon="5.9383">
        <ele>850.29449462891</ele>
        <time>2015-08-12T18:59:50.000Z</time>
      </trkpt>
      <trkpt lat="45.47763" lon="5.9383">
        <ele>849.798828125</ele>
        <time>2015-08-12T18:59:52.000Z</time>
      </trkpt>
      <trkpt lat="45.4776" lon="5.93835">
        <ele>849.95520019531</ele>
        <time>2015-08-12T18:59:55.000Z</time>
      </trkpt>
      <trkpt lat="45.47757" lon="5.9384">
        <ele>849.90124511719</ele>
        <time>2015-08-12T18:59:58.000Z</time>
      </trkpt>
      <trkpt lat="45.47755" lon="5.93843">
        <ele>849.60327148438</ele>
        <time>2015-08-12T19:00:00.000Z</time>
      </trkpt>
      <trkpt lat="45.47754" lon="5.93845">
        <ele>849.17205810547</ele>
        <time>2015-08-12T19:00:02.000Z</time>
      </trkpt>
      <trkpt lat="45.47754" lon="5.93846">
        <ele>849.25122070312</ele>
        <time>2015-08-12T19:00:16.000Z</time>
      </trkpt>
      <trkpt lat="45.47753" lon="5.93849">
        <ele>849.15881347656</ele>
        <time>2015-08-12T19:00:20.000Z</time>
      </trkpt>
      <trkpt lat="45.47752" lon="5.93851">
        <ele>848.78723144531</ele>
        <time>2015-08-12T19:00:25.000Z</time>
      </trkpt>
      <trkpt lat="45.47752" lon="5.93852">
        <ele>848.55383300781</ele>
        <time>2015-08-12T19:00:27.000Z</time>
      </trkpt>
      <trkpt lat="45.4775" lon="5.93859">
        <ele>849.14483642578</ele>
        <time>2015-08-12T19:00:30.000Z</time>
      </trkpt>
      <trkpt lat="45.47749" lon="5.93868">
        <ele>848.84167480469</ele>
        <time>2015-08-12T19:00:33.000Z</time>
      </trkpt>
      <trkpt lat="45.47746" lon="5.93878">
        <ele>848.41943359375</ele>
        <time>2015-08-12T19:00:36.000Z</time>
      </trkpt>
      <trkpt lat="45.47744" lon="5.93885">
        <ele>848.10119628906</ele>
        <time>2015-08-12T19:00:38.000Z</time>
      </trkpt>
      <trkpt lat="45.4774" lon="5.93891">
        <ele>847.97137451172</ele>
        <time>2015-08-12T19:00:41.000Z</time>
      </trkpt>
      <trkpt lat="45.47738" lon="5.93894">
        <ele>847.98175048828</ele>
        <time>2015-08-12T19:00:43.000Z</time>
      </trkpt>
      <trkpt lat="45.47737" lon="5.93898">
        <ele>848.73486328125</ele>
        <time>2015-08-12T19:00:46.000Z</time>
      </trkpt>
      <trkpt lat="45.47736" lon="5.93903">
        <ele>850.373046875</ele>
        <time>2015-08-12T19:00:49.000Z</time>
      </trkpt>
      <trkpt lat="45.47736" lon="5.93905">
        <ele>850.73974609375</ele>
        <time>2015-08-12T19:00:52.000Z</time>
      </trkpt>
      <trkpt lat="45.47735" lon="5.93906">
        <ele>848.70483398438</ele>
        <time>2015-08-12T19:00:57.000Z</time>
      </trkpt>
      <trkpt lat="45.47734" lon="5.93906">
        <ele>847.00927734375</ele>
        <time>2015-08-12T19:01:02.000Z</time>
      </trkpt>
      <trkpt lat="45.47735" lon="5.93905">
        <ele>847.66162109375</ele>
        <time>2015-08-12T19:01:19.000Z</time>
      </trkpt>
      <trkpt lat="45.47736" lon="5.93902">
        <ele>848.85107421875</ele>
        <time>2015-08-12T19:01:21.000Z</time>
      </trkpt>
      <trkpt lat="45.47738" lon="5.939">
        <ele>850.02111816406</ele>
        <time>2015-08-12T19:01:23.000Z</time>
      </trkpt>
      <trkpt lat="45.47739" lon="5.93894">
        <ele>851.56677246094</ele>
        <time>2015-08-12T19:01:27.000Z</time>
      </trkpt>
      <trkpt lat="45.4774" lon="5.93891">
        <ele>852.16339111328</ele>
        <time>2015-08-12T19:01:29.000Z</time>
      </trkpt>
      <trkpt lat="45.47741" lon="5.93888">
        <ele>853.66577148438</ele>
        <time>2015-08-12T19:01:31.000Z</time>
      </trkpt>
      <trkpt lat="45.47742" lon="5.93885">
        <ele>852.56396484375</ele>
        <time>2015-08-12T19:01:33.000Z</time>
      </trkpt>
      <trkpt lat="45.47742" lon="5.93881">
        <ele>851.61956787109</ele>
        <time>2015-08-12T19:01:35.000Z</time>
      </trkpt>
      <trkpt lat="45.47744" lon="5.93876">
        <ele>846.87982177734</ele>
        <time>2015-08-12T19:01:38.000Z</time>
      </trkpt>
      <trkpt lat="45.47746" lon="5.93872">
        <ele>843.31420898438</ele>
        <time>2015-08-12T19:01:41.000Z</time>
      </trkpt>
      <trkpt lat="45.47747" lon="5.93869">
        <ele>843.03045654297</ele>
        <time>2015-08-12T19:01:43.000Z</time>
      </trkpt>
      <trkpt lat="45.47747" lon="5.93865">
        <ele>843.33892822266</ele>
        <time>2015-08-12T19:01:46.000Z</time>
      </trkpt>
      <trkpt lat="45.47749" lon="5.9386">
        <ele>843.94793701172</ele>
        <time>2015-08-12T19:01:49.000Z</time>
      </trkpt>
      <trkpt lat="45.47749" lon="5.93857">
        <ele>844.44421386719</ele>
        <time>2015-08-12T19:01:51.000Z</time>
      </trkpt>
      <trkpt lat="45.4775" lon="5.93855">
        <ele>845.31195068359</ele>
        <time>2015-08-12T19:01:53.000Z</time>
      </trkpt>
      <trkpt lat="45.4775" lon="5.9385">
        <ele>845.78533935547</ele>
        <time>2015-08-12T19:01:56.000Z</time>
      </trkpt>
      <trkpt lat="45.47751" lon="5.93848">
        <ele>846.23919677734</ele>
        <time>2015-08-12T19:01:58.000Z</time>
      </trkpt>
      <trkpt lat="45.47753" lon="5.93844">
        <ele>847.33245849609</ele>
        <time>2015-08-12T19:02:01.000Z</time>
      </trkpt>
      <trkpt lat="45.47754" lon="5.93842">
        <ele>848.12847900391</ele>
        <time>2015-08-12T19:02:03.000Z</time>
      </trkpt>
      <trkpt lat="45.47756" lon="5.93839">
        <ele>849.36767578125</ele>
        <time>2015-08-12T19:02:06.000Z</time>
      </trkpt>
      <trkpt lat="45.47757" lon="5.93837">
        <ele>850.03405761719</ele>
        <time>2015-08-12T19:02:08.000Z</time>
      </trkpt>
      <trkpt lat="45.47759" lon="5.93835">
        <ele>851.61657714844</ele>
        <time>2015-08-12T19:02:11.000Z</time>
      </trkpt>
      <trkpt lat="45.4776" lon="5.93833">
        <ele>851.14270019531</ele>
        <time>2015-08-12T19:02:13.000Z</time>
      </trkpt>
      <trkpt lat="45.47761" lon="5.93832">
        <ele>848.49420166016</ele>
        <time>2015-08-12T19:02:19.000Z</time>
      </trkpt>
      <trkpt lat="45.47762" lon="5.9383">
        <ele>847.43084716797</ele>
        <time>2015-08-12T19:02:35.000Z</time>
      </trkpt>
      <trkpt lat="45.47762" lon="5.93827">
        <ele>847.56518554688</ele>
        <time>2015-08-12T19:02:37.000Z</time>
      </trkpt>
      <trkpt lat="45.47763" lon="5.93825">
        <ele>848.35314941406</ele>
        <time>2015-08-12T19:02:39.000Z</time>
      </trkpt>
      <trkpt lat="45.47762" lon="5.93823">
        <ele>848.78472900391</ele>
        <time>2015-08-12T19:02:42.000Z</time>
      </trkpt>
      <trkpt lat="45.4776" lon="5.93822">
        <ele>848.39477539062</ele>
        <time>2015-08-12T19:02:45.000Z</time>
      </trkpt>
      <trkpt lat="45.47759" lon="5.93823">
        <ele>848.89819335938</ele>
        <time>2015-08-12T19:02:51.000Z</time>
      </trkpt>
      <trkpt lat="45.4776" lon="5.93825">
        <ele>848.59790039062</ele>
        <time>2015-08-12T19:03:09.000Z</time>
      </trkpt>
      <trkpt lat="45.47762" lon="5.93826">
        <ele>846.08050537109</ele>
        <time>2015-08-12T19:03:29.000Z</time>
      </trkpt>
      <trkpt lat="45.47763" lon="5.93826">
        <ele>844.07934570312</ele>
        <time>2015-08-12T19:03:32.000Z</time>
      </trkpt>
      <trkpt lat="45.47766" lon="5.93826">
        <ele>843.87658691406</ele>
        <time>2015-08-12T19:03:35.000Z</time>
      </trkpt>
      <trkpt lat="45.47768" lon="5.93824">
        <ele>842.56536865234</ele>
        <time>2015-08-12T19:03:38.000Z</time>
      </trkpt>
      <trkpt lat="45.47768" lon="5.93822">
        <ele>842.14788818359</ele>
        <time>2015-08-12T19:03:51.000Z</time>
      </trkpt>
      <trkpt lat="45.47766" lon="5.93822">
        <ele>841.78515625</ele>
        <time>2015-08-12T19:03:53.000Z</time>
      </trkpt>
      <trkpt lat="45.47764" lon="5.93823">
        <ele>843.61419677734</ele>
        <time>2015-08-12T19:03:57.000Z</time>
      </trkpt>
      <trkpt lat="45.47763" lon="5.93825">
        <ele>844.16827392578</ele>
        <time>2015-08-12T19:04:11.000Z</time>
      </trkpt>
      <trkpt lat="45.47764" lon="5.93827">
        <ele>844.08148193359</ele>
        <time>2015-08-12T19:04:22.000Z</time>
      </trkpt>
      <trkpt lat="45.47764" lon="5.93828">
        <ele>844.15893554688</ele>
        <time>2015-08-12T19:04:31.000Z</time>
      </trkpt>
      <trkpt lat="45.47765" lon="5.93827">
        <ele>846.80352783203</ele>
        <time>2015-08-12T19:04:46.000Z</time>
      </trkpt>
      <trkpt lat="45.47765" lon="5.93826">
        <ele>846.48181152344</ele>
        <time>2015-08-12T19:04:53.000Z</time>
      </trkpt>
      <trkpt lat="45.47765" lon="5.93826">
        <ele>848.67999267578</ele>
        <time>2015-08-12T19:05:13.000Z</time>
      </trkpt>
      <trkpt lat="45.47765" lon="5.93827">
        <ele>846.52801513672</ele>
        <time>2015-08-12T19:05:24.000Z</time>
      </trkpt>
      <trkpt lat="45.47765" lon="5.93827">
        <ele>848.51251220703</ele>
        <time>2015-08-12T19:05:44.000Z</time>
      </trkpt>
      <trkpt lat="45.47764" lon="5.93828">
        <ele>847.33319091797</ele>
        <time>2015-08-12T19:05:45.000Z</time>
      </trkpt>
      <trkpt lat="45.47762" lon="5.93827">
        <ele>848.25372314453</ele>
        <time>2015-08-12T19:05:49.000Z</time>
      </trkpt>
      <trkpt lat="45.47761" lon="5.93827">
        <ele>848.29278564453</ele>
        <time>2015-08-12T19:05:54.000Z</time>
      </trkpt>
      <trkpt lat="45.4776" lon="5.93827">
        <ele>848.63891601562</ele>
        <time>2015-08-12T19:05:57.000Z</time>
      </trkpt>
      <trkpt lat="45.47757" lon="5.93828">
        <ele>848.74682617188</ele>
        <time>2015-08-12T19:05:59.000Z</time>
      </trkpt>
      <trkpt lat="45.47755" lon="5.93828">
        <ele>848.11712646484</ele>
        <time>2015-08-12T19:06:01.000Z</time>
      </trkpt>
      <trkpt lat="45.47752" lon="5.93826">
        <ele>847.94470214844</ele>
        <time>2015-08-12T19:06:04.000Z</time>
      </trkpt>
      <trkpt lat="45.47748" lon="5.93825">
        <ele>848.94653320312</ele>
        <time>2015-08-12T19:06:07.000Z</time>
      </trkpt>
      <trkpt lat="45.47745" lon="5.93823">
        <ele>850.31365966797</ele>
        <time>2015-08-12T19:06:09.000Z</time>
      </trkpt>
      <trkpt lat="45.47741" lon="5.9382">
        <ele>849.59216308594</ele>
        <time>2015-08-12T19:06:12.000Z</time>
      </trkpt>
      <trkpt lat="45.47737" lon="5.93818">
        <ele>849.53369140625</ele>
        <time>2015-08-12T19:06:15.000Z</time>
      </trkpt>
      <trkpt lat="45.47734" lon="5.93816">
        <ele>849.77209472656</ele>
        <time>2015-08-12T19:06:17.000Z</time>
      </trkpt>
      <trkpt lat="45.4773" lon="5.93814">
        <ele>851.33233642578</ele>
        <time>2015-08-12T19:06:20.000Z</time>
      </trkpt>
      <trkpt lat="45.47728" lon="5.93813">
        <ele>852.42541503906</ele>
        <time>2015-08-12T19:06:22.000Z</time>
      </trkpt>
      <trkpt lat="45.47724" lon="5.93812">
        <ele>853.35607910156</ele>
        <time>2015-08-12T19:06:25.000Z</time>
      </trkpt>
      <trkpt lat="45.4772" lon="5.93812">
        <ele>855.07507324219</ele>
        <time>2015-08-12T19:06:28.000Z</time>
      </trkpt>
      <trkpt lat="45.47718" lon="5.93813">
        <ele>856.24737548828</ele>
        <time>2015-08-12T19:06:30.000Z</time>
      </trkpt>
      <trkpt lat="45.47715" lon="5.93817">
        <ele>859.10125732422</ele>
        <time>2015-08-12T19:06:33.000Z</time>
      </trkpt>
      <trkpt lat="45.47715" lon="5.93819">
        <ele>860.36151123047</ele>
        <time>2015-08-12T19:06:35.000Z</time>
      </trkpt>
      <trkpt lat="45.47712" lon="5.93821">
        <ele>862.48583984375</ele>
        <time>2015-08-12T19:06:38.000Z</time>
      </trkpt>
      <trkpt lat="45.4771" lon="5.93822">
        <ele>862.03363037109</ele>
        <time>2015-08-12T19:06:40.000Z</time>
      </trkpt>
      <trkpt lat="45.47706" lon="5.93821">
        <ele>861.44134521484</ele>
        <time>2015-08-12T19:06:43.000Z</time>
      </trkpt>
      <trkpt lat="45.47704" lon="5.93818">
        <ele>862.54095458984</ele>
        <time>2015-08-12T19:06:45.000Z</time>
      </trkpt>
      <trkpt lat="45.47703" lon="5.93812">
        <ele>862.75299072266</ele>
        <time>2015-08-12T19:06:48.000Z</time>
      </trkpt>
      <trkpt lat="45.47702" lon="5.93806">
        <ele>863.94104003906</ele>
        <time>2015-08-12T19:06:51.000Z</time>
      </trkpt>
      <trkpt lat="45.47704" lon="5.938">
        <ele>863.38488769531</ele>
        <time>2015-08-12T19:06:54.000Z</time>
      </trkpt>
      <trkpt lat="45.47706" lon="5.93794">
        <ele>861.87524414062</ele>
        <time>2015-08-12T19:06:57.000Z</time>
      </trkpt>
      <trkpt lat="45.47709" lon="5.93789">
        <ele>860.23071289062</ele>
        <time>2015-08-12T19:07:00.000Z</time>
      </trkpt>
      <trkpt lat="45.4771" lon="5.93785">
        <ele>859.59185791016</ele>
        <time>2015-08-12T19:07:02.000Z</time>
      </trkpt>
      <trkpt lat="45.47713" lon="5.93779">
        <ele>857.43402099609</ele>
        <time>2015-08-12T19:07:05.000Z</time>
      </trkpt>
      <trkpt lat="45.47715" lon="5.93774">
        <ele>857.27893066406</ele>
        <time>2015-08-12T19:07:08.000Z</time>
      </trkpt>
      <trkpt lat="45.47718" lon="5.9377">
        <ele>859.45153808594</ele>
        <time>2015-08-12T19:07:11.000Z</time>
      </trkpt>
      <trkpt lat="45.47719" lon="5.93768">
        <ele>860.79321289062</ele>
        <time>2015-08-12T19:07:13.000Z</time>
      </trkpt>
      <trkpt lat="45.4772" lon="5.93765">
        <ele>861.63323974609</ele>
        <time>2015-08-12T19:07:15.000Z</time>
      </trkpt>
      <trkpt lat="45.47721" lon="5.93761">
        <ele>862.38409423828</ele>
        <time>2015-08-12T19:07:17.000Z</time>
      </trkpt>
      <trkpt lat="45.47722" lon="5.93758">
        <ele>863.63238525391</ele>
        <time>2015-08-12T19:07:19.000Z</time>
      </trkpt>
      <trkpt lat="45.47723" lon="5.93754">
        <ele>864.50115966797</ele>
        <time>2015-08-12T19:07:21.000Z</time>
      </trkpt>
      <trkpt lat="45.47725" lon="5.93748">
        <ele>864.79248046875</ele>
        <time>2015-08-12T19:07:24.000Z</time>
      </trkpt>
      <trkpt lat="45.47727" lon="5.93743">
        <ele>866.48382568359</ele>
        <time>2015-08-12T19:07:27.000Z</time>
      </trkpt>
      <trkpt lat="45.47728" lon="5.93739">
        <ele>866.96075439453</ele>
        <time>2015-08-12T19:07:29.000Z</time>
      </trkpt>
      <trkpt lat="45.4773" lon="5.93734">
        <ele>865.58892822266</ele>
        <time>2015-08-12T19:07:32.000Z</time>
      </trkpt>
      <trkpt lat="45.47731" lon="5.9373">
        <ele>865.80889892578</ele>
        <time>2015-08-12T19:07:34.000Z</time>
      </trkpt>
      <trkpt lat="45.47733" lon="5.93725">
        <ele>866.31213378906</ele>
        <time>2015-08-12T19:07:37.000Z</time>
      </trkpt>
      <trkpt lat="45.47734" lon="5.93718">
        <ele>866.10473632812</ele>
        <time>2015-08-12T19:07:40.000Z</time>
      </trkpt>
      <trkpt lat="45.47737" lon="5.93713">
        <ele>866.94683837891</ele>
        <time>2015-08-12T19:07:43.000Z</time>
      </trkpt>
      <trkpt lat="45.47739" lon="5.93709">
        <ele>867.49328613281</ele>
        <time>2015-08-12T19:07:45.000Z</time>
      </trkpt>
      <trkpt lat="45.47741" lon="5.93705">
        <ele>867.75805664062</ele>
        <time>2015-08-12T19:07:47.000Z</time>
      </trkpt>
      <trkpt lat="45.47742" lon="5.937">
        <ele>869.41351318359</ele>
        <time>2015-08-12T19:07:50.000Z</time>
      </trkpt>
      <trkpt lat="45.47741" lon="5.93696">
        <ele>870.76580810547</ele>
        <time>2015-08-12T19:07:52.000Z</time>
      </trkpt>
      <trkpt lat="45.47741" lon="5.93692">
        <ele>870.88806152344</ele>
        <time>2015-08-12T19:07:54.000Z</time>
      </trkpt>
      <trkpt lat="45.47741" lon="5.93686">
        <ele>870.57458496094</ele>
        <time>2015-08-12T19:07:57.000Z</time>
      </trkpt>
      <trkpt lat="45.4774" lon="5.93683">
        <ele>871.77502441406</ele>
        <time>2015-08-12T19:07:59.000Z</time>
      </trkpt>
      <trkpt lat="45.47738" lon="5.93682">
        <ele>873.34478759766</ele>
        <time>2015-08-12T19:08:01.000Z</time>
      </trkpt>
      <trkpt lat="45.47735" lon="5.93681">
        <ele>873.77575683594</ele>
        <time>2015-08-12T19:08:05.000Z</time>
      </trkpt>
      <trkpt lat="45.47734" lon="5.9368">
        <ele>874.10278320312</ele>
        <time>2015-08-12T19:08:07.000Z</time>
      </trkpt>
      <trkpt lat="45.47731" lon="5.93681">
        <ele>875.65014648438</ele>
        <time>2015-08-12T19:08:10.000Z</time>
      </trkpt>
      <trkpt lat="45.47729" lon="5.93682">
        <ele>874.57275390625</ele>
        <time>2015-08-12T19:08:12.000Z</time>
      </trkpt>
      <trkpt lat="45.47727" lon="5.93684">
        <ele>874.79516601562</ele>
        <time>2015-08-12T19:08:14.000Z</time>
      </trkpt>
      <trkpt lat="45.47723" lon="5.93687">
        <ele>877.10314941406</ele>
        <time>2015-08-12T19:08:17.000Z</time>
      </trkpt>
      <trkpt lat="45.4772" lon="5.93689">
        <ele>879.82733154297</ele>
        <time>2015-08-12T19:08:19.000Z</time>
      </trkpt>
      <trkpt lat="45.47717" lon="5.93691">
        <ele>880.09228515625</ele>
        <time>2015-08-12T19:08:21.000Z</time>
      </trkpt>
      <trkpt lat="45.47712" lon="5.93694">
        <ele>877.61883544922</ele>
        <time>2015-08-12T19:08:24.000Z</time>
      </trkpt>
      <trkpt lat="45.47707" lon="5.93697">
        <ele>876.47424316406</ele>
        <time>2015-08-12T19:08:27.000Z</time>
      </trkpt>
      <trkpt lat="45.47704" lon="5.93699">
        <ele>876.34521484375</ele>
        <time>2015-08-12T19:08:29.000Z</time>
      </trkpt>
      <trkpt lat="45.47699" lon="5.93702">
        <ele>876.81005859375</ele>
        <time>2015-08-12T19:08:32.000Z</time>
      </trkpt>
      <trkpt lat="45.47696" lon="5.93704">
        <ele>878.67407226562</ele>
        <time>2015-08-12T19:08:34.000Z</time>
      </trkpt>
      <trkpt lat="45.47692" lon="5.93708">
        <ele>877.35614013672</ele>
        <time>2015-08-12T19:08:37.000Z</time>
      </trkpt>
      <trkpt lat="45.47689" lon="5.9371">
        <ele>877.20153808594</ele>
        <time>2015-08-12T19:08:39.000Z</time>
      </trkpt>
      <trkpt lat="45.47686" lon="5.93712">
        <ele>877.67987060547</ele>
        <time>2015-08-12T19:08:41.000Z</time>
      </trkpt>
      <trkpt lat="45.47682" lon="5.93715">
        <ele>877.48712158203</ele>
        <time>2015-08-12T19:08:44.000Z</time>
      </trkpt>
      <trkpt lat="45.47678" lon="5.93717">
        <ele>877.71240234375</ele>
        <time>2015-08-12T19:08:46.000Z</time>
      </trkpt>
      <trkpt lat="45.47673" lon="5.93719">
        <ele>878.47943115234</ele>
        <time>2015-08-12T19:08:49.000Z</time>
      </trkpt>
      <trkpt lat="45.4767" lon="5.93721">
        <ele>879.56787109375</ele>
        <time>2015-08-12T19:08:51.000Z</time>
      </trkpt>
      <trkpt lat="45.47667" lon="5.93723">
        <ele>880.63146972656</ele>
        <time>2015-08-12T19:08:53.000Z</time>
      </trkpt>
      <trkpt lat="45.47663" lon="5.93725">
        <ele>881.16796875</ele>
        <time>2015-08-12T19:08:55.000Z</time>
      </trkpt>
      <trkpt lat="45.47658" lon="5.93727">
        <ele>880.96801757812</ele>
        <time>2015-08-12T19:08:58.000Z</time>
      </trkpt>
      <trkpt lat="45.47655" lon="5.9373">
        <ele>881.45904541016</ele>
        <time>2015-08-12T19:09:00.000Z</time>
      </trkpt>
      <trkpt lat="45.47652" lon="5.93733">
        <ele>882.37310791016</ele>
        <time>2015-08-12T19:09:02.000Z</time>
      </trkpt>
      <trkpt lat="45.47647" lon="5.93737">
        <ele>882.89373779297</ele>
        <time>2015-08-12T19:09:05.000Z</time>
      </trkpt>
      <trkpt lat="45.47645" lon="5.9374">
        <ele>884.38616943359</ele>
        <time>2015-08-12T19:09:07.000Z</time>
      </trkpt>
      <trkpt lat="45.47643" lon="5.93744">
        <ele>885.18170166016</ele>
        <time>2015-08-12T19:09:10.000Z</time>
      </trkpt>
      <trkpt lat="45.4764" lon="5.93748">
        <ele>883.57318115234</ele>
        <time>2015-08-12T19:09:13.000Z</time>
      </trkpt>
      <trkpt lat="45.47637" lon="5.93753">
        <ele>882.52703857422</ele>
        <time>2015-08-12T19:09:16.000Z</time>
      </trkpt>
      <trkpt lat="45.47635" lon="5.93759">
        <ele>883.60931396484</ele>
        <time>2015-08-12T19:09:19.000Z</time>
      </trkpt>
      <trkpt lat="45.47633" lon="5.93763">
        <ele>883.97747802734</ele>
        <time>2015-08-12T19:09:21.000Z</time>
      </trkpt>
      <trkpt lat="45.47631" lon="5.93766">
        <ele>884.162109375</ele>
        <time>2015-08-12T19:09:23.000Z</time>
      </trkpt>
      <trkpt lat="45.47628" lon="5.93772">
        <ele>885.40924072266</ele>
        <time>2015-08-12T19:09:26.000Z</time>
      </trkpt>
      <trkpt lat="45.47626" lon="5.93778">
        <ele>885.50622558594</ele>
        <time>2015-08-12T19:09:29.000Z</time>
      </trkpt>
      <trkpt lat="45.47623" lon="5.93782">
        <ele>885.65399169922</ele>
        <time>2015-08-12T19:09:32.000Z</time>
      </trkpt>
      <trkpt lat="45.47622" lon="5.93785">
        <ele>885.69934082031</ele>
        <time>2015-08-12T19:09:34.000Z</time>
      </trkpt>
      <trkpt lat="45.47618" lon="5.93788">
        <ele>884.83959960938</ele>
        <time>2015-08-12T19:09:37.000Z</time>
      </trkpt>
      <trkpt lat="45.47615" lon="5.9379">
        <ele>884.38787841797</ele>
        <time>2015-08-12T19:09:40.000Z</time>
      </trkpt>
      <trkpt lat="45.47614" lon="5.93793">
        <ele>885.01013183594</ele>
        <time>2015-08-12T19:09:43.000Z</time>
      </trkpt>
      <trkpt lat="45.47615" lon="5.93796">
        <ele>885.21472167969</ele>
        <time>2015-08-12T19:09:46.000Z</time>
      </trkpt>
      <trkpt lat="45.47618" lon="5.93797">
        <ele>884.08685302734</ele>
        <time>2015-08-12T19:09:49.000Z</time>
      </trkpt>
      <trkpt lat="45.4762" lon="5.93799">
        <ele>883.20373535156</ele>
        <time>2015-08-12T19:09:52.000Z</time>
      </trkpt>
      <trkpt lat="45.4762" lon="5.93801">
        <ele>882.83526611328</ele>
        <time>2015-08-12T19:09:57.000Z</time>
      </trkpt>
      <trkpt lat="45.47619" lon="5.938">
        <ele>882.87243652344</ele>
        <time>2015-08-12T19:10:00.000Z</time>
      </trkpt>
      <trkpt lat="45.47617" lon="5.93797">
        <ele>883.02105712891</ele>
        <time>2015-08-12T19:10:03.000Z</time>
      </trkpt>
      <trkpt lat="45.47615" lon="5.93795">
        <ele>883.03918457031</ele>
        <time>2015-08-12T19:10:05.000Z</time>
      </trkpt>
      <trkpt lat="45.47613" lon="5.93795">
        <ele>883.20355224609</ele>
        <time>2015-08-12T19:10:07.000Z</time>
      </trkpt>
      <trkpt lat="45.47609" lon="5.93796">
        <ele>882.81457519531</ele>
        <time>2015-08-12T19:10:10.000Z</time>
      </trkpt>
      <trkpt lat="45.47606" lon="5.93798">
        <ele>882.94299316406</ele>
        <time>2015-08-12T19:10:12.000Z</time>
      </trkpt>
      <trkpt lat="45.47602" lon="5.938">
        <ele>883.46380615234</ele>
        <time>2015-08-12T19:10:14.000Z</time>
      </trkpt>
      <trkpt lat="45.47594" lon="5.93807">
        <ele>884.86987304688</ele>
        <time>2015-08-12T19:10:17.000Z</time>
      </trkpt>
      <trkpt lat="45.47589" lon="5.93813">
        <ele>885.68566894531</ele>
        <time>2015-08-12T19:10:19.000Z</time>
      </trkpt>
      <trkpt lat="45.47583" lon="5.93822">
        <ele>885.91705322266</ele>
        <time>2015-08-12T19:10:22.000Z</time>
      </trkpt>
      <trkpt lat="45.47578" lon="5.93829">
        <ele>886.87634277344</ele>
        <time>2015-08-12T19:10:24.000Z</time>
      </trkpt>
      <trkpt lat="45.47573" lon="5.93835">
        <ele>885.90087890625</ele>
        <time>2015-08-12T19:10:26.000Z</time>
      </trkpt>
      <trkpt lat="45.47567" lon="5.93843">
        <ele>884.17584228516</ele>
        <time>2015-08-12T19:10:29.000Z</time>
      </trkpt>
      <trkpt lat="45.47559" lon="5.93852">
        <ele>883.88696289062</ele>
        <time>2015-08-12T19:10:32.000Z</time>
      </trkpt>
      <trkpt lat="45.47552" lon="5.93859">
        <ele>884.74963378906</ele>
        <time>2015-08-12T19:10:35.000Z</time>
      </trkpt>
      <trkpt lat="45.47549" lon="5.93863">
        <ele>885.26947021484</ele>
        <time>2015-08-12T19:10:37.000Z</time>
      </trkpt>
      <trkpt lat="45.47546" lon="5.93871">
        <ele>886.47760009766</ele>
        <time>2015-08-12T19:10:40.000Z</time>
      </trkpt>
      <trkpt lat="45.47543" lon="5.93877">
        <ele>887.60552978516</ele>
        <time>2015-08-12T19:10:43.000Z</time>
      </trkpt>
      <trkpt lat="45.47541" lon="5.93881">
        <ele>887.9677734375</ele>
        <time>2015-08-12T19:10:45.000Z</time>
      </trkpt>
      <trkpt lat="45.47538" lon="5.93887">
        <ele>887.80743408203</ele>
        <time>2015-08-12T19:10:48.000Z</time>
      </trkpt>
      <trkpt lat="45.47535" lon="5.93891">
        <ele>888.58282470703</ele>
        <time>2015-08-12T19:10:50.000Z</time>
      </trkpt>
      <trkpt lat="45.47532" lon="5.93896">
        <ele>889.42395019531</ele>
        <time>2015-08-12T19:10:53.000Z</time>
      </trkpt>
      <trkpt lat="45.47527" lon="5.93899">
        <ele>892.38610839844</ele>
        <time>2015-08-12T19:10:56.000Z</time>
      </trkpt>
      <trkpt lat="45.47524" lon="5.93902">
        <ele>892.91638183594</ele>
        <time>2015-08-12T19:10:58.000Z</time>
      </trkpt>
      <trkpt lat="45.47522" lon="5.93904">
        <ele>893.60400390625</ele>
        <time>2015-08-12T19:11:00.000Z</time>
      </trkpt>
      <trkpt lat="45.47519" lon="5.93908">
        <ele>895.35107421875</ele>
        <time>2015-08-12T19:11:03.000Z</time>
      </trkpt>
      <trkpt lat="45.47517" lon="5.9391">
        <ele>895.25463867188</ele>
        <time>2015-08-12T19:11:05.000Z</time>
      </trkpt>
      <trkpt lat="45.47514" lon="5.93913">
        <ele>895.27844238281</ele>
        <time>2015-08-12T19:11:08.000Z</time>
      </trkpt>
      <trkpt lat="45.47511" lon="5.93915">
        <ele>895.50762939453</ele>
        <time>2015-08-12T19:11:10.000Z</time>
      </trkpt>
      <trkpt lat="45.47508" lon="5.93917">
        <ele>895.89611816406</ele>
        <time>2015-08-12T19:11:12.000Z</time>
      </trkpt>
      <trkpt lat="45.47505" lon="5.93921">
        <ele>895.55230712891</ele>
        <time>2015-08-12T19:11:15.000Z</time>
      </trkpt>
      <trkpt lat="45.475" lon="5.93925">
        <ele>895.16802978516</ele>
        <time>2015-08-12T19:11:18.000Z</time>
      </trkpt>
      <trkpt lat="45.47497" lon="5.93928">
        <ele>894.07543945312</ele>
        <time>2015-08-12T19:11:20.000Z</time>
      </trkpt>
      <trkpt lat="45.47494" lon="5.93931">
        <ele>895.02667236328</ele>
        <time>2015-08-12T19:11:22.000Z</time>
      </trkpt>
      <trkpt lat="45.4749" lon="5.93938">
        <ele>893.88171386719</ele>
        <time>2015-08-12T19:11:25.000Z</time>
      </trkpt>
      <trkpt lat="45.47486" lon="5.93944">
        <ele>893.98754882812</ele>
        <time>2015-08-12T19:11:28.000Z</time>
      </trkpt>
      <trkpt lat="45.47482" lon="5.93952">
        <ele>892.60882568359</ele>
        <time>2015-08-12T19:11:31.000Z</time>
      </trkpt>
      <trkpt lat="45.47478" lon="5.9396">
        <ele>889.49841308594</ele>
        <time>2015-08-12T19:11:34.000Z</time>
      </trkpt>
      <trkpt lat="45.47477" lon="5.93965">
        <ele>889.03991699219</ele>
        <time>2015-08-12T19:11:36.000Z</time>
      </trkpt>
      <trkpt lat="45.47476" lon="5.93971">
        <ele>888.54907226562</ele>
        <time>2015-08-12T19:11:38.000Z</time>
      </trkpt>
      <trkpt lat="45.47475" lon="5.93977">
        <ele>888.31860351562</ele>
        <time>2015-08-12T19:11:40.000Z</time>
      </trkpt>
      <trkpt lat="45.47475" lon="5.93986">
        <ele>889.23913574219</ele>
        <time>2015-08-12T19:11:43.000Z</time>
      </trkpt>
      <trkpt lat="45.47476" lon="5.93993">
        <ele>890.40014648438</ele>
        <time>2015-08-12T19:11:46.000Z</time>
      </trkpt>
      <trkpt lat="45.47478" lon="5.93998">
        <ele>890.26342773438</ele>
        <time>2015-08-12T19:11:48.000Z</time>
      </trkpt>
      <trkpt lat="45.4748" lon="5.94002">
        <ele>890.33947753906</ele>
        <time>2015-08-12T19:11:50.000Z</time>
      </trkpt>
      <trkpt lat="45.47482" lon="5.94009">
        <ele>891.23205566406</ele>
        <time>2015-08-12T19:11:53.000Z</time>
      </trkpt>
      <trkpt lat="45.47484" lon="5.94017">
        <ele>891.01715087891</ele>
        <time>2015-08-12T19:11:56.000Z</time>
      </trkpt>
      <trkpt lat="45.47484" lon="5.94024">
        <ele>891.09515380859</ele>
        <time>2015-08-12T19:11:58.000Z</time>
      </trkpt>
      <trkpt lat="45.47483" lon="5.9403">
        <ele>891.46398925781</ele>
        <time>2015-08-12T19:12:00.000Z</time>
      </trkpt>
      <trkpt lat="45.47482" lon="5.94038">
        <ele>892.37786865234</ele>
        <time>2015-08-12T19:12:03.000Z</time>
      </trkpt>
      <trkpt lat="45.47481" lon="5.94044">
        <ele>893.65118408203</ele>
        <time>2015-08-12T19:12:05.000Z</time>
      </trkpt>
      <trkpt lat="45.4748" lon="5.94052">
        <ele>894.87365722656</ele>
        <time>2015-08-12T19:12:08.000Z</time>
      </trkpt>
      <trkpt lat="45.47478" lon="5.94057">
        <ele>895.41967773438</ele>
        <time>2015-08-12T19:12:10.000Z</time>
      </trkpt>
      <trkpt lat="45.47474" lon="5.94065">
        <ele>895.23767089844</ele>
        <time>2015-08-12T19:12:13.000Z</time>
      </trkpt>
      <trkpt lat="45.47472" lon="5.9407">
        <ele>894.05529785156</ele>
        <time>2015-08-12T19:12:15.000Z</time>
      </trkpt>
      <trkpt lat="45.4747" lon="5.94078">
        <ele>893.71081542969</ele>
        <time>2015-08-12T19:12:18.000Z</time>
      </trkpt>
      <trkpt lat="45.47468" lon="5.94084">
        <ele>892.67938232422</ele>
        <time>2015-08-12T19:12:20.000Z</time>
      </trkpt>
      <trkpt lat="45.47467" lon="5.9409">
        <ele>892.81951904297</ele>
        <time>2015-08-12T19:12:22.000Z</time>
      </trkpt>
      <trkpt lat="45.47465" lon="5.94098">
        <ele>894.69171142578</ele>
        <time>2015-08-12T19:12:25.000Z</time>
      </trkpt>
      <trkpt lat="45.47464" lon="5.94104">
        <ele>895.482421875</ele>
        <time>2015-08-12T19:12:27.000Z</time>
      </trkpt>
      <trkpt lat="45.47463" lon="5.94113">
        <ele>896.95385742188</ele>
        <time>2015-08-12T19:12:30.000Z</time>
      </trkpt>
      <trkpt lat="45.47464" lon="5.9412">
        <ele>898.13195800781</ele>
        <time>2015-08-12T19:12:33.000Z</time>
      </trkpt>
      <trkpt lat="45.47465" lon="5.94129">
        <ele>900.10388183594</ele>
        <time>2015-08-12T19:12:36.000Z</time>
      </trkpt>
      <trkpt lat="45.47465" lon="5.94135">
        <ele>900.47052001953</ele>
        <time>2015-08-12T19:12:38.000Z</time>
      </trkpt>
      <trkpt lat="45.47465" lon="5.94143">
        <ele>901.03277587891</ele>
        <time>2015-08-12T19:12:41.000Z</time>
      </trkpt>
      <trkpt lat="45.47466" lon="5.94148">
        <ele>901.42907714844</ele>
        <time>2015-08-12T19:12:43.000Z</time>
      </trkpt>
      <trkpt lat="45.47466" lon="5.94154">
        <ele>902.46917724609</ele>
        <time>2015-08-12T19:12:45.000Z</time>
      </trkpt>
      <trkpt lat="45.47466" lon="5.94162">
        <ele>902.93695068359</ele>
        <time>2015-08-12T19:12:48.000Z</time>
      </trkpt>
      <trkpt lat="45.47466" lon="5.94167">
        <ele>903.06213378906</ele>
        <time>2015-08-12T19:12:50.000Z</time>
      </trkpt>
      <trkpt lat="45.47465" lon="5.94174">
        <ele>900.93518066406</ele>
        <time>2015-08-12T19:12:53.000Z</time>
      </trkpt>
      <trkpt lat="45.47463" lon="5.94182">
        <ele>899.82379150391</ele>
        <time>2015-08-12T19:12:56.000Z</time>
      </trkpt>
      <trkpt lat="45.47461" lon="5.9419">
        <ele>899.63061523438</ele>
        <time>2015-08-12T19:12:59.000Z</time>
      </trkpt>
      <trkpt lat="45.47461" lon="5.94195">
        <ele>900.19158935547</ele>
        <time>2015-08-12T19:13:01.000Z</time>
      </trkpt>
      <trkpt lat="45.47461" lon="5.94201">
        <ele>902.07897949219</ele>
        <time>2015-08-12T19:13:03.000Z</time>
      </trkpt>
      <trkpt lat="45.47459" lon="5.94208">
        <ele>904.20092773438</ele>
        <time>2015-08-12T19:13:06.000Z</time>
      </trkpt>
      <trkpt lat="45.47458" lon="5.94212">
        <ele>905.57757568359</ele>
        <time>2015-08-12T19:13:08.000Z</time>
      </trkpt>
      <trkpt lat="45.47454" lon="5.94219">
        <ele>907.78887939453</ele>
        <time>2015-08-12T19:13:11.000Z</time>
      </trkpt>
      <trkpt lat="45.4745" lon="5.94224">
        <ele>906.49926757812</ele>
        <time>2015-08-12T19:13:14.000Z</time>
      </trkpt>
      <trkpt lat="45.47445" lon="5.94227">
        <ele>904.40515136719</ele>
        <time>2015-08-12T19:13:16.000Z</time>
      </trkpt>
      <trkpt lat="45.47439" lon="5.9423">
        <ele>904.24005126953</ele>
        <time>2015-08-12T19:13:19.000Z</time>
      </trkpt>
      <trkpt lat="45.47436" lon="5.94234">
        <ele>905.11480712891</ele>
        <time>2015-08-12T19:13:21.000Z</time>
      </trkpt>
      <trkpt lat="45.47433" lon="5.94242">
        <ele>904.42742919922</ele>
        <time>2015-08-12T19:13:24.000Z</time>
      </trkpt>
      <trkpt lat="45.47429" lon="5.94249">
        <ele>905.10833740234</ele>
        <time>2015-08-12T19:13:27.000Z</time>
      </trkpt>
      <trkpt lat="45.47427" lon="5.94254">
        <ele>906.31707763672</ele>
        <time>2015-08-12T19:13:29.000Z</time>
      </trkpt>
      <trkpt lat="45.47424" lon="5.94262">
        <ele>907.62780761719</ele>
        <time>2015-08-12T19:13:32.000Z</time>
      </trkpt>
      <trkpt lat="45.47423" lon="5.9427">
        <ele>909.11755371094</ele>
        <time>2015-08-12T19:13:35.000Z</time>
      </trkpt>
      <trkpt lat="45.47422" lon="5.94276">
        <ele>910.55059814453</ele>
        <time>2015-08-12T19:13:38.000Z</time>
      </trkpt>
      <trkpt lat="45.47422" lon="5.94282">
        <ele>913.95428466797</ele>
        <time>2015-08-12T19:13:40.000Z</time>
      </trkpt>
      <trkpt lat="45.47422" lon="5.94286">
        <ele>916.54553222656</ele>
        <time>2015-08-12T19:13:42.000Z</time>
      </trkpt>
      <trkpt lat="45.47421" lon="5.94292">
        <ele>916.60095214844</ele>
        <time>2015-08-12T19:13:45.000Z</time>
      </trkpt>
      <trkpt lat="45.47419" lon="5.94297">
        <ele>918.19110107422</ele>
        <time>2015-08-12T19:13:48.000Z</time>
      </trkpt>
      <trkpt lat="45.47419" lon="5.94301">
        <ele>919.98162841797</ele>
        <time>2015-08-12T19:13:50.000Z</time>
      </trkpt>
      <trkpt lat="45.47419" lon="5.94305">
        <ele>921.12359619141</ele>
        <time>2015-08-12T19:13:52.000Z</time>
      </trkpt>
      <trkpt lat="45.4742" lon="5.94311">
        <ele>924.05261230469</ele>
        <time>2015-08-12T19:13:55.000Z</time>
      </trkpt>
      <trkpt lat="45.47421" lon="5.94314">
        <ele>923.00860595703</ele>
        <time>2015-08-12T19:13:57.000Z</time>
      </trkpt>
      <trkpt lat="45.4742" lon="5.9432">
        <ele>920.97955322266</ele>
        <time>2015-08-12T19:14:00.000Z</time>
      </trkpt>
      <trkpt lat="45.47419" lon="5.94326">
        <ele>920.59161376953</ele>
        <time>2015-08-12T19:14:03.000Z</time>
      </trkpt>
      <trkpt lat="45.47418" lon="5.94331">
        <ele>920.80444335938</ele>
        <time>2015-08-12T19:14:05.000Z</time>
      </trkpt>
      <trkpt lat="45.47417" lon="5.94335">
        <ele>921.80181884766</ele>
        <time>2015-08-12T19:14:07.000Z</time>
      </trkpt>
      <trkpt lat="45.47416" lon="5.94341">
        <ele>922.55249023438</ele>
        <time>2015-08-12T19:14:10.000Z</time>
      </trkpt>
      <trkpt lat="45.47416" lon="5.94345">
        <ele>922.86175537109</ele>
        <time>2015-08-12T19:14:12.000Z</time>
      </trkpt>
      <trkpt lat="45.47417" lon="5.94351">
        <ele>923.09375</ele>
        <time>2015-08-12T19:14:15.000Z</time>
      </trkpt>
      <trkpt lat="45.47419" lon="5.94355">
        <ele>922.20147705078</ele>
        <time>2015-08-12T19:14:17.000Z</time>
      </trkpt>
      <trkpt lat="45.47419" lon="5.9436">
        <ele>924.81365966797</ele>
        <time>2015-08-12T19:14:20.000Z</time>
      </trkpt>
      <trkpt lat="45.47419" lon="5.94366">
        <ele>923.34649658203</ele>
        <time>2015-08-12T19:14:23.000Z</time>
      </trkpt>
      <trkpt lat="45.47419" lon="5.94373">
        <ele>923.0888671875</ele>
        <time>2015-08-12T19:14:26.000Z</time>
      </trkpt>
      <trkpt lat="45.47419" lon="5.94378">
        <ele>922.42608642578</ele>
        <time>2015-08-12T19:14:28.000Z</time>
      </trkpt>
      <trkpt lat="45.47417" lon="5.94385">
        <ele>921.36907958984</ele>
        <time>2015-08-12T19:14:31.000Z</time>
      </trkpt>
      <trkpt lat="45.47416" lon="5.94391">
        <ele>920.00482177734</ele>
        <time>2015-08-12T19:14:33.000Z</time>
      </trkpt>
      <trkpt lat="45.47414" lon="5.94398">
        <ele>919.69830322266</ele>
        <time>2015-08-12T19:14:36.000Z</time>
      </trkpt>
      <trkpt lat="45.47412" lon="5.94402">
        <ele>921.10168457031</ele>
        <time>2015-08-12T19:14:38.000Z</time>
      </trkpt>
      <trkpt lat="45.4741" lon="5.94408">
        <ele>921.81903076172</ele>
        <time>2015-08-12T19:14:41.000Z</time>
      </trkpt>
      <trkpt lat="45.47408" lon="5.94412">
        <ele>922.29718017578</ele>
        <time>2015-08-12T19:14:43.000Z</time>
      </trkpt>
      <trkpt lat="45.47406" lon="5.94417">
        <ele>922.90698242188</ele>
        <time>2015-08-12T19:14:46.000Z</time>
      </trkpt>
      <trkpt lat="45.47405" lon="5.9442">
        <ele>922.90240478516</ele>
        <time>2015-08-12T19:14:48.000Z</time>
      </trkpt>
      <trkpt lat="45.47403" lon="5.94426">
        <ele>924.87005615234</ele>
        <time>2015-08-12T19:14:51.000Z</time>
      </trkpt>
      <trkpt lat="45.47404" lon="5.94432">
        <ele>925.23504638672</ele>
        <time>2015-08-12T19:14:54.000Z</time>
      </trkpt>
      <trkpt lat="45.47403" lon="5.94436">
        <ele>925.07531738281</ele>
        <time>2015-08-12T19:14:56.000Z</time>
      </trkpt>
      <trkpt lat="45.47402" lon="5.94439">
        <ele>924.029296875</ele>
        <time>2015-08-12T19:14:58.000Z</time>
      </trkpt>
      <trkpt lat="45.474" lon="5.94444">
        <ele>921.94158935547</ele>
        <time>2015-08-12T19:15:01.000Z</time>
      </trkpt>
      <trkpt lat="45.47397" lon="5.94449">
        <ele>920.42254638672</ele>
        <time>2015-08-12T19:15:04.000Z</time>
      </trkpt>
      <trkpt lat="45.47393" lon="5.94452">
        <ele>917.87738037109</ele>
        <time>2015-08-12T19:15:07.000Z</time>
      </trkpt>
      <trkpt lat="45.47391" lon="5.94455">
        <ele>918.30853271484</ele>
        <time>2015-08-12T19:15:10.000Z</time>
      </trkpt>
      <trkpt lat="45.4739" lon="5.94454">
        <ele>916.98614501953</ele>
        <time>2015-08-12T19:15:18.000Z</time>
      </trkpt>
      <trkpt lat="45.47391" lon="5.94451">
        <ele>916.60504150391</ele>
        <time>2015-08-12T19:15:21.000Z</time>
      </trkpt>
      <trkpt lat="45.47392" lon="5.94445">
        <ele>917.10321044922</ele>
        <time>2015-08-12T19:15:24.000Z</time>
      </trkpt>
      <trkpt lat="45.47394" lon="5.94439">
        <ele>918.67395019531</ele>
        <time>2015-08-12T19:15:26.000Z</time>
      </trkpt>
      <trkpt lat="45.47397" lon="5.94429">
        <ele>919.42980957031</ele>
        <time>2015-08-12T19:15:29.000Z</time>
      </trkpt>
      <trkpt lat="45.47399" lon="5.94419">
        <ele>918.22991943359</ele>
        <time>2015-08-12T19:15:32.000Z</time>
      </trkpt>
      <trkpt lat="45.474" lon="5.9441">
        <ele>918.36328125</ele>
        <time>2015-08-12T19:15:35.000Z</time>
      </trkpt>
      <trkpt lat="45.47401" lon="5.94409">
        <ele>922.61352539062</ele>
        <time>2015-08-12T19:15:55.000Z</time>
      </trkpt>
      <trkpt lat="45.47404" lon="5.94399">
        <ele>916.91497802734</ele>
        <time>2015-08-12T19:15:58.000Z</time>
      </trkpt>
      <trkpt lat="45.47408" lon="5.94378">
        <ele>911.84063720703</ele>
        <time>2015-08-12T19:16:01.000Z</time>
      </trkpt>
      <trkpt lat="45.47411" lon="5.94354">
        <ele>908.21539306641</ele>
        <time>2015-08-12T19:16:04.000Z</time>
      </trkpt>
      <trkpt lat="45.47413" lon="5.94337">
        <ele>906.6484375</ele>
        <time>2015-08-12T19:16:06.000Z</time>
      </trkpt>
      <trkpt lat="45.47416" lon="5.94311">
        <ele>905.59399414062</ele>
        <time>2015-08-12T19:16:09.000Z</time>
      </trkpt>
      <trkpt lat="45.47419" lon="5.94293">
        <ele>903.69641113281</ele>
        <time>2015-08-12T19:16:11.000Z</time>
      </trkpt>
      <trkpt lat="45.47423" lon="5.94279">
        <ele>902.55279541016</ele>
        <time>2015-08-12T19:16:13.000Z</time>
      </trkpt>
      <trkpt lat="45.47426" lon="5.94269">
        <ele>901.84252929688</ele>
        <time>2015-08-12T19:16:16.000Z</time>
      </trkpt>
      <trkpt lat="45.47429" lon="5.94261">
        <ele>899.71697998047</ele>
        <time>2015-08-12T19:16:19.000Z</time>
      </trkpt>
      <trkpt lat="45.47434" lon="5.94253">
        <ele>899.7392578125</ele>
        <time>2015-08-12T19:16:22.000Z</time>
      </trkpt>
      <trkpt lat="45.47436" lon="5.9425">
        <ele>901.47491455078</ele>
        <time>2015-08-12T19:16:24.000Z</time>
      </trkpt>
      <trkpt lat="45.47438" lon="5.94247">
        <ele>903.115234375</ele>
        <time>2015-08-12T19:16:26.000Z</time>
      </trkpt>
      <trkpt lat="45.47439" lon="5.94244">
        <ele>903.12231445312</ele>
        <time>2015-08-12T19:16:28.000Z</time>
      </trkpt>
      <trkpt lat="45.47441" lon="5.94238">
        <ele>902.80877685547</ele>
        <time>2015-08-12T19:16:31.000Z</time>
      </trkpt>
      <trkpt lat="45.47443" lon="5.94234">
        <ele>904.37640380859</ele>
        <time>2015-08-12T19:16:33.000Z</time>
      </trkpt>
      <trkpt lat="45.47445" lon="5.94232">
        <ele>906.74951171875</ele>
        <time>2015-08-12T19:16:35.000Z</time>
      </trkpt>
      <trkpt lat="45.47447" lon="5.94228">
        <ele>909.26141357422</ele>
        <time>2015-08-12T19:16:38.000Z</time>
      </trkpt>
      <trkpt lat="45.47448" lon="5.94224">
        <ele>909.38616943359</ele>
        <time>2015-08-12T19:16:40.000Z</time>
      </trkpt>
      <trkpt lat="45.4745" lon="5.9422">
        <ele>909.265625</ele>
        <time>2015-08-12T19:16:42.000Z</time>
      </trkpt>
      <trkpt lat="45.47452" lon="5.94213">
        <ele>909.63824462891</ele>
        <time>2015-08-12T19:16:45.000Z</time>
      </trkpt>
      <trkpt lat="45.47454" lon="5.94205">
        <ele>910.27465820312</ele>
        <time>2015-08-12T19:16:47.000Z</time>
      </trkpt>
      <trkpt lat="45.47456" lon="5.94197">
        <ele>910.97332763672</ele>
        <time>2015-08-12T19:16:49.000Z</time>
      </trkpt>
      <trkpt lat="45.47458" lon="5.94185">
        <ele>910.43542480469</ele>
        <time>2015-08-12T19:16:52.000Z</time>
      </trkpt>
      <trkpt lat="45.47458" lon="5.94176">
        <ele>907.32269287109</ele>
        <time>2015-08-12T19:16:54.000Z</time>
      </trkpt>
      <trkpt lat="45.47459" lon="5.94161">
        <ele>901.86810302734</ele>
        <time>2015-08-12T19:16:57.000Z</time>
      </trkpt>
      <trkpt lat="45.47458" lon="5.94151">
        <ele>898.98718261719</ele>
        <time>2015-08-12T19:16:59.000Z</time>
      </trkpt>
      <trkpt lat="45.47458" lon="5.94141">
        <ele>898.08337402344</ele>
        <time>2015-08-12T19:17:01.000Z</time>
      </trkpt>
      <trkpt lat="45.47458" lon="5.94124">
        <ele>897.66021728516</ele>
        <time>2015-08-12T19:17:04.000Z</time>
      </trkpt>
      <trkpt lat="45.47458" lon="5.94108">
        <ele>897.66632080078</ele>
        <time>2015-08-12T19:17:07.000Z</time>
      </trkpt>
      <trkpt lat="45.4746" lon="5.94094">
        <ele>899.60205078125</ele>
        <time>2015-08-12T19:17:10.000Z</time>
      </trkpt>
      <trkpt lat="45.47462" lon="5.94085">
        <ele>900.0361328125</ele>
        <time>2015-08-12T19:17:13.000Z</time>
      </trkpt>
      <trkpt lat="45.47462" lon="5.94082">
        <ele>900.08526611328</ele>
        <time>2015-08-12T19:17:15.000Z</time>
      </trkpt>
      <trkpt lat="45.47463" lon="5.9408">
        <ele>899.82696533203</ele>
        <time>2015-08-12T19:17:18.000Z</time>
      </trkpt>
      <trkpt lat="45.47464" lon="5.94081">
        <ele>901.01556396484</ele>
        <time>2015-08-12T19:17:26.000Z</time>
      </trkpt>
      <trkpt lat="45.47466" lon="5.9408">
        <ele>901.88409423828</ele>
        <time>2015-08-12T19:17:28.000Z</time>
      </trkpt>
      <trkpt lat="45.47468" lon="5.94074">
        <ele>901.25299072266</ele>
        <time>2015-08-12T19:17:31.000Z</time>
      </trkpt>
      <trkpt lat="45.47472" lon="5.94064">
        <ele>899.55535888672</ele>
        <time>2015-08-12T19:17:34.000Z</time>
      </trkpt>
      <trkpt lat="45.47475" lon="5.94056">
        <ele>899.18603515625</ele>
        <time>2015-08-12T19:17:36.000Z</time>
      </trkpt>
      <trkpt lat="45.47477" lon="5.94048">
        <ele>898.0322265625</ele>
        <time>2015-08-12T19:17:38.000Z</time>
      </trkpt>
      <trkpt lat="45.4748" lon="5.94035">
        <ele>896.25274658203</ele>
        <time>2015-08-12T19:17:41.000Z</time>
      </trkpt>
      <trkpt lat="45.4748" lon="5.94022">
        <ele>894.47528076172</ele>
        <time>2015-08-12T19:17:44.000Z</time>
      </trkpt>
      <trkpt lat="45.47478" lon="5.94015">
        <ele>892.24536132812</ele>
        <time>2015-08-12T19:17:46.000Z</time>
      </trkpt>
      <trkpt lat="45.47474" lon="5.94003">
        <ele>892.08142089844</ele>
        <time>2015-08-12T19:17:49.000Z</time>
      </trkpt>
      <trkpt lat="45.47471" lon="5.93995">
        <ele>890.89074707031</ele>
        <time>2015-08-12T19:17:51.000Z</time>
      </trkpt>
      <trkpt lat="45.47471" lon="5.93976">
        <ele>888.73583984375</ele>
        <time>2015-08-12T19:17:54.000Z</time>
      </trkpt>
      <trkpt lat="45.47476" lon="5.93955">
        <ele>884.63116455078</ele>
        <time>2015-08-12T19:17:57.000Z</time>
      </trkpt>
      <trkpt lat="45.4748" lon="5.93944">
        <ele>883.46081542969</ele>
        <time>2015-08-12T19:17:59.000Z</time>
      </trkpt>
      <trkpt lat="45.47483" lon="5.9394">
        <ele>883.68035888672</ele>
        <time>2015-08-12T19:18:01.000Z</time>
      </trkpt>
      <trkpt lat="45.47488" lon="5.93933">
        <ele>882.52941894531</ele>
        <time>2015-08-12T19:18:04.000Z</time>
      </trkpt>
      <trkpt lat="45.47495" lon="5.93927">
        <ele>882.28076171875</ele>
        <time>2015-08-12T19:18:07.000Z</time>
      </trkpt>
      <trkpt lat="45.47501" lon="5.93924">
        <ele>882.08654785156</ele>
        <time>2015-08-12T19:18:10.000Z</time>
      </trkpt>
      <trkpt lat="45.47508" lon="5.93918">
        <ele>882.29705810547</ele>
        <time>2015-08-12T19:18:13.000Z</time>
      </trkpt>
      <trkpt lat="45.47514" lon="5.93915">
        <ele>882.49420166016</ele>
        <time>2015-08-12T19:18:15.000Z</time>
      </trkpt>
      <trkpt lat="45.47522" lon="5.93907">
        <ele>883.29309082031</ele>
        <time>2015-08-12T19:18:18.000Z</time>
      </trkpt>
      <trkpt lat="45.47528" lon="5.93898">
        <ele>879.14947509766</ele>
        <time>2015-08-12T19:18:20.000Z</time>
      </trkpt>
      <trkpt lat="45.47535" lon="5.93888">
        <ele>877.27410888672</ele>
        <time>2015-08-12T19:18:22.000Z</time>
      </trkpt>
      <trkpt lat="45.47541" lon="5.93879">
        <ele>875.90026855469</ele>
        <time>2015-08-12T19:18:24.000Z</time>
      </trkpt>
      <trkpt lat="45.47549" lon="5.93865">
        <ele>878.09075927734</ele>
        <time>2015-08-12T19:18:27.000Z</time>
      </trkpt>
      <trkpt lat="45.47556" lon="5.93852">
        <ele>878.62103271484</ele>
        <time>2015-08-12T19:18:30.000Z</time>
      </trkpt>
      <trkpt lat="45.47563" lon="5.93843">
        <ele>879.98565673828</ele>
        <time>2015-08-12T19:18:33.000Z</time>
      </trkpt>
      <trkpt lat="45.4757" lon="5.93833">
        <ele>879.08984375</ele>
        <time>2015-08-12T19:18:36.000Z</time>
      </trkpt>
      <trkpt lat="45.47576" lon="5.93822">
        <ele>879.70819091797</ele>
        <time>2015-08-12T19:18:39.000Z</time>
      </trkpt>
      <trkpt lat="45.4758" lon="5.93815">
        <ele>879.10028076172</ele>
        <time>2015-08-12T19:18:41.000Z</time>
      </trkpt>
      <trkpt lat="45.47585" lon="5.93808">
        <ele>880.37982177734</ele>
        <time>2015-08-12T19:18:43.000Z</time>
      </trkpt>
      <trkpt lat="45.47592" lon="5.93802">
        <ele>881.5029296875</ele>
        <time>2015-08-12T19:18:46.000Z</time>
      </trkpt>
      <trkpt lat="45.47595" lon="5.938">
        <ele>881.11157226562</ele>
        <time>2015-08-12T19:18:48.000Z</time>
      </trkpt>
      <trkpt lat="45.47598" lon="5.93797">
        <ele>881.68939208984</ele>
        <time>2015-08-12T19:18:51.000Z</time>
      </trkpt>
      <trkpt lat="45.47599" lon="5.93796">
        <ele>882.13970947266</ele>
        <time>2015-08-12T19:18:54.000Z</time>
      </trkpt>
      <trkpt lat="45.47601" lon="5.93795">
        <ele>881.00415039062</ele>
        <time>2015-08-12T19:19:06.000Z</time>
      </trkpt>
      <trkpt lat="45.47604" lon="5.93794">
        <ele>882.06750488281</ele>
        <time>2015-08-12T19:19:08.000Z</time>
      </trkpt>
      <trkpt lat="45.47613" lon="5.93792">
        <ele>883.02593994141</ele>
        <time>2015-08-12T19:19:11.000Z</time>
      </trkpt>
      <trkpt lat="45.47617" lon="5.9379">
        <ele>884.18212890625</ele>
        <time>2015-08-12T19:19:13.000Z</time>
      </trkpt>
      <trkpt lat="45.47618" lon="5.93783">
        <ele>884.38757324219</ele>
        <time>2015-08-12T19:19:16.000Z</time>
      </trkpt>
      <trkpt lat="45.47619" lon="5.93778">
        <ele>884.61383056641</ele>
        <time>2015-08-12T19:19:18.000Z</time>
      </trkpt>
      <trkpt lat="45.4762" lon="5.9377">
        <ele>885.86773681641</ele>
        <time>2015-08-12T19:19:21.000Z</time>
      </trkpt>
      <trkpt lat="45.47622" lon="5.93763">
        <ele>888.44189453125</ele>
        <time>2015-08-12T19:19:24.000Z</time>
      </trkpt>
      <trkpt lat="45.47624" lon="5.93759">
        <ele>888.66790771484</ele>
        <time>2015-08-12T19:19:27.000Z</time>
      </trkpt>
      <trkpt lat="45.47625" lon="5.9376">
        <ele>888.17926025391</ele>
        <time>2015-08-12T19:19:31.000Z</time>
      </trkpt>
      <trkpt lat="45.47625" lon="5.9376">
        <ele>877.31469726562</ele>
        <time>2015-08-12T19:19:51.000Z</time>
      </trkpt>
      <trkpt lat="45.47625" lon="5.93761">
        <ele>888.07183837891</ele>
        <time>2015-08-12T19:20:17.000Z</time>
      </trkpt>
      <trkpt lat="45.47627" lon="5.93761">
        <ele>888.13262939453</ele>
        <time>2015-08-12T19:20:19.000Z</time>
      </trkpt>
      <trkpt lat="45.4763" lon="5.93759">
        <ele>887.62811279297</ele>
        <time>2015-08-12T19:20:21.000Z</time>
      </trkpt>
      <trkpt lat="45.47633" lon="5.93754">
        <ele>887.26745605469</ele>
        <time>2015-08-12T19:20:23.000Z</time>
      </trkpt>
      <trkpt lat="45.47642" lon="5.93748">
        <ele>884.25012207031</ele>
        <time>2015-08-12T19:20:26.000Z</time>
      </trkpt>
      <trkpt lat="45.47649" lon="5.9375">
        <ele>883.51519775391</ele>
        <time>2015-08-12T19:20:28.000Z</time>
      </trkpt>
      <trkpt lat="45.47656" lon="5.93753">
        <ele>881.55303955078</ele>
        <time>2015-08-12T19:20:30.000Z</time>
      </trkpt>
      <trkpt lat="45.47665" lon="5.93756">
        <ele>880.17907714844</ele>
        <time>2015-08-12T19:20:33.000Z</time>
      </trkpt>
      <trkpt lat="45.47674" lon="5.93758">
        <ele>871.4501953125</ele>
        <time>2015-08-12T19:20:36.000Z</time>
      </trkpt>
      <trkpt lat="45.47683" lon="5.93759">
        <ele>868.84918212891</ele>
        <time>2015-08-12T19:20:39.000Z</time>
      </trkpt>
      <trkpt lat="45.47693" lon="5.93761">
        <ele>868.44110107422</ele>
        <time>2015-08-12T19:20:42.000Z</time>
      </trkpt>
      <trkpt lat="45.477" lon="5.93763">
        <ele>868.08489990234</ele>
        <time>2015-08-12T19:20:44.000Z</time>
      </trkpt>
      <trkpt lat="45.47707" lon="5.93764">
        <ele>865.5859375</ele>
        <time>2015-08-12T19:20:46.000Z</time>
      </trkpt>
      <trkpt lat="45.47715" lon="5.93766">
        <ele>861.47729492188</ele>
        <time>2015-08-12T19:20:49.000Z</time>
      </trkpt>
      <trkpt lat="45.47718" lon="5.9377">
        <ele>860.765625</ele>
        <time>2015-08-12T19:20:52.000Z</time>
      </trkpt>
      <trkpt lat="45.47721" lon="5.93775">
        <ele>859.37756347656</ele>
        <time>2015-08-12T19:20:55.000Z</time>
      </trkpt>
      <trkpt lat="45.47724" lon="5.93785">
        <ele>860.16595458984</ele>
        <time>2015-08-12T19:20:58.000Z</time>
      </trkpt>
      <trkpt lat="45.47727" lon="5.938">
        <ele>860.91412353516</ele>
        <time>2015-08-12T19:21:01.000Z</time>
      </trkpt>
      <trkpt lat="45.47731" lon="5.9381">
        <ele>861.41174316406</ele>
        <time>2015-08-12T19:21:03.000Z</time>
      </trkpt>
      <trkpt lat="45.47734" lon="5.93818">
        <ele>860.76971435547</ele>
        <time>2015-08-12T19:21:05.000Z</time>
      </trkpt>
      <trkpt lat="45.47736" lon="5.93831">
        <ele>858.43298339844</ele>
        <time>2015-08-12T19:21:08.000Z</time>
      </trkpt>
      <trkpt lat="45.47743" lon="5.93844">
        <ele>856.02056884766</ele>
        <time>2015-08-12T19:21:11.000Z</time>
      </trkpt>
      <trkpt lat="45.47748" lon="5.93852">
        <ele>853.98126220703</ele>
        <time>2015-08-12T19:21:13.000Z</time>
      </trkpt>
      <trkpt lat="45.47751" lon="5.93864">
        <ele>852.16357421875</ele>
        <time>2015-08-12T19:21:16.000Z</time>
      </trkpt>
      <trkpt lat="45.47751" lon="5.93867">
        <ele>851.66857910156</ele>
        <time>2015-08-12T19:21:19.000Z</time>
      </trkpt>
      <trkpt lat="45.47752" lon="5.93869">
        <ele>851.65167236328</ele>
        <time>2015-08-12T19:21:23.000Z</time>
      </trkpt>
      <trkpt lat="45.47753" lon="5.93871">
        <ele>852.11901855469</ele>
        <time>2015-08-12T19:21:30.000Z</time>
      </trkpt>
      <trkpt lat="45.47753" lon="5.93874">
        <ele>851.59320068359</ele>
        <time>2015-08-12T19:21:33.000Z</time>
      </trkpt>
      <trkpt lat="45.47752" lon="5.93879">
        <ele>850.22595214844</ele>
        <time>2015-08-12T19:21:35.000Z</time>
      </trkpt>
      <trkpt lat="45.47749" lon="5.93895">
        <ele>847.66455078125</ele>
        <time>2015-08-12T19:21:38.000Z</time>
      </trkpt>
      <trkpt lat="45.47744" lon="5.93921">
        <ele>846.08813476562</ele>
        <time>2015-08-12T19:21:41.000Z</time>
      </trkpt>
      <trkpt lat="45.47742" lon="5.93939">
        <ele>845.21508789062</ele>
        <time>2015-08-12T19:21:43.000Z</time>
      </trkpt>
      <trkpt lat="45.47745" lon="5.9397">
        <ele>844.64794921875</ele>
        <time>2015-08-12T19:21:46.000Z</time>
      </trkpt>
      <trkpt lat="45.47749" lon="5.94008">
        <ele>842.49871826172</ele>
        <time>2015-08-12T19:21:49.000Z</time>
      </trkpt>
      <trkpt lat="45.4775" lon="5.94037">
        <ele>840.328125</ele>
        <time>2015-08-12T19:21:51.000Z</time>
      </trkpt>
      <trkpt lat="45.47749" lon="5.94076">
        <ele>838.65454101562</ele>
        <time>2015-08-12T19:21:54.000Z</time>
      </trkpt>
      <trkpt lat="45.47743" lon="5.94105">
        <ele>835.35723876953</ele>
        <time>2015-08-12T19:21:57.000Z</time>
      </trkpt>
      <trkpt lat="45.47734" lon="5.94111">
        <ele>833.65661621094</ele>
        <time>2015-08-12T19:21:59.000Z</time>
      </trkpt>
      <trkpt lat="45.47715" lon="5.94114">
        <ele>829.64166259766</ele>
        <time>2015-08-12T19:22:02.000Z</time>
      </trkpt>
      <trkpt lat="45.47705" lon="5.94113">
        <ele>828.10632324219</ele>
        <time>2015-08-12T19:22:04.000Z</time>
      </trkpt>
      <trkpt lat="45.47697" lon="5.94114">
        <ele>825.08343505859</ele>
        <time>2015-08-12T19:22:06.000Z</time>
      </trkpt>
      <trkpt lat="45.47683" lon="5.94121">
        <ele>824.435546875</ele>
        <time>2015-08-12T19:22:09.000Z</time>
      </trkpt>
      <trkpt lat="45.47674" lon="5.9413">
        <ele>822.44195556641</ele>
        <time>2015-08-12T19:22:12.000Z</time>
      </trkpt>
      <trkpt lat="45.47669" lon="5.94135">
        <ele>820.48175048828</ele>
        <time>2015-08-12T19:22:14.000Z</time>
      </trkpt>
      <trkpt lat="45.47663" lon="5.94138">
        <ele>821.34332275391</ele>
        <time>2015-08-12T19:22:16.000Z</time>
      </trkpt>
      <trkpt lat="45.47659" lon="5.94141">
        <ele>823.75836181641</ele>
        <time>2015-08-12T19:22:20.000Z</time>
      </trkpt>
      <trkpt lat="45.47659" lon="5.94143">
        <ele>823.26049804688</ele>
        <time>2015-08-12T19:22:30.000Z</time>
      </trkpt>
      <trkpt lat="45.4766" lon="5.94145">
        <ele>822.60864257812</ele>
        <time>2015-08-12T19:22:33.000Z</time>
      </trkpt>
      <trkpt lat="45.4766" lon="5.94147">
        <ele>823.10174560547</ele>
        <time>2015-08-12T19:22:41.000Z</time>
      </trkpt>
      <trkpt lat="45.4766" lon="5.94149">
        <ele>823.51239013672</ele>
        <time>2015-08-12T19:22:44.000Z</time>
      </trkpt>
      <trkpt lat="45.47657" lon="5.94153">
        <ele>821.05621337891</ele>
        <time>2015-08-12T19:22:47.000Z</time>
      </trkpt>
      <trkpt lat="45.47656" lon="5.94157">
        <ele>820.31573486328</ele>
        <time>2015-08-12T19:22:49.000Z</time>
      </trkpt>
      <trkpt lat="45.47658" lon="5.94163">
        <ele>816.73382568359</ele>
        <time>2015-08-12T19:22:52.000Z</time>
      </trkpt>
      <trkpt lat="45.4766" lon="5.94167">
        <ele>813.38031005859</ele>
        <time>2015-08-12T19:22:54.000Z</time>
      </trkpt>
      <trkpt lat="45.47662" lon="5.94177">
        <ele>811.72509765625</ele>
        <time>2015-08-12T19:22:57.000Z</time>
      </trkpt>
      <trkpt lat="45.47665" lon="5.94184">
        <ele>809.17980957031</ele>
        <time>2015-08-12T19:22:59.000Z</time>
      </trkpt>
      <trkpt lat="45.4767" lon="5.94194">
        <ele>805.24298095703</ele>
        <time>2015-08-12T19:23:02.000Z</time>
      </trkpt>
      <trkpt lat="45.47674" lon="5.94203">
        <ele>803.4462890625</ele>
        <time>2015-08-12T19:23:05.000Z</time>
      </trkpt>
      <trkpt lat="45.47676" lon="5.94207">
        <ele>802.65881347656</ele>
        <time>2015-08-12T19:23:08.000Z</time>
      </trkpt>
      <trkpt lat="45.47675" lon="5.9421">
        <ele>804.74786376953</ele>
        <time>2015-08-12T19:23:26.000Z</time>
      </trkpt>
      <trkpt lat="45.47676" lon="5.94212">
        <ele>805.94836425781</ele>
        <time>2015-08-12T19:23:28.000Z</time>
      </trkpt>
      <trkpt lat="45.47676" lon="5.94217">
        <ele>804.97357177734</ele>
        <time>2015-08-12T19:23:31.000Z</time>
      </trkpt>
      <trkpt lat="45.47676" lon="5.94223">
        <ele>804.87512207031</ele>
        <time>2015-08-12T19:23:34.000Z</time>
      </trkpt>
      <trkpt lat="45.47675" lon="5.94226">
        <ele>805.70220947266</ele>
        <time>2015-08-12T19:23:37.000Z</time>
      </trkpt>
      <trkpt lat="45.47675" lon="5.94228">
        <ele>805.66290283203</ele>
        <time>2015-08-12T19:23:41.000Z</time>
      </trkpt>
      <trkpt lat="45.47673" lon="5.94233">
        <ele>800.85607910156</ele>
        <time>2015-08-12T19:23:44.000Z</time>
      </trkpt>
      <trkpt lat="45.4767" lon="5.94239">
        <ele>798.60772705078</ele>
        <time>2015-08-12T19:23:46.000Z</time>
      </trkpt>
      <trkpt lat="45.4767" lon="5.94248">
        <ele>796.69396972656</ele>
        <time>2015-08-12T19:23:48.000Z</time>
      </trkpt>
      <trkpt lat="45.4767" lon="5.94259">
        <ele>797.38458251953</ele>
        <time>2015-08-12T19:23:51.000Z</time>
      </trkpt>
      <trkpt lat="45.47672" lon="5.94265">
        <ele>795.85888671875</ele>
        <time>2015-08-12T19:23:53.000Z</time>
      </trkpt>
      <trkpt lat="45.47675" lon="5.94271">
        <ele>793.27191162109</ele>
        <time>2015-08-12T19:23:55.000Z</time>
      </trkpt>
      <trkpt lat="45.4768" lon="5.94279">
        <ele>794.09545898438</ele>
        <time>2015-08-12T19:23:58.000Z</time>
      </trkpt>
      <trkpt lat="45.47684" lon="5.94285">
        <ele>794.04608154297</ele>
        <time>2015-08-12T19:24:01.000Z</time>
      </trkpt>
      <trkpt lat="45.47686" lon="5.94291">
        <ele>793.12896728516</ele>
        <time>2015-08-12T19:24:03.000Z</time>
      </trkpt>
      <trkpt lat="45.47688" lon="5.94301">
        <ele>790.44000244141</ele>
        <time>2015-08-12T19:24:06.000Z</time>
      </trkpt>
      <trkpt lat="45.47689" lon="5.94308">
        <ele>787.63690185547</ele>
        <time>2015-08-12T19:24:08.000Z</time>
      </trkpt>
      <trkpt lat="45.47691" lon="5.94314">
        <ele>785.93377685547</ele>
        <time>2015-08-12T19:24:10.000Z</time>
      </trkpt>
      <trkpt lat="45.47694" lon="5.94323">
        <ele>786.23150634766</ele>
        <time>2015-08-12T19:24:13.000Z</time>
      </trkpt>
      <trkpt lat="45.47696" lon="5.9433">
        <ele>786.56274414062</ele>
        <time>2015-08-12T19:24:15.000Z</time>
      </trkpt>
      <trkpt lat="45.47697" lon="5.94336">
        <ele>788.40667724609</ele>
        <time>2015-08-12T19:24:17.000Z</time>
      </trkpt>
      <trkpt lat="45.47699" lon="5.94345">
        <ele>789.41278076172</ele>
        <time>2015-08-12T19:24:20.000Z</time>
      </trkpt>
      <trkpt lat="45.47703" lon="5.94358">
        <ele>788.26312255859</ele>
        <time>2015-08-12T19:24:23.000Z</time>
      </trkpt>
      <trkpt lat="45.47707" lon="5.94368">
        <ele>788.15563964844</ele>
        <time>2015-08-12T19:24:26.000Z</time>
      </trkpt>
      <trkpt lat="45.47709" lon="5.94374">
        <ele>786.51678466797</ele>
        <time>2015-08-12T19:24:28.000Z</time>
      </trkpt>
      <trkpt lat="45.47712" lon="5.94385">
        <ele>784.66259765625</ele>
        <time>2015-08-12T19:24:31.000Z</time>
      </trkpt>
      <trkpt lat="45.47713" lon="5.94393">
        <ele>788.52844238281</ele>
        <time>2015-08-12T19:24:33.000Z</time>
      </trkpt>
      <trkpt lat="45.47713" lon="5.94406">
        <ele>788.55822753906</ele>
        <time>2015-08-12T19:24:36.000Z</time>
      </trkpt>
      <trkpt lat="45.47716" lon="5.94418">
        <ele>782.87823486328</ele>
        <time>2015-08-12T19:24:39.000Z</time>
      </trkpt>
      <trkpt lat="45.47718" lon="5.94425">
        <ele>779.20098876953</ele>
        <time>2015-08-12T19:24:41.000Z</time>
      </trkpt>
      <trkpt lat="45.47721" lon="5.94433">
        <ele>777.04113769531</ele>
        <time>2015-08-12T19:24:43.000Z</time>
      </trkpt>
      <trkpt lat="45.47725" lon="5.94442">
        <ele>773.02471923828</ele>
        <time>2015-08-12T19:24:45.000Z</time>
      </trkpt>
      <trkpt lat="45.47729" lon="5.94454">
        <ele>771.03887939453</ele>
        <time>2015-08-12T19:24:48.000Z</time>
      </trkpt>
      <trkpt lat="45.47733" lon="5.94466">
        <ele>767.45654296875</ele>
        <time>2015-08-12T19:24:51.000Z</time>
      </trkpt>
      <trkpt lat="45.47734" lon="5.94475">
        <ele>765.70587158203</ele>
        <time>2015-08-12T19:24:53.000Z</time>
      </trkpt>
      <trkpt lat="45.47734" lon="5.94488">
        <ele>763.001953125</ele>
        <time>2015-08-12T19:24:56.000Z</time>
      </trkpt>
      <trkpt lat="45.47736" lon="5.94498">
        <ele>758.80224609375</ele>
        <time>2015-08-12T19:25:02.000Z</time>
      </trkpt>
      <trkpt lat="45.47735" lon="5.945">
        <ele>756.72491455078</ele>
        <time>2015-08-12T19:25:17.000Z</time>
      </trkpt>
      <trkpt lat="45.47736" lon="5.94504">
        <ele>754.99206542969</ele>
        <time>2015-08-12T19:25:19.000Z</time>
      </trkpt>
      <trkpt lat="45.47737" lon="5.94516">
        <ele>754.35577392578</ele>
        <time>2015-08-12T19:25:22.000Z</time>
      </trkpt>
      <trkpt lat="45.47739" lon="5.94525">
        <ele>754.85034179688</ele>
        <time>2015-08-12T19:25:25.000Z</time>
      </trkpt>
      <trkpt lat="45.47741" lon="5.94532">
        <ele>754.67944335938</ele>
        <time>2015-08-12T19:25:27.000Z</time>
      </trkpt>
      <trkpt lat="45.47744" lon="5.94544">
        <ele>752.25616455078</ele>
        <time>2015-08-12T19:25:30.000Z</time>
      </trkpt>
      <trkpt lat="45.47746" lon="5.94552">
        <ele>750.14050292969</ele>
        <time>2015-08-12T19:25:32.000Z</time>
      </trkpt>
      <trkpt lat="45.47747" lon="5.9456">
        <ele>749.68609619141</ele>
        <time>2015-08-12T19:25:34.000Z</time>
      </trkpt>
      <trkpt lat="45.47752" lon="5.94578">
        <ele>748.54223632812</ele>
        <time>2015-08-12T19:25:37.000Z</time>
      </trkpt>
      <trkpt lat="45.47763" lon="5.94602">
        <ele>747.66876220703</ele>
        <time>2015-08-12T19:25:40.000Z</time>
      </trkpt>
      <trkpt lat="45.47768" lon="5.94612">
        <ele>747.58666992188</ele>
        <time>2015-08-12T19:25:43.000Z</time>
      </trkpt>
      <trkpt lat="45.47771" lon="5.94624">
        <ele>749.10479736328</ele>
        <time>2015-08-12T19:25:46.000Z</time>
      </trkpt>
      <trkpt lat="45.47772" lon="5.94626">
        <ele>748.92077636719</ele>
        <time>2015-08-12T19:25:48.000Z</time>
      </trkpt>
      <trkpt lat="45.47774" lon="5.9463">
        <ele>749.13537597656</ele>
        <time>2015-08-12T19:25:50.000Z</time>
      </trkpt>
      <trkpt lat="45.47776" lon="5.94636">
        <ele>749.09729003906</ele>
        <time>2015-08-12T19:25:53.000Z</time>
      </trkpt>
      <trkpt lat="45.47777" lon="5.94641">
        <ele>749.22283935547</ele>
        <time>2015-08-12T19:25:55.000Z</time>
      </trkpt>
      <trkpt lat="45.47778" lon="5.94651">
        <ele>749.49566650391</ele>
        <time>2015-08-12T19:25:58.000Z</time>
      </trkpt>
      <trkpt lat="45.47779" lon="5.94659">
        <ele>748.92303466797</ele>
        <time>2015-08-12T19:26:00.000Z</time>
      </trkpt>
      <trkpt lat="45.47779" lon="5.94672">
        <ele>748.06726074219</ele>
        <time>2015-08-12T19:26:03.000Z</time>
      </trkpt>
      <trkpt lat="45.4778" lon="5.94681">
        <ele>747.23779296875</ele>
        <time>2015-08-12T19:26:05.000Z</time>
      </trkpt>
      <trkpt lat="45.47782" lon="5.94695">
        <ele>744.39227294922</ele>
        <time>2015-08-12T19:26:08.000Z</time>
      </trkpt>
      <trkpt lat="45.47785" lon="5.94709">
        <ele>739.51379394531</ele>
        <time>2015-08-12T19:26:11.000Z</time>
      </trkpt>
      <trkpt lat="45.47785" lon="5.94719">
        <ele>738.93981933594</ele>
        <time>2015-08-12T19:26:13.000Z</time>
      </trkpt>
      <trkpt lat="45.47784" lon="5.94732">
        <ele>739.01538085938</ele>
        <time>2015-08-12T19:26:16.000Z</time>
      </trkpt>
      <trkpt lat="45.47785" lon="5.94741">
        <ele>737.88775634766</ele>
        <time>2015-08-12T19:26:18.000Z</time>
      </trkpt>
      <trkpt lat="45.47787" lon="5.94755">
        <ele>733.62823486328</ele>
        <time>2015-08-12T19:26:21.000Z</time>
      </trkpt>
      <trkpt lat="45.47787" lon="5.94765">
        <ele>732.85174560547</ele>
        <time>2015-08-12T19:26:23.000Z</time>
      </trkpt>
      <trkpt lat="45.4779" lon="5.94778">
        <ele>729.90832519531</ele>
        <time>2015-08-12T19:26:26.000Z</time>
      </trkpt>
      <trkpt lat="45.47795" lon="5.94787">
        <ele>727.64770507812</ele>
        <time>2015-08-12T19:26:29.000Z</time>
      </trkpt>
      <trkpt lat="45.478" lon="5.94797">
        <ele>724.36138916016</ele>
        <time>2015-08-12T19:26:32.000Z</time>
      </trkpt>
      <trkpt lat="45.47802" lon="5.94804">
        <ele>723.62908935547</ele>
        <time>2015-08-12T19:26:34.000Z</time>
      </trkpt>
      <trkpt lat="45.47805" lon="5.94809">
        <ele>722.08099365234</ele>
        <time>2015-08-12T19:26:36.000Z</time>
      </trkpt>
      <trkpt lat="45.47807" lon="5.94812">
        <ele>721.41320800781</ele>
        <time>2015-08-12T19:26:38.000Z</time>
      </trkpt>
      <trkpt lat="45.47807" lon="5.94814">
        <ele>721.84399414062</ele>
        <time>2015-08-12T19:26:46.000Z</time>
      </trkpt>
      <trkpt lat="45.47808" lon="5.94819">
        <ele>722.00189208984</ele>
        <time>2015-08-12T19:26:49.000Z</time>
      </trkpt>
      <trkpt lat="45.47809" lon="5.94823">
        <ele>721.40814208984</ele>
        <time>2015-08-12T19:26:51.000Z</time>
      </trkpt>
      <trkpt lat="45.47815" lon="5.94828">
        <ele>720.37042236328</ele>
        <time>2015-08-12T19:26:54.000Z</time>
      </trkpt>
      <trkpt lat="45.47821" lon="5.94831">
        <ele>719.39617919922</ele>
        <time>2015-08-12T19:26:56.000Z</time>
      </trkpt>
      <trkpt lat="45.47829" lon="5.94841">
        <ele>719.34423828125</ele>
        <time>2015-08-12T19:26:59.000Z</time>
      </trkpt>
      <trkpt lat="45.47834" lon="5.94849">
        <ele>719.51751708984</ele>
        <time>2015-08-12T19:27:01.000Z</time>
      </trkpt>
      <trkpt lat="45.47844" lon="5.94859">
        <ele>718.14379882812</ele>
        <time>2015-08-12T19:27:04.000Z</time>
      </trkpt>
      <trkpt lat="45.47851" lon="5.94866">
        <ele>717.72125244141</ele>
        <time>2015-08-12T19:27:06.000Z</time>
      </trkpt>
      <trkpt lat="45.47859" lon="5.94878">
        <ele>714.98449707031</ele>
        <time>2015-08-12T19:27:09.000Z</time>
      </trkpt>
      <trkpt lat="45.47876" lon="5.94908">
        <ele>712.89770507812</ele>
        <time>2015-08-12T19:27:13.000Z</time>
      </trkpt>
      <trkpt lat="45.47878" lon="5.94925">
        <ele>712.56799316406</ele>
        <time>2015-08-12T19:27:15.000Z</time>
      </trkpt>
      <trkpt lat="45.47879" lon="5.94935">
        <ele>713.80279541016</ele>
        <time>2015-08-12T19:27:17.000Z</time>
      </trkpt>
      <trkpt lat="45.47882" lon="5.94953">
        <ele>714.27471923828</ele>
        <time>2015-08-12T19:27:20.000Z</time>
      </trkpt>
      <trkpt lat="45.47881" lon="5.94968">
        <ele>713.08343505859</ele>
        <time>2015-08-12T19:27:22.000Z</time>
      </trkpt>
      <trkpt lat="45.47878" lon="5.94987">
        <ele>712.34826660156</ele>
        <time>2015-08-12T19:27:25.000Z</time>
      </trkpt>
      <trkpt lat="45.47879" lon="5.95006">
        <ele>711.39587402344</ele>
        <time>2015-08-12T19:27:28.000Z</time>
      </trkpt>
      <trkpt lat="45.47889" lon="5.95023">
        <ele>712.69885253906</ele>
        <time>2015-08-12T19:27:31.000Z</time>
      </trkpt>
      <trkpt lat="45.47897" lon="5.95032">
        <ele>710.92926025391</ele>
        <time>2015-08-12T19:27:33.000Z</time>
      </trkpt>
      <trkpt lat="45.47903" lon="5.95036">
        <ele>710.98852539062</ele>
        <time>2015-08-12T19:27:35.000Z</time>
      </trkpt>
      <trkpt lat="45.47911" lon="5.9504">
        <ele>713.05541992188</ele>
        <time>2015-08-12T19:27:38.000Z</time>
      </trkpt>
      <trkpt lat="45.47919" lon="5.95044">
        <ele>715.63256835938</ele>
        <time>2015-08-12T19:27:41.000Z</time>
      </trkpt>
      <trkpt lat="45.47923" lon="5.95043">
        <ele>716.51452636719</ele>
        <time>2015-08-12T19:27:44.000Z</time>
      </trkpt>
      <trkpt lat="45.47926" lon="5.95041">
        <ele>717.08044433594</ele>
        <time>2015-08-12T19:27:46.000Z</time>
      </trkpt>
      <trkpt lat="45.4793" lon="5.95037">
        <ele>717.99395751953</ele>
        <time>2015-08-12T19:27:51.000Z</time>
      </trkpt>
      <trkpt lat="45.4793" lon="5.95037">
        <ele>688.48480224609</ele>
        <time>2015-08-12T19:28:11.000Z</time>
      </trkpt>
      <trkpt lat="45.47932" lon="5.95037">
        <ele>716.69311523438</ele>
        <time>2015-08-12T19:28:17.000Z</time>
      </trkpt>
      <trkpt lat="45.47934" lon="5.95033">
        <ele>714.46063232422</ele>
        <time>2015-08-12T19:28:20.000Z</time>
      </trkpt>
      <trkpt lat="45.47935" lon="5.95029">
        <ele>713.89105224609</ele>
        <time>2015-08-12T19:28:22.000Z</time>
      </trkpt>
      <trkpt lat="45.47934" lon="5.95023">
        <ele>711.95831298828</ele>
        <time>2015-08-12T19:28:24.000Z</time>
      </trkpt>
      <trkpt lat="45.47935" lon="5.95017">
        <ele>711.31213378906</ele>
        <time>2015-08-12T19:28:28.000Z</time>
      </trkpt>
      <trkpt lat="45.47937" lon="5.95017">
        <ele>709.38830566406</ele>
        <time>2015-08-12T19:28:34.000Z</time>
      </trkpt>
      <trkpt lat="45.47938" lon="5.95016">
        <ele>707.54040527344</ele>
        <time>2015-08-12T19:28:38.000Z</time>
      </trkpt>
      <trkpt lat="45.4794" lon="5.9501">
        <ele>703.66754150391</ele>
        <time>2015-08-12T19:28:41.000Z</time>
      </trkpt>
      <trkpt lat="45.47942" lon="5.95002">
        <ele>701.80822753906</ele>
        <time>2015-08-12T19:28:43.000Z</time>
      </trkpt>
      <trkpt lat="45.47944" lon="5.94993">
        <ele>700.28057861328</ele>
        <time>2015-08-12T19:28:45.000Z</time>
      </trkpt>
      <trkpt lat="45.47947" lon="5.94982">
        <ele>698.26556396484</ele>
        <time>2015-08-12T19:28:48.000Z</time>
      </trkpt>
      <trkpt lat="45.47948" lon="5.94973">
        <ele>696.71051025391</ele>
        <time>2015-08-12T19:28:50.000Z</time>
      </trkpt>
      <trkpt lat="45.47951" lon="5.94964">
        <ele>694.14996337891</ele>
        <time>2015-08-12T19:28:53.000Z</time>
      </trkpt>
      <trkpt lat="45.4796" lon="5.94958">
        <ele>689.95648193359</ele>
        <time>2015-08-12T19:28:56.000Z</time>
      </trkpt>
      <trkpt lat="45.47969" lon="5.94938">
        <ele>686.36596679688</ele>
        <time>2015-08-12T19:28:59.000Z</time>
      </trkpt>
      <trkpt lat="45.47971" lon="5.94921">
        <ele>688.67742919922</ele>
        <time>2015-08-12T19:29:02.000Z</time>
      </trkpt>
      <trkpt lat="45.4797" lon="5.94912">
        <ele>690.01397705078</ele>
        <time>2015-08-12T19:29:04.000Z</time>
      </trkpt>
      <trkpt lat="45.47972" lon="5.94894">
        <ele>687.30303955078</ele>
        <time>2015-08-12T19:29:07.000Z</time>
      </trkpt>
      <trkpt lat="45.47975" lon="5.94881">
        <ele>684.17797851562</ele>
        <time>2015-08-12T19:29:09.000Z</time>
      </trkpt>
      <trkpt lat="45.4798" lon="5.94869">
        <ele>681.54425048828</ele>
        <time>2015-08-12T19:29:11.000Z</time>
      </trkpt>
      <trkpt lat="45.47988" lon="5.9486">
        <ele>679.21185302734</ele>
        <time>2015-08-12T19:29:14.000Z</time>
      </trkpt>
      <trkpt lat="45.47998" lon="5.94847">
        <ele>678.01214599609</ele>
        <time>2015-08-12T19:29:17.000Z</time>
      </trkpt>
      <trkpt lat="45.48007" lon="5.94821">
        <ele>677.14764404297</ele>
        <time>2015-08-12T19:29:20.000Z</time>
      </trkpt>
      <trkpt lat="45.48014" lon="5.94809">
        <ele>677.39642333984</ele>
        <time>2015-08-12T19:29:22.000Z</time>
      </trkpt>
      <trkpt lat="45.4803" lon="5.94796">
        <ele>674.85491943359</ele>
        <time>2015-08-12T19:29:25.000Z</time>
      </trkpt>
      <trkpt lat="45.48042" lon="5.94791">
        <ele>673.99749755859</ele>
        <time>2015-08-12T19:29:28.000Z</time>
      </trkpt>
      <trkpt lat="45.4805" lon="5.94791">
        <ele>672.73974609375</ele>
        <time>2015-08-12T19:29:30.000Z</time>
      </trkpt>
      <trkpt lat="45.48051" lon="5.94791">
        <ele>673.19671630859</ele>
        <time>2015-08-12T19:29:33.000Z</time>
      </trkpt>
      <trkpt lat="45.48051" lon="5.9479">
        <ele>672.73547363281</ele>
        <time>2015-08-12T19:29:39.000Z</time>
      </trkpt>
      <trkpt lat="45.48051" lon="5.9479">
        <ele>665.76232910156</ele>
        <time>2015-08-12T19:29:59.000Z</time>
      </trkpt>
      <trkpt lat="45.48052" lon="5.94788">
        <ele>671.20904541016</ele>
        <time>2015-08-12T19:30:25.000Z</time>
      </trkpt>
      <trkpt lat="45.48053" lon="5.94786">
        <ele>669.26983642578</ele>
        <time>2015-08-12T19:30:34.000Z</time>
      </trkpt>
      <trkpt lat="45.48053" lon="5.94786">
        <ele>665.68548583984</ele>
        <time>2015-08-12T19:30:54.000Z</time>
      </trkpt>
      <trkpt lat="45.48053" lon="5.94788">
        <ele>669.18127441406</ele>
        <time>2015-08-12T19:32:25.000Z</time>
      </trkpt>
      <trkpt lat="45.48053" lon="5.94794">
        <ele>669.72265625</ele>
        <time>2015-08-12T19:32:27.000Z</time>
      </trkpt>
      <trkpt lat="45.48054" lon="5.94809">
        <ele>668.70190429688</ele>
        <time>2015-08-12T19:32:30.000Z</time>
      </trkpt>
      <trkpt lat="45.4806" lon="5.94827">
        <ele>663.54638671875</ele>
        <time>2015-08-12T19:32:33.000Z</time>
      </trkpt>
      <trkpt lat="45.48067" lon="5.94842">
        <ele>664.22985839844</ele>
        <time>2015-08-12T19:32:36.000Z</time>
      </trkpt>
      <trkpt lat="45.48072" lon="5.94847">
        <ele>665.55303955078</ele>
        <time>2015-08-12T19:32:38.000Z</time>
      </trkpt>
      <trkpt lat="45.48075" lon="5.94851">
        <ele>667.72186279297</ele>
        <time>2015-08-12T19:32:40.000Z</time>
      </trkpt>
      <trkpt lat="45.48077" lon="5.94861">
        <ele>668.92706298828</ele>
        <time>2015-08-12T19:32:43.000Z</time>
      </trkpt>
      <trkpt lat="45.48078" lon="5.94871">
        <ele>673.11846923828</ele>
        <time>2015-08-12T19:32:46.000Z</time>
      </trkpt>
      <trkpt lat="45.48076" lon="5.94879">
        <ele>674.68273925781</ele>
        <time>2015-08-12T19:32:49.000Z</time>
      </trkpt>
      <trkpt lat="45.48077" lon="5.94885">
        <ele>674.95294189453</ele>
        <time>2015-08-12T19:32:51.000Z</time>
      </trkpt>
      <trkpt lat="45.48083" lon="5.94895">
        <ele>672.81860351562</ele>
        <time>2015-08-12T19:32:54.000Z</time>
      </trkpt>
      <trkpt lat="45.48087" lon="5.94905">
        <ele>670.79779052734</ele>
        <time>2015-08-12T19:32:56.000Z</time>
      </trkpt>
      <trkpt lat="45.48092" lon="5.9492">
        <ele>671.59497070312</ele>
        <time>2015-08-12T19:32:59.000Z</time>
      </trkpt>
      <trkpt lat="45.48094" lon="5.9493">
        <ele>673.00714111328</ele>
        <time>2015-08-12T19:33:02.000Z</time>
      </trkpt>
      <trkpt lat="45.48094" lon="5.94937">
        <ele>675.34478759766</ele>
        <time>2015-08-12T19:33:05.000Z</time>
      </trkpt>
      <trkpt lat="45.48095" lon="5.94941">
        <ele>675.97088623047</ele>
        <time>2015-08-12T19:33:07.000Z</time>
      </trkpt>
      <trkpt lat="45.48096" lon="5.9495">
        <ele>677.82604980469</ele>
        <time>2015-08-12T19:33:10.000Z</time>
      </trkpt>
      <trkpt lat="45.48098" lon="5.94955">
        <ele>677.84405517578</ele>
        <time>2015-08-12T19:33:12.000Z</time>
      </trkpt>
      <trkpt lat="45.481" lon="5.94964">
        <ele>679.96960449219</ele>
        <time>2015-08-12T19:33:15.000Z</time>
      </trkpt>
      <trkpt lat="45.48102" lon="5.94969">
        <ele>682.23260498047</ele>
        <time>2015-08-12T19:33:17.000Z</time>
      </trkpt>
      <trkpt lat="45.48103" lon="5.94978">
        <ele>684.7099609375</ele>
        <time>2015-08-12T19:33:20.000Z</time>
      </trkpt>
      <trkpt lat="45.48104" lon="5.94989">
        <ele>685.14605712891</ele>
        <time>2015-08-12T19:33:23.000Z</time>
      </trkpt>
      <trkpt lat="45.48106" lon="5.94996">
        <ele>684.59301757812</ele>
        <time>2015-08-12T19:33:25.000Z</time>
      </trkpt>
      <trkpt lat="45.48108" lon="5.95005">
        <ele>683.52270507812</ele>
        <time>2015-08-12T19:33:28.000Z</time>
      </trkpt>
      <trkpt lat="45.48109" lon="5.95008">
        <ele>682.01245117188</ele>
        <time>2015-08-12T19:33:31.000Z</time>
      </trkpt>
      <trkpt lat="45.4811" lon="5.9501">
        <ele>681.83013916016</ele>
        <time>2015-08-12T19:33:37.000Z</time>
      </trkpt>
      <trkpt lat="45.48112" lon="5.95017">
        <ele>680.02557373047</ele>
        <time>2015-08-12T19:33:40.000Z</time>
      </trkpt>
      <trkpt lat="45.48117" lon="5.95031">
        <ele>677.38055419922</ele>
        <time>2015-08-12T19:33:43.000Z</time>
      </trkpt>
      <trkpt lat="45.48123" lon="5.95043">
        <ele>674.55377197266</ele>
        <time>2015-08-12T19:33:45.000Z</time>
      </trkpt>
      <trkpt lat="45.48132" lon="5.95059">
        <ele>669.32604980469</ele>
        <time>2015-08-12T19:33:48.000Z</time>
      </trkpt>
      <trkpt lat="45.48134" lon="5.95072">
        <ele>667.52917480469</ele>
        <time>2015-08-12T19:33:50.000Z</time>
      </trkpt>
      <trkpt lat="45.48135" lon="5.951">
        <ele>663.77404785156</ele>
        <time>2015-08-12T19:33:53.000Z</time>
      </trkpt>
      <trkpt lat="45.48133" lon="5.95121">
        <ele>657.55822753906</ele>
        <time>2015-08-12T19:33:56.000Z</time>
      </trkpt>
      <trkpt lat="45.48131" lon="5.95134">
        <ele>653.90515136719</ele>
        <time>2015-08-12T19:33:58.000Z</time>
      </trkpt>
      <trkpt lat="45.48129" lon="5.95139">
        <ele>652.17706298828</ele>
        <time>2015-08-12T19:34:00.000Z</time>
      </trkpt>
      <trkpt lat="45.48129" lon="5.95141">
        <ele>651.728515625</ele>
        <time>2015-08-12T19:34:04.000Z</time>
      </trkpt>
      <trkpt lat="45.48129" lon="5.95143">
        <ele>651.04724121094</ele>
        <time>2015-08-12T19:34:18.000Z</time>
      </trkpt>
      <trkpt lat="45.48127" lon="5.95146">
        <ele>651.35986328125</ele>
        <time>2015-08-12T19:34:20.000Z</time>
      </trkpt>
      <trkpt lat="45.48122" lon="5.95156">
        <ele>650.70141601562</ele>
        <time>2015-08-12T19:34:23.000Z</time>
      </trkpt>
      <trkpt lat="45.48115" lon="5.9517">
        <ele>650.91522216797</ele>
        <time>2015-08-12T19:34:26.000Z</time>
      </trkpt>
      <trkpt lat="45.48114" lon="5.95185">
        <ele>651.81555175781</ele>
        <time>2015-08-12T19:34:29.000Z</time>
      </trkpt>
      <trkpt lat="45.48118" lon="5.95192">
        <ele>652.25213623047</ele>
        <time>2015-08-12T19:34:31.000Z</time>
      </trkpt>
      <trkpt lat="45.4812" lon="5.952">
        <ele>651.79412841797</ele>
        <time>2015-08-12T19:34:33.000Z</time>
      </trkpt>
      <trkpt lat="45.4812" lon="5.95213">
        <ele>650.42712402344</ele>
        <time>2015-08-12T19:34:36.000Z</time>
      </trkpt>
      <trkpt lat="45.4812" lon="5.95222">
        <ele>648.59820556641</ele>
        <time>2015-08-12T19:34:38.000Z</time>
      </trkpt>
      <trkpt lat="45.48123" lon="5.95239">
        <ele>645.38165283203</ele>
        <time>2015-08-12T19:34:41.000Z</time>
      </trkpt>
      <trkpt lat="45.48124" lon="5.95252">
        <ele>645.29974365234</ele>
        <time>2015-08-12T19:34:43.000Z</time>
      </trkpt>
      <trkpt lat="45.48124" lon="5.95263">
        <ele>645.41552734375</ele>
        <time>2015-08-12T19:34:45.000Z</time>
      </trkpt>
      <trkpt lat="45.48129" lon="5.95269">
        <ele>647.03625488281</ele>
        <time>2015-08-12T19:34:48.000Z</time>
      </trkpt>
      <trkpt lat="45.48132" lon="5.95272">
        <ele>646.41351318359</ele>
        <time>2015-08-12T19:35:05.000Z</time>
      </trkpt>
      <trkpt lat="45.48132" lon="5.95275">
        <ele>645.85491943359</ele>
        <time>2015-08-12T19:35:10.000Z</time>
      </trkpt>
      <trkpt lat="45.4813" lon="5.95279">
        <ele>644.30053710938</ele>
        <time>2015-08-12T19:35:13.000Z</time>
      </trkpt>
      <trkpt lat="45.48125" lon="5.95285">
        <ele>644.12292480469</ele>
        <time>2015-08-12T19:35:16.000Z</time>
      </trkpt>
      <trkpt lat="45.48121" lon="5.9529">
        <ele>644.40753173828</ele>
        <time>2015-08-12T19:35:18.000Z</time>
      </trkpt>
      <trkpt lat="45.48114" lon="5.95298">
        <ele>645.31207275391</ele>
        <time>2015-08-12T19:35:21.000Z</time>
      </trkpt>
      <trkpt lat="45.48104" lon="5.95309">
        <ele>641.70989990234</ele>
        <time>2015-08-12T19:35:24.000Z</time>
      </trkpt>
      <trkpt lat="45.48087" lon="5.95341">
        <ele>642.56799316406</ele>
        <time>2015-08-12T19:35:28.000Z</time>
      </trkpt>
      <trkpt lat="45.48081" lon="5.95348">
        <ele>644.46966552734</ele>
        <time>2015-08-12T19:35:30.000Z</time>
      </trkpt>
      <trkpt lat="45.48076" lon="5.95354">
        <ele>643.70281982422</ele>
        <time>2015-08-12T19:35:32.000Z</time>
      </trkpt>
      <trkpt lat="45.48062" lon="5.95363">
        <ele>644.80267333984</ele>
        <time>2015-08-12T19:35:35.000Z</time>
      </trkpt>
      <trkpt lat="45.48051" lon="5.95368">
        <ele>640.29656982422</ele>
        <time>2015-08-12T19:35:38.000Z</time>
      </trkpt>
      <trkpt lat="45.48042" lon="5.9537">
        <ele>636.96282958984</ele>
        <time>2015-08-12T19:35:41.000Z</time>
      </trkpt>
      <trkpt lat="45.48039" lon="5.95375">
        <ele>638.06909179688</ele>
        <time>2015-08-12T19:35:43.000Z</time>
      </trkpt>
      <trkpt lat="45.48039" lon="5.95386">
        <ele>636.767578125</ele>
        <time>2015-08-12T19:35:46.000Z</time>
      </trkpt>
      <trkpt lat="45.48042" lon="5.95398">
        <ele>636.35784912109</ele>
        <time>2015-08-12T19:35:49.000Z</time>
      </trkpt>
      <trkpt lat="45.48045" lon="5.95406">
        <ele>635.37884521484</ele>
        <time>2015-08-12T19:35:51.000Z</time>
      </trkpt>
      <trkpt lat="45.4805" lon="5.95409">
        <ele>637.50756835938</ele>
        <time>2015-08-12T19:35:54.000Z</time>
      </trkpt>
      <trkpt lat="45.48053" lon="5.95408">
        <ele>637.01776123047</ele>
        <time>2015-08-12T19:35:57.000Z</time>
      </trkpt>
      <trkpt lat="45.48057" lon="5.95406">
        <ele>636.40795898438</ele>
        <time>2015-08-12T19:36:00.000Z</time>
      </trkpt>
      <trkpt lat="45.48061" lon="5.95404">
        <ele>636.59381103516</ele>
        <time>2015-08-12T19:36:03.000Z</time>
      </trkpt>
      <trkpt lat="45.48065" lon="5.95404">
        <ele>636.76947021484</ele>
        <time>2015-08-12T19:36:06.000Z</time>
      </trkpt>
      <trkpt lat="45.48069" lon="5.95403">
        <ele>634.94989013672</ele>
        <time>2015-08-12T19:36:08.000Z</time>
      </trkpt>
      <trkpt lat="45.48074" lon="5.95402">
        <ele>634.32043457031</ele>
        <time>2015-08-12T19:36:10.000Z</time>
      </trkpt>
      <trkpt lat="45.48081" lon="5.95402">
        <ele>631.85882568359</ele>
        <time>2015-08-12T19:36:13.000Z</time>
      </trkpt>
      <trkpt lat="45.48088" lon="5.954">
        <ele>632.09100341797</ele>
        <time>2015-08-12T19:36:16.000Z</time>
      </trkpt>
      <trkpt lat="45.48093" lon="5.95398">
        <ele>630.87524414062</ele>
        <time>2015-08-12T19:36:18.000Z</time>
      </trkpt>
      <trkpt lat="45.48102" lon="5.95393">
        <ele>632.45910644531</ele>
        <time>2015-08-12T19:36:21.000Z</time>
      </trkpt>
      <trkpt lat="45.4811" lon="5.9539">
        <ele>631.80578613281</ele>
        <time>2015-08-12T19:36:23.000Z</time>
      </trkpt>
      <trkpt lat="45.48122" lon="5.95386">
        <ele>631.89154052734</ele>
        <time>2015-08-12T19:36:26.000Z</time>
      </trkpt>
      <trkpt lat="45.48129" lon="5.95384">
        <ele>633.08575439453</ele>
        <time>2015-08-12T19:36:28.000Z</time>
      </trkpt>
      <trkpt lat="45.48138" lon="5.95382">
        <ele>634.64508056641</ele>
        <time>2015-08-12T19:36:31.000Z</time>
      </trkpt>
      <trkpt lat="45.48147" lon="5.95379">
        <ele>633.94848632812</ele>
        <time>2015-08-12T19:36:34.000Z</time>
      </trkpt>
      <trkpt lat="45.48156" lon="5.95375">
        <ele>631.30609130859</ele>
        <time>2015-08-12T19:36:37.000Z</time>
      </trkpt>
      <trkpt lat="45.48166" lon="5.9537">
        <ele>627.46185302734</ele>
        <time>2015-08-12T19:36:40.000Z</time>
      </trkpt>
      <trkpt lat="45.48173" lon="5.95369">
        <ele>627.22766113281</ele>
        <time>2015-08-12T19:36:42.000Z</time>
      </trkpt>
      <trkpt lat="45.4818" lon="5.95369">
        <ele>628.55047607422</ele>
        <time>2015-08-12T19:36:44.000Z</time>
      </trkpt>
      <trkpt lat="45.48188" lon="5.95369">
        <ele>626.4677734375</ele>
        <time>2015-08-12T19:36:46.000Z</time>
      </trkpt>
      <trkpt lat="45.48208" lon="5.95367">
        <ele>625.17962646484</ele>
        <time>2015-08-12T19:36:49.000Z</time>
      </trkpt>
      <trkpt lat="45.48217" lon="5.95368">
        <ele>625.17828369141</ele>
        <time>2015-08-12T19:36:51.000Z</time>
      </trkpt>
      <trkpt lat="45.4822" lon="5.95368">
        <ele>624.04211425781</ele>
        <time>2015-08-12T19:36:54.000Z</time>
      </trkpt>
      <trkpt lat="45.48222" lon="5.95369">
        <ele>622.92962646484</ele>
        <time>2015-08-12T19:36:58.000Z</time>
      </trkpt>
      <trkpt lat="45.48227" lon="5.95369">
        <ele>621.77685546875</ele>
        <time>2015-08-12T19:37:00.000Z</time>
      </trkpt>
      <trkpt lat="45.48235" lon="5.95371">
        <ele>621.7255859375</ele>
        <time>2015-08-12T19:37:03.000Z</time>
      </trkpt>
      <trkpt lat="45.48247" lon="5.95377">
        <ele>622.65924072266</ele>
        <time>2015-08-12T19:37:06.000Z</time>
      </trkpt>
      <trkpt lat="45.48258" lon="5.95388">
        <ele>621.89318847656</ele>
        <time>2015-08-12T19:37:08.000Z</time>
      </trkpt>
      <trkpt lat="45.48269" lon="5.95398">
        <ele>618.181640625</ele>
        <time>2015-08-12T19:37:10.000Z</time>
      </trkpt>
      <trkpt lat="45.48285" lon="5.95415">
        <ele>618.20483398438</ele>
        <time>2015-08-12T19:37:13.000Z</time>
      </trkpt>
      <trkpt lat="45.48297" lon="5.95428">
        <ele>619.44122314453</ele>
        <time>2015-08-12T19:37:16.000Z</time>
      </trkpt>
      <trkpt lat="45.4831" lon="5.9544">
        <ele>617.60015869141</ele>
        <time>2015-08-12T19:37:19.000Z</time>
      </trkpt>
      <trkpt lat="45.48325" lon="5.95446">
        <ele>615.55102539062</ele>
        <time>2015-08-12T19:37:22.000Z</time>
      </trkpt>
      <trkpt lat="45.48337" lon="5.95449">
        <ele>614.69024658203</ele>
        <time>2015-08-12T19:37:24.000Z</time>
      </trkpt>
      <trkpt lat="45.48357" lon="5.95454">
        <ele>610.68688964844</ele>
        <time>2015-08-12T19:37:27.000Z</time>
      </trkpt>
      <trkpt lat="45.48373" lon="5.95457">
        <ele>607.65148925781</ele>
        <time>2015-08-12T19:37:30.000Z</time>
      </trkpt>
      <trkpt lat="45.48386" lon="5.95454">
        <ele>604.49780273438</ele>
        <time>2015-08-12T19:37:32.000Z</time>
      </trkpt>
      <trkpt lat="45.48396" lon="5.95449">
        <ele>603.06793212891</ele>
        <time>2015-08-12T19:37:35.000Z</time>
      </trkpt>
      <trkpt lat="45.48401" lon="5.95448">
        <ele>603.29815673828</ele>
        <time>2015-08-12T19:37:37.000Z</time>
      </trkpt>
      <trkpt lat="45.48412" lon="5.95443">
        <ele>598.86083984375</ele>
        <time>2015-08-12T19:37:40.000Z</time>
      </trkpt>
      <trkpt lat="45.48426" lon="5.95437">
        <ele>597.458984375</ele>
        <time>2015-08-12T19:37:43.000Z</time>
      </trkpt>
      <trkpt lat="45.48437" lon="5.95433">
        <ele>595.44458007812</ele>
        <time>2015-08-12T19:37:45.000Z</time>
      </trkpt>
      <trkpt lat="45.48449" lon="5.95428">
        <ele>597.12200927734</ele>
        <time>2015-08-12T19:37:48.000Z</time>
      </trkpt>
      <trkpt lat="45.48455" lon="5.95427">
        <ele>596.71441650391</ele>
        <time>2015-08-12T19:37:51.000Z</time>
      </trkpt>
      <trkpt lat="45.48458" lon="5.95427">
        <ele>595.10980224609</ele>
        <time>2015-08-12T19:37:55.000Z</time>
      </trkpt>
      <trkpt lat="45.4846" lon="5.95426">
        <ele>593.16583251953</ele>
        <time>2015-08-12T19:37:58.000Z</time>
      </trkpt>
      <trkpt lat="45.48461" lon="5.95426">
        <ele>593.87817382812</ele>
        <time>2015-08-12T19:38:13.000Z</time>
      </trkpt>
      <trkpt lat="45.48463" lon="5.95428">
        <ele>593.16088867188</ele>
        <time>2015-08-12T19:38:16.000Z</time>
      </trkpt>
      <trkpt lat="45.48465" lon="5.95432">
        <ele>591.51824951172</ele>
        <time>2015-08-12T19:38:18.000Z</time>
      </trkpt>
      <trkpt lat="45.48468" lon="5.95435">
        <ele>590.82568359375</ele>
        <time>2015-08-12T19:38:21.000Z</time>
      </trkpt>
      <trkpt lat="45.4847" lon="5.95435">
        <ele>590.24462890625</ele>
        <time>2015-08-12T19:38:28.000Z</time>
      </trkpt>
      <trkpt lat="45.4847" lon="5.95437">
        <ele>590.4091796875</ele>
        <time>2015-08-12T19:38:31.000Z</time>
      </trkpt>
      <trkpt lat="45.48471" lon="5.9544">
        <ele>589.99523925781</ele>
        <time>2015-08-12T19:38:33.000Z</time>
      </trkpt>
      <trkpt lat="45.48472" lon="5.95442">
        <ele>588.61273193359</ele>
        <time>2015-08-12T19:38:37.000Z</time>
      </trkpt>
      <trkpt lat="45.48474" lon="5.95444">
        <ele>586.53503417969</ele>
        <time>2015-08-12T19:38:39.000Z</time>
      </trkpt>
      <trkpt lat="45.48475" lon="5.95446">
        <ele>585.48785400391</ele>
        <time>2015-08-12T19:38:41.000Z</time>
      </trkpt>
      <trkpt lat="45.48476" lon="5.95451">
        <ele>584.45233154297</ele>
        <time>2015-08-12T19:38:44.000Z</time>
      </trkpt>
      <trkpt lat="45.48476" lon="5.95459">
        <ele>585.64642333984</ele>
        <time>2015-08-12T19:38:47.000Z</time>
      </trkpt>
      <trkpt lat="45.48476" lon="5.95467">
        <ele>586.10601806641</ele>
        <time>2015-08-12T19:38:49.000Z</time>
      </trkpt>
      <trkpt lat="45.48474" lon="5.95477">
        <ele>585.31604003906</ele>
        <time>2015-08-12T19:38:52.000Z</time>
      </trkpt>
      <trkpt lat="45.48472" lon="5.95487">
        <ele>585.00598144531</ele>
        <time>2015-08-12T19:38:54.000Z</time>
      </trkpt>
      <trkpt lat="45.48468" lon="5.95497">
        <ele>585.78961181641</ele>
        <time>2015-08-12T19:38:57.000Z</time>
      </trkpt>
      <trkpt lat="45.48461" lon="5.95504">
        <ele>583.61834716797</ele>
        <time>2015-08-12T19:39:00.000Z</time>
      </trkpt>
      <trkpt lat="45.48455" lon="5.95512">
        <ele>583.591796875</ele>
        <time>2015-08-12T19:39:03.000Z</time>
      </trkpt>
      <trkpt lat="45.48452" lon="5.95518">
        <ele>583.13336181641</ele>
        <time>2015-08-12T19:39:05.000Z</time>
      </trkpt>
      <trkpt lat="45.48447" lon="5.95526">
        <ele>578.63970947266</ele>
        <time>2015-08-12T19:39:08.000Z</time>
      </trkpt>
      <trkpt lat="45.4844" lon="5.95531">
        <ele>575.30377197266</ele>
        <time>2015-08-12T19:39:11.000Z</time>
      </trkpt>
      <trkpt lat="45.48435" lon="5.95541">
        <ele>572.99890136719</ele>
        <time>2015-08-12T19:39:14.000Z</time>
      </trkpt>
      <trkpt lat="45.48433" lon="5.95549">
        <ele>571.80731201172</ele>
        <time>2015-08-12T19:39:16.000Z</time>
      </trkpt>
      <trkpt lat="45.48434" lon="5.9556">
        <ele>569.44415283203</ele>
        <time>2015-08-12T19:39:19.000Z</time>
      </trkpt>
      <trkpt lat="45.48433" lon="5.95569">
        <ele>569.24475097656</ele>
        <time>2015-08-12T19:39:22.000Z</time>
      </trkpt>
      <trkpt lat="45.48431" lon="5.95581">
        <ele>568.43035888672</ele>
        <time>2015-08-12T19:39:25.000Z</time>
      </trkpt>
      <trkpt lat="45.48426" lon="5.95589">
        <ele>568.05230712891</ele>
        <time>2015-08-12T19:39:27.000Z</time>
      </trkpt>
      <trkpt lat="45.4842" lon="5.95598">
        <ele>565.35260009766</ele>
        <time>2015-08-12T19:39:30.000Z</time>
      </trkpt>
      <trkpt lat="45.48413" lon="5.95609">
        <ele>562.92010498047</ele>
        <time>2015-08-12T19:39:33.000Z</time>
      </trkpt>
      <trkpt lat="45.4841" lon="5.95619">
        <ele>561.56323242188</ele>
        <time>2015-08-12T19:39:35.000Z</time>
      </trkpt>
      <trkpt lat="45.48407" lon="5.95634">
        <ele>556.40246582031</ele>
        <time>2015-08-12T19:39:38.000Z</time>
      </trkpt>
      <trkpt lat="45.48407" lon="5.95644">
        <ele>556.27606201172</ele>
        <time>2015-08-12T19:39:40.000Z</time>
      </trkpt>
      <trkpt lat="45.48406" lon="5.95653">
        <ele>556.28991699219</ele>
        <time>2015-08-12T19:39:42.000Z</time>
      </trkpt>
      <trkpt lat="45.48404" lon="5.95665">
        <ele>553.54321289062</ele>
        <time>2015-08-12T19:39:45.000Z</time>
      </trkpt>
      <trkpt lat="45.48401" lon="5.95671">
        <ele>550.69177246094</ele>
        <time>2015-08-12T19:39:48.000Z</time>
      </trkpt>
      <trkpt lat="45.48396" lon="5.95682">
        <ele>546.6328125</ele>
        <time>2015-08-12T19:39:51.000Z</time>
      </trkpt>
      <trkpt lat="45.48394" lon="5.95691">
        <ele>545.47839355469</ele>
        <time>2015-08-12T19:39:53.000Z</time>
      </trkpt>
      <trkpt lat="45.48392" lon="5.95699">
        <ele>544.18310546875</ele>
        <time>2015-08-12T19:39:55.000Z</time>
      </trkpt>
      <trkpt lat="45.48389" lon="5.95709">
        <ele>541.18768310547</ele>
        <time>2015-08-12T19:39:58.000Z</time>
      </trkpt>
      <trkpt lat="45.48388" lon="5.95719">
        <ele>540.05560302734</ele>
        <time>2015-08-12T19:40:01.000Z</time>
      </trkpt>
      <trkpt lat="45.4839" lon="5.95725">
        <ele>537.56195068359</ele>
        <time>2015-08-12T19:40:03.000Z</time>
      </trkpt>
      <trkpt lat="45.48391" lon="5.95731">
        <ele>536.23022460938</ele>
        <time>2015-08-12T19:40:05.000Z</time>
      </trkpt>
      <trkpt lat="45.48391" lon="5.95738">
        <ele>536.36566162109</ele>
        <time>2015-08-12T19:40:07.000Z</time>
      </trkpt>
      <trkpt lat="45.48395" lon="5.95747">
        <ele>535.74945068359</ele>
        <time>2015-08-12T19:40:10.000Z</time>
      </trkpt>
      <trkpt lat="45.48398" lon="5.95755">
        <ele>534.9453125</ele>
        <time>2015-08-12T19:40:12.000Z</time>
      </trkpt>
      <trkpt lat="45.48404" lon="5.95771">
        <ele>536.44995117188</ele>
        <time>2015-08-12T19:40:15.000Z</time>
      </trkpt>
      <trkpt lat="45.48406" lon="5.95781">
        <ele>535.91461181641</ele>
        <time>2015-08-12T19:40:17.000Z</time>
      </trkpt>
      <trkpt lat="45.48406" lon="5.95796">
        <ele>533.98028564453</ele>
        <time>2015-08-12T19:40:20.000Z</time>
      </trkpt>
      <trkpt lat="45.48405" lon="5.9581">
        <ele>534.77838134766</ele>
        <time>2015-08-12T19:40:23.000Z</time>
      </trkpt>
      <trkpt lat="45.48403" lon="5.95819">
        <ele>534.62652587891</ele>
        <time>2015-08-12T19:40:25.000Z</time>
      </trkpt>
      <trkpt lat="45.484" lon="5.95833">
        <ele>535.25500488281</ele>
        <time>2015-08-12T19:40:28.000Z</time>
      </trkpt>
      <trkpt lat="45.48398" lon="5.95848">
        <ele>537.73547363281</ele>
        <time>2015-08-12T19:40:31.000Z</time>
      </trkpt>
      <trkpt lat="45.48397" lon="5.95859">
        <ele>539.20751953125</ele>
        <time>2015-08-12T19:40:34.000Z</time>
      </trkpt>
      <trkpt lat="45.48395" lon="5.95868">
        <ele>539.46954345703</ele>
        <time>2015-08-12T19:40:37.000Z</time>
      </trkpt>
      <trkpt lat="45.48393" lon="5.95878">
        <ele>536.34765625</ele>
        <time>2015-08-12T19:40:40.000Z</time>
      </trkpt>
      <trkpt lat="45.48389" lon="5.95889">
        <ele>532.4140625</ele>
        <time>2015-08-12T19:40:43.000Z</time>
      </trkpt>
      <trkpt lat="45.48386" lon="5.95896">
        <ele>531.98889160156</ele>
        <time>2015-08-12T19:40:46.000Z</time>
      </trkpt>
      <trkpt lat="45.48383" lon="5.95903">
        <ele>534.34075927734</ele>
        <time>2015-08-12T19:40:49.000Z</time>
      </trkpt>
      <trkpt lat="45.4838" lon="5.9591">
        <ele>535.51196289062</ele>
        <time>2015-08-12T19:40:52.000Z</time>
      </trkpt>
      <trkpt lat="45.48378" lon="5.95916">
        <ele>535.72320556641</ele>
        <time>2015-08-12T19:40:54.000Z</time>
      </trkpt>
      <trkpt lat="45.48375" lon="5.95925">
        <ele>534.59307861328</ele>
        <time>2015-08-12T19:40:57.000Z</time>
      </trkpt>
      <trkpt lat="45.48372" lon="5.95933">
        <ele>533.46203613281</ele>
        <time>2015-08-12T19:41:00.000Z</time>
      </trkpt>
      <trkpt lat="45.4837" lon="5.9594">
        <ele>531.99517822266</ele>
        <time>2015-08-12T19:41:02.000Z</time>
      </trkpt>
      <trkpt lat="45.48366" lon="5.95956">
        <ele>530.58715820312</ele>
        <time>2015-08-12T19:41:05.000Z</time>
      </trkpt>
      <trkpt lat="45.48362" lon="5.95971">
        <ele>530.791015625</ele>
        <time>2015-08-12T19:41:08.000Z</time>
      </trkpt>
      <trkpt lat="45.48362" lon="5.95985">
        <ele>531.83093261719</ele>
        <time>2015-08-12T19:41:11.000Z</time>
      </trkpt>
      <trkpt lat="45.48365" lon="5.95998">
        <ele>530.36755371094</ele>
        <time>2015-08-12T19:41:13.000Z</time>
      </trkpt>
      <trkpt lat="45.48369" lon="5.96022">
        <ele>532.10565185547</ele>
        <time>2015-08-12T19:41:16.000Z</time>
      </trkpt>
      <trkpt lat="45.48369" lon="5.96028">
        <ele>534.58013916016</ele>
        <time>2015-08-12T19:41:19.000Z</time>
      </trkpt>
      <trkpt lat="45.48369" lon="5.96028">
        <ele>512.62524414062</ele>
        <time>2015-08-12T19:41:39.000Z</time>
      </trkpt>
      <trkpt lat="45.4837" lon="5.9603">
        <ele>532.66772460938</ele>
        <time>2015-08-12T19:42:14.000Z</time>
      </trkpt>
      <trkpt lat="45.4837" lon="5.96036">
        <ele>532.31915283203</ele>
        <time>2015-08-12T19:42:16.000Z</time>
      </trkpt>
      <trkpt lat="45.48369" lon="5.96043">
        <ele>532.73577880859</ele>
        <time>2015-08-12T19:42:19.000Z</time>
      </trkpt>
      <trkpt lat="45.48368" lon="5.96048">
        <ele>534.76043701172</ele>
        <time>2015-08-12T19:42:21.000Z</time>
      </trkpt>
      <trkpt lat="45.48368" lon="5.96059">
        <ele>534.75628662109</ele>
        <time>2015-08-12T19:42:24.000Z</time>
      </trkpt>
      <trkpt lat="45.48371" lon="5.96115">
        <ele>528.64154052734</ele>
        <time>2015-08-12T19:42:29.000Z</time>
      </trkpt>
      <trkpt lat="45.48369" lon="5.96132">
        <ele>527.22039794922</ele>
        <time>2015-08-12T19:42:31.000Z</time>
      </trkpt>
      <trkpt lat="45.48367" lon="5.96155">
        <ele>526.24523925781</ele>
        <time>2015-08-12T19:42:34.000Z</time>
      </trkpt>
      <trkpt lat="45.48366" lon="5.9617">
        <ele>523.88610839844</ele>
        <time>2015-08-12T19:42:36.000Z</time>
      </trkpt>
      <trkpt lat="45.48367" lon="5.96187">
        <ele>522.06335449219</ele>
        <time>2015-08-12T19:42:38.000Z</time>
      </trkpt>
      <trkpt lat="45.48368" lon="5.96205">
        <ele>519.62225341797</ele>
        <time>2015-08-12T19:42:40.000Z</time>
      </trkpt>
      <trkpt lat="45.48367" lon="5.96218">
        <ele>518.25860595703</ele>
        <time>2015-08-12T19:42:42.000Z</time>
      </trkpt>
      <trkpt lat="45.48359" lon="5.96236">
        <ele>511.31036376953</ele>
        <time>2015-08-12T19:42:45.000Z</time>
      </trkpt>
      <trkpt lat="45.48354" lon="5.96247">
        <ele>509.13888549805</ele>
        <time>2015-08-12T19:42:47.000Z</time>
      </trkpt>
      <trkpt lat="45.48347" lon="5.96261">
        <ele>508.359375</ele>
        <time>2015-08-12T19:42:50.000Z</time>
      </trkpt>
      <trkpt lat="45.48344" lon="5.96268">
        <ele>507.59567260742</ele>
        <time>2015-08-12T19:42:52.000Z</time>
      </trkpt>
      <trkpt lat="45.48343" lon="5.96271">
        <ele>507.64208984375</ele>
        <time>2015-08-12T19:42:55.000Z</time>
      </trkpt>
      <trkpt lat="45.48342" lon="5.96274">
        <ele>507.58630371094</ele>
        <time>2015-08-12T19:42:57.000Z</time>
      </trkpt>
      <trkpt lat="45.48341" lon="5.96277">
        <ele>507.16351318359</ele>
        <time>2015-08-12T19:42:59.000Z</time>
      </trkpt>
      <trkpt lat="45.48339" lon="5.96284">
        <ele>505.6962890625</ele>
        <time>2015-08-12T19:43:02.000Z</time>
      </trkpt>
      <trkpt lat="45.48332" lon="5.96295">
        <ele>504.97344970703</ele>
        <time>2015-08-12T19:43:05.000Z</time>
      </trkpt>
      <trkpt lat="45.48325" lon="5.96303">
        <ele>504.82345581055</ele>
        <time>2015-08-12T19:43:07.000Z</time>
      </trkpt>
      <trkpt lat="45.48309" lon="5.96318">
        <ele>508.21841430664</ele>
        <time>2015-08-12T19:43:10.000Z</time>
      </trkpt>
      <trkpt lat="45.48299" lon="5.96333">
        <ele>509.68756103516</ele>
        <time>2015-08-12T19:43:13.000Z</time>
      </trkpt>
      <trkpt lat="45.48292" lon="5.96343">
        <ele>510.61932373047</ele>
        <time>2015-08-12T19:43:15.000Z</time>
      </trkpt>
      <trkpt lat="45.48286" lon="5.96362">
        <ele>513.70837402344</ele>
        <time>2015-08-12T19:43:18.000Z</time>
      </trkpt>
      <trkpt lat="45.48283" lon="5.9637">
        <ele>515.33325195312</ele>
        <time>2015-08-12T19:43:20.000Z</time>
      </trkpt>
      <trkpt lat="45.48278" lon="5.96388">
        <ele>515.19891357422</ele>
        <time>2015-08-12T19:43:23.000Z</time>
      </trkpt>
      <trkpt lat="45.48277" lon="5.96398">
        <ele>514.29357910156</ele>
        <time>2015-08-12T19:43:25.000Z</time>
      </trkpt>
      <trkpt lat="45.48269" lon="5.96435">
        <ele>511.80416870117</ele>
        <time>2015-08-12T19:43:29.000Z</time>
      </trkpt>
      <trkpt lat="45.48265" lon="5.96465">
        <ele>509.63681030273</ele>
        <time>2015-08-12T19:43:32.000Z</time>
      </trkpt>
      <trkpt lat="45.48264" lon="5.96494">
        <ele>509.77099609375</ele>
        <time>2015-08-12T19:43:35.000Z</time>
      </trkpt>
      <trkpt lat="45.48261" lon="5.96518">
        <ele>509.58810424805</ele>
        <time>2015-08-12T19:43:37.000Z</time>
      </trkpt>
      <trkpt lat="45.48257" lon="5.96552">
        <ele>509.58605957031</ele>
        <time>2015-08-12T19:43:40.000Z</time>
      </trkpt>
      <trkpt lat="45.48255" lon="5.9658">
        <ele>507.31228637695</ele>
        <time>2015-08-12T19:43:42.000Z</time>
      </trkpt>
      <trkpt lat="45.48252" lon="5.96605">
        <ele>501.38861083984</ele>
        <time>2015-08-12T19:43:44.000Z</time>
      </trkpt>
      <trkpt lat="45.48245" lon="5.96618">
        <ele>499.18420410156</ele>
        <time>2015-08-12T19:43:46.000Z</time>
      </trkpt>
      <trkpt lat="45.48235" lon="5.96626">
        <ele>496.23281860352</ele>
        <time>2015-08-12T19:43:49.000Z</time>
      </trkpt>
      <trkpt lat="45.48222" lon="5.9663">
        <ele>497.40994262695</ele>
        <time>2015-08-12T19:43:52.000Z</time>
      </trkpt>
      <trkpt lat="45.48206" lon="5.96629">
        <ele>497.20764160156</ele>
        <time>2015-08-12T19:43:55.000Z</time>
      </trkpt>
      <trkpt lat="45.4819" lon="5.96625">
        <ele>497.07061767578</ele>
        <time>2015-08-12T19:43:58.000Z</time>
      </trkpt>
      <trkpt lat="45.48175" lon="5.96623">
        <ele>496.29446411133</ele>
        <time>2015-08-12T19:44:01.000Z</time>
      </trkpt>
      <trkpt lat="45.48164" lon="5.96623">
        <ele>496.29949951172</ele>
        <time>2015-08-12T19:44:03.000Z</time>
      </trkpt>
      <trkpt lat="45.48153" lon="5.96624">
        <ele>497.12854003906</ele>
        <time>2015-08-12T19:44:05.000Z</time>
      </trkpt>
      <trkpt lat="45.48142" lon="5.96629">
        <ele>496.07293701172</ele>
        <time>2015-08-12T19:44:08.000Z</time>
      </trkpt>
      <trkpt lat="45.48138" lon="5.96632">
        <ele>497.66323852539</ele>
        <time>2015-08-12T19:44:10.000Z</time>
      </trkpt>
      <trkpt lat="45.48129" lon="5.96636">
        <ele>498.90078735352</ele>
        <time>2015-08-12T19:44:13.000Z</time>
      </trkpt>
      <trkpt lat="45.48123" lon="5.96636">
        <ele>498.71585083008</ele>
        <time>2015-08-12T19:44:15.000Z</time>
      </trkpt>
      <trkpt lat="45.48113" lon="5.96638">
        <ele>496.50714111328</ele>
        <time>2015-08-12T19:44:18.000Z</time>
      </trkpt>
      <trkpt lat="45.48107" lon="5.9664">
        <ele>496.63220214844</ele>
        <time>2015-08-12T19:44:20.000Z</time>
      </trkpt>
      <trkpt lat="45.48098" lon="5.96647">
        <ele>496.45233154297</ele>
        <time>2015-08-12T19:44:23.000Z</time>
      </trkpt>
      <trkpt lat="45.48092" lon="5.96651">
        <ele>496.99789428711</ele>
        <time>2015-08-12T19:44:25.000Z</time>
      </trkpt>
      <trkpt lat="45.48083" lon="5.96656">
        <ele>497.47521972656</ele>
        <time>2015-08-12T19:44:28.000Z</time>
      </trkpt>
      <trkpt lat="45.48077" lon="5.96658">
        <ele>497.46325683594</ele>
        <time>2015-08-12T19:44:30.000Z</time>
      </trkpt>
      <trkpt lat="45.48067" lon="5.96661">
        <ele>497.41241455078</ele>
        <time>2015-08-12T19:44:33.000Z</time>
      </trkpt>
      <trkpt lat="45.4806" lon="5.96664">
        <ele>496.65432739258</ele>
        <time>2015-08-12T19:44:35.000Z</time>
      </trkpt>
      <trkpt lat="45.48051" lon="5.9667">
        <ele>497.38174438477</ele>
        <time>2015-08-12T19:44:38.000Z</time>
      </trkpt>
      <trkpt lat="45.48045" lon="5.96675">
        <ele>497.17654418945</ele>
        <time>2015-08-12T19:44:40.000Z</time>
      </trkpt>
      <trkpt lat="45.48039" lon="5.96681">
        <ele>497.67666625977</ele>
        <time>2015-08-12T19:44:42.000Z</time>
      </trkpt>
      <trkpt lat="45.48032" lon="5.9669">
        <ele>497.97262573242</ele>
        <time>2015-08-12T19:44:45.000Z</time>
      </trkpt>
      <trkpt lat="45.48026" lon="5.96696">
        <ele>498.68374633789</ele>
        <time>2015-08-12T19:44:47.000Z</time>
      </trkpt>
      <trkpt lat="45.48016" lon="5.96704">
        <ele>496.49279785156</ele>
        <time>2015-08-12T19:44:50.000Z</time>
      </trkpt>
      <trkpt lat="45.48" lon="5.96714">
        <ele>497.45825195312</ele>
        <time>2015-08-12T19:44:53.000Z</time>
      </trkpt>
      <trkpt lat="45.47988" lon="5.96724">
        <ele>496.9697265625</ele>
        <time>2015-08-12T19:44:56.000Z</time>
      </trkpt>
      <trkpt lat="45.47979" lon="5.9673">
        <ele>496.4582824707</ele>
        <time>2015-08-12T19:44:58.000Z</time>
      </trkpt>
      <trkpt lat="45.47971" lon="5.9674">
        <ele>496.37371826172</ele>
        <time>2015-08-12T19:45:01.000Z</time>
      </trkpt>
      <trkpt lat="45.47964" lon="5.96748">
        <ele>496.6999206543</ele>
        <time>2015-08-12T19:45:03.000Z</time>
      </trkpt>
      <trkpt lat="45.47955" lon="5.96753">
        <ele>496.91906738281</ele>
        <time>2015-08-12T19:45:05.000Z</time>
      </trkpt>
      <trkpt lat="45.47948" lon="5.96757">
        <ele>496.48519897461</ele>
        <time>2015-08-12T19:45:07.000Z</time>
      </trkpt>
      <trkpt lat="45.47942" lon="5.9676">
        <ele>496.64471435547</ele>
        <time>2015-08-12T19:45:09.000Z</time>
      </trkpt>
      <trkpt lat="45.47933" lon="5.96764">
        <ele>495.31713867188</ele>
        <time>2015-08-12T19:45:12.000Z</time>
      </trkpt>
      <trkpt lat="45.47927" lon="5.96769">
        <ele>493.29449462891</ele>
        <time>2015-08-12T19:45:15.000Z</time>
      </trkpt>
      <trkpt lat="45.47922" lon="5.96777">
        <ele>493.4723815918</ele>
        <time>2015-08-12T19:45:18.000Z</time>
      </trkpt>
      <trkpt lat="45.47917" lon="5.96789">
        <ele>492.10369873047</ele>
        <time>2015-08-12T19:45:20.000Z</time>
      </trkpt>
      <trkpt lat="45.47907" lon="5.96809">
        <ele>490.17727661133</ele>
        <time>2015-08-12T19:45:23.000Z</time>
      </trkpt>
      <trkpt lat="45.479" lon="5.96823">
        <ele>489.4951171875</ele>
        <time>2015-08-12T19:45:25.000Z</time>
      </trkpt>
      <trkpt lat="45.47892" lon="5.96839">
        <ele>488.88943481445</ele>
        <time>2015-08-12T19:45:27.000Z</time>
      </trkpt>
      <trkpt lat="45.47879" lon="5.96864">
        <ele>486.6611328125</ele>
        <time>2015-08-12T19:45:30.000Z</time>
      </trkpt>
      <trkpt lat="45.47866" lon="5.96881">
        <ele>485.76498413086</ele>
        <time>2015-08-12T19:45:32.000Z</time>
      </trkpt>
      <trkpt lat="45.47845" lon="5.96907">
        <ele>482.76473999023</ele>
        <time>2015-08-12T19:45:35.000Z</time>
      </trkpt>
      <trkpt lat="45.47831" lon="5.96927">
        <ele>480.78726196289</ele>
        <time>2015-08-12T19:45:37.000Z</time>
      </trkpt>
      <trkpt lat="45.47816" lon="5.96961">
        <ele>478.02151489258</ele>
        <time>2015-08-12T19:45:40.000Z</time>
      </trkpt>
      <trkpt lat="45.47806" lon="5.96994">
        <ele>475.697265625</ele>
        <time>2015-08-12T19:45:43.000Z</time>
      </trkpt>
      <trkpt lat="45.47787" lon="5.97006">
        <ele>474.41854858398</ele>
        <time>2015-08-12T19:45:46.000Z</time>
      </trkpt>
      <trkpt lat="45.47772" lon="5.97007">
        <ele>474.29125976562</ele>
        <time>2015-08-12T19:45:48.000Z</time>
      </trkpt>
      <trkpt lat="45.4775" lon="5.97008">
        <ele>475.57312011719</ele>
        <time>2015-08-12T19:45:51.000Z</time>
      </trkpt>
      <trkpt lat="45.47731" lon="5.97016">
        <ele>475.67422485352</ele>
        <time>2015-08-12T19:45:54.000Z</time>
      </trkpt>
      <trkpt lat="45.4772" lon="5.97021">
        <ele>475.73611450195</ele>
        <time>2015-08-12T19:45:56.000Z</time>
      </trkpt>
      <trkpt lat="45.47704" lon="5.97027">
        <ele>475.95120239258</ele>
        <time>2015-08-12T19:45:59.000Z</time>
      </trkpt>
      <trkpt lat="45.47691" lon="5.9703">
        <ele>475.44790649414</ele>
        <time>2015-08-12T19:46:02.000Z</time>
      </trkpt>
      <trkpt lat="45.47679" lon="5.97035">
        <ele>475.96548461914</ele>
        <time>2015-08-12T19:46:05.000Z</time>
      </trkpt>
      <trkpt lat="45.47667" lon="5.97039">
        <ele>475.95504760742</ele>
        <time>2015-08-12T19:46:08.000Z</time>
      </trkpt>
      <trkpt lat="45.47657" lon="5.97041">
        <ele>476.47778320312</ele>
        <time>2015-08-12T19:46:11.000Z</time>
      </trkpt>
      <trkpt lat="45.47647" lon="5.97043">
        <ele>476.4641418457</ele>
        <time>2015-08-12T19:46:14.000Z</time>
      </trkpt>
      <trkpt lat="45.47638" lon="5.97045">
        <ele>476.97570800781</ele>
        <time>2015-08-12T19:46:17.000Z</time>
      </trkpt>
      <trkpt lat="45.47628" lon="5.97046">
        <ele>476.98440551758</ele>
        <time>2015-08-12T19:46:20.000Z</time>
      </trkpt>
      <trkpt lat="45.47621" lon="5.97046">
        <ele>476.98809814453</ele>
        <time>2015-08-12T19:46:22.000Z</time>
      </trkpt>
      <trkpt lat="45.47614" lon="5.97045">
        <ele>477.2707824707</ele>
        <time>2015-08-12T19:46:24.000Z</time>
      </trkpt>
      <trkpt lat="45.47607" lon="5.97045">
        <ele>477.04724121094</ele>
        <time>2015-08-12T19:46:26.000Z</time>
      </trkpt>
      <trkpt lat="45.47601" lon="5.97045">
        <ele>477.44723510742</ele>
        <time>2015-08-12T19:46:28.000Z</time>
      </trkpt>
      <trkpt lat="45.47594" lon="5.97044">
        <ele>477.49130249023</ele>
        <time>2015-08-12T19:46:30.000Z</time>
      </trkpt>
      <trkpt lat="45.47584" lon="5.97044">
        <ele>476.98330688477</ele>
        <time>2015-08-12T19:46:33.000Z</time>
      </trkpt>
      <trkpt lat="45.47578" lon="5.97044">
        <ele>476.99124145508</ele>
        <time>2015-08-12T19:46:35.000Z</time>
      </trkpt>
      <trkpt lat="45.47568" lon="5.97044">
        <ele>477.15490722656</ele>
        <time>2015-08-12T19:46:38.000Z</time>
      </trkpt>
      <trkpt lat="45.47562" lon="5.97044">
        <ele>476.98233032227</ele>
        <time>2015-08-12T19:46:40.000Z</time>
      </trkpt>
      <trkpt lat="45.47552" lon="5.97043">
        <ele>477.27661132812</ele>
        <time>2015-08-12T19:46:43.000Z</time>
      </trkpt>
      <trkpt lat="45.47542" lon="5.97042">
        <ele>476.99963378906</ele>
        <time>2015-08-12T19:46:46.000Z</time>
      </trkpt>
      <trkpt lat="45.47533" lon="5.97041">
        <ele>477.52606201172</ele>
        <time>2015-08-12T19:46:49.000Z</time>
      </trkpt>
      <trkpt lat="45.47524" lon="5.9704">
        <ele>476.72244262695</ele>
        <time>2015-08-12T19:46:52.000Z</time>
      </trkpt>
      <trkpt lat="45.47515" lon="5.97041">
        <ele>475.72387695312</ele>
        <time>2015-08-12T19:46:55.000Z</time>
      </trkpt>
      <trkpt lat="45.47509" lon="5.97042">
        <ele>474.96682739258</ele>
        <time>2015-08-12T19:46:57.000Z</time>
      </trkpt>
      <trkpt lat="45.475" lon="5.97048">
        <ele>471.80349731445</ele>
        <time>2015-08-12T19:47:00.000Z</time>
      </trkpt>
      <trkpt lat="45.47497" lon="5.97058">
        <ele>470.96063232422</ele>
        <time>2015-08-12T19:47:02.000Z</time>
      </trkpt>
      <trkpt lat="45.47495" lon="5.97073">
        <ele>470.48828125</ele>
        <time>2015-08-12T19:47:04.000Z</time>
      </trkpt>
      <trkpt lat="45.47483" lon="5.97083">
        <ele>469.61386108398</ele>
        <time>2015-08-12T19:47:07.000Z</time>
      </trkpt>
      <trkpt lat="45.47466" lon="5.97082">
        <ele>468.17660522461</ele>
        <time>2015-08-12T19:47:10.000Z</time>
      </trkpt>
      <trkpt lat="45.47456" lon="5.97083">
        <ele>467.9228515625</ele>
        <time>2015-08-12T19:47:12.000Z</time>
      </trkpt>
      <trkpt lat="45.47448" lon="5.97101">
        <ele>468.73495483398</ele>
        <time>2015-08-12T19:47:15.000Z</time>
      </trkpt>
      <trkpt lat="45.47446" lon="5.97117">
        <ele>468.58056640625</ele>
        <time>2015-08-12T19:47:17.000Z</time>
      </trkpt>
      <trkpt lat="45.47441" lon="5.97143">
        <ele>468.86099243164</ele>
        <time>2015-08-12T19:47:20.000Z</time>
      </trkpt>
      <trkpt lat="45.4743" lon="5.97167">
        <ele>468.45208740234</ele>
        <time>2015-08-12T19:47:23.000Z</time>
      </trkpt>
      <trkpt lat="45.47424" lon="5.97186">
        <ele>466.93124389648</ele>
        <time>2015-08-12T19:47:25.000Z</time>
      </trkpt>
      <trkpt lat="45.4742" lon="5.97201">
        <ele>466.15853881836</ele>
        <time>2015-08-12T19:47:27.000Z</time>
      </trkpt>
      <trkpt lat="45.47417" lon="5.97224">
        <ele>466.02590942383</ele>
        <time>2015-08-12T19:47:30.000Z</time>
      </trkpt>
      <trkpt lat="45.47411" lon="5.97247">
        <ele>465.04406738281</ele>
        <time>2015-08-12T19:47:33.000Z</time>
      </trkpt>
      <trkpt lat="45.47406" lon="5.97263">
        <ele>463.830078125</ele>
        <time>2015-08-12T19:47:35.000Z</time>
      </trkpt>
      <trkpt lat="45.47402" lon="5.97283">
        <ele>462.30596923828</ele>
        <time>2015-08-12T19:47:37.000Z</time>
      </trkpt>
      <trkpt lat="45.47395" lon="5.97307">
        <ele>460.3620300293</ele>
        <time>2015-08-12T19:47:39.000Z</time>
      </trkpt>
      <trkpt lat="45.47388" lon="5.9733">
        <ele>457.58554077148</ele>
        <time>2015-08-12T19:47:42.000Z</time>
      </trkpt>
      <trkpt lat="45.47388" lon="5.9734">
        <ele>457.27221679688</ele>
        <time>2015-08-12T19:47:44.000Z</time>
      </trkpt>
      <trkpt lat="45.47388" lon="5.97345">
        <ele>457.13531494141</ele>
        <time>2015-08-12T19:47:47.000Z</time>
      </trkpt>
      <trkpt lat="45.47389" lon="5.97347">
        <ele>456.54025268555</ele>
        <time>2015-08-12T19:47:54.000Z</time>
      </trkpt>
      <trkpt lat="45.47389" lon="5.97347">
        <ele>450.43731689453</ele>
        <time>2015-08-12T19:48:14.000Z</time>
      </trkpt>
      <trkpt lat="45.47389" lon="5.97345">
        <ele>454.99517822266</ele>
        <time>2015-08-12T19:48:50.000Z</time>
      </trkpt>
      <trkpt lat="45.47392" lon="5.97345">
        <ele>453.96923828125</ele>
        <time>2015-08-12T19:48:52.000Z</time>
      </trkpt>
      <trkpt lat="45.47397" lon="5.97345">
        <ele>454.7541809082</ele>
        <time>2015-08-12T19:48:54.000Z</time>
      </trkpt>
      <trkpt lat="45.47408" lon="5.97347">
        <ele>457.2414855957</ele>
        <time>2015-08-12T19:48:57.000Z</time>
      </trkpt>
      <trkpt lat="45.47415" lon="5.97354">
        <ele>460.13006591797</ele>
        <time>2015-08-12T19:48:59.000Z</time>
      </trkpt>
      <trkpt lat="45.47426" lon="5.97377">
        <ele>459.85598754883</ele>
        <time>2015-08-12T19:49:02.000Z</time>
      </trkpt>
      <trkpt lat="45.47432" lon="5.97397">
        <ele>458.47964477539</ele>
        <time>2015-08-12T19:49:05.000Z</time>
      </trkpt>
      <trkpt lat="45.47437" lon="5.97417">
        <ele>455.92526245117</ele>
        <time>2015-08-12T19:49:08.000Z</time>
      </trkpt>
      <trkpt lat="45.47443" lon="5.97427">
        <ele>455.38366699219</ele>
        <time>2015-08-12T19:49:10.000Z</time>
      </trkpt>
      <trkpt lat="45.47447" lon="5.97444">
        <ele>452.70651245117</ele>
        <time>2015-08-12T19:49:13.000Z</time>
      </trkpt>
      <trkpt lat="45.47452" lon="5.97458">
        <ele>447.54672241211</ele>
        <time>2015-08-12T19:49:16.000Z</time>
      </trkpt>
      <trkpt lat="45.47455" lon="5.97467">
        <ele>444.91485595703</ele>
        <time>2015-08-12T19:49:18.000Z</time>
      </trkpt>
      <trkpt lat="45.47455" lon="5.97479">
        <ele>443.19775390625</ele>
        <time>2015-08-12T19:49:21.000Z</time>
      </trkpt>
      <trkpt lat="45.47454" lon="5.97489">
        <ele>442.4856262207</ele>
        <time>2015-08-12T19:49:24.000Z</time>
      </trkpt>
      <trkpt lat="45.47452" lon="5.97495">
        <ele>440.81118774414</ele>
        <time>2015-08-12T19:49:26.000Z</time>
      </trkpt>
      <trkpt lat="45.47449" lon="5.97504">
        <ele>437.17282104492</ele>
        <time>2015-08-12T19:49:29.000Z</time>
      </trkpt>
      <trkpt lat="45.47449" lon="5.9751">
        <ele>434.63998413086</ele>
        <time>2015-08-12T19:49:31.000Z</time>
      </trkpt>
      <trkpt lat="45.47446" lon="5.97519">
        <ele>432.41076660156</ele>
        <time>2015-08-12T19:49:34.000Z</time>
      </trkpt>
      <trkpt lat="45.47441" lon="5.97522">
        <ele>429.39453125</ele>
        <time>2015-08-12T19:49:36.000Z</time>
      </trkpt>
      <trkpt lat="45.47432" lon="5.97524">
        <ele>422.32235717773</ele>
        <time>2015-08-12T19:49:39.000Z</time>
      </trkpt>
      <trkpt lat="45.47426" lon="5.97525">
        <ele>417.19506835938</ele>
        <time>2015-08-12T19:49:41.000Z</time>
      </trkpt>
      <trkpt lat="45.47418" lon="5.97527">
        <ele>415.60531616211</ele>
        <time>2015-08-12T19:49:44.000Z</time>
      </trkpt>
      <trkpt lat="45.47417" lon="5.97527">
        <ele>415.8391418457</ele>
        <time>2015-08-12T19:49:48.000Z</time>
      </trkpt>
      <trkpt lat="45.47415" lon="5.97528">
        <ele>414.18713378906</ele>
        <time>2015-08-12T19:49:50.000Z</time>
      </trkpt>
      <trkpt lat="45.47411" lon="5.9753">
        <ele>409.67669677734</ele>
        <time>2015-08-12T19:49:53.000Z</time>
      </trkpt>
      <trkpt lat="45.47407" lon="5.97534">
        <ele>406.36895751953</ele>
        <time>2015-08-12T19:49:55.000Z</time>
      </trkpt>
      <trkpt lat="45.47402" lon="5.97542">
        <ele>406.06225585938</ele>
        <time>2015-08-12T19:49:58.000Z</time>
      </trkpt>
      <trkpt lat="45.47396" lon="5.97551">
        <ele>405.9787902832</ele>
        <time>2015-08-12T19:50:01.000Z</time>
      </trkpt>
      <trkpt lat="45.47391" lon="5.9756">
        <ele>404.09692382812</ele>
        <time>2015-08-12T19:50:04.000Z</time>
      </trkpt>
      <trkpt lat="45.47388" lon="5.9757">
        <ele>402.47311401367</ele>
        <time>2015-08-12T19:50:07.000Z</time>
      </trkpt>
      <trkpt lat="45.47387" lon="5.97579">
        <ele>402.08770751953</ele>
        <time>2015-08-12T19:50:10.000Z</time>
      </trkpt>
      <trkpt lat="45.47387" lon="5.97587">
        <ele>401.91677856445</ele>
        <time>2015-08-12T19:50:12.000Z</time>
      </trkpt>
      <trkpt lat="45.47387" lon="5.97601">
        <ele>400.0094909668</ele>
        <time>2015-08-12T19:50:15.000Z</time>
      </trkpt>
      <trkpt lat="45.47387" lon="5.97612">
        <ele>397.70928955078</ele>
        <time>2015-08-12T19:50:17.000Z</time>
      </trkpt>
      <trkpt lat="45.47392" lon="5.97627">
        <ele>393.30407714844</ele>
        <time>2015-08-12T19:50:20.000Z</time>
      </trkpt>
      <trkpt lat="45.47396" lon="5.97634">
        <ele>391.79251098633</ele>
        <time>2015-08-12T19:50:22.000Z</time>
      </trkpt>
      <trkpt lat="45.474" lon="5.97639">
        <ele>392.27239990234</ele>
        <time>2015-08-12T19:50:25.000Z</time>
      </trkpt>
      <trkpt lat="45.474" lon="5.97637">
        <ele>392.66329956055</ele>
        <time>2015-08-12T19:50:31.000Z</time>
      </trkpt>
      <trkpt lat="45.47399" lon="5.97636">
        <ele>392.75372314453</ele>
        <time>2015-08-12T19:50:35.000Z</time>
      </trkpt>
      <trkpt lat="45.47399" lon="5.97636">
        <ele>386.80682373047</ele>
        <time>2015-08-12T19:50:55.000Z</time>
      </trkpt>
      <trkpt lat="45.47399" lon="5.97638">
        <ele>391.67114257812</ele>
        <time>2015-08-12T19:51:14.000Z</time>
      </trkpt>
      <trkpt lat="45.4741" lon="5.97673">
        <ele>382.78866577148</ele>
        <time>2015-08-12T19:51:19.000Z</time>
      </trkpt>
      <trkpt lat="45.47422" lon="5.97691">
        <ele>379.61462402344</ele>
        <time>2015-08-12T19:51:22.000Z</time>
      </trkpt>
      <trkpt lat="45.47432" lon="5.97698">
        <ele>375.49081420898</ele>
        <time>2015-08-12T19:51:24.000Z</time>
      </trkpt>
      <trkpt lat="45.47445" lon="5.9771">
        <ele>373.6950378418</ele>
        <time>2015-08-12T19:51:27.000Z</time>
      </trkpt>
      <trkpt lat="45.47453" lon="5.97714">
        <ele>371.97842407227</ele>
        <time>2015-08-12T19:51:29.000Z</time>
      </trkpt>
      <trkpt lat="45.47467" lon="5.97726">
        <ele>369.61151123047</ele>
        <time>2015-08-12T19:51:32.000Z</time>
      </trkpt>
      <trkpt lat="45.47476" lon="5.97736">
        <ele>369.89114379883</ele>
        <time>2015-08-12T19:51:35.000Z</time>
      </trkpt>
      <trkpt lat="45.47482" lon="5.97747">
        <ele>370.14068603516</ele>
        <time>2015-08-12T19:51:38.000Z</time>
      </trkpt>
      <trkpt lat="45.47482" lon="5.97756">
        <ele>369.24584960938</ele>
        <time>2015-08-12T19:51:40.000Z</time>
      </trkpt>
      <trkpt lat="45.47476" lon="5.9776">
        <ele>365.43420410156</ele>
        <time>2015-08-12T19:51:43.000Z</time>
      </trkpt>
      <trkpt lat="45.47462" lon="5.97756">
        <ele>363.55709838867</ele>
        <time>2015-08-12T19:51:46.000Z</time>
      </trkpt>
      <trkpt lat="45.47452" lon="5.97755">
        <ele>363.30349731445</ele>
        <time>2015-08-12T19:51:48.000Z</time>
      </trkpt>
      <trkpt lat="45.4744" lon="5.97758">
        <ele>361.02703857422</ele>
        <time>2015-08-12T19:51:50.000Z</time>
      </trkpt>
      <trkpt lat="45.47422" lon="5.97764">
        <ele>358.58587646484</ele>
        <time>2015-08-12T19:51:53.000Z</time>
      </trkpt>
      <trkpt lat="45.47406" lon="5.97769">
        <ele>358.09204101562</ele>
        <time>2015-08-12T19:51:56.000Z</time>
      </trkpt>
      <trkpt lat="45.47389" lon="5.9777">
        <ele>356.2975769043</ele>
        <time>2015-08-12T19:51:59.000Z</time>
      </trkpt>
      <trkpt lat="45.47372" lon="5.97766">
        <ele>353.76745605469</ele>
        <time>2015-08-12T19:52:02.000Z</time>
      </trkpt>
      <trkpt lat="45.47357" lon="5.97763">
        <ele>352.69757080078</ele>
        <time>2015-08-12T19:52:05.000Z</time>
      </trkpt>
      <trkpt lat="45.47344" lon="5.97766">
        <ele>352.06564331055</ele>
        <time>2015-08-12T19:52:07.000Z</time>
      </trkpt>
      <trkpt lat="45.47326" lon="5.9777">
        <ele>352.36639404297</ele>
        <time>2015-08-12T19:52:10.000Z</time>
      </trkpt>
      <trkpt lat="45.47312" lon="5.97772">
        <ele>350.12829589844</ele>
        <time>2015-08-12T19:52:12.000Z</time>
      </trkpt>
      <trkpt lat="45.4729" lon="5.97773">
        <ele>348.61331176758</ele>
        <time>2015-08-12T19:52:15.000Z</time>
      </trkpt>
      <trkpt lat="45.47276" lon="5.97777">
        <ele>347.57809448242</ele>
        <time>2015-08-12T19:52:17.000Z</time>
      </trkpt>
      <trkpt lat="45.47261" lon="5.97782">
        <ele>344.73937988281</ele>
        <time>2015-08-12T19:52:19.000Z</time>
      </trkpt>
      <trkpt lat="45.47245" lon="5.97795">
        <ele>343.7585144043</ele>
        <time>2015-08-12T19:52:21.000Z</time>
      </trkpt>
      <trkpt lat="45.47229" lon="5.97813">
        <ele>341.70223999023</ele>
        <time>2015-08-12T19:52:24.000Z</time>
      </trkpt>
      <trkpt lat="45.47217" lon="5.9783">
        <ele>339.18212890625</ele>
        <time>2015-08-12T19:52:27.000Z</time>
      </trkpt>
      <trkpt lat="45.47198" lon="5.97844">
        <ele>338.22619628906</ele>
        <time>2015-08-12T19:52:30.000Z</time>
      </trkpt>
      <trkpt lat="45.47176" lon="5.97858">
        <ele>338.29989624023</ele>
        <time>2015-08-12T19:52:33.000Z</time>
      </trkpt>
      <trkpt lat="45.47162" lon="5.97868">
        <ele>336.90313720703</ele>
        <time>2015-08-12T19:52:35.000Z</time>
      </trkpt>
      <trkpt lat="45.47149" lon="5.97875">
        <ele>336.36419677734</ele>
        <time>2015-08-12T19:52:37.000Z</time>
      </trkpt>
      <trkpt lat="45.47138" lon="5.97882">
        <ele>334.14483642578</ele>
        <time>2015-08-12T19:52:39.000Z</time>
      </trkpt>
      <trkpt lat="45.47121" lon="5.97901">
        <ele>331.42346191406</ele>
        <time>2015-08-12T19:52:42.000Z</time>
      </trkpt>
      <trkpt lat="45.47114" lon="5.97918">
        <ele>328.37237548828</ele>
        <time>2015-08-12T19:52:44.000Z</time>
      </trkpt>
      <trkpt lat="45.47112" lon="5.97939">
        <ele>319.97616577148</ele>
        <time>2015-08-12T19:52:47.000Z</time>
      </trkpt>
      <trkpt lat="45.47114" lon="5.97962">
        <ele>315.50592041016</ele>
        <time>2015-08-12T19:52:50.000Z</time>
      </trkpt>
      <trkpt lat="45.47109" lon="5.97978">
        <ele>308.63076782227</ele>
        <time>2015-08-12T19:52:53.000Z</time>
      </trkpt>
      <trkpt lat="45.47102" lon="5.97986">
        <ele>303.80459594727</ele>
        <time>2015-08-12T19:52:55.000Z</time>
      </trkpt>
      <trkpt lat="45.47094" lon="5.97996">
        <ele>301.78094482422</ele>
        <time>2015-08-12T19:52:57.000Z</time>
      </trkpt>
      <trkpt lat="45.47088" lon="5.98004">
        <ele>298.26953125</ele>
        <time>2015-08-12T19:53:00.000Z</time>
      </trkpt>
      <trkpt lat="45.47087" lon="5.98006">
        <ele>295.80880737305</ele>
        <time>2015-08-12T19:53:08.000Z</time>
      </trkpt>
      <trkpt lat="45.47087" lon="5.98006">
        <ele>291.416015625</ele>
        <time>2015-08-12T19:53:28.000Z</time>
      </trkpt>
      <trkpt lat="45.47086" lon="5.98007">
        <ele>294.46197509766</ele>
        <time>2015-08-12T19:53:30.000Z</time>
      </trkpt>
      <trkpt lat="45.47085" lon="5.98009">
        <ele>294.58276367188</ele>
        <time>2015-08-12T19:53:32.000Z</time>
      </trkpt>
      <trkpt lat="45.47082" lon="5.98016">
        <ele>293.76193237305</ele>
        <time>2015-08-12T19:53:35.000Z</time>
      </trkpt>
      <trkpt lat="45.47079" lon="5.98025">
        <ele>292.75323486328</ele>
        <time>2015-08-12T19:53:37.000Z</time>
      </trkpt>
      <trkpt lat="45.47076" lon="5.9804">
        <ele>292.62460327148</ele>
        <time>2015-08-12T19:53:40.000Z</time>
      </trkpt>
      <trkpt lat="45.4707" lon="5.98051">
        <ele>290.30102539062</ele>
        <time>2015-08-12T19:53:43.000Z</time>
      </trkpt>
      <trkpt lat="45.47052" lon="5.98054">
        <ele>289.41271972656</ele>
        <time>2015-08-12T19:53:46.000Z</time>
      </trkpt>
      <trkpt lat="45.47039" lon="5.98062">
        <ele>288.41275024414</ele>
        <time>2015-08-12T19:53:48.000Z</time>
      </trkpt>
      <trkpt lat="45.47024" lon="5.9807">
        <ele>288.42431640625</ele>
        <time>2015-08-12T19:53:50.000Z</time>
      </trkpt>
      <trkpt lat="45.47002" lon="5.98078">
        <ele>289.26165771484</ele>
        <time>2015-08-12T19:53:53.000Z</time>
      </trkpt>
      <trkpt lat="45.46986" lon="5.98085">
        <ele>289.78823852539</ele>
        <time>2015-08-12T19:53:55.000Z</time>
      </trkpt>
      <trkpt lat="45.46966" lon="5.98101">
        <ele>288.42364501953</ele>
        <time>2015-08-12T19:53:58.000Z</time>
      </trkpt>
      <trkpt lat="45.46954" lon="5.98108">
        <ele>288.43017578125</ele>
        <time>2015-08-12T19:54:00.000Z</time>
      </trkpt>
      <trkpt lat="45.4694" lon="5.98115">
        <ele>287.93524169922</ele>
        <time>2015-08-12T19:54:03.000Z</time>
      </trkpt>
      <trkpt lat="45.4693" lon="5.9812">
        <ele>289.21017456055</ele>
        <time>2015-08-12T19:54:06.000Z</time>
      </trkpt>
      <trkpt lat="45.46924" lon="5.98121">
        <ele>290.37811279297</ele>
        <time>2015-08-12T19:54:08.000Z</time>
      </trkpt>
      <trkpt lat="45.46918" lon="5.98124">
        <ele>290.53997802734</ele>
        <time>2015-08-12T19:54:11.000Z</time>
      </trkpt>
      <trkpt lat="45.46916" lon="5.98129">
        <ele>289.84310913086</ele>
        <time>2015-08-12T19:54:13.000Z</time>
      </trkpt>
      <trkpt lat="45.46912" lon="5.98139">
        <ele>288.65515136719</ele>
        <time>2015-08-12T19:54:16.000Z</time>
      </trkpt>
      <trkpt lat="45.4691" lon="5.98153">
        <ele>288.49008178711</ele>
        <time>2015-08-12T19:54:18.000Z</time>
      </trkpt>
      <trkpt lat="45.46907" lon="5.98172">
        <ele>288.81689453125</ele>
        <time>2015-08-12T19:54:20.000Z</time>
      </trkpt>
      <trkpt lat="45.46901" lon="5.982">
        <ele>286.9983215332</ele>
        <time>2015-08-12T19:54:23.000Z</time>
      </trkpt>
      <trkpt lat="45.46896" lon="5.98224">
        <ele>285.23538208008</ele>
        <time>2015-08-12T19:54:25.000Z</time>
      </trkpt>
      <trkpt lat="45.46891" lon="5.98246">
        <ele>283.85501098633</ele>
        <time>2015-08-12T19:54:27.000Z</time>
      </trkpt>
      <trkpt lat="45.46885" lon="5.9828">
        <ele>283.62237548828</ele>
        <time>2015-08-12T19:54:30.000Z</time>
      </trkpt>
      <trkpt lat="45.4688" lon="5.98302">
        <ele>282.21044921875</ele>
        <time>2015-08-12T19:54:32.000Z</time>
      </trkpt>
      <trkpt lat="45.46869" lon="5.98331">
        <ele>283.40924072266</ele>
        <time>2015-08-12T19:54:35.000Z</time>
      </trkpt>
      <trkpt lat="45.46855" lon="5.98351">
        <ele>283.87176513672</ele>
        <time>2015-08-12T19:54:38.000Z</time>
      </trkpt>
      <trkpt lat="45.46842" lon="5.98367">
        <ele>283.18505859375</ele>
        <time>2015-08-12T19:54:41.000Z</time>
      </trkpt>
      <trkpt lat="45.46833" lon="5.98375">
        <ele>282.60482788086</ele>
        <time>2015-08-12T19:54:43.000Z</time>
      </trkpt>
      <trkpt lat="45.46825" lon="5.98383">
        <ele>281.8205871582</ele>
        <time>2015-08-12T19:54:45.000Z</time>
      </trkpt>
      <trkpt lat="45.46818" lon="5.98393">
        <ele>282.1950378418</ele>
        <time>2015-08-12T19:54:47.000Z</time>
      </trkpt>
      <trkpt lat="45.46809" lon="5.98409">
        <ele>283.17306518555</ele>
        <time>2015-08-12T19:54:50.000Z</time>
      </trkpt>
      <trkpt lat="45.46799" lon="5.98425">
        <ele>284.20520019531</ele>
        <time>2015-08-12T19:54:53.000Z</time>
      </trkpt>
      <trkpt lat="45.46793" lon="5.98435">
        <ele>284.02182006836</ele>
        <time>2015-08-12T19:54:55.000Z</time>
      </trkpt>
      <trkpt lat="45.46783" lon="5.98449">
        <ele>284.23239135742</ele>
        <time>2015-08-12T19:54:58.000Z</time>
      </trkpt>
      <trkpt lat="45.46775" lon="5.98465">
        <ele>283.65106201172</ele>
        <time>2015-08-12T19:55:01.000Z</time>
      </trkpt>
      <trkpt lat="45.46767" lon="5.98475">
        <ele>283.16162109375</ele>
        <time>2015-08-12T19:55:03.000Z</time>
      </trkpt>
      <trkpt lat="45.4676" lon="5.98484">
        <ele>282.2008972168</ele>
        <time>2015-08-12T19:55:05.000Z</time>
      </trkpt>
      <trkpt lat="45.4675" lon="5.98497">
        <ele>282.45721435547</ele>
        <time>2015-08-12T19:55:08.000Z</time>
      </trkpt>
      <trkpt lat="45.46742" lon="5.98506">
        <ele>282.17413330078</ele>
        <time>2015-08-12T19:55:10.000Z</time>
      </trkpt>
      <trkpt lat="45.46731" lon="5.98521">
        <ele>282.49960327148</ele>
        <time>2015-08-12T19:55:13.000Z</time>
      </trkpt>
      <trkpt lat="45.46722" lon="5.98531">
        <ele>283.73818969727</ele>
        <time>2015-08-12T19:55:15.000Z</time>
      </trkpt>
      <trkpt lat="45.46713" lon="5.98542">
        <ele>283.47055053711</ele>
        <time>2015-08-12T19:55:17.000Z</time>
      </trkpt>
      <trkpt lat="45.46703" lon="5.98554">
        <ele>285.00543212891</ele>
        <time>2015-08-12T19:55:19.000Z</time>
      </trkpt>
      <trkpt lat="45.46693" lon="5.98566">
        <ele>286.54238891602</ele>
        <time>2015-08-12T19:55:21.000Z</time>
      </trkpt>
      <trkpt lat="45.46684" lon="5.98578">
        <ele>286.486328125</ele>
        <time>2015-08-12T19:55:23.000Z</time>
      </trkpt>
      <trkpt lat="45.46667" lon="5.98596">
        <ele>288.2551574707</ele>
        <time>2015-08-12T19:55:26.000Z</time>
      </trkpt>
      <trkpt lat="45.46653" lon="5.98604">
        <ele>288.75579833984</ele>
        <time>2015-08-12T19:55:28.000Z</time>
      </trkpt>
      <trkpt lat="45.4664" lon="5.98612">
        <ele>289.44281005859</ele>
        <time>2015-08-12T19:55:30.000Z</time>
      </trkpt>
      <trkpt lat="45.4662" lon="5.98622">
        <ele>290.75408935547</ele>
        <time>2015-08-12T19:55:33.000Z</time>
      </trkpt>
      <trkpt lat="45.46603" lon="5.98628">
        <ele>290.94860839844</ele>
        <time>2015-08-12T19:55:36.000Z</time>
      </trkpt>
      <trkpt lat="45.4659" lon="5.98632">
        <ele>290.14309692383</ele>
        <time>2015-08-12T19:55:39.000Z</time>
      </trkpt>
      <trkpt lat="45.46582" lon="5.98634">
        <ele>290.98287963867</ele>
        <time>2015-08-12T19:55:41.000Z</time>
      </trkpt>
      <trkpt lat="45.46575" lon="5.98638">
        <ele>291.27398681641</ele>
        <time>2015-08-12T19:55:44.000Z</time>
      </trkpt>
      <trkpt lat="45.46571" lon="5.98638">
        <ele>291.88287353516</ele>
        <time>2015-08-12T19:55:47.000Z</time>
      </trkpt>
      <trkpt lat="45.46565" lon="5.98641">
        <ele>293.61044311523</ele>
        <time>2015-08-12T19:55:50.000Z</time>
      </trkpt>
      <trkpt lat="45.46561" lon="5.98643">
        <ele>294.17358398438</ele>
        <time>2015-08-12T19:55:52.000Z</time>
      </trkpt>
      <trkpt lat="45.46555" lon="5.9865">
        <ele>291.48175048828</ele>
        <time>2015-08-12T19:55:55.000Z</time>
      </trkpt>
      <trkpt lat="45.46552" lon="5.98656">
        <ele>291.60772705078</ele>
        <time>2015-08-12T19:55:57.000Z</time>
      </trkpt>
      <trkpt lat="45.46549" lon="5.98663">
        <ele>292.37744140625</ele>
        <time>2015-08-12T19:55:59.000Z</time>
      </trkpt>
      <trkpt lat="45.46547" lon="5.98675">
        <ele>294.07138061523</ele>
        <time>2015-08-12T19:56:02.000Z</time>
      </trkpt>
      <trkpt lat="45.46547" lon="5.9869">
        <ele>294.57943725586</ele>
        <time>2015-08-12T19:56:05.000Z</time>
      </trkpt>
      <trkpt lat="45.46548" lon="5.98702">
        <ele>294.56109619141</ele>
        <time>2015-08-12T19:56:07.000Z</time>
      </trkpt>
      <trkpt lat="45.4655" lon="5.98719">
        <ele>293.61514282227</ele>
        <time>2015-08-12T19:56:10.000Z</time>
      </trkpt>
      <trkpt lat="45.46552" lon="5.98737">
        <ele>292.44018554688</ele>
        <time>2015-08-12T19:56:13.000Z</time>
      </trkpt>
      <trkpt lat="45.46553" lon="5.98754">
        <ele>291.89251708984</ele>
        <time>2015-08-12T19:56:16.000Z</time>
      </trkpt>
      <trkpt lat="45.46553" lon="5.98769">
        <ele>291.90231323242</ele>
        <time>2015-08-12T19:56:19.000Z</time>
      </trkpt>
      <trkpt lat="45.46551" lon="5.98784">
        <ele>292.04049682617</ele>
        <time>2015-08-12T19:56:22.000Z</time>
      </trkpt>
      <trkpt lat="45.46546" lon="5.98798">
        <ele>291.4755859375</ele>
        <time>2015-08-12T19:56:25.000Z</time>
      </trkpt>
      <trkpt lat="45.46542" lon="5.98805">
        <ele>291.62091064453</ele>
        <time>2015-08-12T19:56:27.000Z</time>
      </trkpt>
      <trkpt lat="45.46529" lon="5.98812">
        <ele>292.4323425293</ele>
        <time>2015-08-12T19:56:30.000Z</time>
      </trkpt>
      <trkpt lat="45.46518" lon="5.98817">
        <ele>292.45657348633</ele>
        <time>2015-08-12T19:56:33.000Z</time>
      </trkpt>
      <trkpt lat="45.46511" lon="5.9882">
        <ele>292.89782714844</ele>
        <time>2015-08-12T19:56:35.000Z</time>
      </trkpt>
      <trkpt lat="45.46504" lon="5.98825">
        <ele>294.18389892578</ele>
        <time>2015-08-12T19:56:37.000Z</time>
      </trkpt>
      <trkpt lat="45.46493" lon="5.98831">
        <ele>294.63037109375</ele>
        <time>2015-08-12T19:56:40.000Z</time>
      </trkpt>
      <trkpt lat="45.46481" lon="5.98839">
        <ele>295.3776550293</ele>
        <time>2015-08-12T19:56:43.000Z</time>
      </trkpt>
      <trkpt lat="45.46473" lon="5.98845">
        <ele>295.74301147461</ele>
        <time>2015-08-12T19:56:45.000Z</time>
      </trkpt>
      <trkpt lat="45.4646" lon="5.98854">
        <ele>296.43222045898</ele>
        <time>2015-08-12T19:56:48.000Z</time>
      </trkpt>
      <trkpt lat="45.46452" lon="5.9886">
        <ele>296.73715209961</ele>
        <time>2015-08-12T19:56:50.000Z</time>
      </trkpt>
      <trkpt lat="45.46439" lon="5.9887">
        <ele>296.44079589844</ele>
        <time>2015-08-12T19:56:53.000Z</time>
      </trkpt>
      <trkpt lat="45.46432" lon="5.98876">
        <ele>296.44598388672</ele>
        <time>2015-08-12T19:56:55.000Z</time>
      </trkpt>
      <trkpt lat="45.46424" lon="5.98881">
        <ele>296.44638061523</ele>
        <time>2015-08-12T19:56:57.000Z</time>
      </trkpt>
      <trkpt lat="45.46416" lon="5.98887">
        <ele>296.1982421875</ele>
        <time>2015-08-12T19:56:59.000Z</time>
      </trkpt>
      <trkpt lat="45.46405" lon="5.98898">
        <ele>296.74938964844</ele>
        <time>2015-08-12T19:57:02.000Z</time>
      </trkpt>
      <trkpt lat="45.46397" lon="5.98908">
        <ele>296.52838134766</ele>
        <time>2015-08-12T19:57:05.000Z</time>
      </trkpt>
      <trkpt lat="45.46394" lon="5.98917">
        <ele>296.50564575195</ele>
        <time>2015-08-12T19:57:07.000Z</time>
      </trkpt>
      <trkpt lat="45.46392" lon="5.98933">
        <ele>296.7389831543</ele>
        <time>2015-08-12T19:57:10.000Z</time>
      </trkpt>
      <trkpt lat="45.46395" lon="5.98955">
        <ele>296.91317749023</ele>
        <time>2015-08-12T19:57:13.000Z</time>
      </trkpt>
      <trkpt lat="45.46397" lon="5.98975">
        <ele>296.59539794922</ele>
        <time>2015-08-12T19:57:16.000Z</time>
      </trkpt>
      <trkpt lat="45.46397" lon="5.98988">
        <ele>296.66369628906</ele>
        <time>2015-08-12T19:57:18.000Z</time>
      </trkpt>
      <trkpt lat="45.46399" lon="5.99008">
        <ele>296.58917236328</ele>
        <time>2015-08-12T19:57:21.000Z</time>
      </trkpt>
      <trkpt lat="45.46398" lon="5.99026">
        <ele>296.59869384766</ele>
        <time>2015-08-12T19:57:24.000Z</time>
      </trkpt>
      <trkpt lat="45.46391" lon="5.99029">
        <ele>296.24993896484</ele>
        <time>2015-08-12T19:57:26.000Z</time>
      </trkpt>
      <trkpt lat="45.46379" lon="5.9903">
        <ele>296.76934814453</ele>
        <time>2015-08-12T19:57:29.000Z</time>
      </trkpt>
      <trkpt lat="45.46371" lon="5.9903">
        <ele>296.69921875</ele>
        <time>2015-08-12T19:57:31.000Z</time>
      </trkpt>
      <trkpt lat="45.46364" lon="5.99031">
        <ele>296.93612670898</ele>
        <time>2015-08-12T19:57:33.000Z</time>
      </trkpt>
      <trkpt lat="45.46353" lon="5.99031">
        <ele>296.97723388672</ele>
        <time>2015-08-12T19:57:36.000Z</time>
      </trkpt>
      <trkpt lat="45.46345" lon="5.99032">
        <ele>296.68600463867</ele>
        <time>2015-08-12T19:57:38.000Z</time>
      </trkpt>
      <trkpt lat="45.46335" lon="5.99037">
        <ele>296.44302368164</ele>
        <time>2015-08-12T19:57:41.000Z</time>
      </trkpt>
      <trkpt lat="45.46326" lon="5.99048">
        <ele>296.14291381836</ele>
        <time>2015-08-12T19:57:44.000Z</time>
      </trkpt>
      <trkpt lat="45.46317" lon="5.99058">
        <ele>296.45846557617</ele>
        <time>2015-08-12T19:57:47.000Z</time>
      </trkpt>
      <trkpt lat="45.46311" lon="5.99071">
        <ele>296.4992980957</ele>
        <time>2015-08-12T19:57:50.000Z</time>
      </trkpt>
      <trkpt lat="45.46315" lon="5.99087">
        <ele>295.97024536133</ele>
        <time>2015-08-12T19:57:53.000Z</time>
      </trkpt>
      <trkpt lat="45.46316" lon="5.99094">
        <ele>296.37619018555</ele>
        <time>2015-08-12T19:57:55.000Z</time>
      </trkpt>
      <trkpt lat="45.46318" lon="5.991">
        <ele>298.17269897461</ele>
        <time>2015-08-12T19:57:57.000Z</time>
      </trkpt>
      <trkpt lat="45.46323" lon="5.991">
        <ele>297.19256591797</ele>
        <time>2015-08-12T19:58:00.000Z</time>
      </trkpt>
      <trkpt lat="45.46325" lon="5.99098">
        <ele>296.65881347656</ele>
        <time>2015-08-12T19:58:02.000Z</time>
      </trkpt>
      <trkpt lat="45.46325" lon="5.99098">
        <ele>288.72897338867</ele>
        <time>2015-08-12T19:58:22.000Z</time>
      </trkpt>
    </trkseg>
  </trk>
</gpx>